<?xml version="1.0" encoding="UTF-8" standalone="no" ?>
<gpx xmlns="http://www.topografix.com/GPX/1/1" xmlns:xsi="http://www.w3.org/2001/XMLSchema-instance" xsi:schemaLocation="http://www.topografix.com/GPX/1/1 http://www.topografix.com/GPX/1/1/gpx.xsd" version="1.1" creator="VisuGPX - https://www.visugpx.com">
  <metadata>
    <name>Pornichet 18/07/2021</name>
    <desc><![CDATA[Sortie VTT du dimanche 18 juillet 2021]]></desc>
  </metadata>
  <trk>
    <name><![CDATA[Pornichet Cyclisme]]></name>
    <trkseg>
      <trkpt lat="47.26404" lon="-2.31569">
        <ele>9.5</ele>
        <time>2021-07-18T06:56:37.000Z</time>
      </trkpt>
      <trkpt lat="47.26405" lon="-2.31586">
        <ele>9.6</ele>
        <time>2021-07-18T06:56:40.000Z</time>
      </trkpt>
      <trkpt lat="47.26404" lon="-2.31592">
        <ele>2.2000000476837</ele>
        <time>2021-07-18T06:56:41.000Z</time>
      </trkpt>
      <trkpt lat="47.26404" lon="-2.31597">
        <ele>4.4000000953674</ele>
        <time>2021-07-18T06:56:42.000Z</time>
      </trkpt>
      <trkpt lat="47.26404" lon="-2.31603">
        <ele>9.1999998092651</ele>
        <time>2021-07-18T06:56:43.000Z</time>
      </trkpt>
      <trkpt lat="47.26406" lon="-2.31644">
        <ele>9.1999998092651</ele>
        <time>2021-07-18T06:56:50.000Z</time>
      </trkpt>
      <trkpt lat="47.26407" lon="-2.31656">
        <ele>9.1999998092651</ele>
        <time>2021-07-18T06:56:52.000Z</time>
      </trkpt>
      <trkpt lat="47.26402" lon="-2.31664">
        <ele>9.1999998092651</ele>
        <time>2021-07-18T06:56:54.000Z</time>
      </trkpt>
      <trkpt lat="47.26391" lon="-2.31669">
        <ele>9.1999998092651</ele>
        <time>2021-07-18T06:56:57.000Z</time>
      </trkpt>
      <trkpt lat="47.26387" lon="-2.31671">
        <ele>9.1999998092651</ele>
        <time>2021-07-18T06:56:58.000Z</time>
      </trkpt>
      <trkpt lat="47.26355" lon="-2.3169">
        <ele>9.1999998092651</ele>
        <time>2021-07-18T06:57:05.000Z</time>
      </trkpt>
      <trkpt lat="47.2635" lon="-2.31693">
        <ele>6.8000001907349</ele>
        <time>2021-07-18T06:57:06.000Z</time>
      </trkpt>
      <trkpt lat="47.26346" lon="-2.31695">
        <ele>4.5999999046326</ele>
        <time>2021-07-18T06:57:07.000Z</time>
      </trkpt>
      <trkpt lat="47.26341" lon="-2.31699">
        <ele>6.2</ele>
        <time>2021-07-18T06:57:08.000Z</time>
      </trkpt>
      <trkpt lat="47.26336" lon="-2.31702">
        <ele>-2.2000000476837</ele>
        <time>2021-07-18T06:57:09.000Z</time>
      </trkpt>
      <trkpt lat="47.2633" lon="-2.31704">
        <ele>-2.2000000476837</ele>
        <time>2021-07-18T06:57:10.000Z</time>
      </trkpt>
      <trkpt lat="47.26324" lon="-2.31707">
        <ele>-2.2000000476837</ele>
        <time>2021-07-18T06:57:11.000Z</time>
      </trkpt>
      <trkpt lat="47.26303" lon="-2.31717">
        <ele>-2.2000000476837</ele>
        <time>2021-07-18T06:57:15.000Z</time>
      </trkpt>
      <trkpt lat="47.26299" lon="-2.3172">
        <ele>-2.5999999046326</ele>
        <time>2021-07-18T06:57:16.000Z</time>
      </trkpt>
      <trkpt lat="47.26297" lon="-2.31726">
        <ele>-3.2000000476837</ele>
        <time>2021-07-18T06:57:17.000Z</time>
      </trkpt>
      <trkpt lat="47.26296" lon="-2.3173">
        <ele>-3.5999999046326</ele>
        <time>2021-07-18T06:57:18.000Z</time>
      </trkpt>
      <trkpt lat="47.26297" lon="-2.31736">
        <ele>-4</ele>
        <time>2021-07-18T06:57:19.000Z</time>
      </trkpt>
      <trkpt lat="47.26298" lon="-2.31742">
        <ele>-4.4000000953674</ele>
        <time>2021-07-18T06:57:20.000Z</time>
      </trkpt>
      <trkpt lat="47.26298" lon="-2.31749">
        <ele>-4.4000000953674</ele>
        <time>2021-07-18T06:57:21.000Z</time>
      </trkpt>
      <trkpt lat="47.263" lon="-2.31755">
        <ele>-4.4000000953674</ele>
        <time>2021-07-18T06:57:22.000Z</time>
      </trkpt>
      <trkpt lat="47.26302" lon="-2.31768">
        <ele>-4.4000000953674</ele>
        <time>2021-07-18T06:57:24.000Z</time>
      </trkpt>
      <trkpt lat="47.26303" lon="-2.3178">
        <ele>-4.4000000953674</ele>
        <time>2021-07-18T06:57:26.000Z</time>
      </trkpt>
      <trkpt lat="47.26304" lon="-2.31813">
        <ele>-4.4000000953674</ele>
        <time>2021-07-18T06:57:31.000Z</time>
      </trkpt>
      <trkpt lat="47.26303" lon="-2.31858">
        <ele>-4.4000000953674</ele>
        <time>2021-07-18T06:57:38.000Z</time>
      </trkpt>
      <trkpt lat="47.26297" lon="-2.31879">
        <ele>-4.4000000953674</ele>
        <time>2021-07-18T06:57:43.000Z</time>
      </trkpt>
      <trkpt lat="47.26281" lon="-2.31897">
        <ele>-4.4000000953674</ele>
        <time>2021-07-18T06:57:49.000Z</time>
      </trkpt>
      <trkpt lat="47.26267" lon="-2.31923">
        <ele>-4.4000000953674</ele>
        <time>2021-07-18T06:57:55.000Z</time>
      </trkpt>
      <trkpt lat="47.26256" lon="-2.31946">
        <ele>-4.4000000953674</ele>
        <time>2021-07-18T06:57:59.000Z</time>
      </trkpt>
      <trkpt lat="47.2624" lon="-2.31963">
        <ele>-4.4000000953674</ele>
        <time>2021-07-18T06:58:03.000Z</time>
      </trkpt>
      <trkpt lat="47.26236" lon="-2.31965">
        <ele>-4.4000000953674</ele>
        <time>2021-07-18T06:58:04.000Z</time>
      </trkpt>
      <trkpt lat="47.26223" lon="-2.31979">
        <ele>-4.4000000953674</ele>
        <time>2021-07-18T06:58:08.000Z</time>
      </trkpt>
      <trkpt lat="47.26206" lon="-2.31995">
        <ele>-4.4000000953674</ele>
        <time>2021-07-18T06:58:14.000Z</time>
      </trkpt>
      <trkpt lat="47.26206" lon="-2.31998">
        <ele>-4.4000000953674</ele>
        <time>2021-07-18T06:58:15.000Z</time>
      </trkpt>
      <trkpt lat="47.26206" lon="-2.32006">
        <ele>-4.4000000953674</ele>
        <time>2021-07-18T06:58:17.000Z</time>
      </trkpt>
      <trkpt lat="47.26206" lon="-2.3201">
        <ele>-4.4000000953674</ele>
        <time>2021-07-18T06:58:18.000Z</time>
      </trkpt>
      <trkpt lat="47.26203" lon="-2.32015">
        <ele>-4.4000000953674</ele>
        <time>2021-07-18T06:58:20.000Z</time>
      </trkpt>
      <trkpt lat="47.26199" lon="-2.32017">
        <ele>-4.4000000953674</ele>
        <time>2021-07-18T06:58:22.000Z</time>
      </trkpt>
      <trkpt lat="47.26177" lon="-2.32022">
        <ele>-4.4000000953674</ele>
        <time>2021-07-18T06:58:27.000Z</time>
      </trkpt>
      <trkpt lat="47.26173" lon="-2.32025">
        <ele>-4.4000000953674</ele>
        <time>2021-07-18T06:58:28.000Z</time>
      </trkpt>
      <trkpt lat="47.2616" lon="-2.32034">
        <ele>-4.4000000953674</ele>
        <time>2021-07-18T06:58:31.000Z</time>
      </trkpt>
      <trkpt lat="47.26158" lon="-2.3204">
        <ele>-4.4000000953674</ele>
        <time>2021-07-18T06:58:32.000Z</time>
      </trkpt>
      <trkpt lat="47.26151" lon="-2.32058">
        <ele>-4.4000000953674</ele>
        <time>2021-07-18T06:58:35.000Z</time>
      </trkpt>
      <trkpt lat="47.26144" lon="-2.32077">
        <ele>-4.4000000953674</ele>
        <time>2021-07-18T06:58:38.000Z</time>
      </trkpt>
      <trkpt lat="47.26131" lon="-2.32122">
        <ele>-4.4000000953674</ele>
        <time>2021-07-18T06:58:45.000Z</time>
      </trkpt>
      <trkpt lat="47.26126" lon="-2.32142">
        <ele>-4.4000000953674</ele>
        <time>2021-07-18T06:58:48.000Z</time>
      </trkpt>
      <trkpt lat="47.2612" lon="-2.32161">
        <ele>-4.4000000953674</ele>
        <time>2021-07-18T06:58:51.000Z</time>
      </trkpt>
      <trkpt lat="47.26103" lon="-2.32197">
        <ele>-4.4000000953674</ele>
        <time>2021-07-18T06:58:57.000Z</time>
      </trkpt>
      <trkpt lat="47.2608" lon="-2.32235">
        <ele>-4.4000000953674</ele>
        <time>2021-07-18T06:59:04.000Z</time>
      </trkpt>
      <trkpt lat="47.26049" lon="-2.32267">
        <ele>-4.4000000953674</ele>
        <time>2021-07-18T06:59:11.000Z</time>
      </trkpt>
      <trkpt lat="47.2601" lon="-2.32311">
        <ele>-4.4000000953674</ele>
        <time>2021-07-18T06:59:20.000Z</time>
      </trkpt>
      <trkpt lat="47.25979" lon="-2.32353">
        <ele>-4.4000000953674</ele>
        <time>2021-07-18T06:59:28.000Z</time>
      </trkpt>
      <trkpt lat="47.25941" lon="-2.32403">
        <ele>-4.4000000953674</ele>
        <time>2021-07-18T06:59:38.000Z</time>
      </trkpt>
      <trkpt lat="47.25912" lon="-2.32441">
        <ele>-4.4000000953674</ele>
        <time>2021-07-18T06:59:46.000Z</time>
      </trkpt>
      <trkpt lat="47.25891" lon="-2.32465">
        <ele>-4.4000000953674</ele>
        <time>2021-07-18T06:59:52.000Z</time>
      </trkpt>
      <trkpt lat="47.25883" lon="-2.32471">
        <ele>-4.4000000953674</ele>
        <time>2021-07-18T06:59:54.000Z</time>
      </trkpt>
      <trkpt lat="47.25863" lon="-2.32477">
        <ele>-4.4000000953674</ele>
        <time>2021-07-18T06:59:58.000Z</time>
      </trkpt>
      <trkpt lat="47.25847" lon="-2.32476">
        <ele>-4.4000000953674</ele>
        <time>2021-07-18T07:00:01.000Z</time>
      </trkpt>
      <trkpt lat="47.25832" lon="-2.32472">
        <ele>-4.4000000953674</ele>
        <time>2021-07-18T07:00:04.000Z</time>
      </trkpt>
      <trkpt lat="47.25807" lon="-2.32457">
        <ele>-4.4000000953674</ele>
        <time>2021-07-18T07:00:09.000Z</time>
      </trkpt>
      <trkpt lat="47.25789" lon="-2.32458">
        <ele>-4.4000000953674</ele>
        <time>2021-07-18T07:00:13.000Z</time>
      </trkpt>
      <trkpt lat="47.2578" lon="-2.32456">
        <ele>-4.4000000953674</ele>
        <time>2021-07-18T07:00:15.000Z</time>
      </trkpt>
      <trkpt lat="47.25777" lon="-2.32451">
        <ele>-4.4000000953674</ele>
        <time>2021-07-18T07:00:16.000Z</time>
      </trkpt>
      <trkpt lat="47.25774" lon="-2.32446">
        <ele>-4.4000000953674</ele>
        <time>2021-07-18T07:00:17.000Z</time>
      </trkpt>
      <trkpt lat="47.25756" lon="-2.32425">
        <ele>-4.4000000953674</ele>
        <time>2021-07-18T07:00:22.000Z</time>
      </trkpt>
      <trkpt lat="47.25745" lon="-2.32425">
        <ele>-4.4000000953674</ele>
        <time>2021-07-18T07:00:24.000Z</time>
      </trkpt>
      <trkpt lat="47.25733" lon="-2.32425">
        <ele>-4.4000000953674</ele>
        <time>2021-07-18T07:00:26.000Z</time>
      </trkpt>
      <trkpt lat="47.25693" lon="-2.32422">
        <ele>-4.4000000953674</ele>
        <time>2021-07-18T07:00:33.000Z</time>
      </trkpt>
      <trkpt lat="47.25679" lon="-2.32422">
        <ele>-4.4000000953674</ele>
        <time>2021-07-18T07:00:36.000Z</time>
      </trkpt>
      <trkpt lat="47.25668" lon="-2.32421">
        <ele>-4.4000000953674</ele>
        <time>2021-07-18T07:00:38.000Z</time>
      </trkpt>
      <trkpt lat="47.25663" lon="-2.32422">
        <ele>-4.4000000953674</ele>
        <time>2021-07-18T07:00:39.000Z</time>
      </trkpt>
      <trkpt lat="47.25654" lon="-2.32427">
        <ele>-4.4000000953674</ele>
        <time>2021-07-18T07:00:41.000Z</time>
      </trkpt>
      <trkpt lat="47.25657" lon="-2.32444">
        <ele>-4.4000000953674</ele>
        <time>2021-07-18T07:00:43.000Z</time>
      </trkpt>
      <trkpt lat="47.25663" lon="-2.3246">
        <ele>-4.4000000953674</ele>
        <time>2021-07-18T07:00:45.000Z</time>
      </trkpt>
      <trkpt lat="47.25665" lon="-2.32466">
        <ele>-4.4000000953674</ele>
        <time>2021-07-18T07:00:46.000Z</time>
      </trkpt>
      <trkpt lat="47.25675" lon="-2.32499">
        <ele>-4.4000000953674</ele>
        <time>2021-07-18T07:00:51.000Z</time>
      </trkpt>
      <trkpt lat="47.25679" lon="-2.32512">
        <ele>-4.4000000953674</ele>
        <time>2021-07-18T07:00:53.000Z</time>
      </trkpt>
      <trkpt lat="47.25686" lon="-2.32536">
        <ele>-4</ele>
        <time>2021-07-18T07:00:57.000Z</time>
      </trkpt>
      <trkpt lat="47.25688" lon="-2.32542">
        <ele>-3.5999999046326</ele>
        <time>2021-07-18T07:00:58.000Z</time>
      </trkpt>
      <trkpt lat="47.2569" lon="-2.32547">
        <ele>-3.2000000476837</ele>
        <time>2021-07-18T07:00:59.000Z</time>
      </trkpt>
      <trkpt lat="47.25692" lon="-2.32553">
        <ele>-2.7999999523163</ele>
        <time>2021-07-18T07:01:00.000Z</time>
      </trkpt>
      <trkpt lat="47.25694" lon="-2.32559">
        <ele>-2.2000000476837</ele>
        <time>2021-07-18T07:01:01.000Z</time>
      </trkpt>
      <trkpt lat="47.25696" lon="-2.32565">
        <ele>-2.2000000476837</ele>
        <time>2021-07-18T07:01:02.000Z</time>
      </trkpt>
      <trkpt lat="47.2571" lon="-2.32611">
        <ele>-2.2000000476837</ele>
        <time>2021-07-18T07:01:10.000Z</time>
      </trkpt>
      <trkpt lat="47.25709" lon="-2.32617">
        <ele>-2.2000000476837</ele>
        <time>2021-07-18T07:01:11.000Z</time>
      </trkpt>
      <trkpt lat="47.25698" lon="-2.32626">
        <ele>-2.2000000476837</ele>
        <time>2021-07-18T07:01:14.000Z</time>
      </trkpt>
      <trkpt lat="47.25674" lon="-2.32638">
        <ele>-2.2000000476837</ele>
        <time>2021-07-18T07:01:20.000Z</time>
      </trkpt>
      <trkpt lat="47.25667" lon="-2.32641">
        <ele>-1.7999999523163</ele>
        <time>2021-07-18T07:01:22.000Z</time>
      </trkpt>
      <trkpt lat="47.25662" lon="-2.32643">
        <ele>-1.3999999761581</ele>
        <time>2021-07-18T07:01:23.000Z</time>
      </trkpt>
      <trkpt lat="47.25659" lon="-2.32644">
        <ele>-1</ele>
        <time>2021-07-18T07:01:24.000Z</time>
      </trkpt>
      <trkpt lat="47.25655" lon="-2.32646">
        <ele>-0.60000002384186</ele>
        <time>2021-07-18T07:01:25.000Z</time>
      </trkpt>
      <trkpt lat="47.25651" lon="-2.32648">
        <ele>-0.20000000298023</ele>
        <time>2021-07-18T07:01:26.000Z</time>
      </trkpt>
      <trkpt lat="47.25643" lon="-2.32651">
        <ele>-0.20000000298023</ele>
        <time>2021-07-18T07:01:28.000Z</time>
      </trkpt>
      <trkpt lat="47.25606" lon="-2.32668">
        <ele>-0.20000000298023</ele>
        <time>2021-07-18T07:01:37.000Z</time>
      </trkpt>
      <trkpt lat="47.25602" lon="-2.32669">
        <ele>0.20000000298023</ele>
        <time>2021-07-18T07:01:38.000Z</time>
      </trkpt>
      <trkpt lat="47.25598" lon="-2.32671">
        <ele>1</ele>
        <time>2021-07-18T07:01:39.000Z</time>
      </trkpt>
      <trkpt lat="47.25594" lon="-2.32672">
        <ele>1.3999999761581</ele>
        <time>2021-07-18T07:01:40.000Z</time>
      </trkpt>
      <trkpt lat="47.2559" lon="-2.32674">
        <ele>1.7999999523163</ele>
        <time>2021-07-18T07:01:41.000Z</time>
      </trkpt>
      <trkpt lat="47.25581" lon="-2.32677">
        <ele>1.7999999523163</ele>
        <time>2021-07-18T07:01:43.000Z</time>
      </trkpt>
      <trkpt lat="47.25576" lon="-2.32679">
        <ele>1.7999999523163</ele>
        <time>2021-07-18T07:01:44.000Z</time>
      </trkpt>
      <trkpt lat="47.25532" lon="-2.32699">
        <ele>1.7999999523163</ele>
        <time>2021-07-18T07:01:53.000Z</time>
      </trkpt>
      <trkpt lat="47.25501" lon="-2.32704">
        <ele>1.7999999523163</ele>
        <time>2021-07-18T07:01:59.000Z</time>
      </trkpt>
      <trkpt lat="47.25496" lon="-2.32705">
        <ele>1.7999999523163</ele>
        <time>2021-07-18T07:02:00.000Z</time>
      </trkpt>
      <trkpt lat="47.25477" lon="-2.32713">
        <ele>1.7999999523163</ele>
        <time>2021-07-18T07:02:04.000Z</time>
      </trkpt>
      <trkpt lat="47.25465" lon="-2.32727">
        <ele>1.7999999523163</ele>
        <time>2021-07-18T07:02:07.000Z</time>
      </trkpt>
      <trkpt lat="47.25461" lon="-2.32732">
        <ele>1.7999999523163</ele>
        <time>2021-07-18T07:02:08.000Z</time>
      </trkpt>
      <trkpt lat="47.25442" lon="-2.32759">
        <ele>1.7999999523163</ele>
        <time>2021-07-18T07:02:13.000Z</time>
      </trkpt>
      <trkpt lat="47.25436" lon="-2.32772">
        <ele>1.7999999523163</ele>
        <time>2021-07-18T07:02:15.000Z</time>
      </trkpt>
      <trkpt lat="47.2543" lon="-2.32785">
        <ele>1.7999999523163</ele>
        <time>2021-07-18T07:02:17.000Z</time>
      </trkpt>
      <trkpt lat="47.25419" lon="-2.32802">
        <ele>1.7999999523163</ele>
        <time>2021-07-18T07:02:20.000Z</time>
      </trkpt>
      <trkpt lat="47.25388" lon="-2.32844">
        <ele>1.7999999523163</ele>
        <time>2021-07-18T07:02:27.000Z</time>
      </trkpt>
      <trkpt lat="47.25384" lon="-2.32849">
        <ele>1.3999999761581</ele>
        <time>2021-07-18T07:02:28.000Z</time>
      </trkpt>
      <trkpt lat="47.25379" lon="-2.32855">
        <ele>0.60000002384186</ele>
        <time>2021-07-18T07:02:29.000Z</time>
      </trkpt>
      <trkpt lat="47.25374" lon="-2.3286">
        <ele>0.20000000298023</ele>
        <time>2021-07-18T07:02:30.000Z</time>
      </trkpt>
      <trkpt lat="47.25369" lon="-2.32866">
        <ele>-0.20000000298023</ele>
        <time>2021-07-18T07:02:31.000Z</time>
      </trkpt>
      <trkpt lat="47.25344" lon="-2.3289">
        <ele>-0.20000000298023</ele>
        <time>2021-07-18T07:02:36.000Z</time>
      </trkpt>
      <trkpt lat="47.25319" lon="-2.32915">
        <ele>-0.20000000298023</ele>
        <time>2021-07-18T07:02:41.000Z</time>
      </trkpt>
      <trkpt lat="47.25311" lon="-2.32926">
        <ele>-0.20000000298023</ele>
        <time>2021-07-18T07:02:43.000Z</time>
      </trkpt>
      <trkpt lat="47.25309" lon="-2.3295">
        <ele>-0.20000000298023</ele>
        <time>2021-07-18T07:02:46.000Z</time>
      </trkpt>
      <trkpt lat="47.25314" lon="-2.32965">
        <ele>-0.20000000298023</ele>
        <time>2021-07-18T07:02:48.000Z</time>
      </trkpt>
      <trkpt lat="47.25323" lon="-2.32986">
        <ele>-0.20000000298023</ele>
        <time>2021-07-18T07:02:51.000Z</time>
      </trkpt>
      <trkpt lat="47.25344" lon="-2.33042">
        <ele>-0.20000000298023</ele>
        <time>2021-07-18T07:02:59.000Z</time>
      </trkpt>
      <trkpt lat="47.25358" lon="-2.33078">
        <ele>-0.20000000298023</ele>
        <time>2021-07-18T07:03:05.000Z</time>
      </trkpt>
      <trkpt lat="47.25362" lon="-2.33096">
        <ele>-0.60000002384186</ele>
        <time>2021-07-18T07:03:09.000Z</time>
      </trkpt>
      <trkpt lat="47.25362" lon="-2.33098">
        <ele>-1</ele>
        <time>2021-07-18T07:03:10.000Z</time>
      </trkpt>
      <trkpt lat="47.25362" lon="-2.33099">
        <ele>-1.3999999761581</ele>
        <time>2021-07-18T07:03:11.000Z</time>
      </trkpt>
      <trkpt lat="47.25362" lon="-2.33099">
        <ele>-1.7999999523163</ele>
        <time>2021-07-18T07:03:12.000Z</time>
      </trkpt>
      <trkpt lat="47.25366" lon="-2.33101">
        <ele>-6.4000000953674</ele>
        <time>2021-07-18T07:11:18.000Z</time>
      </trkpt>
      <trkpt lat="47.25372" lon="-2.3311">
        <ele>-6.4000000953674</ele>
        <time>2021-07-18T07:11:23.000Z</time>
      </trkpt>
      <trkpt lat="47.25373" lon="-2.33113">
        <ele>-6.4000000953674</ele>
        <time>2021-07-18T07:11:24.000Z</time>
      </trkpt>
      <trkpt lat="47.2538" lon="-2.33131">
        <ele>-6.4000000953674</ele>
        <time>2021-07-18T07:11:30.000Z</time>
      </trkpt>
      <trkpt lat="47.25385" lon="-2.33136">
        <ele>-6.4000000953674</ele>
        <time>2021-07-18T07:11:32.000Z</time>
      </trkpt>
      <trkpt lat="47.25391" lon="-2.33133">
        <ele>-6.4000000953674</ele>
        <time>2021-07-18T07:11:34.000Z</time>
      </trkpt>
      <trkpt lat="47.25413" lon="-2.33122">
        <ele>-6.4000000953674</ele>
        <time>2021-07-18T07:11:41.000Z</time>
      </trkpt>
      <trkpt lat="47.25432" lon="-2.33116">
        <ele>-6.4000000953674</ele>
        <time>2021-07-18T07:11:47.000Z</time>
      </trkpt>
      <trkpt lat="47.25451" lon="-2.33107">
        <ele>-6.4000000953674</ele>
        <time>2021-07-18T07:11:53.000Z</time>
      </trkpt>
      <trkpt lat="47.25471" lon="-2.33098">
        <ele>-6.4000000953674</ele>
        <time>2021-07-18T07:11:59.000Z</time>
      </trkpt>
      <trkpt lat="47.25493" lon="-2.33079">
        <ele>-6.4000000953674</ele>
        <time>2021-07-18T07:12:06.000Z</time>
      </trkpt>
      <trkpt lat="47.25514" lon="-2.33055">
        <ele>-6.4000000953674</ele>
        <time>2021-07-18T07:12:12.000Z</time>
      </trkpt>
      <trkpt lat="47.25522" lon="-2.33048">
        <ele>-6.4000000953674</ele>
        <time>2021-07-18T07:12:14.000Z</time>
      </trkpt>
      <trkpt lat="47.25535" lon="-2.33044">
        <ele>-6.4000000953674</ele>
        <time>2021-07-18T07:12:17.000Z</time>
      </trkpt>
      <trkpt lat="47.25567" lon="-2.33034">
        <ele>-6.4000000953674</ele>
        <time>2021-07-18T07:12:25.000Z</time>
      </trkpt>
      <trkpt lat="47.25579" lon="-2.33031">
        <ele>-6</ele>
        <time>2021-07-18T07:12:28.000Z</time>
      </trkpt>
      <trkpt lat="47.25583" lon="-2.3303">
        <ele>-5.5999999046326</ele>
        <time>2021-07-18T07:12:29.000Z</time>
      </trkpt>
      <trkpt lat="47.25587" lon="-2.33029">
        <ele>-5.1999998092651</ele>
        <time>2021-07-18T07:12:30.000Z</time>
      </trkpt>
      <trkpt lat="47.25591" lon="-2.33028">
        <ele>-4.8000001907349</ele>
        <time>2021-07-18T07:12:31.000Z</time>
      </trkpt>
      <trkpt lat="47.25595" lon="-2.33028">
        <ele>-4.4000000953674</ele>
        <time>2021-07-18T07:12:32.000Z</time>
      </trkpt>
      <trkpt lat="47.25599" lon="-2.33028">
        <ele>-4.4000000953674</ele>
        <time>2021-07-18T07:12:33.000Z</time>
      </trkpt>
      <trkpt lat="47.25614" lon="-2.33025">
        <ele>-4.4000000953674</ele>
        <time>2021-07-18T07:12:38.000Z</time>
      </trkpt>
      <trkpt lat="47.25616" lon="-2.33019">
        <ele>-4.4000000953674</ele>
        <time>2021-07-18T07:12:39.000Z</time>
      </trkpt>
      <trkpt lat="47.25613" lon="-2.32997">
        <ele>-4.4000000953674</ele>
        <time>2021-07-18T07:12:42.000Z</time>
      </trkpt>
      <trkpt lat="47.25607" lon="-2.3296">
        <ele>-3.7999999523163</ele>
        <time>2021-07-18T07:12:48.000Z</time>
      </trkpt>
      <trkpt lat="47.25606" lon="-2.32954">
        <ele>-3.4000000953674</ele>
        <time>2021-07-18T07:12:49.000Z</time>
      </trkpt>
      <trkpt lat="47.25605" lon="-2.32948">
        <ele>-3</ele>
        <time>2021-07-18T07:12:50.000Z</time>
      </trkpt>
      <trkpt lat="47.25605" lon="-2.32941">
        <ele>-2.5999999046326</ele>
        <time>2021-07-18T07:12:51.000Z</time>
      </trkpt>
      <trkpt lat="47.25604" lon="-2.32935">
        <ele>-2</ele>
        <time>2021-07-18T07:12:52.000Z</time>
      </trkpt>
      <trkpt lat="47.25601" lon="-2.32916">
        <ele>-2</ele>
        <time>2021-07-18T07:12:55.000Z</time>
      </trkpt>
      <trkpt lat="47.25594" lon="-2.32858">
        <ele>-2</ele>
        <time>2021-07-18T07:13:04.000Z</time>
      </trkpt>
      <trkpt lat="47.25592" lon="-2.32846">
        <ele>-2</ele>
        <time>2021-07-18T07:13:06.000Z</time>
      </trkpt>
      <trkpt lat="47.25592" lon="-2.32819">
        <ele>-2</ele>
        <time>2021-07-18T07:13:10.000Z</time>
      </trkpt>
      <trkpt lat="47.25593" lon="-2.32812">
        <ele>-2</ele>
        <time>2021-07-18T07:13:11.000Z</time>
      </trkpt>
      <trkpt lat="47.25599" lon="-2.3277">
        <ele>-2</ele>
        <time>2021-07-18T07:13:17.000Z</time>
      </trkpt>
      <trkpt lat="47.25601" lon="-2.32726">
        <ele>-2</ele>
        <time>2021-07-18T07:13:24.000Z</time>
      </trkpt>
      <trkpt lat="47.25602" lon="-2.3268">
        <ele>-2</ele>
        <time>2021-07-18T07:13:32.000Z</time>
      </trkpt>
      <trkpt lat="47.25602" lon="-2.32669">
        <ele>-2</ele>
        <time>2021-07-18T07:13:35.000Z</time>
      </trkpt>
      <trkpt lat="47.25604" lon="-2.32665">
        <ele>-2</ele>
        <time>2021-07-18T07:13:36.000Z</time>
      </trkpt>
      <trkpt lat="47.25617" lon="-2.32657">
        <ele>-2</ele>
        <time>2021-07-18T07:13:40.000Z</time>
      </trkpt>
      <trkpt lat="47.25626" lon="-2.32653">
        <ele>-2</ele>
        <time>2021-07-18T07:13:42.000Z</time>
      </trkpt>
      <trkpt lat="47.25645" lon="-2.32646">
        <ele>-2</ele>
        <time>2021-07-18T07:13:46.000Z</time>
      </trkpt>
      <trkpt lat="47.25678" lon="-2.32633">
        <ele>-2</ele>
        <time>2021-07-18T07:13:53.000Z</time>
      </trkpt>
      <trkpt lat="47.25692" lon="-2.32628">
        <ele>-2.5999999046326</ele>
        <time>2021-07-18T07:13:56.000Z</time>
      </trkpt>
      <trkpt lat="47.25696" lon="-2.32626">
        <ele>-3</ele>
        <time>2021-07-18T07:13:57.000Z</time>
      </trkpt>
      <trkpt lat="47.25701" lon="-2.32624">
        <ele>-3.4000000953674</ele>
        <time>2021-07-18T07:13:58.000Z</time>
      </trkpt>
      <trkpt lat="47.25705" lon="-2.32621">
        <ele>-3.7999999523163</ele>
        <time>2021-07-18T07:13:59.000Z</time>
      </trkpt>
      <trkpt lat="47.25708" lon="-2.32617">
        <ele>-4.1999998092651</ele>
        <time>2021-07-18T07:14:00.000Z</time>
      </trkpt>
      <trkpt lat="47.25712" lon="-2.32599">
        <ele>-4.1999998092651</ele>
        <time>2021-07-18T07:14:03.000Z</time>
      </trkpt>
      <trkpt lat="47.25711" lon="-2.32588">
        <ele>-4.1999998092651</ele>
        <time>2021-07-18T07:14:05.000Z</time>
      </trkpt>
      <trkpt lat="47.25709" lon="-2.32582">
        <ele>-4.1999998092651</ele>
        <time>2021-07-18T07:14:06.000Z</time>
      </trkpt>
      <trkpt lat="47.25704" lon="-2.32569">
        <ele>-4.1999998092651</ele>
        <time>2021-07-18T07:14:08.000Z</time>
      </trkpt>
      <trkpt lat="47.25689" lon="-2.32528">
        <ele>-4.5999999046326</ele>
        <time>2021-07-18T07:14:14.000Z</time>
      </trkpt>
      <trkpt lat="47.25686" lon="-2.3252">
        <ele>-5</ele>
        <time>2021-07-18T07:14:15.000Z</time>
      </trkpt>
      <trkpt lat="47.25683" lon="-2.32513">
        <ele>-5.4000000953674</ele>
        <time>2021-07-18T07:14:16.000Z</time>
      </trkpt>
      <trkpt lat="47.25681" lon="-2.32505">
        <ele>-5.8000001907349</ele>
        <time>2021-07-18T07:14:17.000Z</time>
      </trkpt>
      <trkpt lat="47.25678" lon="-2.32497">
        <ele>-6.1999998092651</ele>
        <time>2021-07-18T07:14:18.000Z</time>
      </trkpt>
      <trkpt lat="47.25663" lon="-2.32449">
        <ele>-6.1999998092651</ele>
        <time>2021-07-18T07:14:24.000Z</time>
      </trkpt>
      <trkpt lat="47.25661" lon="-2.3244">
        <ele>-6.1999998092651</ele>
        <time>2021-07-18T07:14:25.000Z</time>
      </trkpt>
      <trkpt lat="47.25659" lon="-2.32433">
        <ele>-6.8000001907349</ele>
        <time>2021-07-18T07:14:26.000Z</time>
      </trkpt>
      <trkpt lat="47.25658" lon="-2.3243">
        <ele>-7.1999998092651</ele>
        <time>2021-07-18T07:14:27.000Z</time>
      </trkpt>
      <trkpt lat="47.25658" lon="-2.32429">
        <ele>-7.5999999046326</ele>
        <time>2021-07-18T07:14:28.000Z</time>
      </trkpt>
      <trkpt lat="47.25658" lon="-2.32427">
        <ele>-8</ele>
        <time>2021-07-18T07:14:29.000Z</time>
      </trkpt>
      <trkpt lat="47.25657" lon="-2.32425">
        <ele>-8.3999996185303</ele>
        <time>2021-07-18T07:14:30.000Z</time>
      </trkpt>
      <trkpt lat="47.25654" lon="-2.32412">
        <ele>-8.3999996185303</ele>
        <time>2021-07-18T07:14:34.000Z</time>
      </trkpt>
      <trkpt lat="47.25655" lon="-2.32407">
        <ele>-8.3999996185303</ele>
        <time>2021-07-18T07:14:35.000Z</time>
      </trkpt>
      <trkpt lat="47.25661" lon="-2.32402">
        <ele>-8.3999996185303</ele>
        <time>2021-07-18T07:14:37.000Z</time>
      </trkpt>
      <trkpt lat="47.25671" lon="-2.32413">
        <ele>-8.3999996185303</ele>
        <time>2021-07-18T07:14:40.000Z</time>
      </trkpt>
      <trkpt lat="47.25675" lon="-2.32417">
        <ele>-8.3999996185303</ele>
        <time>2021-07-18T07:14:41.000Z</time>
      </trkpt>
      <trkpt lat="47.25689" lon="-2.3242">
        <ele>-8.3999996185303</ele>
        <time>2021-07-18T07:14:44.000Z</time>
      </trkpt>
      <trkpt lat="47.25694" lon="-2.3242">
        <ele>-8.3999996185303</ele>
        <time>2021-07-18T07:14:45.000Z</time>
      </trkpt>
      <trkpt lat="47.2572" lon="-2.32421">
        <ele>-8.3999996185303</ele>
        <time>2021-07-18T07:14:50.000Z</time>
      </trkpt>
      <trkpt lat="47.2574" lon="-2.32423">
        <ele>-8.8000001907349</ele>
        <time>2021-07-18T07:14:54.000Z</time>
      </trkpt>
      <trkpt lat="47.25746" lon="-2.32423">
        <ele>-9.1999998092651</ele>
        <time>2021-07-18T07:14:55.000Z</time>
      </trkpt>
      <trkpt lat="47.2575" lon="-2.32423">
        <ele>-9.6000003814697</ele>
        <time>2021-07-18T07:14:56.000Z</time>
      </trkpt>
      <trkpt lat="47.25755" lon="-2.32423">
        <ele>-10</ele>
        <time>2021-07-18T07:14:57.000Z</time>
      </trkpt>
      <trkpt lat="47.2576" lon="-2.32423">
        <ele>-10.39999961853</ele>
        <time>2021-07-18T07:14:58.000Z</time>
      </trkpt>
      <trkpt lat="47.25769" lon="-2.3242">
        <ele>-10.39999961853</ele>
        <time>2021-07-18T07:15:00.000Z</time>
      </trkpt>
      <trkpt lat="47.25773" lon="-2.32417">
        <ele>-10.39999961853</ele>
        <time>2021-07-18T07:15:01.000Z</time>
      </trkpt>
      <trkpt lat="47.25781" lon="-2.32415">
        <ele>-10.39999961853</ele>
        <time>2021-07-18T07:15:03.000Z</time>
      </trkpt>
      <trkpt lat="47.25788" lon="-2.32423">
        <ele>-10.39999961853</ele>
        <time>2021-07-18T07:15:05.000Z</time>
      </trkpt>
      <trkpt lat="47.25797" lon="-2.3244">
        <ele>-10.39999961853</ele>
        <time>2021-07-18T07:15:08.000Z</time>
      </trkpt>
      <trkpt lat="47.25806" lon="-2.32451">
        <ele>-10.39999961853</ele>
        <time>2021-07-18T07:15:10.000Z</time>
      </trkpt>
      <trkpt lat="47.25831" lon="-2.32466">
        <ele>-10.39999961853</ele>
        <time>2021-07-18T07:15:14.000Z</time>
      </trkpt>
      <trkpt lat="47.25843" lon="-2.32471">
        <ele>-10.39999961853</ele>
        <time>2021-07-18T07:15:16.000Z</time>
      </trkpt>
      <trkpt lat="47.25863" lon="-2.32473">
        <ele>-10.39999961853</ele>
        <time>2021-07-18T07:15:19.000Z</time>
      </trkpt>
      <trkpt lat="47.25893" lon="-2.32466">
        <ele>-10.39999961853</ele>
        <time>2021-07-18T07:15:24.000Z</time>
      </trkpt>
      <trkpt lat="47.25915" lon="-2.32444">
        <ele>-10.39999961853</ele>
        <time>2021-07-18T07:15:28.000Z</time>
      </trkpt>
      <trkpt lat="47.25938" lon="-2.32412">
        <ele>-10.39999961853</ele>
        <time>2021-07-18T07:15:33.000Z</time>
      </trkpt>
      <trkpt lat="47.25969" lon="-2.3237">
        <ele>-10.39999961853</ele>
        <time>2021-07-18T07:15:40.000Z</time>
      </trkpt>
      <trkpt lat="47.2601" lon="-2.32316">
        <ele>-10.39999961853</ele>
        <time>2021-07-18T07:15:49.000Z</time>
      </trkpt>
      <trkpt lat="47.26037" lon="-2.32283">
        <ele>-10.39999961853</ele>
        <time>2021-07-18T07:15:55.000Z</time>
      </trkpt>
      <trkpt lat="47.26066" lon="-2.3225">
        <ele>-10.39999961853</ele>
        <time>2021-07-18T07:16:02.000Z</time>
      </trkpt>
      <trkpt lat="47.26092" lon="-2.32214">
        <ele>-10.39999961853</ele>
        <time>2021-07-18T07:16:09.000Z</time>
      </trkpt>
      <trkpt lat="47.2611" lon="-2.32173">
        <ele>-10.39999961853</ele>
        <time>2021-07-18T07:16:15.000Z</time>
      </trkpt>
      <trkpt lat="47.26127" lon="-2.32129">
        <ele>-10.39999961853</ele>
        <time>2021-07-18T07:16:21.000Z</time>
      </trkpt>
      <trkpt lat="47.26129" lon="-2.32121">
        <ele>-10.39999961853</ele>
        <time>2021-07-18T07:16:22.000Z</time>
      </trkpt>
      <trkpt lat="47.26149" lon="-2.32058">
        <ele>-10.39999961853</ele>
        <time>2021-07-18T07:16:30.000Z</time>
      </trkpt>
      <trkpt lat="47.26162" lon="-2.3202">
        <ele>-10.39999961853</ele>
        <time>2021-07-18T07:16:36.000Z</time>
      </trkpt>
      <trkpt lat="47.26165" lon="-2.32018">
        <ele>-10.39999961853</ele>
        <time>2021-07-18T07:16:37.000Z</time>
      </trkpt>
      <trkpt lat="47.2617" lon="-2.32019">
        <ele>-10.39999961853</ele>
        <time>2021-07-18T07:16:39.000Z</time>
      </trkpt>
      <trkpt lat="47.26185" lon="-2.32024">
        <ele>-10.39999961853</ele>
        <time>2021-07-18T07:16:46.000Z</time>
      </trkpt>
      <trkpt lat="47.26195" lon="-2.32023">
        <ele>-10.39999961853</ele>
        <time>2021-07-18T07:16:51.000Z</time>
      </trkpt>
      <trkpt lat="47.26195" lon="-2.32019">
        <ele>-10.39999961853</ele>
        <time>2021-07-18T07:16:52.000Z</time>
      </trkpt>
      <trkpt lat="47.26201" lon="-2.32004">
        <ele>-10.39999961853</ele>
        <time>2021-07-18T07:16:56.000Z</time>
      </trkpt>
      <trkpt lat="47.26203" lon="-2.32002">
        <ele>-10.39999961853</ele>
        <time>2021-07-18T07:16:57.000Z</time>
      </trkpt>
      <trkpt lat="47.26216" lon="-2.31989">
        <ele>-10.39999961853</ele>
        <time>2021-07-18T07:17:02.000Z</time>
      </trkpt>
      <trkpt lat="47.26223" lon="-2.31982">
        <ele>-10.39999961853</ele>
        <time>2021-07-18T07:17:05.000Z</time>
      </trkpt>
      <trkpt lat="47.26229" lon="-2.31981">
        <ele>-10.39999961853</ele>
        <time>2021-07-18T07:17:07.000Z</time>
      </trkpt>
      <trkpt lat="47.26232" lon="-2.31979">
        <ele>-10.39999961853</ele>
        <time>2021-07-18T07:17:08.000Z</time>
      </trkpt>
      <trkpt lat="47.26236" lon="-2.31972">
        <ele>-10.39999961853</ele>
        <time>2021-07-18T07:17:10.000Z</time>
      </trkpt>
      <trkpt lat="47.26247" lon="-2.3195">
        <ele>-10.39999961853</ele>
        <time>2021-07-18T07:17:16.000Z</time>
      </trkpt>
      <trkpt lat="47.26252" lon="-2.3194">
        <ele>-10.39999961853</ele>
        <time>2021-07-18T07:17:18.000Z</time>
      </trkpt>
      <trkpt lat="47.26261" lon="-2.31927">
        <ele>-10.39999961853</ele>
        <time>2021-07-18T07:17:21.000Z</time>
      </trkpt>
      <trkpt lat="47.26271" lon="-2.31917">
        <ele>-10.39999961853</ele>
        <time>2021-07-18T07:17:23.000Z</time>
      </trkpt>
      <trkpt lat="47.26279" lon="-2.31908">
        <ele>-10.39999961853</ele>
        <time>2021-07-18T07:17:25.000Z</time>
      </trkpt>
      <trkpt lat="47.2629" lon="-2.31905">
        <ele>-10.39999961853</ele>
        <time>2021-07-18T07:17:28.000Z</time>
      </trkpt>
      <trkpt lat="47.26293" lon="-2.31907">
        <ele>-10.39999961853</ele>
        <time>2021-07-18T07:17:29.000Z</time>
      </trkpt>
      <trkpt lat="47.26296" lon="-2.31921">
        <ele>-10.39999961853</ele>
        <time>2021-07-18T07:17:32.000Z</time>
      </trkpt>
      <trkpt lat="47.26302" lon="-2.31933">
        <ele>-10.39999961853</ele>
        <time>2021-07-18T07:17:35.000Z</time>
      </trkpt>
      <trkpt lat="47.26307" lon="-2.31935">
        <ele>-10.39999961853</ele>
        <time>2021-07-18T07:17:36.000Z</time>
      </trkpt>
      <trkpt lat="47.26323" lon="-2.31931">
        <ele>-10.39999961853</ele>
        <time>2021-07-18T07:17:40.000Z</time>
      </trkpt>
      <trkpt lat="47.26339" lon="-2.31933">
        <ele>-10.39999961853</ele>
        <time>2021-07-18T07:17:44.000Z</time>
      </trkpt>
      <trkpt lat="47.26341" lon="-2.31937">
        <ele>-10.39999961853</ele>
        <time>2021-07-18T07:17:45.000Z</time>
      </trkpt>
      <trkpt lat="47.2635" lon="-2.31965">
        <ele>-10.39999961853</ele>
        <time>2021-07-18T07:17:49.000Z</time>
      </trkpt>
      <trkpt lat="47.26362" lon="-2.31985">
        <ele>-10.39999961853</ele>
        <time>2021-07-18T07:17:53.000Z</time>
      </trkpt>
      <trkpt lat="47.26366" lon="-2.31986">
        <ele>-10.39999961853</ele>
        <time>2021-07-18T07:17:54.000Z</time>
      </trkpt>
      <trkpt lat="47.2637" lon="-2.31987">
        <ele>-10</ele>
        <time>2021-07-18T07:17:55.000Z</time>
      </trkpt>
      <trkpt lat="47.26374" lon="-2.31987">
        <ele>-9.6000003814697</ele>
        <time>2021-07-18T07:17:56.000Z</time>
      </trkpt>
      <trkpt lat="47.26378" lon="-2.31987">
        <ele>-9.1999998092651</ele>
        <time>2021-07-18T07:17:57.000Z</time>
      </trkpt>
      <trkpt lat="47.26382" lon="-2.31987">
        <ele>-8.8000001907349</ele>
        <time>2021-07-18T07:17:58.000Z</time>
      </trkpt>
      <trkpt lat="47.26385" lon="-2.31989">
        <ele>-8.3999996185303</ele>
        <time>2021-07-18T07:17:59.000Z</time>
      </trkpt>
      <trkpt lat="47.26389" lon="-2.3199">
        <ele>-8.3999996185303</ele>
        <time>2021-07-18T07:18:00.000Z</time>
      </trkpt>
      <trkpt lat="47.264" lon="-2.31993">
        <ele>-8</ele>
        <time>2021-07-18T07:18:03.000Z</time>
      </trkpt>
      <trkpt lat="47.26404" lon="-2.31992">
        <ele>-7.5999999046326</ele>
        <time>2021-07-18T07:18:04.000Z</time>
      </trkpt>
      <trkpt lat="47.26407" lon="-2.31992">
        <ele>-7.1999998092651</ele>
        <time>2021-07-18T07:18:05.000Z</time>
      </trkpt>
      <trkpt lat="47.26411" lon="-2.31993">
        <ele>-6.8000001907349</ele>
        <time>2021-07-18T07:18:06.000Z</time>
      </trkpt>
      <trkpt lat="47.26416" lon="-2.31994">
        <ele>-6.4000000953674</ele>
        <time>2021-07-18T07:18:07.000Z</time>
      </trkpt>
      <trkpt lat="47.26437" lon="-2.31995">
        <ele>-6</ele>
        <time>2021-07-18T07:18:12.000Z</time>
      </trkpt>
      <trkpt lat="47.26441" lon="-2.31996">
        <ele>-5.4000000953674</ele>
        <time>2021-07-18T07:18:13.000Z</time>
      </trkpt>
      <trkpt lat="47.26444" lon="-2.31997">
        <ele>-5</ele>
        <time>2021-07-18T07:18:14.000Z</time>
      </trkpt>
      <trkpt lat="47.26448" lon="-2.31997">
        <ele>-4.5999999046326</ele>
        <time>2021-07-18T07:18:15.000Z</time>
      </trkpt>
      <trkpt lat="47.26452" lon="-2.31998">
        <ele>-4.1999998092651</ele>
        <time>2021-07-18T07:18:16.000Z</time>
      </trkpt>
      <trkpt lat="47.26458" lon="-2.31997">
        <ele>-4.1999998092651</ele>
        <time>2021-07-18T07:18:18.000Z</time>
      </trkpt>
      <trkpt lat="47.26474" lon="-2.31997">
        <ele>-3.7999999523163</ele>
        <time>2021-07-18T07:18:22.000Z</time>
      </trkpt>
      <trkpt lat="47.26479" lon="-2.31998">
        <ele>-3.4000000953674</ele>
        <time>2021-07-18T07:18:23.000Z</time>
      </trkpt>
      <trkpt lat="47.26483" lon="-2.31998">
        <ele>-3</ele>
        <time>2021-07-18T07:18:24.000Z</time>
      </trkpt>
      <trkpt lat="47.26487" lon="-2.31998">
        <ele>-2.2000000476837</ele>
        <time>2021-07-18T07:18:25.000Z</time>
      </trkpt>
      <trkpt lat="47.26507" lon="-2.31998">
        <ele>-2.2000000476837</ele>
        <time>2021-07-18T07:18:30.000Z</time>
      </trkpt>
      <trkpt lat="47.2651" lon="-2.31997">
        <ele>-1.6000000238419</ele>
        <time>2021-07-18T07:18:31.000Z</time>
      </trkpt>
      <trkpt lat="47.26512" lon="-2.31997">
        <ele>-1.2000000476837</ele>
        <time>2021-07-18T07:18:32.000Z</time>
      </trkpt>
      <trkpt lat="47.26515" lon="-2.31997">
        <ele>-0.80000001192093</ele>
        <time>2021-07-18T07:18:33.000Z</time>
      </trkpt>
      <trkpt lat="47.26517" lon="-2.31998">
        <ele>-0.20000000298023</ele>
        <time>2021-07-18T07:18:34.000Z</time>
      </trkpt>
      <trkpt lat="47.2652" lon="-2.31998">
        <ele>0.20000000298023</ele>
        <time>2021-07-18T07:18:35.000Z</time>
      </trkpt>
      <trkpt lat="47.26533" lon="-2.32009">
        <ele>0.60000002384186</ele>
        <time>2021-07-18T07:18:40.000Z</time>
      </trkpt>
      <trkpt lat="47.26535" lon="-2.32012">
        <ele>1</ele>
        <time>2021-07-18T07:18:41.000Z</time>
      </trkpt>
      <trkpt lat="47.26537" lon="-2.32015">
        <ele>1.3999999761581</ele>
        <time>2021-07-18T07:18:42.000Z</time>
      </trkpt>
      <trkpt lat="47.2654" lon="-2.32018">
        <ele>2</ele>
        <time>2021-07-18T07:18:43.000Z</time>
      </trkpt>
      <trkpt lat="47.26541" lon="-2.32022">
        <ele>2.4000000953674</ele>
        <time>2021-07-18T07:18:44.000Z</time>
      </trkpt>
      <trkpt lat="47.26543" lon="-2.32029">
        <ele>2.4000000953674</ele>
        <time>2021-07-18T07:18:46.000Z</time>
      </trkpt>
      <trkpt lat="47.26546" lon="-2.32035">
        <ele>2.4000000953674</ele>
        <time>2021-07-18T07:18:48.000Z</time>
      </trkpt>
      <trkpt lat="47.26553" lon="-2.32035">
        <ele>2.4000000953674</ele>
        <time>2021-07-18T07:18:50.000Z</time>
      </trkpt>
      <trkpt lat="47.26556" lon="-2.32034">
        <ele>2.7999999523163</ele>
        <time>2021-07-18T07:18:51.000Z</time>
      </trkpt>
      <trkpt lat="47.26559" lon="-2.32033">
        <ele>3.2000000476837</ele>
        <time>2021-07-18T07:18:52.000Z</time>
      </trkpt>
      <trkpt lat="47.26563" lon="-2.32032">
        <ele>3.5999999046326</ele>
        <time>2021-07-18T07:18:53.000Z</time>
      </trkpt>
      <trkpt lat="47.26566" lon="-2.3203">
        <ele>4</ele>
        <time>2021-07-18T07:18:54.000Z</time>
      </trkpt>
      <trkpt lat="47.2657" lon="-2.32029">
        <ele>4.4000000953674</ele>
        <time>2021-07-18T07:18:55.000Z</time>
      </trkpt>
      <trkpt lat="47.26574" lon="-2.32028">
        <ele>4.4000000953674</ele>
        <time>2021-07-18T07:18:56.000Z</time>
      </trkpt>
      <trkpt lat="47.26605" lon="-2.32016">
        <ele>4.4000000953674</ele>
        <time>2021-07-18T07:19:04.000Z</time>
      </trkpt>
      <trkpt lat="47.2661" lon="-2.32015">
        <ele>4.8000001907349</ele>
        <time>2021-07-18T07:19:05.000Z</time>
      </trkpt>
      <trkpt lat="47.26614" lon="-2.32014">
        <ele>5.1999998092651</ele>
        <time>2021-07-18T07:19:06.000Z</time>
      </trkpt>
      <trkpt lat="47.26618" lon="-2.32013">
        <ele>5.5999999046326</ele>
        <time>2021-07-18T07:19:07.000Z</time>
      </trkpt>
      <trkpt lat="47.26621" lon="-2.32012">
        <ele>6</ele>
        <time>2021-07-18T07:19:08.000Z</time>
      </trkpt>
      <trkpt lat="47.26624" lon="-2.3201">
        <ele>6.4000000953674</ele>
        <time>2021-07-18T07:19:09.000Z</time>
      </trkpt>
      <trkpt lat="47.26627" lon="-2.32008">
        <ele>6.4000000953674</ele>
        <time>2021-07-18T07:19:10.000Z</time>
      </trkpt>
      <trkpt lat="47.26638" lon="-2.32004">
        <ele>6.4000000953674</ele>
        <time>2021-07-18T07:19:16.000Z</time>
      </trkpt>
      <trkpt lat="47.26639" lon="-2.32005">
        <ele>6.4000000953674</ele>
        <time>2021-07-18T07:19:18.000Z</time>
      </trkpt>
      <trkpt lat="47.26641" lon="-2.32005">
        <ele>6.4000000953674</ele>
        <time>2021-07-18T07:20:00.000Z</time>
      </trkpt>
      <trkpt lat="47.26643" lon="-2.32007">
        <ele>6.4000000953674</ele>
        <time>2021-07-18T07:20:01.000Z</time>
      </trkpt>
      <trkpt lat="47.26646" lon="-2.32015">
        <ele>6.4000000953674</ele>
        <time>2021-07-18T07:20:06.000Z</time>
      </trkpt>
      <trkpt lat="47.26648" lon="-2.3202">
        <ele>6.4000000953674</ele>
        <time>2021-07-18T07:20:08.000Z</time>
      </trkpt>
      <trkpt lat="47.26653" lon="-2.32029">
        <ele>6.4000000953674</ele>
        <time>2021-07-18T07:20:10.000Z</time>
      </trkpt>
      <trkpt lat="47.26655" lon="-2.32035">
        <ele>6.4000000953674</ele>
        <time>2021-07-18T07:20:11.000Z</time>
      </trkpt>
      <trkpt lat="47.2666" lon="-2.32056">
        <ele>6.4000000953674</ele>
        <time>2021-07-18T07:20:14.000Z</time>
      </trkpt>
      <trkpt lat="47.26673" lon="-2.32116">
        <ele>6.4000000953674</ele>
        <time>2021-07-18T07:20:21.000Z</time>
      </trkpt>
      <trkpt lat="47.26679" lon="-2.32124">
        <ele>6.4000000953674</ele>
        <time>2021-07-18T07:20:24.000Z</time>
      </trkpt>
      <trkpt lat="47.26684" lon="-2.32111">
        <ele>6.4000000953674</ele>
        <time>2021-07-18T07:20:27.000Z</time>
      </trkpt>
      <trkpt lat="47.26684" lon="-2.3209">
        <ele>6.4000000953674</ele>
        <time>2021-07-18T07:20:30.000Z</time>
      </trkpt>
      <trkpt lat="47.26685" lon="-2.32083">
        <ele>6.4000000953674</ele>
        <time>2021-07-18T07:20:31.000Z</time>
      </trkpt>
      <trkpt lat="47.26686" lon="-2.32039">
        <ele>6.4000000953674</ele>
        <time>2021-07-18T07:20:38.000Z</time>
      </trkpt>
      <trkpt lat="47.26694" lon="-2.32019">
        <ele>6.4000000953674</ele>
        <time>2021-07-18T07:20:42.000Z</time>
      </trkpt>
      <trkpt lat="47.26704" lon="-2.32005">
        <ele>6.4000000953674</ele>
        <time>2021-07-18T07:20:45.000Z</time>
      </trkpt>
      <trkpt lat="47.26714" lon="-2.31998">
        <ele>6.4000000953674</ele>
        <time>2021-07-18T07:20:47.000Z</time>
      </trkpt>
      <trkpt lat="47.26725" lon="-2.31992">
        <ele>6.4000000953674</ele>
        <time>2021-07-18T07:20:49.000Z</time>
      </trkpt>
      <trkpt lat="47.26741" lon="-2.31982">
        <ele>6.4000000953674</ele>
        <time>2021-07-18T07:20:52.000Z</time>
      </trkpt>
      <trkpt lat="47.26747" lon="-2.31978">
        <ele>5.5999999046326</ele>
        <time>2021-07-18T07:20:53.000Z</time>
      </trkpt>
      <trkpt lat="47.26751" lon="-2.31972">
        <ele>5.1999998092651</ele>
        <time>2021-07-18T07:20:54.000Z</time>
      </trkpt>
      <trkpt lat="47.26755" lon="-2.31965">
        <ele>4.8000001907349</ele>
        <time>2021-07-18T07:20:55.000Z</time>
      </trkpt>
      <trkpt lat="47.26759" lon="-2.31957">
        <ele>4.4000000953674</ele>
        <time>2021-07-18T07:20:56.000Z</time>
      </trkpt>
      <trkpt lat="47.26768" lon="-2.3195">
        <ele>4.4000000953674</ele>
        <time>2021-07-18T07:20:59.000Z</time>
      </trkpt>
      <trkpt lat="47.26779" lon="-2.31966">
        <ele>4.4000000953674</ele>
        <time>2021-07-18T07:21:02.000Z</time>
      </trkpt>
      <trkpt lat="47.26785" lon="-2.31981">
        <ele>4</ele>
        <time>2021-07-18T07:21:04.000Z</time>
      </trkpt>
      <trkpt lat="47.26789" lon="-2.31989">
        <ele>3.5999999046326</ele>
        <time>2021-07-18T07:21:05.000Z</time>
      </trkpt>
      <trkpt lat="47.26794" lon="-2.31997">
        <ele>3.2000000476837</ele>
        <time>2021-07-18T07:21:06.000Z</time>
      </trkpt>
      <trkpt lat="47.26799" lon="-2.32004">
        <ele>2.7999999523163</ele>
        <time>2021-07-18T07:21:07.000Z</time>
      </trkpt>
      <trkpt lat="47.26804" lon="-2.32012">
        <ele>2.2000000476837</ele>
        <time>2021-07-18T07:21:08.000Z</time>
      </trkpt>
      <trkpt lat="47.26815" lon="-2.32039">
        <ele>2.2000000476837</ele>
        <time>2021-07-18T07:21:11.000Z</time>
      </trkpt>
      <trkpt lat="47.26818" lon="-2.32049">
        <ele>1.7999999523163</ele>
        <time>2021-07-18T07:21:12.000Z</time>
      </trkpt>
      <trkpt lat="47.2682" lon="-2.3206">
        <ele>1.3999999761581</ele>
        <time>2021-07-18T07:21:13.000Z</time>
      </trkpt>
      <trkpt lat="47.26822" lon="-2.32069">
        <ele>1</ele>
        <time>2021-07-18T07:21:14.000Z</time>
      </trkpt>
      <trkpt lat="47.26824" lon="-2.32079">
        <ele>0.60000002384186</ele>
        <time>2021-07-18T07:21:15.000Z</time>
      </trkpt>
      <trkpt lat="47.26826" lon="-2.3209">
        <ele>0.20000000298023</ele>
        <time>2021-07-18T07:21:16.000Z</time>
      </trkpt>
      <trkpt lat="47.26831" lon="-2.32108">
        <ele>0.20000000298023</ele>
        <time>2021-07-18T07:21:18.000Z</time>
      </trkpt>
      <trkpt lat="47.26842" lon="-2.32152">
        <ele>0.20000000298023</ele>
        <time>2021-07-18T07:21:23.000Z</time>
      </trkpt>
      <trkpt lat="47.26847" lon="-2.32168">
        <ele>-0.20000000298023</ele>
        <time>2021-07-18T07:21:25.000Z</time>
      </trkpt>
      <trkpt lat="47.2685" lon="-2.32176">
        <ele>-0.60000002384186</ele>
        <time>2021-07-18T07:21:26.000Z</time>
      </trkpt>
      <trkpt lat="47.26854" lon="-2.32184">
        <ele>-1</ele>
        <time>2021-07-18T07:21:27.000Z</time>
      </trkpt>
      <trkpt lat="47.26858" lon="-2.32191">
        <ele>-1.3999999761581</ele>
        <time>2021-07-18T07:21:28.000Z</time>
      </trkpt>
      <trkpt lat="47.26861" lon="-2.32198">
        <ele>-1.7999999523163</ele>
        <time>2021-07-18T07:21:29.000Z</time>
      </trkpt>
      <trkpt lat="47.26865" lon="-2.32207">
        <ele>-1.7999999523163</ele>
        <time>2021-07-18T07:21:30.000Z</time>
      </trkpt>
      <trkpt lat="47.26876" lon="-2.32229">
        <ele>-1.7999999523163</ele>
        <time>2021-07-18T07:21:33.000Z</time>
      </trkpt>
      <trkpt lat="47.2688" lon="-2.32234">
        <ele>-1.7999999523163</ele>
        <time>2021-07-18T07:21:34.000Z</time>
      </trkpt>
      <trkpt lat="47.26884" lon="-2.3224">
        <ele>-2.2000000476837</ele>
        <time>2021-07-18T07:21:35.000Z</time>
      </trkpt>
      <trkpt lat="47.26888" lon="-2.32246">
        <ele>-2.7999999523163</ele>
        <time>2021-07-18T07:21:36.000Z</time>
      </trkpt>
      <trkpt lat="47.26891" lon="-2.32252">
        <ele>-3.2000000476837</ele>
        <time>2021-07-18T07:21:37.000Z</time>
      </trkpt>
      <trkpt lat="47.26895" lon="-2.32258">
        <ele>-3.5999999046326</ele>
        <time>2021-07-18T07:21:38.000Z</time>
      </trkpt>
      <trkpt lat="47.26899" lon="-2.32266">
        <ele>-4</ele>
        <time>2021-07-18T07:21:39.000Z</time>
      </trkpt>
      <trkpt lat="47.26906" lon="-2.32282">
        <ele>-4</ele>
        <time>2021-07-18T07:21:41.000Z</time>
      </trkpt>
      <trkpt lat="47.2691" lon="-2.32291">
        <ele>-4.4000000953674</ele>
        <time>2021-07-18T07:21:42.000Z</time>
      </trkpt>
      <trkpt lat="47.26913" lon="-2.323">
        <ele>-5.1999998092651</ele>
        <time>2021-07-18T07:21:43.000Z</time>
      </trkpt>
      <trkpt lat="47.26915" lon="-2.32309">
        <ele>-5.5999999046326</ele>
        <time>2021-07-18T07:21:44.000Z</time>
      </trkpt>
      <trkpt lat="47.26917" lon="-2.32318">
        <ele>-6.1999998092651</ele>
        <time>2021-07-18T07:21:45.000Z</time>
      </trkpt>
      <trkpt lat="47.26921" lon="-2.32333">
        <ele>-6.1999998092651</ele>
        <time>2021-07-18T07:21:47.000Z</time>
      </trkpt>
      <trkpt lat="47.26927" lon="-2.32346">
        <ele>-6.1999998092651</ele>
        <time>2021-07-18T07:21:49.000Z</time>
      </trkpt>
      <trkpt lat="47.26933" lon="-2.3236">
        <ele>-6.1999998092651</ele>
        <time>2021-07-18T07:21:51.000Z</time>
      </trkpt>
      <trkpt lat="47.2694" lon="-2.32385">
        <ele>-6.1999998092651</ele>
        <time>2021-07-18T07:21:54.000Z</time>
      </trkpt>
      <trkpt lat="47.26941" lon="-2.32393">
        <ele>-6.1999998092651</ele>
        <time>2021-07-18T07:21:55.000Z</time>
      </trkpt>
      <trkpt lat="47.26959" lon="-2.32437">
        <ele>-6.5999999046326</ele>
        <time>2021-07-18T07:22:01.000Z</time>
      </trkpt>
      <trkpt lat="47.26964" lon="-2.32444">
        <ele>-7</ele>
        <time>2021-07-18T07:22:02.000Z</time>
      </trkpt>
      <trkpt lat="47.26969" lon="-2.3245">
        <ele>-7.4000000953674</ele>
        <time>2021-07-18T07:22:03.000Z</time>
      </trkpt>
      <trkpt lat="47.26974" lon="-2.32455">
        <ele>-7.8000001907349</ele>
        <time>2021-07-18T07:22:04.000Z</time>
      </trkpt>
      <trkpt lat="47.26978" lon="-2.32461">
        <ele>-8.1999998092651</ele>
        <time>2021-07-18T07:22:05.000Z</time>
      </trkpt>
      <trkpt lat="47.2699" lon="-2.32482">
        <ele>-8.1999998092651</ele>
        <time>2021-07-18T07:22:08.000Z</time>
      </trkpt>
      <trkpt lat="47.26997" lon="-2.32497">
        <ele>-8.1999998092651</ele>
        <time>2021-07-18T07:22:10.000Z</time>
      </trkpt>
      <trkpt lat="47.27004" lon="-2.32508">
        <ele>-8.1999998092651</ele>
        <time>2021-07-18T07:22:12.000Z</time>
      </trkpt>
      <trkpt lat="47.27013" lon="-2.32511">
        <ele>-8.1999998092651</ele>
        <time>2021-07-18T07:22:14.000Z</time>
      </trkpt>
      <trkpt lat="47.27024" lon="-2.32508">
        <ele>-8.6000003814697</ele>
        <time>2021-07-18T07:22:16.000Z</time>
      </trkpt>
      <trkpt lat="47.27027" lon="-2.32501">
        <ele>-9</ele>
        <time>2021-07-18T07:22:17.000Z</time>
      </trkpt>
      <trkpt lat="47.27029" lon="-2.32493">
        <ele>-9.3999996185303</ele>
        <time>2021-07-18T07:22:18.000Z</time>
      </trkpt>
      <trkpt lat="47.27029" lon="-2.32484">
        <ele>-10</ele>
        <time>2021-07-18T07:22:19.000Z</time>
      </trkpt>
      <trkpt lat="47.27029" lon="-2.32475">
        <ele>-10.39999961853</ele>
        <time>2021-07-18T07:22:20.000Z</time>
      </trkpt>
      <trkpt lat="47.2703" lon="-2.32463">
        <ele>-10.39999961853</ele>
        <time>2021-07-18T07:22:21.000Z</time>
      </trkpt>
      <trkpt lat="47.27028" lon="-2.32423">
        <ele>-10.39999961853</ele>
        <time>2021-07-18T07:22:25.000Z</time>
      </trkpt>
      <trkpt lat="47.27024" lon="-2.32367">
        <ele>-10.39999961853</ele>
        <time>2021-07-18T07:22:31.000Z</time>
      </trkpt>
      <trkpt lat="47.27021" lon="-2.32329">
        <ele>-10.39999961853</ele>
        <time>2021-07-18T07:22:35.000Z</time>
      </trkpt>
      <trkpt lat="47.2702" lon="-2.32311">
        <ele>-10.39999961853</ele>
        <time>2021-07-18T07:22:37.000Z</time>
      </trkpt>
      <trkpt lat="47.27019" lon="-2.32249">
        <ele>-10.39999961853</ele>
        <time>2021-07-18T07:22:44.000Z</time>
      </trkpt>
      <trkpt lat="47.27014" lon="-2.32208">
        <ele>-10.39999961853</ele>
        <time>2021-07-18T07:22:49.000Z</time>
      </trkpt>
      <trkpt lat="47.27012" lon="-2.32201">
        <ele>-10.39999961853</ele>
        <time>2021-07-18T07:22:50.000Z</time>
      </trkpt>
      <trkpt lat="47.27003" lon="-2.3218">
        <ele>-10.39999961853</ele>
        <time>2021-07-18T07:22:53.000Z</time>
      </trkpt>
      <trkpt lat="47.26994" lon="-2.32168">
        <ele>-10.39999961853</ele>
        <time>2021-07-18T07:22:55.000Z</time>
      </trkpt>
      <trkpt lat="47.2699" lon="-2.3216">
        <ele>-10.39999961853</ele>
        <time>2021-07-18T07:22:56.000Z</time>
      </trkpt>
      <trkpt lat="47.2699" lon="-2.32144">
        <ele>-10.39999961853</ele>
        <time>2021-07-18T07:22:58.000Z</time>
      </trkpt>
      <trkpt lat="47.26996" lon="-2.3213">
        <ele>-10.39999961853</ele>
        <time>2021-07-18T07:23:01.000Z</time>
      </trkpt>
      <trkpt lat="47.27006" lon="-2.32114">
        <ele>-10.39999961853</ele>
        <time>2021-07-18T07:23:05.000Z</time>
      </trkpt>
      <trkpt lat="47.2701" lon="-2.32082">
        <ele>-10.39999961853</ele>
        <time>2021-07-18T07:23:10.000Z</time>
      </trkpt>
      <trkpt lat="47.27011" lon="-2.32075">
        <ele>-10.39999961853</ele>
        <time>2021-07-18T07:23:11.000Z</time>
      </trkpt>
      <trkpt lat="47.27012" lon="-2.32049">
        <ele>-10.39999961853</ele>
        <time>2021-07-18T07:23:15.000Z</time>
      </trkpt>
      <trkpt lat="47.27012" lon="-2.32042">
        <ele>-10.39999961853</ele>
        <time>2021-07-18T07:23:16.000Z</time>
      </trkpt>
      <trkpt lat="47.27011" lon="-2.32028">
        <ele>-10</ele>
        <time>2021-07-18T07:23:18.000Z</time>
      </trkpt>
      <trkpt lat="47.2701" lon="-2.32022">
        <ele>-9.6000003814697</ele>
        <time>2021-07-18T07:23:19.000Z</time>
      </trkpt>
      <trkpt lat="47.27008" lon="-2.32016">
        <ele>-9.1999998092651</ele>
        <time>2021-07-18T07:23:20.000Z</time>
      </trkpt>
      <trkpt lat="47.27006" lon="-2.3201">
        <ele>-8.8000001907349</ele>
        <time>2021-07-18T07:23:21.000Z</time>
      </trkpt>
      <trkpt lat="47.27005" lon="-2.32004">
        <ele>-8.3999996185303</ele>
        <time>2021-07-18T07:23:22.000Z</time>
      </trkpt>
      <trkpt lat="47.27004" lon="-2.3199">
        <ele>-8.3999996185303</ele>
        <time>2021-07-18T07:23:24.000Z</time>
      </trkpt>
      <trkpt lat="47.27009" lon="-2.3198">
        <ele>-8.3999996185303</ele>
        <time>2021-07-18T07:23:26.000Z</time>
      </trkpt>
      <trkpt lat="47.27023" lon="-2.31971">
        <ele>-8.3999996185303</ele>
        <time>2021-07-18T07:23:30.000Z</time>
      </trkpt>
      <trkpt lat="47.27028" lon="-2.31969">
        <ele>-8.3999996185303</ele>
        <time>2021-07-18T07:23:31.000Z</time>
      </trkpt>
      <trkpt lat="47.27032" lon="-2.31966">
        <ele>-8.3999996185303</ele>
        <time>2021-07-18T07:23:32.000Z</time>
      </trkpt>
      <trkpt lat="47.27036" lon="-2.31964">
        <ele>-8</ele>
        <time>2021-07-18T07:23:33.000Z</time>
      </trkpt>
      <trkpt lat="47.2704" lon="-2.31962">
        <ele>-7.5999999046326</ele>
        <time>2021-07-18T07:23:34.000Z</time>
      </trkpt>
      <trkpt lat="47.27045" lon="-2.31961">
        <ele>-7.1999998092651</ele>
        <time>2021-07-18T07:23:35.000Z</time>
      </trkpt>
      <trkpt lat="47.27048" lon="-2.31961">
        <ele>-6.8000001907349</ele>
        <time>2021-07-18T07:23:36.000Z</time>
      </trkpt>
      <trkpt lat="47.27051" lon="-2.31962">
        <ele>-6.4000000953674</ele>
        <time>2021-07-18T07:23:37.000Z</time>
      </trkpt>
      <trkpt lat="47.27068" lon="-2.31962">
        <ele>-6.4000000953674</ele>
        <time>2021-07-18T07:23:42.000Z</time>
      </trkpt>
      <trkpt lat="47.27071" lon="-2.31958">
        <ele>-6.4000000953674</ele>
        <time>2021-07-18T07:23:44.000Z</time>
      </trkpt>
      <trkpt lat="47.27072" lon="-2.31953">
        <ele>-6.4000000953674</ele>
        <time>2021-07-18T07:23:46.000Z</time>
      </trkpt>
      <trkpt lat="47.27072" lon="-2.31943">
        <ele>-6.4000000953674</ele>
        <time>2021-07-18T07:23:49.000Z</time>
      </trkpt>
      <trkpt lat="47.27072" lon="-2.31936">
        <ele>-6.4000000953674</ele>
        <time>2021-07-18T07:23:51.000Z</time>
      </trkpt>
      <trkpt lat="47.27071" lon="-2.31906">
        <ele>-6.4000000953674</ele>
        <time>2021-07-18T07:23:58.000Z</time>
      </trkpt>
      <trkpt lat="47.27073" lon="-2.31879">
        <ele>-6.4000000953674</ele>
        <time>2021-07-18T07:24:04.000Z</time>
      </trkpt>
      <trkpt lat="47.27073" lon="-2.31867">
        <ele>-6.4000000953674</ele>
        <time>2021-07-18T07:24:07.000Z</time>
      </trkpt>
      <trkpt lat="47.27068" lon="-2.3186">
        <ele>-6.4000000953674</ele>
        <time>2021-07-18T07:24:09.000Z</time>
      </trkpt>
      <trkpt lat="47.27058" lon="-2.31842">
        <ele>-6.4000000953674</ele>
        <time>2021-07-18T07:24:13.000Z</time>
      </trkpt>
      <trkpt lat="47.27058" lon="-2.31835">
        <ele>-6.4000000953674</ele>
        <time>2021-07-18T07:24:14.000Z</time>
      </trkpt>
      <trkpt lat="47.27056" lon="-2.31813">
        <ele>-6.4000000953674</ele>
        <time>2021-07-18T07:24:18.000Z</time>
      </trkpt>
      <trkpt lat="47.27055" lon="-2.31802">
        <ele>-5.8000001907349</ele>
        <time>2021-07-18T07:24:20.000Z</time>
      </trkpt>
      <trkpt lat="47.27054" lon="-2.31797">
        <ele>-5.4000000953674</ele>
        <time>2021-07-18T07:24:21.000Z</time>
      </trkpt>
      <trkpt lat="47.27054" lon="-2.31792">
        <ele>-5</ele>
        <time>2021-07-18T07:24:22.000Z</time>
      </trkpt>
      <trkpt lat="47.27054" lon="-2.31787">
        <ele>-4.5999999046326</ele>
        <time>2021-07-18T07:24:23.000Z</time>
      </trkpt>
      <trkpt lat="47.27053" lon="-2.31782">
        <ele>-4.1999998092651</ele>
        <time>2021-07-18T07:24:24.000Z</time>
      </trkpt>
      <trkpt lat="47.27052" lon="-2.31774">
        <ele>-4.1999998092651</ele>
        <time>2021-07-18T07:24:26.000Z</time>
      </trkpt>
      <trkpt lat="47.27049" lon="-2.31751">
        <ele>-4.1999998092651</ele>
        <time>2021-07-18T07:24:32.000Z</time>
      </trkpt>
      <trkpt lat="47.27051" lon="-2.31743">
        <ele>-4.1999998092651</ele>
        <time>2021-07-18T07:24:37.000Z</time>
      </trkpt>
      <trkpt lat="47.27052" lon="-2.31743">
        <ele>-4.1999998092651</ele>
        <time>2021-07-18T07:24:38.000Z</time>
      </trkpt>
      <trkpt lat="47.27049" lon="-2.31738">
        <ele>-4.1999998092651</ele>
        <time>2021-07-18T07:24:49.000Z</time>
      </trkpt>
      <trkpt lat="47.27045" lon="-2.31735">
        <ele>-4.1999998092651</ele>
        <time>2021-07-18T07:24:51.000Z</time>
      </trkpt>
      <trkpt lat="47.27039" lon="-2.3173">
        <ele>-4.1999998092651</ele>
        <time>2021-07-18T07:24:53.000Z</time>
      </trkpt>
      <trkpt lat="47.27031" lon="-2.31722">
        <ele>-3.7999999523163</ele>
        <time>2021-07-18T07:24:56.000Z</time>
      </trkpt>
      <trkpt lat="47.27029" lon="-2.31718">
        <ele>-3.4000000953674</ele>
        <time>2021-07-18T07:24:57.000Z</time>
      </trkpt>
      <trkpt lat="47.27027" lon="-2.31715">
        <ele>-3</ele>
        <time>2021-07-18T07:24:58.000Z</time>
      </trkpt>
      <trkpt lat="47.27026" lon="-2.31712">
        <ele>-2.4000000953674</ele>
        <time>2021-07-18T07:24:59.000Z</time>
      </trkpt>
      <trkpt lat="47.27025" lon="-2.31709">
        <ele>-2</ele>
        <time>2021-07-18T07:25:00.000Z</time>
      </trkpt>
      <trkpt lat="47.27025" lon="-2.31704">
        <ele>-2</ele>
        <time>2021-07-18T07:25:02.000Z</time>
      </trkpt>
      <trkpt lat="47.27026" lon="-2.31682">
        <ele>-2</ele>
        <time>2021-07-18T07:25:07.000Z</time>
      </trkpt>
      <trkpt lat="47.27026" lon="-2.31672">
        <ele>-1.6000000238419</ele>
        <time>2021-07-18T07:25:09.000Z</time>
      </trkpt>
      <trkpt lat="47.27026" lon="-2.31665">
        <ele>-1.2000000476837</ele>
        <time>2021-07-18T07:25:10.000Z</time>
      </trkpt>
      <trkpt lat="47.27027" lon="-2.31658">
        <ele>-0.80000001192093</ele>
        <time>2021-07-18T07:25:11.000Z</time>
      </trkpt>
      <trkpt lat="47.27027" lon="-2.31651">
        <ele>-0.40000000596046</ele>
        <time>2021-07-18T07:25:12.000Z</time>
      </trkpt>
      <trkpt lat="47.27026" lon="-2.31645">
        <ele>17.1</ele>
        <time>2021-07-18T07:25:13.000Z</time>
      </trkpt>
      <trkpt lat="47.27026" lon="-2.31639">
        <ele>17.2</ele>
        <time>2021-07-18T07:25:14.000Z</time>
      </trkpt>
      <trkpt lat="47.27022" lon="-2.31601">
        <ele>0.60000002384186</ele>
        <time>2021-07-18T07:25:21.000Z</time>
      </trkpt>
      <trkpt lat="47.27022" lon="-2.31597">
        <ele>1</ele>
        <time>2021-07-18T07:25:22.000Z</time>
      </trkpt>
      <trkpt lat="47.27021" lon="-2.31593">
        <ele>1.3999999761581</ele>
        <time>2021-07-18T07:25:23.000Z</time>
      </trkpt>
      <trkpt lat="47.27019" lon="-2.31588">
        <ele>2</ele>
        <time>2021-07-18T07:25:24.000Z</time>
      </trkpt>
      <trkpt lat="47.27018" lon="-2.31584">
        <ele>2.4000000953674</ele>
        <time>2021-07-18T07:25:25.000Z</time>
      </trkpt>
      <trkpt lat="47.27014" lon="-2.31574">
        <ele>2.7999999523163</ele>
        <time>2021-07-18T07:25:27.000Z</time>
      </trkpt>
      <trkpt lat="47.27012" lon="-2.31569">
        <ele>3.2000000476837</ele>
        <time>2021-07-18T07:25:28.000Z</time>
      </trkpt>
      <trkpt lat="47.27011" lon="-2.31564">
        <ele>3.5999999046326</ele>
        <time>2021-07-18T07:25:29.000Z</time>
      </trkpt>
      <trkpt lat="47.27009" lon="-2.31558">
        <ele>4</ele>
        <time>2021-07-18T07:25:30.000Z</time>
      </trkpt>
      <trkpt lat="47.27007" lon="-2.31552">
        <ele>4.5999999046326</ele>
        <time>2021-07-18T07:25:31.000Z</time>
      </trkpt>
      <trkpt lat="47.27003" lon="-2.31542">
        <ele>4.5999999046326</ele>
        <time>2021-07-18T07:25:33.000Z</time>
      </trkpt>
      <trkpt lat="47.26999" lon="-2.31525">
        <ele>5</ele>
        <time>2021-07-18T07:25:36.000Z</time>
      </trkpt>
      <trkpt lat="47.26998" lon="-2.31518">
        <ele>5.4000000953674</ele>
        <time>2021-07-18T07:25:37.000Z</time>
      </trkpt>
      <trkpt lat="47.26997" lon="-2.31512">
        <ele>5.8000001907349</ele>
        <time>2021-07-18T07:25:38.000Z</time>
      </trkpt>
      <trkpt lat="47.26995" lon="-2.31505">
        <ele>6.1999998092651</ele>
        <time>2021-07-18T07:25:39.000Z</time>
      </trkpt>
      <trkpt lat="47.26994" lon="-2.31499">
        <ele>6.5999999046326</ele>
        <time>2021-07-18T07:25:40.000Z</time>
      </trkpt>
      <trkpt lat="47.26989" lon="-2.3147">
        <ele>6.5999999046326</ele>
        <time>2021-07-18T07:25:45.000Z</time>
      </trkpt>
      <trkpt lat="47.26987" lon="-2.31465">
        <ele>7</ele>
        <time>2021-07-18T07:25:46.000Z</time>
      </trkpt>
      <trkpt lat="47.26986" lon="-2.3146">
        <ele>7.4000000953674</ele>
        <time>2021-07-18T07:25:47.000Z</time>
      </trkpt>
      <trkpt lat="47.26985" lon="-2.31454">
        <ele>7.8000001907349</ele>
        <time>2021-07-18T07:25:48.000Z</time>
      </trkpt>
      <trkpt lat="47.26984" lon="-2.31447">
        <ele>8.1999998092651</ele>
        <time>2021-07-18T07:25:49.000Z</time>
      </trkpt>
      <trkpt lat="47.26985" lon="-2.3144">
        <ele>8.6000003814697</ele>
        <time>2021-07-18T07:25:50.000Z</time>
      </trkpt>
      <trkpt lat="47.26982" lon="-2.31394">
        <ele>9</ele>
        <time>2021-07-18T07:25:57.000Z</time>
      </trkpt>
      <trkpt lat="47.26982" lon="-2.31389">
        <ele>9.3999996185303</ele>
        <time>2021-07-18T07:25:58.000Z</time>
      </trkpt>
      <trkpt lat="47.26981" lon="-2.31383">
        <ele>9.8000001907349</ele>
        <time>2021-07-18T07:25:59.000Z</time>
      </trkpt>
      <trkpt lat="47.2698" lon="-2.31378">
        <ele>10.199999809265</ele>
        <time>2021-07-18T07:26:00.000Z</time>
      </trkpt>
      <trkpt lat="47.2698" lon="-2.31373">
        <ele>10.60000038147</ele>
        <time>2021-07-18T07:26:01.000Z</time>
      </trkpt>
      <trkpt lat="47.2698" lon="-2.31368">
        <ele>10.60000038147</ele>
        <time>2021-07-18T07:26:02.000Z</time>
      </trkpt>
      <trkpt lat="47.26975" lon="-2.31324">
        <ele>10.60000038147</ele>
        <time>2021-07-18T07:26:10.000Z</time>
      </trkpt>
      <trkpt lat="47.26972" lon="-2.31304">
        <ele>11</ele>
        <time>2021-07-18T07:26:13.000Z</time>
      </trkpt>
      <trkpt lat="47.26972" lon="-2.31297">
        <ele>11.39999961853</ele>
        <time>2021-07-18T07:26:14.000Z</time>
      </trkpt>
      <trkpt lat="47.26972" lon="-2.3129">
        <ele>12.39999961853</ele>
        <time>2021-07-18T07:26:15.000Z</time>
      </trkpt>
      <trkpt lat="47.26972" lon="-2.31283">
        <ele>12.800000190735</ele>
        <time>2021-07-18T07:26:16.000Z</time>
      </trkpt>
      <trkpt lat="47.26972" lon="-2.31239">
        <ele>12.800000190735</ele>
        <time>2021-07-18T07:26:21.000Z</time>
      </trkpt>
      <trkpt lat="47.26973" lon="-2.31232">
        <ele>12.800000190735</ele>
        <time>2021-07-18T07:26:22.000Z</time>
      </trkpt>
      <trkpt lat="47.26981" lon="-2.3118">
        <ele>12.800000190735</ele>
        <time>2021-07-18T07:26:28.000Z</time>
      </trkpt>
      <trkpt lat="47.26986" lon="-2.31141">
        <ele>12.199999809265</ele>
        <time>2021-07-18T07:26:32.000Z</time>
      </trkpt>
      <trkpt lat="47.26987" lon="-2.3113">
        <ele>11.800000190735</ele>
        <time>2021-07-18T07:26:33.000Z</time>
      </trkpt>
      <trkpt lat="47.26987" lon="-2.3112">
        <ele>11.39999961853</ele>
        <time>2021-07-18T07:26:34.000Z</time>
      </trkpt>
      <trkpt lat="47.26987" lon="-2.3111">
        <ele>11</ele>
        <time>2021-07-18T07:26:35.000Z</time>
      </trkpt>
      <trkpt lat="47.26987" lon="-2.31102">
        <ele>10.39999961853</ele>
        <time>2021-07-18T07:26:36.000Z</time>
      </trkpt>
      <trkpt lat="47.26986" lon="-2.31084">
        <ele>10.39999961853</ele>
        <time>2021-07-18T07:26:38.000Z</time>
      </trkpt>
      <trkpt lat="47.26986" lon="-2.31072">
        <ele>10</ele>
        <time>2021-07-18T07:26:40.000Z</time>
      </trkpt>
      <trkpt lat="47.26989" lon="-2.31067">
        <ele>9.6000003814697</ele>
        <time>2021-07-18T07:26:41.000Z</time>
      </trkpt>
      <trkpt lat="47.26993" lon="-2.31062">
        <ele>9</ele>
        <time>2021-07-18T07:26:42.000Z</time>
      </trkpt>
      <trkpt lat="47.26997" lon="-2.31058">
        <ele>8.6000003814697</ele>
        <time>2021-07-18T07:26:43.000Z</time>
      </trkpt>
      <trkpt lat="47.27002" lon="-2.31053">
        <ele>8</ele>
        <time>2021-07-18T07:26:44.000Z</time>
      </trkpt>
      <trkpt lat="47.27022" lon="-2.3104">
        <ele>8</ele>
        <time>2021-07-18T07:26:48.000Z</time>
      </trkpt>
      <trkpt lat="47.27032" lon="-2.31031">
        <ele>7.5999999046326</ele>
        <time>2021-07-18T07:26:50.000Z</time>
      </trkpt>
      <trkpt lat="47.27036" lon="-2.31027">
        <ele>7.1999998092651</ele>
        <time>2021-07-18T07:26:51.000Z</time>
      </trkpt>
      <trkpt lat="47.2704" lon="-2.31024">
        <ele>6.8000001907349</ele>
        <time>2021-07-18T07:26:52.000Z</time>
      </trkpt>
      <trkpt lat="47.27044" lon="-2.3102">
        <ele>6.4000000953674</ele>
        <time>2021-07-18T07:26:53.000Z</time>
      </trkpt>
      <trkpt lat="47.27047" lon="-2.31016">
        <ele>6</ele>
        <time>2021-07-18T07:26:54.000Z</time>
      </trkpt>
      <trkpt lat="47.27054" lon="-2.31009">
        <ele>6</ele>
        <time>2021-07-18T07:26:56.000Z</time>
      </trkpt>
      <trkpt lat="47.27056" lon="-2.31003">
        <ele>6</ele>
        <time>2021-07-18T07:26:57.000Z</time>
      </trkpt>
      <trkpt lat="47.27062" lon="-2.30987">
        <ele>6</ele>
        <time>2021-07-18T07:27:00.000Z</time>
      </trkpt>
      <trkpt lat="47.27064" lon="-2.30955">
        <ele>6</ele>
        <time>2021-07-18T07:27:06.000Z</time>
      </trkpt>
      <trkpt lat="47.27058" lon="-2.30936">
        <ele>6</ele>
        <time>2021-07-18T07:27:11.000Z</time>
      </trkpt>
      <trkpt lat="47.27049" lon="-2.30905">
        <ele>6</ele>
        <time>2021-07-18T07:27:16.000Z</time>
      </trkpt>
      <trkpt lat="47.27047" lon="-2.30899">
        <ele>6</ele>
        <time>2021-07-18T07:27:17.000Z</time>
      </trkpt>
      <trkpt lat="47.27027" lon="-2.30864">
        <ele>6</ele>
        <time>2021-07-18T07:27:23.000Z</time>
      </trkpt>
      <trkpt lat="47.27013" lon="-2.30841">
        <ele>6</ele>
        <time>2021-07-18T07:27:27.000Z</time>
      </trkpt>
      <trkpt lat="47.27009" lon="-2.30834">
        <ele>6</ele>
        <time>2021-07-18T07:27:28.000Z</time>
      </trkpt>
      <trkpt lat="47.27" lon="-2.30822">
        <ele>6</ele>
        <time>2021-07-18T07:27:30.000Z</time>
      </trkpt>
      <trkpt lat="47.26989" lon="-2.30806">
        <ele>6</ele>
        <time>2021-07-18T07:27:33.000Z</time>
      </trkpt>
      <trkpt lat="47.26986" lon="-2.30801">
        <ele>6</ele>
        <time>2021-07-18T07:27:34.000Z</time>
      </trkpt>
      <trkpt lat="47.26982" lon="-2.30794">
        <ele>6.4000000953674</ele>
        <time>2021-07-18T07:27:35.000Z</time>
      </trkpt>
      <trkpt lat="47.26978" lon="-2.30789">
        <ele>6.8000001907349</ele>
        <time>2021-07-18T07:27:36.000Z</time>
      </trkpt>
      <trkpt lat="47.26974" lon="-2.30784">
        <ele>7.1999998092651</ele>
        <time>2021-07-18T07:27:37.000Z</time>
      </trkpt>
      <trkpt lat="47.26971" lon="-2.30778">
        <ele>7.5999999046326</ele>
        <time>2021-07-18T07:27:38.000Z</time>
      </trkpt>
      <trkpt lat="47.26967" lon="-2.30773">
        <ele>8</ele>
        <time>2021-07-18T07:27:39.000Z</time>
      </trkpt>
      <trkpt lat="47.26941" lon="-2.30737">
        <ele>8</ele>
        <time>2021-07-18T07:27:46.000Z</time>
      </trkpt>
      <trkpt lat="47.26937" lon="-2.30731">
        <ele>8.3999996185303</ele>
        <time>2021-07-18T07:27:47.000Z</time>
      </trkpt>
      <trkpt lat="47.26933" lon="-2.30725">
        <ele>9</ele>
        <time>2021-07-18T07:27:48.000Z</time>
      </trkpt>
      <trkpt lat="47.2693" lon="-2.3072">
        <ele>9.3999996185303</ele>
        <time>2021-07-18T07:27:49.000Z</time>
      </trkpt>
      <trkpt lat="47.26927" lon="-2.30715">
        <ele>9.8000001907349</ele>
        <time>2021-07-18T07:27:50.000Z</time>
      </trkpt>
      <trkpt lat="47.26923" lon="-2.3071">
        <ele>10.199999809265</ele>
        <time>2021-07-18T07:27:51.000Z</time>
      </trkpt>
      <trkpt lat="47.26917" lon="-2.307">
        <ele>10.199999809265</ele>
        <time>2021-07-18T07:27:53.000Z</time>
      </trkpt>
      <trkpt lat="47.26905" lon="-2.30682">
        <ele>10.199999809265</ele>
        <time>2021-07-18T07:27:57.000Z</time>
      </trkpt>
      <trkpt lat="47.26897" lon="-2.3067">
        <ele>10.199999809265</ele>
        <time>2021-07-18T07:28:00.000Z</time>
      </trkpt>
      <trkpt lat="47.26894" lon="-2.30669">
        <ele>10.199999809265</ele>
        <time>2021-07-18T07:28:01.000Z</time>
      </trkpt>
      <trkpt lat="47.2689" lon="-2.3067">
        <ele>10.199999809265</ele>
        <time>2021-07-18T07:28:03.000Z</time>
      </trkpt>
      <trkpt lat="47.26877" lon="-2.30685">
        <ele>10.199999809265</ele>
        <time>2021-07-18T07:28:07.000Z</time>
      </trkpt>
      <trkpt lat="47.26855" lon="-2.30724">
        <ele>10.199999809265</ele>
        <time>2021-07-18T07:28:14.000Z</time>
      </trkpt>
      <trkpt lat="47.2684" lon="-2.30763">
        <ele>10.199999809265</ele>
        <time>2021-07-18T07:28:20.000Z</time>
      </trkpt>
      <trkpt lat="47.26834" lon="-2.30775">
        <ele>10.199999809265</ele>
        <time>2021-07-18T07:28:22.000Z</time>
      </trkpt>
      <trkpt lat="47.26828" lon="-2.30787">
        <ele>10.199999809265</ele>
        <time>2021-07-18T07:28:24.000Z</time>
      </trkpt>
      <trkpt lat="47.2682" lon="-2.30796">
        <ele>10.199999809265</ele>
        <time>2021-07-18T07:28:26.000Z</time>
      </trkpt>
      <trkpt lat="47.26811" lon="-2.30803">
        <ele>10.199999809265</ele>
        <time>2021-07-18T07:28:28.000Z</time>
      </trkpt>
      <trkpt lat="47.26799" lon="-2.30815">
        <ele>10.199999809265</ele>
        <time>2021-07-18T07:28:31.000Z</time>
      </trkpt>
      <trkpt lat="47.26795" lon="-2.3082">
        <ele>10.60000038147</ele>
        <time>2021-07-18T07:28:32.000Z</time>
      </trkpt>
      <trkpt lat="47.2679" lon="-2.30824">
        <ele>11</ele>
        <time>2021-07-18T07:28:33.000Z</time>
      </trkpt>
      <trkpt lat="47.26786" lon="-2.30829">
        <ele>11.39999961853</ele>
        <time>2021-07-18T07:28:34.000Z</time>
      </trkpt>
      <trkpt lat="47.26782" lon="-2.30834">
        <ele>12</ele>
        <time>2021-07-18T07:28:35.000Z</time>
      </trkpt>
      <trkpt lat="47.26777" lon="-2.30838">
        <ele>12.39999961853</ele>
        <time>2021-07-18T07:28:36.000Z</time>
      </trkpt>
      <trkpt lat="47.26764" lon="-2.30852">
        <ele>12.39999961853</ele>
        <time>2021-07-18T07:28:39.000Z</time>
      </trkpt>
      <trkpt lat="47.26748" lon="-2.30868">
        <ele>12.39999961853</ele>
        <time>2021-07-18T07:28:43.000Z</time>
      </trkpt>
      <trkpt lat="47.26734" lon="-2.30869">
        <ele>12.39999961853</ele>
        <time>2021-07-18T07:28:46.000Z</time>
      </trkpt>
      <trkpt lat="47.26719" lon="-2.30847">
        <ele>12.39999961853</ele>
        <time>2021-07-18T07:28:50.000Z</time>
      </trkpt>
      <trkpt lat="47.26716" lon="-2.30841">
        <ele>12.39999961853</ele>
        <time>2021-07-18T07:28:51.000Z</time>
      </trkpt>
      <trkpt lat="47.26697" lon="-2.30794">
        <ele>12.39999961853</ele>
        <time>2021-07-18T07:28:57.000Z</time>
      </trkpt>
      <trkpt lat="47.26678" lon="-2.30742">
        <ele>12</ele>
        <time>2021-07-18T07:29:03.000Z</time>
      </trkpt>
      <trkpt lat="47.26674" lon="-2.30733">
        <ele>11.60000038147</ele>
        <time>2021-07-18T07:29:04.000Z</time>
      </trkpt>
      <trkpt lat="47.2667" lon="-2.30724">
        <ele>11.199999809265</ele>
        <time>2021-07-18T07:29:05.000Z</time>
      </trkpt>
      <trkpt lat="47.26667" lon="-2.30716">
        <ele>10.800000190735</ele>
        <time>2021-07-18T07:29:06.000Z</time>
      </trkpt>
      <trkpt lat="47.26663" lon="-2.30708">
        <ele>10.39999961853</ele>
        <time>2021-07-18T07:29:07.000Z</time>
      </trkpt>
      <trkpt lat="47.2666" lon="-2.30701">
        <ele>9.8000001907349</ele>
        <time>2021-07-18T07:29:08.000Z</time>
      </trkpt>
      <trkpt lat="47.26657" lon="-2.30695">
        <ele>9.3999996185303</ele>
        <time>2021-07-18T07:29:09.000Z</time>
      </trkpt>
      <trkpt lat="47.26654" lon="-2.30691">
        <ele>8.8000001907349</ele>
        <time>2021-07-18T07:29:10.000Z</time>
      </trkpt>
      <trkpt lat="47.2665" lon="-2.30691">
        <ele>8.3999996185303</ele>
        <time>2021-07-18T07:29:11.000Z</time>
      </trkpt>
      <trkpt lat="47.26646" lon="-2.30694">
        <ele>8</ele>
        <time>2021-07-18T07:29:12.000Z</time>
      </trkpt>
      <trkpt lat="47.26641" lon="-2.30711">
        <ele>8</ele>
        <time>2021-07-18T07:29:15.000Z</time>
      </trkpt>
      <trkpt lat="47.26637" lon="-2.30721">
        <ele>8</ele>
        <time>2021-07-18T07:29:17.000Z</time>
      </trkpt>
      <trkpt lat="47.26624" lon="-2.30736">
        <ele>8</ele>
        <time>2021-07-18T07:29:22.000Z</time>
      </trkpt>
      <trkpt lat="47.26622" lon="-2.30739">
        <ele>7.4000000953674</ele>
        <time>2021-07-18T07:29:23.000Z</time>
      </trkpt>
      <trkpt lat="47.26621" lon="-2.30743">
        <ele>7</ele>
        <time>2021-07-18T07:29:24.000Z</time>
      </trkpt>
      <trkpt lat="47.2662" lon="-2.30746">
        <ele>6.5999999046326</ele>
        <time>2021-07-18T07:29:25.000Z</time>
      </trkpt>
      <trkpt lat="47.2662" lon="-2.3075">
        <ele>6.1999998092651</ele>
        <time>2021-07-18T07:29:26.000Z</time>
      </trkpt>
      <trkpt lat="47.26618" lon="-2.30753">
        <ele>5.8000001907349</ele>
        <time>2021-07-18T07:29:27.000Z</time>
      </trkpt>
      <trkpt lat="47.26613" lon="-2.30758">
        <ele>5.8000001907349</ele>
        <time>2021-07-18T07:29:29.000Z</time>
      </trkpt>
      <trkpt lat="47.2661" lon="-2.30761">
        <ele>5.8000001907349</ele>
        <time>2021-07-18T07:29:30.000Z</time>
      </trkpt>
      <trkpt lat="47.26596" lon="-2.30778">
        <ele>5.8000001907349</ele>
        <time>2021-07-18T07:29:34.000Z</time>
      </trkpt>
      <trkpt lat="47.26592" lon="-2.30783">
        <ele>5.8000001907349</ele>
        <time>2021-07-18T07:29:35.000Z</time>
      </trkpt>
      <trkpt lat="47.26573" lon="-2.3081">
        <ele>5.4000000953674</ele>
        <time>2021-07-18T07:29:40.000Z</time>
      </trkpt>
      <trkpt lat="47.2657" lon="-2.30816">
        <ele>5</ele>
        <time>2021-07-18T07:29:41.000Z</time>
      </trkpt>
      <trkpt lat="47.26568" lon="-2.30822">
        <ele>4.5999999046326</ele>
        <time>2021-07-18T07:29:42.000Z</time>
      </trkpt>
      <trkpt lat="47.26566" lon="-2.30826">
        <ele>4.1999998092651</ele>
        <time>2021-07-18T07:29:43.000Z</time>
      </trkpt>
      <trkpt lat="47.26564" lon="-2.3083">
        <ele>3.7999999523163</ele>
        <time>2021-07-18T07:29:44.000Z</time>
      </trkpt>
      <trkpt lat="47.26558" lon="-2.30838">
        <ele>3.7999999523163</ele>
        <time>2021-07-18T07:29:46.000Z</time>
      </trkpt>
      <trkpt lat="47.2654" lon="-2.30858">
        <ele>3.4000000953674</ele>
        <time>2021-07-18T07:29:52.000Z</time>
      </trkpt>
      <trkpt lat="47.26537" lon="-2.30861">
        <ele>3</ele>
        <time>2021-07-18T07:29:53.000Z</time>
      </trkpt>
      <trkpt lat="47.26534" lon="-2.30865">
        <ele>2.4000000953674</ele>
        <time>2021-07-18T07:29:54.000Z</time>
      </trkpt>
      <trkpt lat="47.26531" lon="-2.30868">
        <ele>2</ele>
        <time>2021-07-18T07:29:55.000Z</time>
      </trkpt>
      <trkpt lat="47.26528" lon="-2.3087">
        <ele>1.6000000238419</ele>
        <time>2021-07-18T07:29:56.000Z</time>
      </trkpt>
      <trkpt lat="47.26521" lon="-2.30877">
        <ele>1.6000000238419</ele>
        <time>2021-07-18T07:29:58.000Z</time>
      </trkpt>
      <trkpt lat="47.26507" lon="-2.30879">
        <ele>1.6000000238419</ele>
        <time>2021-07-18T07:30:02.000Z</time>
      </trkpt>
      <trkpt lat="47.26503" lon="-2.30878">
        <ele>1.6000000238419</ele>
        <time>2021-07-18T07:30:03.000Z</time>
      </trkpt>
      <trkpt lat="47.26499" lon="-2.30872">
        <ele>1.6000000238419</ele>
        <time>2021-07-18T07:30:05.000Z</time>
      </trkpt>
      <trkpt lat="47.2649" lon="-2.30855">
        <ele>2.2000000476837</ele>
        <time>2021-07-18T07:30:10.000Z</time>
      </trkpt>
      <trkpt lat="47.26488" lon="-2.30852">
        <ele>2.5999999046326</ele>
        <time>2021-07-18T07:30:11.000Z</time>
      </trkpt>
      <trkpt lat="47.26487" lon="-2.30848">
        <ele>3</ele>
        <time>2021-07-18T07:30:12.000Z</time>
      </trkpt>
      <trkpt lat="47.26485" lon="-2.30844">
        <ele>3.4000000953674</ele>
        <time>2021-07-18T07:30:13.000Z</time>
      </trkpt>
      <trkpt lat="47.26483" lon="-2.30839">
        <ele>4</ele>
        <time>2021-07-18T07:30:14.000Z</time>
      </trkpt>
      <trkpt lat="47.26474" lon="-2.30819">
        <ele>4.4000000953674</ele>
        <time>2021-07-18T07:30:18.000Z</time>
      </trkpt>
      <trkpt lat="47.26472" lon="-2.30815">
        <ele>4.8000001907349</ele>
        <time>2021-07-18T07:30:19.000Z</time>
      </trkpt>
      <trkpt lat="47.2647" lon="-2.30809">
        <ele>5.1999998092651</ele>
        <time>2021-07-18T07:30:20.000Z</time>
      </trkpt>
      <trkpt lat="47.26467" lon="-2.30803">
        <ele>5.5999999046326</ele>
        <time>2021-07-18T07:30:21.000Z</time>
      </trkpt>
      <trkpt lat="47.26465" lon="-2.30797">
        <ele>6</ele>
        <time>2021-07-18T07:30:22.000Z</time>
      </trkpt>
      <trkpt lat="47.26454" lon="-2.30768">
        <ele>6</ele>
        <time>2021-07-18T07:30:27.000Z</time>
      </trkpt>
      <trkpt lat="47.26452" lon="-2.30762">
        <ele>6.4000000953674</ele>
        <time>2021-07-18T07:30:28.000Z</time>
      </trkpt>
      <trkpt lat="47.2645" lon="-2.30757">
        <ele>6.8000001907349</ele>
        <time>2021-07-18T07:30:29.000Z</time>
      </trkpt>
      <trkpt lat="47.26448" lon="-2.30752">
        <ele>7.1999998092651</ele>
        <time>2021-07-18T07:30:30.000Z</time>
      </trkpt>
      <trkpt lat="47.26446" lon="-2.30747">
        <ele>7.5999999046326</ele>
        <time>2021-07-18T07:30:31.000Z</time>
      </trkpt>
      <trkpt lat="47.26444" lon="-2.30742">
        <ele>8</ele>
        <time>2021-07-18T07:30:32.000Z</time>
      </trkpt>
      <trkpt lat="47.26442" lon="-2.30737">
        <ele>8</ele>
        <time>2021-07-18T07:30:33.000Z</time>
      </trkpt>
      <trkpt lat="47.26428" lon="-2.30706">
        <ele>8</ele>
        <time>2021-07-18T07:30:39.000Z</time>
      </trkpt>
      <trkpt lat="47.26414" lon="-2.30689">
        <ele>8</ele>
        <time>2021-07-18T07:30:44.000Z</time>
      </trkpt>
      <trkpt lat="47.26389" lon="-2.30671">
        <ele>8</ele>
        <time>2021-07-18T07:30:50.000Z</time>
      </trkpt>
      <trkpt lat="47.26385" lon="-2.30668">
        <ele>8</ele>
        <time>2021-07-18T07:30:51.000Z</time>
      </trkpt>
      <trkpt lat="47.26373" lon="-2.30655">
        <ele>8</ele>
        <time>2021-07-18T07:30:54.000Z</time>
      </trkpt>
      <trkpt lat="47.2637" lon="-2.30648">
        <ele>8</ele>
        <time>2021-07-18T07:30:55.000Z</time>
      </trkpt>
      <trkpt lat="47.26361" lon="-2.3063">
        <ele>8.3999996185303</ele>
        <time>2021-07-18T07:30:58.000Z</time>
      </trkpt>
      <trkpt lat="47.26358" lon="-2.30624">
        <ele>8.8000001907349</ele>
        <time>2021-07-18T07:30:59.000Z</time>
      </trkpt>
      <trkpt lat="47.26356" lon="-2.30617">
        <ele>9.3999996185303</ele>
        <time>2021-07-18T07:31:00.000Z</time>
      </trkpt>
      <trkpt lat="47.26353" lon="-2.30611">
        <ele>9.8000001907349</ele>
        <time>2021-07-18T07:31:01.000Z</time>
      </trkpt>
      <trkpt lat="47.2635" lon="-2.30606">
        <ele>10.199999809265</ele>
        <time>2021-07-18T07:31:02.000Z</time>
      </trkpt>
      <trkpt lat="47.26341" lon="-2.30588">
        <ele>10.199999809265</ele>
        <time>2021-07-18T07:31:06.000Z</time>
      </trkpt>
      <trkpt lat="47.26341" lon="-2.30584">
        <ele>10.199999809265</ele>
        <time>2021-07-18T07:31:08.000Z</time>
      </trkpt>
      <trkpt lat="47.26341" lon="-2.3058">
        <ele>10.199999809265</ele>
        <time>2021-07-18T07:31:19.000Z</time>
      </trkpt>
      <trkpt lat="47.26341" lon="-2.30566">
        <ele>10.199999809265</ele>
        <time>2021-07-18T07:31:24.000Z</time>
      </trkpt>
      <trkpt lat="47.26341" lon="-2.30561">
        <ele>10.199999809265</ele>
        <time>2021-07-18T07:31:25.000Z</time>
      </trkpt>
      <trkpt lat="47.2634" lon="-2.30542">
        <ele>10.199999809265</ele>
        <time>2021-07-18T07:31:29.000Z</time>
      </trkpt>
      <trkpt lat="47.26333" lon="-2.30504">
        <ele>10.199999809265</ele>
        <time>2021-07-18T07:31:35.000Z</time>
      </trkpt>
      <trkpt lat="47.26332" lon="-2.30497">
        <ele>10.199999809265</ele>
        <time>2021-07-18T07:31:36.000Z</time>
      </trkpt>
      <trkpt lat="47.2633" lon="-2.30489">
        <ele>10.60000038147</ele>
        <time>2021-07-18T07:31:37.000Z</time>
      </trkpt>
      <trkpt lat="47.26329" lon="-2.30482">
        <ele>11</ele>
        <time>2021-07-18T07:31:38.000Z</time>
      </trkpt>
      <trkpt lat="47.26327" lon="-2.30474">
        <ele>11.39999961853</ele>
        <time>2021-07-18T07:31:39.000Z</time>
      </trkpt>
      <trkpt lat="47.26326" lon="-2.30466">
        <ele>11.800000190735</ele>
        <time>2021-07-18T07:31:40.000Z</time>
      </trkpt>
      <trkpt lat="47.26324" lon="-2.30458">
        <ele>12.199999809265</ele>
        <time>2021-07-18T07:31:41.000Z</time>
      </trkpt>
      <trkpt lat="47.2632" lon="-2.30438">
        <ele>12.199999809265</ele>
        <time>2021-07-18T07:31:44.000Z</time>
      </trkpt>
      <trkpt lat="47.26308" lon="-2.30383">
        <ele>12.199999809265</ele>
        <time>2021-07-18T07:31:51.000Z</time>
      </trkpt>
      <trkpt lat="47.26301" lon="-2.30338">
        <ele>12.199999809265</ele>
        <time>2021-07-18T07:31:57.000Z</time>
      </trkpt>
      <trkpt lat="47.26297" lon="-2.30323">
        <ele>12.199999809265</ele>
        <time>2021-07-18T07:32:02.000Z</time>
      </trkpt>
      <trkpt lat="47.26292" lon="-2.30312">
        <ele>12.199999809265</ele>
        <time>2021-07-18T07:32:07.000Z</time>
      </trkpt>
      <trkpt lat="47.26286" lon="-2.30289">
        <ele>12.199999809265</ele>
        <time>2021-07-18T07:32:12.000Z</time>
      </trkpt>
      <trkpt lat="47.26278" lon="-2.30255">
        <ele>12.199999809265</ele>
        <time>2021-07-18T07:32:17.000Z</time>
      </trkpt>
      <trkpt lat="47.26267" lon="-2.30195">
        <ele>12.199999809265</ele>
        <time>2021-07-18T07:32:25.000Z</time>
      </trkpt>
      <trkpt lat="47.26255" lon="-2.30155">
        <ele>12.199999809265</ele>
        <time>2021-07-18T07:32:31.000Z</time>
      </trkpt>
      <trkpt lat="47.26247" lon="-2.30134">
        <ele>12.199999809265</ele>
        <time>2021-07-18T07:32:35.000Z</time>
      </trkpt>
      <trkpt lat="47.26244" lon="-2.30133">
        <ele>12.199999809265</ele>
        <time>2021-07-18T07:32:36.000Z</time>
      </trkpt>
      <trkpt lat="47.26232" lon="-2.30135">
        <ele>12.199999809265</ele>
        <time>2021-07-18T07:32:39.000Z</time>
      </trkpt>
      <trkpt lat="47.26228" lon="-2.30137">
        <ele>12.199999809265</ele>
        <time>2021-07-18T07:32:40.000Z</time>
      </trkpt>
      <trkpt lat="47.26194" lon="-2.30152">
        <ele>12.199999809265</ele>
        <time>2021-07-18T07:32:47.000Z</time>
      </trkpt>
      <trkpt lat="47.26175" lon="-2.30155">
        <ele>12.199999809265</ele>
        <time>2021-07-18T07:32:52.000Z</time>
      </trkpt>
      <trkpt lat="47.26168" lon="-2.30145">
        <ele>12.199999809265</ele>
        <time>2021-07-18T07:32:56.000Z</time>
      </trkpt>
      <trkpt lat="47.26165" lon="-2.30145">
        <ele>11.800000190735</ele>
        <time>2021-07-18T07:32:57.000Z</time>
      </trkpt>
      <trkpt lat="47.26161" lon="-2.30146">
        <ele>11.39999961853</ele>
        <time>2021-07-18T07:32:58.000Z</time>
      </trkpt>
      <trkpt lat="47.26157" lon="-2.30147">
        <ele>11</ele>
        <time>2021-07-18T07:32:59.000Z</time>
      </trkpt>
      <trkpt lat="47.26153" lon="-2.30149">
        <ele>10.60000038147</ele>
        <time>2021-07-18T07:33:00.000Z</time>
      </trkpt>
      <trkpt lat="47.26148" lon="-2.30151">
        <ele>10.199999809265</ele>
        <time>2021-07-18T07:33:01.000Z</time>
      </trkpt>
      <trkpt lat="47.26124" lon="-2.30159">
        <ele>10.199999809265</ele>
        <time>2021-07-18T07:33:06.000Z</time>
      </trkpt>
      <trkpt lat="47.26115" lon="-2.30162">
        <ele>9.6000003814697</ele>
        <time>2021-07-18T07:33:08.000Z</time>
      </trkpt>
      <trkpt lat="47.2611" lon="-2.30163">
        <ele>9.1999998092651</ele>
        <time>2021-07-18T07:33:09.000Z</time>
      </trkpt>
      <trkpt lat="47.26107" lon="-2.30164">
        <ele>8.8000001907349</ele>
        <time>2021-07-18T07:33:10.000Z</time>
      </trkpt>
      <trkpt lat="47.26104" lon="-2.30163">
        <ele>8.3999996185303</ele>
        <time>2021-07-18T07:33:11.000Z</time>
      </trkpt>
      <trkpt lat="47.26103" lon="-2.30159">
        <ele>8</ele>
        <time>2021-07-18T07:33:12.000Z</time>
      </trkpt>
      <trkpt lat="47.26101" lon="-2.30155">
        <ele>8</ele>
        <time>2021-07-18T07:33:13.000Z</time>
      </trkpt>
      <trkpt lat="47.26099" lon="-2.30152">
        <ele>8</ele>
        <time>2021-07-18T07:33:14.000Z</time>
      </trkpt>
      <trkpt lat="47.26094" lon="-2.3015">
        <ele>8</ele>
        <time>2021-07-18T07:33:16.000Z</time>
      </trkpt>
      <trkpt lat="47.2609" lon="-2.30149">
        <ele>7.5999999046326</ele>
        <time>2021-07-18T07:33:17.000Z</time>
      </trkpt>
      <trkpt lat="47.26087" lon="-2.30149">
        <ele>7.1999998092651</ele>
        <time>2021-07-18T07:33:18.000Z</time>
      </trkpt>
      <trkpt lat="47.26083" lon="-2.30149">
        <ele>6.8000001907349</ele>
        <time>2021-07-18T07:33:19.000Z</time>
      </trkpt>
      <trkpt lat="47.26079" lon="-2.30149">
        <ele>6.4000000953674</ele>
        <time>2021-07-18T07:33:20.000Z</time>
      </trkpt>
      <trkpt lat="47.26075" lon="-2.30148">
        <ele>6</ele>
        <time>2021-07-18T07:33:21.000Z</time>
      </trkpt>
      <trkpt lat="47.26072" lon="-2.30146">
        <ele>6</ele>
        <time>2021-07-18T07:33:22.000Z</time>
      </trkpt>
      <trkpt lat="47.26057" lon="-2.30137">
        <ele>6</ele>
        <time>2021-07-18T07:33:26.000Z</time>
      </trkpt>
      <trkpt lat="47.26046" lon="-2.3014">
        <ele>6</ele>
        <time>2021-07-18T07:33:28.000Z</time>
      </trkpt>
      <trkpt lat="47.26035" lon="-2.3014">
        <ele>5.5999999046326</ele>
        <time>2021-07-18T07:33:30.000Z</time>
      </trkpt>
      <trkpt lat="47.26031" lon="-2.3014">
        <ele>5</ele>
        <time>2021-07-18T07:33:31.000Z</time>
      </trkpt>
      <trkpt lat="47.26026" lon="-2.30138">
        <ele>4.5999999046326</ele>
        <time>2021-07-18T07:33:32.000Z</time>
      </trkpt>
      <trkpt lat="47.26021" lon="-2.30137">
        <ele>4.1999998092651</ele>
        <time>2021-07-18T07:33:33.000Z</time>
      </trkpt>
      <trkpt lat="47.26016" lon="-2.30138">
        <ele>3.7999999523163</ele>
        <time>2021-07-18T07:33:34.000Z</time>
      </trkpt>
      <trkpt lat="47.2601" lon="-2.30138">
        <ele>3.7999999523163</ele>
        <time>2021-07-18T07:33:35.000Z</time>
      </trkpt>
      <trkpt lat="47.25982" lon="-2.3014">
        <ele>3.4000000953674</ele>
        <time>2021-07-18T07:33:41.000Z</time>
      </trkpt>
      <trkpt lat="47.25978" lon="-2.30141">
        <ele>3</ele>
        <time>2021-07-18T07:33:42.000Z</time>
      </trkpt>
      <trkpt lat="47.25974" lon="-2.30142">
        <ele>2.4000000953674</ele>
        <time>2021-07-18T07:33:43.000Z</time>
      </trkpt>
      <trkpt lat="47.25971" lon="-2.30145">
        <ele>2</ele>
        <time>2021-07-18T07:33:44.000Z</time>
      </trkpt>
      <trkpt lat="47.25969" lon="-2.30149">
        <ele>1.6000000238419</ele>
        <time>2021-07-18T07:33:45.000Z</time>
      </trkpt>
      <trkpt lat="47.25953" lon="-2.30168">
        <ele>1.6000000238419</ele>
        <time>2021-07-18T07:33:50.000Z</time>
      </trkpt>
      <trkpt lat="47.25937" lon="-2.30173">
        <ele>1.6000000238419</ele>
        <time>2021-07-18T07:33:54.000Z</time>
      </trkpt>
      <trkpt lat="47.25932" lon="-2.30174">
        <ele>1.6000000238419</ele>
        <time>2021-07-18T07:33:55.000Z</time>
      </trkpt>
      <trkpt lat="47.25904" lon="-2.3018">
        <ele>1.6000000238419</ele>
        <time>2021-07-18T07:34:01.000Z</time>
      </trkpt>
      <trkpt lat="47.25902" lon="-2.30182">
        <ele>1.6000000238419</ele>
        <time>2021-07-18T07:34:02.000Z</time>
      </trkpt>
      <trkpt lat="47.25894" lon="-2.30195">
        <ele>1.6000000238419</ele>
        <time>2021-07-18T07:34:05.000Z</time>
      </trkpt>
      <trkpt lat="47.25895" lon="-2.30214">
        <ele>1.6000000238419</ele>
        <time>2021-07-18T07:34:08.000Z</time>
      </trkpt>
      <trkpt lat="47.25895" lon="-2.30221">
        <ele>1.6000000238419</ele>
        <time>2021-07-18T07:34:09.000Z</time>
      </trkpt>
      <trkpt lat="47.25895" lon="-2.30268">
        <ele>1.6000000238419</ele>
        <time>2021-07-18T07:34:16.000Z</time>
      </trkpt>
      <trkpt lat="47.25895" lon="-2.30287">
        <ele>1.6000000238419</ele>
        <time>2021-07-18T07:34:19.000Z</time>
      </trkpt>
      <trkpt lat="47.25892" lon="-2.303">
        <ele>2</ele>
        <time>2021-07-18T07:34:21.000Z</time>
      </trkpt>
      <trkpt lat="47.25889" lon="-2.30305">
        <ele>2.4000000953674</ele>
        <time>2021-07-18T07:34:22.000Z</time>
      </trkpt>
      <trkpt lat="47.25885" lon="-2.30308">
        <ele>2.7999999523163</ele>
        <time>2021-07-18T07:34:23.000Z</time>
      </trkpt>
      <trkpt lat="47.2588" lon="-2.30309">
        <ele>3.4000000953674</ele>
        <time>2021-07-18T07:34:24.000Z</time>
      </trkpt>
      <trkpt lat="47.25876" lon="-2.30308">
        <ele>3.7999999523163</ele>
        <time>2021-07-18T07:34:25.000Z</time>
      </trkpt>
      <trkpt lat="47.25871" lon="-2.30309">
        <ele>3.7999999523163</ele>
        <time>2021-07-18T07:34:26.000Z</time>
      </trkpt>
      <trkpt lat="47.25863" lon="-2.30307">
        <ele>3.7999999523163</ele>
        <time>2021-07-18T07:34:28.000Z</time>
      </trkpt>
      <trkpt lat="47.2585" lon="-2.30283">
        <ele>3.7999999523163</ele>
        <time>2021-07-18T07:34:32.000Z</time>
      </trkpt>
      <trkpt lat="47.25834" lon="-2.30272">
        <ele>3.7999999523163</ele>
        <time>2021-07-18T07:34:35.000Z</time>
      </trkpt>
      <trkpt lat="47.25828" lon="-2.30269">
        <ele>3.7999999523163</ele>
        <time>2021-07-18T07:34:36.000Z</time>
      </trkpt>
      <trkpt lat="47.25791" lon="-2.30252">
        <ele>3.4000000953674</ele>
        <time>2021-07-18T07:34:42.000Z</time>
      </trkpt>
      <trkpt lat="47.25784" lon="-2.30249">
        <ele>3</ele>
        <time>2021-07-18T07:34:43.000Z</time>
      </trkpt>
      <trkpt lat="47.25778" lon="-2.30246">
        <ele>2.5999999046326</ele>
        <time>2021-07-18T07:34:44.000Z</time>
      </trkpt>
      <trkpt lat="47.25772" lon="-2.30244">
        <ele>2.2000000476837</ele>
        <time>2021-07-18T07:34:45.000Z</time>
      </trkpt>
      <trkpt lat="47.25766" lon="-2.30241">
        <ele>1.7999999523163</ele>
        <time>2021-07-18T07:34:46.000Z</time>
      </trkpt>
      <trkpt lat="47.25744" lon="-2.30231">
        <ele>1.7999999523163</ele>
        <time>2021-07-18T07:34:50.000Z</time>
      </trkpt>
      <trkpt lat="47.25722" lon="-2.30222">
        <ele>1.7999999523163</ele>
        <time>2021-07-18T07:34:54.000Z</time>
      </trkpt>
      <trkpt lat="47.25716" lon="-2.30222">
        <ele>1.7999999523163</ele>
        <time>2021-07-18T07:34:55.000Z</time>
      </trkpt>
      <trkpt lat="47.25711" lon="-2.30223">
        <ele>2.2000000476837</ele>
        <time>2021-07-18T07:34:56.000Z</time>
      </trkpt>
      <trkpt lat="47.25706" lon="-2.30225">
        <ele>2.5999999046326</ele>
        <time>2021-07-18T07:34:57.000Z</time>
      </trkpt>
      <trkpt lat="47.25701" lon="-2.30229">
        <ele>3</ele>
        <time>2021-07-18T07:34:58.000Z</time>
      </trkpt>
      <trkpt lat="47.25698" lon="-2.30234">
        <ele>3.5999999046326</ele>
        <time>2021-07-18T07:34:59.000Z</time>
      </trkpt>
      <trkpt lat="47.25695" lon="-2.3024">
        <ele>4</ele>
        <time>2021-07-18T07:35:00.000Z</time>
      </trkpt>
      <trkpt lat="47.25691" lon="-2.30253">
        <ele>4</ele>
        <time>2021-07-18T07:35:02.000Z</time>
      </trkpt>
      <trkpt lat="47.25694" lon="-2.30273">
        <ele>4</ele>
        <time>2021-07-18T07:35:05.000Z</time>
      </trkpt>
      <trkpt lat="47.2569" lon="-2.30291">
        <ele>4</ele>
        <time>2021-07-18T07:35:08.000Z</time>
      </trkpt>
      <trkpt lat="47.25673" lon="-2.30316">
        <ele>4</ele>
        <time>2021-07-18T07:35:13.000Z</time>
      </trkpt>
      <trkpt lat="47.25667" lon="-2.30319">
        <ele>4</ele>
        <time>2021-07-18T07:35:14.000Z</time>
      </trkpt>
      <trkpt lat="47.25658" lon="-2.30326">
        <ele>4</ele>
        <time>2021-07-18T07:35:16.000Z</time>
      </trkpt>
      <trkpt lat="47.25646" lon="-2.3034">
        <ele>4</ele>
        <time>2021-07-18T07:35:19.000Z</time>
      </trkpt>
      <trkpt lat="47.25642" lon="-2.30344">
        <ele>4</ele>
        <time>2021-07-18T07:35:20.000Z</time>
      </trkpt>
      <trkpt lat="47.25633" lon="-2.30343">
        <ele>4</ele>
        <time>2021-07-18T07:35:22.000Z</time>
      </trkpt>
      <trkpt lat="47.25625" lon="-2.30329">
        <ele>4</ele>
        <time>2021-07-18T07:35:25.000Z</time>
      </trkpt>
      <trkpt lat="47.25622" lon="-2.30315">
        <ele>4</ele>
        <time>2021-07-18T07:35:27.000Z</time>
      </trkpt>
      <trkpt lat="47.25621" lon="-2.30307">
        <ele>4</ele>
        <time>2021-07-18T07:35:28.000Z</time>
      </trkpt>
      <trkpt lat="47.25621" lon="-2.30289">
        <ele>4.4000000953674</ele>
        <time>2021-07-18T07:35:30.000Z</time>
      </trkpt>
      <trkpt lat="47.2562" lon="-2.3028">
        <ele>4.8000001907349</ele>
        <time>2021-07-18T07:35:31.000Z</time>
      </trkpt>
      <trkpt lat="47.25619" lon="-2.30272">
        <ele>5.1999998092651</ele>
        <time>2021-07-18T07:35:32.000Z</time>
      </trkpt>
      <trkpt lat="47.25617" lon="-2.30264">
        <ele>5.5999999046326</ele>
        <time>2021-07-18T07:35:33.000Z</time>
      </trkpt>
      <trkpt lat="47.25616" lon="-2.30256">
        <ele>6</ele>
        <time>2021-07-18T07:35:34.000Z</time>
      </trkpt>
      <trkpt lat="47.25609" lon="-2.30231">
        <ele>6</ele>
        <time>2021-07-18T07:35:37.000Z</time>
      </trkpt>
      <trkpt lat="47.25595" lon="-2.30206">
        <ele>6</ele>
        <time>2021-07-18T07:35:41.000Z</time>
      </trkpt>
      <trkpt lat="47.25582" lon="-2.30192">
        <ele>6</ele>
        <time>2021-07-18T07:35:44.000Z</time>
      </trkpt>
      <trkpt lat="47.25577" lon="-2.30188">
        <ele>6</ele>
        <time>2021-07-18T07:35:45.000Z</time>
      </trkpt>
      <trkpt lat="47.25572" lon="-2.30186">
        <ele>6</ele>
        <time>2021-07-18T07:35:46.000Z</time>
      </trkpt>
      <trkpt lat="47.25552" lon="-2.30185">
        <ele>6</ele>
        <time>2021-07-18T07:35:50.000Z</time>
      </trkpt>
      <trkpt lat="47.25542" lon="-2.30189">
        <ele>6</ele>
        <time>2021-07-18T07:35:52.000Z</time>
      </trkpt>
      <trkpt lat="47.25535" lon="-2.30193">
        <ele>6</ele>
        <time>2021-07-18T07:35:54.000Z</time>
      </trkpt>
      <trkpt lat="47.25522" lon="-2.30196">
        <ele>6</ele>
        <time>2021-07-18T07:35:59.000Z</time>
      </trkpt>
      <trkpt lat="47.25507" lon="-2.30198">
        <ele>6</ele>
        <time>2021-07-18T07:36:04.000Z</time>
      </trkpt>
      <trkpt lat="47.25492" lon="-2.30215">
        <ele>6</ele>
        <time>2021-07-18T07:36:09.000Z</time>
      </trkpt>
      <trkpt lat="47.25487" lon="-2.30226">
        <ele>6</ele>
        <time>2021-07-18T07:36:11.000Z</time>
      </trkpt>
      <trkpt lat="47.25484" lon="-2.30238">
        <ele>6</ele>
        <time>2021-07-18T07:36:13.000Z</time>
      </trkpt>
      <trkpt lat="47.25477" lon="-2.30246">
        <ele>6</ele>
        <time>2021-07-18T07:36:16.000Z</time>
      </trkpt>
      <trkpt lat="47.25471" lon="-2.30246">
        <ele>6.5999999046326</ele>
        <time>2021-07-18T07:36:18.000Z</time>
      </trkpt>
      <trkpt lat="47.25468" lon="-2.30246">
        <ele>7</ele>
        <time>2021-07-18T07:36:19.000Z</time>
      </trkpt>
      <trkpt lat="47.25464" lon="-2.30246">
        <ele>7.4000000953674</ele>
        <time>2021-07-18T07:36:20.000Z</time>
      </trkpt>
      <trkpt lat="47.2546" lon="-2.30245">
        <ele>7.8000001907349</ele>
        <time>2021-07-18T07:36:21.000Z</time>
      </trkpt>
      <trkpt lat="47.25456" lon="-2.30244">
        <ele>8.1999998092651</ele>
        <time>2021-07-18T07:36:22.000Z</time>
      </trkpt>
      <trkpt lat="47.25432" lon="-2.30237">
        <ele>8.1999998092651</ele>
        <time>2021-07-18T07:36:27.000Z</time>
      </trkpt>
      <trkpt lat="47.25416" lon="-2.30234">
        <ele>8.1999998092651</ele>
        <time>2021-07-18T07:36:30.000Z</time>
      </trkpt>
      <trkpt lat="47.25407" lon="-2.30229">
        <ele>8.1999998092651</ele>
        <time>2021-07-18T07:36:32.000Z</time>
      </trkpt>
      <trkpt lat="47.2539" lon="-2.30221">
        <ele>8.6000003814697</ele>
        <time>2021-07-18T07:36:36.000Z</time>
      </trkpt>
      <trkpt lat="47.25387" lon="-2.30219">
        <ele>9</ele>
        <time>2021-07-18T07:36:37.000Z</time>
      </trkpt>
      <trkpt lat="47.25383" lon="-2.30218">
        <ele>9.3999996185303</ele>
        <time>2021-07-18T07:36:38.000Z</time>
      </trkpt>
      <trkpt lat="47.25379" lon="-2.30218">
        <ele>9.8000001907349</ele>
        <time>2021-07-18T07:36:39.000Z</time>
      </trkpt>
      <trkpt lat="47.25374" lon="-2.30218">
        <ele>10.199999809265</ele>
        <time>2021-07-18T07:36:40.000Z</time>
      </trkpt>
      <trkpt lat="47.25363" lon="-2.30217">
        <ele>10.199999809265</ele>
        <time>2021-07-18T07:36:42.000Z</time>
      </trkpt>
      <trkpt lat="47.25331" lon="-2.30213">
        <ele>10.199999809265</ele>
        <time>2021-07-18T07:36:48.000Z</time>
      </trkpt>
      <trkpt lat="47.2532" lon="-2.3021">
        <ele>10.199999809265</ele>
        <time>2021-07-18T07:36:50.000Z</time>
      </trkpt>
      <trkpt lat="47.2531" lon="-2.3021">
        <ele>10.199999809265</ele>
        <time>2021-07-18T07:36:53.000Z</time>
      </trkpt>
      <trkpt lat="47.25308" lon="-2.30211">
        <ele>10.199999809265</ele>
        <time>2021-07-18T07:36:54.000Z</time>
      </trkpt>
      <trkpt lat="47.25298" lon="-2.30213">
        <ele>10.60000038147</ele>
        <time>2021-07-18T07:37:00.000Z</time>
      </trkpt>
      <trkpt lat="47.25296" lon="-2.30213">
        <ele>11</ele>
        <time>2021-07-18T07:37:01.000Z</time>
      </trkpt>
      <trkpt lat="47.25294" lon="-2.30212">
        <ele>11.60000038147</ele>
        <time>2021-07-18T07:37:02.000Z</time>
      </trkpt>
      <trkpt lat="47.25291" lon="-2.30211">
        <ele>12</ele>
        <time>2021-07-18T07:37:03.000Z</time>
      </trkpt>
      <trkpt lat="47.25288" lon="-2.30209">
        <ele>12.39999961853</ele>
        <time>2021-07-18T07:37:04.000Z</time>
      </trkpt>
      <trkpt lat="47.25281" lon="-2.30204">
        <ele>12.39999961853</ele>
        <time>2021-07-18T07:37:06.000Z</time>
      </trkpt>
      <trkpt lat="47.2525" lon="-2.30189">
        <ele>12.39999961853</ele>
        <time>2021-07-18T07:37:13.000Z</time>
      </trkpt>
      <trkpt lat="47.25233" lon="-2.30183">
        <ele>12.39999961853</ele>
        <time>2021-07-18T07:37:17.000Z</time>
      </trkpt>
      <trkpt lat="47.25229" lon="-2.3018">
        <ele>12.800000190735</ele>
        <time>2021-07-18T07:37:18.000Z</time>
      </trkpt>
      <trkpt lat="47.25225" lon="-2.30177">
        <ele>13.199999809265</ele>
        <time>2021-07-18T07:37:19.000Z</time>
      </trkpt>
      <trkpt lat="47.25222" lon="-2.30174">
        <ele>13.60000038147</ele>
        <time>2021-07-18T07:37:20.000Z</time>
      </trkpt>
      <trkpt lat="47.25219" lon="-2.3017">
        <ele>14.39999961853</ele>
        <time>2021-07-18T07:37:21.000Z</time>
      </trkpt>
      <trkpt lat="47.25206" lon="-2.30156">
        <ele>14.39999961853</ele>
        <time>2021-07-18T07:37:24.000Z</time>
      </trkpt>
      <trkpt lat="47.25199" lon="-2.30148">
        <ele>14.39999961853</ele>
        <time>2021-07-18T07:37:26.000Z</time>
      </trkpt>
      <trkpt lat="47.25193" lon="-2.30137">
        <ele>14.800000190735</ele>
        <time>2021-07-18T07:37:28.000Z</time>
      </trkpt>
      <trkpt lat="47.2519" lon="-2.30132">
        <ele>15.199999809265</ele>
        <time>2021-07-18T07:37:29.000Z</time>
      </trkpt>
      <trkpt lat="47.25188" lon="-2.30126">
        <ele>15.60000038147</ele>
        <time>2021-07-18T07:37:30.000Z</time>
      </trkpt>
      <trkpt lat="47.25184" lon="-2.30123">
        <ele>16</ele>
        <time>2021-07-18T07:37:31.000Z</time>
      </trkpt>
      <trkpt lat="47.25181" lon="-2.30121">
        <ele>16.39999961853</ele>
        <time>2021-07-18T07:37:32.000Z</time>
      </trkpt>
      <trkpt lat="47.25177" lon="-2.30121">
        <ele>16.39999961853</ele>
        <time>2021-07-18T07:37:33.000Z</time>
      </trkpt>
      <trkpt lat="47.25156" lon="-2.30127">
        <ele>16.39999961853</ele>
        <time>2021-07-18T07:37:37.000Z</time>
      </trkpt>
      <trkpt lat="47.25135" lon="-2.30132">
        <ele>16.39999961853</ele>
        <time>2021-07-18T07:37:41.000Z</time>
      </trkpt>
      <trkpt lat="47.25122" lon="-2.30134">
        <ele>16.39999961853</ele>
        <time>2021-07-18T07:37:44.000Z</time>
      </trkpt>
      <trkpt lat="47.25113" lon="-2.30134">
        <ele>16.799999237061</ele>
        <time>2021-07-18T07:37:46.000Z</time>
      </trkpt>
      <trkpt lat="47.25107" lon="-2.30134">
        <ele>17.200000762939</ele>
        <time>2021-07-18T07:37:47.000Z</time>
      </trkpt>
      <trkpt lat="47.25102" lon="-2.30135">
        <ele>17.60000038147</ele>
        <time>2021-07-18T07:37:48.000Z</time>
      </trkpt>
      <trkpt lat="47.25097" lon="-2.30135">
        <ele>18</ele>
        <time>2021-07-18T07:37:49.000Z</time>
      </trkpt>
      <trkpt lat="47.25093" lon="-2.30136">
        <ele>18.39999961853</ele>
        <time>2021-07-18T07:37:50.000Z</time>
      </trkpt>
      <trkpt lat="47.25089" lon="-2.30136">
        <ele>18.39999961853</ele>
        <time>2021-07-18T07:37:51.000Z</time>
      </trkpt>
      <trkpt lat="47.25073" lon="-2.30135">
        <ele>18.39999961853</ele>
        <time>2021-07-18T07:37:56.000Z</time>
      </trkpt>
      <trkpt lat="47.25069" lon="-2.30127">
        <ele>18.39999961853</ele>
        <time>2021-07-18T07:38:01.000Z</time>
      </trkpt>
      <trkpt lat="47.25069" lon="-2.30098">
        <ele>18.39999961853</ele>
        <time>2021-07-18T07:38:07.000Z</time>
      </trkpt>
      <trkpt lat="47.25071" lon="-2.30063">
        <ele>18.39999961853</ele>
        <time>2021-07-18T07:38:13.000Z</time>
      </trkpt>
      <trkpt lat="47.25067" lon="-2.30054">
        <ele>18.39999961853</ele>
        <time>2021-07-18T07:38:16.000Z</time>
      </trkpt>
      <trkpt lat="47.25053" lon="-2.30053">
        <ele>18.39999961853</ele>
        <time>2021-07-18T07:38:20.000Z</time>
      </trkpt>
      <trkpt lat="47.25022" lon="-2.30053">
        <ele>18.799999237061</ele>
        <time>2021-07-18T07:38:26.000Z</time>
      </trkpt>
      <trkpt lat="47.25017" lon="-2.30052">
        <ele>19.200000762939</ele>
        <time>2021-07-18T07:38:27.000Z</time>
      </trkpt>
      <trkpt lat="47.25012" lon="-2.30052">
        <ele>19.60000038147</ele>
        <time>2021-07-18T07:38:28.000Z</time>
      </trkpt>
      <trkpt lat="47.25007" lon="-2.30052">
        <ele>20</ele>
        <time>2021-07-18T07:38:29.000Z</time>
      </trkpt>
      <trkpt lat="47.25002" lon="-2.30053">
        <ele>20.60000038147</ele>
        <time>2021-07-18T07:38:30.000Z</time>
      </trkpt>
      <trkpt lat="47.24981" lon="-2.30055">
        <ele>20.60000038147</ele>
        <time>2021-07-18T07:38:34.000Z</time>
      </trkpt>
      <trkpt lat="47.24939" lon="-2.30056">
        <ele>20.60000038147</ele>
        <time>2021-07-18T07:38:42.000Z</time>
      </trkpt>
      <trkpt lat="47.24909" lon="-2.30057">
        <ele>20.60000038147</ele>
        <time>2021-07-18T07:38:48.000Z</time>
      </trkpt>
      <trkpt lat="47.24906" lon="-2.30055">
        <ele>20.60000038147</ele>
        <time>2021-07-18T07:38:49.000Z</time>
      </trkpt>
      <trkpt lat="47.24903" lon="-2.30045">
        <ele>20.60000038147</ele>
        <time>2021-07-18T07:38:51.000Z</time>
      </trkpt>
      <trkpt lat="47.24902" lon="-2.30031">
        <ele>20.60000038147</ele>
        <time>2021-07-18T07:38:53.000Z</time>
      </trkpt>
      <trkpt lat="47.24899" lon="-2.30007">
        <ele>20.60000038147</ele>
        <time>2021-07-18T07:38:56.000Z</time>
      </trkpt>
      <trkpt lat="47.24887" lon="-2.29959">
        <ele>20.60000038147</ele>
        <time>2021-07-18T07:39:02.000Z</time>
      </trkpt>
      <trkpt lat="47.24882" lon="-2.29944">
        <ele>21</ele>
        <time>2021-07-18T07:39:04.000Z</time>
      </trkpt>
      <trkpt lat="47.2488" lon="-2.29936">
        <ele>21.39999961853</ele>
        <time>2021-07-18T07:39:05.000Z</time>
      </trkpt>
      <trkpt lat="47.24879" lon="-2.29929">
        <ele>21.799999237061</ele>
        <time>2021-07-18T07:39:06.000Z</time>
      </trkpt>
      <trkpt lat="47.24877" lon="-2.2992">
        <ele>22.200000762939</ele>
        <time>2021-07-18T07:39:07.000Z</time>
      </trkpt>
      <trkpt lat="47.24876" lon="-2.29912">
        <ele>22.60000038147</ele>
        <time>2021-07-18T07:39:08.000Z</time>
      </trkpt>
      <trkpt lat="47.24875" lon="-2.29904">
        <ele>22.60000038147</ele>
        <time>2021-07-18T07:39:09.000Z</time>
      </trkpt>
      <trkpt lat="47.24868" lon="-2.29859">
        <ele>22.60000038147</ele>
        <time>2021-07-18T07:39:15.000Z</time>
      </trkpt>
      <trkpt lat="47.24865" lon="-2.29846">
        <ele>22.60000038147</ele>
        <time>2021-07-18T07:39:17.000Z</time>
      </trkpt>
      <trkpt lat="47.24861" lon="-2.29831">
        <ele>22.60000038147</ele>
        <time>2021-07-18T07:39:20.000Z</time>
      </trkpt>
      <trkpt lat="47.24853" lon="-2.29833">
        <ele>22.60000038147</ele>
        <time>2021-07-18T07:39:23.000Z</time>
      </trkpt>
      <trkpt lat="47.2485" lon="-2.29836">
        <ele>22.60000038147</ele>
        <time>2021-07-18T07:39:24.000Z</time>
      </trkpt>
      <trkpt lat="47.24835" lon="-2.29844">
        <ele>22.60000038147</ele>
        <time>2021-07-18T07:39:28.000Z</time>
      </trkpt>
      <trkpt lat="47.2481" lon="-2.29852">
        <ele>22.60000038147</ele>
        <time>2021-07-18T07:39:33.000Z</time>
      </trkpt>
      <trkpt lat="47.24777" lon="-2.29871">
        <ele>22.60000038147</ele>
        <time>2021-07-18T07:39:39.000Z</time>
      </trkpt>
      <trkpt lat="47.24749" lon="-2.29896">
        <ele>22.60000038147</ele>
        <time>2021-07-18T07:39:45.000Z</time>
      </trkpt>
      <trkpt lat="47.24746" lon="-2.29919">
        <ele>22.60000038147</ele>
        <time>2021-07-18T07:39:48.000Z</time>
      </trkpt>
      <trkpt lat="47.24746" lon="-2.29928">
        <ele>22.60000038147</ele>
        <time>2021-07-18T07:39:49.000Z</time>
      </trkpt>
      <trkpt lat="47.24743" lon="-2.29969">
        <ele>22</ele>
        <time>2021-07-18T07:39:54.000Z</time>
      </trkpt>
      <trkpt lat="47.24742" lon="-2.29978">
        <ele>21.60000038147</ele>
        <time>2021-07-18T07:39:55.000Z</time>
      </trkpt>
      <trkpt lat="47.2474" lon="-2.29987">
        <ele>21.200000762939</ele>
        <time>2021-07-18T07:39:56.000Z</time>
      </trkpt>
      <trkpt lat="47.24737" lon="-2.29995">
        <ele>20.799999237061</ele>
        <time>2021-07-18T07:39:57.000Z</time>
      </trkpt>
      <trkpt lat="47.24733" lon="-2.30002">
        <ele>20.39999961853</ele>
        <time>2021-07-18T07:39:58.000Z</time>
      </trkpt>
      <trkpt lat="47.24728" lon="-2.3001">
        <ele>20.39999961853</ele>
        <time>2021-07-18T07:39:59.000Z</time>
      </trkpt>
      <trkpt lat="47.24719" lon="-2.30023">
        <ele>20.39999961853</ele>
        <time>2021-07-18T07:40:01.000Z</time>
      </trkpt>
      <trkpt lat="47.24703" lon="-2.3004">
        <ele>20.39999961853</ele>
        <time>2021-07-18T07:40:04.000Z</time>
      </trkpt>
      <trkpt lat="47.24697" lon="-2.30045">
        <ele>20.39999961853</ele>
        <time>2021-07-18T07:40:05.000Z</time>
      </trkpt>
      <trkpt lat="47.24675" lon="-2.30061">
        <ele>20.39999961853</ele>
        <time>2021-07-18T07:40:09.000Z</time>
      </trkpt>
      <trkpt lat="47.2466" lon="-2.30073">
        <ele>20</ele>
        <time>2021-07-18T07:40:12.000Z</time>
      </trkpt>
      <trkpt lat="47.24656" lon="-2.30076">
        <ele>19.60000038147</ele>
        <time>2021-07-18T07:40:13.000Z</time>
      </trkpt>
      <trkpt lat="47.24653" lon="-2.30079">
        <ele>18.60000038147</ele>
        <time>2021-07-18T07:40:14.000Z</time>
      </trkpt>
      <trkpt lat="47.24651" lon="-2.30081">
        <ele>18.200000762939</ele>
        <time>2021-07-18T07:40:15.000Z</time>
      </trkpt>
      <trkpt lat="47.24646" lon="-2.30087">
        <ele>18.200000762939</ele>
        <time>2021-07-18T07:40:18.000Z</time>
      </trkpt>
      <trkpt lat="47.24631" lon="-2.30101">
        <ele>18.200000762939</ele>
        <time>2021-07-18T07:40:22.000Z</time>
      </trkpt>
      <trkpt lat="47.24603" lon="-2.30125">
        <ele>18.200000762939</ele>
        <time>2021-07-18T07:40:28.000Z</time>
      </trkpt>
      <trkpt lat="47.24581" lon="-2.3016">
        <ele>18.200000762939</ele>
        <time>2021-07-18T07:40:33.000Z</time>
      </trkpt>
      <trkpt lat="47.24562" lon="-2.30189">
        <ele>18.200000762939</ele>
        <time>2021-07-18T07:40:37.000Z</time>
      </trkpt>
      <trkpt lat="47.24553" lon="-2.30202">
        <ele>18.200000762939</ele>
        <time>2021-07-18T07:40:39.000Z</time>
      </trkpt>
      <trkpt lat="47.24543" lon="-2.30214">
        <ele>17.799999237061</ele>
        <time>2021-07-18T07:40:41.000Z</time>
      </trkpt>
      <trkpt lat="47.24538" lon="-2.3022">
        <ele>17.39999961853</ele>
        <time>2021-07-18T07:40:42.000Z</time>
      </trkpt>
      <trkpt lat="47.24532" lon="-2.30226">
        <ele>17</ele>
        <time>2021-07-18T07:40:43.000Z</time>
      </trkpt>
      <trkpt lat="47.24527" lon="-2.30232">
        <ele>16.60000038147</ele>
        <time>2021-07-18T07:40:44.000Z</time>
      </trkpt>
      <trkpt lat="47.24522" lon="-2.30237">
        <ele>16.200000762939</ele>
        <time>2021-07-18T07:40:45.000Z</time>
      </trkpt>
      <trkpt lat="47.24516" lon="-2.30242">
        <ele>16.200000762939</ele>
        <time>2021-07-18T07:40:46.000Z</time>
      </trkpt>
      <trkpt lat="47.24495" lon="-2.30255">
        <ele>16.200000762939</ele>
        <time>2021-07-18T07:40:49.000Z</time>
      </trkpt>
      <trkpt lat="47.24489" lon="-2.30261">
        <ele>16.200000762939</ele>
        <time>2021-07-18T07:40:50.000Z</time>
      </trkpt>
      <trkpt lat="47.24478" lon="-2.30277">
        <ele>16.200000762939</ele>
        <time>2021-07-18T07:40:52.000Z</time>
      </trkpt>
      <trkpt lat="47.24468" lon="-2.30309">
        <ele>16.200000762939</ele>
        <time>2021-07-18T07:40:55.000Z</time>
      </trkpt>
      <trkpt lat="47.24467" lon="-2.30321">
        <ele>15.800000190735</ele>
        <time>2021-07-18T07:40:56.000Z</time>
      </trkpt>
      <trkpt lat="47.24466" lon="-2.30334">
        <ele>15.39999961853</ele>
        <time>2021-07-18T07:40:57.000Z</time>
      </trkpt>
      <trkpt lat="47.24466" lon="-2.30346">
        <ele>14.800000190735</ele>
        <time>2021-07-18T07:40:58.000Z</time>
      </trkpt>
      <trkpt lat="47.24465" lon="-2.30358">
        <ele>14.39999961853</ele>
        <time>2021-07-18T07:40:59.000Z</time>
      </trkpt>
      <trkpt lat="47.24464" lon="-2.3037">
        <ele>14</ele>
        <time>2021-07-18T07:41:00.000Z</time>
      </trkpt>
      <trkpt lat="47.24462" lon="-2.3042">
        <ele>13.199999809265</ele>
        <time>2021-07-18T07:41:04.000Z</time>
      </trkpt>
      <trkpt lat="47.24462" lon="-2.30434">
        <ele>12.60000038147</ele>
        <time>2021-07-18T07:41:05.000Z</time>
      </trkpt>
      <trkpt lat="47.24462" lon="-2.30447">
        <ele>12.199999809265</ele>
        <time>2021-07-18T07:41:06.000Z</time>
      </trkpt>
      <trkpt lat="47.24463" lon="-2.30459">
        <ele>11.60000038147</ele>
        <time>2021-07-18T07:41:07.000Z</time>
      </trkpt>
      <trkpt lat="47.24465" lon="-2.3047">
        <ele>11</ele>
        <time>2021-07-18T07:41:08.000Z</time>
      </trkpt>
      <trkpt lat="47.24468" lon="-2.30481">
        <ele>10.39999961853</ele>
        <time>2021-07-18T07:41:09.000Z</time>
      </trkpt>
      <trkpt lat="47.24472" lon="-2.3049">
        <ele>10</ele>
        <time>2021-07-18T07:41:10.000Z</time>
      </trkpt>
      <trkpt lat="47.24475" lon="-2.305">
        <ele>9.3999996185303</ele>
        <time>2021-07-18T07:41:11.000Z</time>
      </trkpt>
      <trkpt lat="47.24476" lon="-2.3052">
        <ele>9.3999996185303</ele>
        <time>2021-07-18T07:41:13.000Z</time>
      </trkpt>
      <trkpt lat="47.24474" lon="-2.30536">
        <ele>9.3999996185303</ele>
        <time>2021-07-18T07:41:15.000Z</time>
      </trkpt>
      <trkpt lat="47.24468" lon="-2.30546">
        <ele>9.3999996185303</ele>
        <time>2021-07-18T07:41:17.000Z</time>
      </trkpt>
      <trkpt lat="47.24447" lon="-2.30566">
        <ele>9</ele>
        <time>2021-07-18T07:41:22.000Z</time>
      </trkpt>
      <trkpt lat="47.24442" lon="-2.3057">
        <ele>8.3999996185303</ele>
        <time>2021-07-18T07:41:23.000Z</time>
      </trkpt>
      <trkpt lat="47.24436" lon="-2.30575">
        <ele>8</ele>
        <time>2021-07-18T07:41:24.000Z</time>
      </trkpt>
      <trkpt lat="47.2443" lon="-2.3058">
        <ele>7.5999999046326</ele>
        <time>2021-07-18T07:41:25.000Z</time>
      </trkpt>
      <trkpt lat="47.24425" lon="-2.30584">
        <ele>7.1999998092651</ele>
        <time>2021-07-18T07:41:26.000Z</time>
      </trkpt>
      <trkpt lat="47.24414" lon="-2.3059">
        <ele>7.1999998092651</ele>
        <time>2021-07-18T07:41:28.000Z</time>
      </trkpt>
      <trkpt lat="47.24409" lon="-2.30591">
        <ele>7.1999998092651</ele>
        <time>2021-07-18T07:41:29.000Z</time>
      </trkpt>
      <trkpt lat="47.24404" lon="-2.30592">
        <ele>6.5999999046326</ele>
        <time>2021-07-18T07:41:30.000Z</time>
      </trkpt>
      <trkpt lat="47.244" lon="-2.30591">
        <ele>6.1999998092651</ele>
        <time>2021-07-18T07:41:31.000Z</time>
      </trkpt>
      <trkpt lat="47.24395" lon="-2.3059">
        <ele>5.8000001907349</ele>
        <time>2021-07-18T07:41:32.000Z</time>
      </trkpt>
      <trkpt lat="47.24391" lon="-2.30588">
        <ele>5.4000000953674</ele>
        <time>2021-07-18T07:41:33.000Z</time>
      </trkpt>
      <trkpt lat="47.24387" lon="-2.30585">
        <ele>5</ele>
        <time>2021-07-18T07:41:34.000Z</time>
      </trkpt>
      <trkpt lat="47.24381" lon="-2.30576">
        <ele>5</ele>
        <time>2021-07-18T07:41:36.000Z</time>
      </trkpt>
      <trkpt lat="47.24377" lon="-2.30569">
        <ele>5</ele>
        <time>2021-07-18T07:41:37.000Z</time>
      </trkpt>
      <trkpt lat="47.24374" lon="-2.30561">
        <ele>5</ele>
        <time>2021-07-18T07:41:38.000Z</time>
      </trkpt>
      <trkpt lat="47.2437" lon="-2.30545">
        <ele>5</ele>
        <time>2021-07-18T07:41:40.000Z</time>
      </trkpt>
      <trkpt lat="47.24367" lon="-2.30522">
        <ele>5</ele>
        <time>2021-07-18T07:41:44.000Z</time>
      </trkpt>
      <trkpt lat="47.24372" lon="-2.30498">
        <ele>5.4000000953674</ele>
        <time>2021-07-18T07:41:48.000Z</time>
      </trkpt>
      <trkpt lat="47.24373" lon="-2.30492">
        <ele>6</ele>
        <time>2021-07-18T07:41:49.000Z</time>
      </trkpt>
      <trkpt lat="47.24374" lon="-2.30485">
        <ele>6.4000000953674</ele>
        <time>2021-07-18T07:41:50.000Z</time>
      </trkpt>
      <trkpt lat="47.24376" lon="-2.30478">
        <ele>6.8000001907349</ele>
        <time>2021-07-18T07:41:51.000Z</time>
      </trkpt>
      <trkpt lat="47.24376" lon="-2.3047">
        <ele>7.1999998092651</ele>
        <time>2021-07-18T07:41:52.000Z</time>
      </trkpt>
      <trkpt lat="47.24377" lon="-2.30463">
        <ele>7.5999999046326</ele>
        <time>2021-07-18T07:41:53.000Z</time>
      </trkpt>
      <trkpt lat="47.24376" lon="-2.30457">
        <ele>8</ele>
        <time>2021-07-18T07:41:54.000Z</time>
      </trkpt>
      <trkpt lat="47.24376" lon="-2.30453">
        <ele>8.3999996185303</ele>
        <time>2021-07-18T07:41:55.000Z</time>
      </trkpt>
      <trkpt lat="47.24376" lon="-2.30451">
        <ele>8.8000001907349</ele>
        <time>2021-07-18T07:41:56.000Z</time>
      </trkpt>
      <trkpt lat="47.24375" lon="-2.30449">
        <ele>9.1999998092651</ele>
        <time>2021-07-18T07:41:57.000Z</time>
      </trkpt>
      <trkpt lat="47.24371" lon="-2.30445">
        <ele>9.1999998092651</ele>
        <time>2021-07-18T07:42:00.000Z</time>
      </trkpt>
      <trkpt lat="47.24368" lon="-2.30445">
        <ele>9.1999998092651</ele>
        <time>2021-07-18T07:42:01.000Z</time>
      </trkpt>
      <trkpt lat="47.24357" lon="-2.30448">
        <ele>9.1999998092651</ele>
        <time>2021-07-18T07:42:04.000Z</time>
      </trkpt>
      <trkpt lat="47.24351" lon="-2.30447">
        <ele>9.1999998092651</ele>
        <time>2021-07-18T07:42:06.000Z</time>
      </trkpt>
      <trkpt lat="47.24335" lon="-2.30439">
        <ele>9.6000003814697</ele>
        <time>2021-07-18T07:42:10.000Z</time>
      </trkpt>
      <trkpt lat="47.2433" lon="-2.30435">
        <ele>10</ele>
        <time>2021-07-18T07:42:11.000Z</time>
      </trkpt>
      <trkpt lat="47.24326" lon="-2.30432">
        <ele>10.39999961853</ele>
        <time>2021-07-18T07:42:12.000Z</time>
      </trkpt>
      <trkpt lat="47.24323" lon="-2.3043">
        <ele>10.800000190735</ele>
        <time>2021-07-18T07:42:13.000Z</time>
      </trkpt>
      <trkpt lat="47.24319" lon="-2.30428">
        <ele>11.39999961853</ele>
        <time>2021-07-18T07:42:14.000Z</time>
      </trkpt>
      <trkpt lat="47.24306" lon="-2.3042">
        <ele>11.39999961853</ele>
        <time>2021-07-18T07:42:17.000Z</time>
      </trkpt>
      <trkpt lat="47.24284" lon="-2.30401">
        <ele>11.39999961853</ele>
        <time>2021-07-18T07:42:22.000Z</time>
      </trkpt>
      <trkpt lat="47.24279" lon="-2.30395">
        <ele>11.39999961853</ele>
        <time>2021-07-18T07:42:23.000Z</time>
      </trkpt>
      <trkpt lat="47.24258" lon="-2.30366">
        <ele>11.39999961853</ele>
        <time>2021-07-18T07:42:28.000Z</time>
      </trkpt>
      <trkpt lat="47.24234" lon="-2.30328">
        <ele>11.39999961853</ele>
        <time>2021-07-18T07:42:34.000Z</time>
      </trkpt>
      <trkpt lat="47.24231" lon="-2.30326">
        <ele>11.39999961853</ele>
        <time>2021-07-18T07:42:35.000Z</time>
      </trkpt>
      <trkpt lat="47.24216" lon="-2.3033">
        <ele>11.39999961853</ele>
        <time>2021-07-18T07:42:38.000Z</time>
      </trkpt>
      <trkpt lat="47.24206" lon="-2.30332">
        <ele>11.39999961853</ele>
        <time>2021-07-18T07:42:40.000Z</time>
      </trkpt>
      <trkpt lat="47.24203" lon="-2.3033">
        <ele>11.39999961853</ele>
        <time>2021-07-18T07:42:41.000Z</time>
      </trkpt>
      <trkpt lat="47.24199" lon="-2.30327">
        <ele>10.800000190735</ele>
        <time>2021-07-18T07:42:42.000Z</time>
      </trkpt>
      <trkpt lat="47.24196" lon="-2.30324">
        <ele>9.8000001907349</ele>
        <time>2021-07-18T07:42:43.000Z</time>
      </trkpt>
      <trkpt lat="47.24192" lon="-2.30319">
        <ele>9.1999998092651</ele>
        <time>2021-07-18T07:42:44.000Z</time>
      </trkpt>
      <trkpt lat="47.24189" lon="-2.30313">
        <ele>8.8000001907349</ele>
        <time>2021-07-18T07:42:45.000Z</time>
      </trkpt>
      <trkpt lat="47.24183" lon="-2.30294">
        <ele>8.8000001907349</ele>
        <time>2021-07-18T07:42:48.000Z</time>
      </trkpt>
      <trkpt lat="47.24182" lon="-2.30284">
        <ele>8.8000001907349</ele>
        <time>2021-07-18T07:42:49.000Z</time>
      </trkpt>
      <trkpt lat="47.24183" lon="-2.30273">
        <ele>8.8000001907349</ele>
        <time>2021-07-18T07:42:50.000Z</time>
      </trkpt>
      <trkpt lat="47.24181" lon="-2.30243">
        <ele>8.1999998092651</ele>
        <time>2021-07-18T07:42:54.000Z</time>
      </trkpt>
      <trkpt lat="47.2418" lon="-2.30242">
        <ele>7.8000001907349</ele>
        <time>2021-07-18T07:42:55.000Z</time>
      </trkpt>
      <trkpt lat="47.24178" lon="-2.30244">
        <ele>7.4000000953674</ele>
        <time>2021-07-18T07:42:56.000Z</time>
      </trkpt>
      <trkpt lat="47.24175" lon="-2.30245">
        <ele>6.8000001907349</ele>
        <time>2021-07-18T07:42:57.000Z</time>
      </trkpt>
      <trkpt lat="47.24172" lon="-2.30246">
        <ele>6.4000000953674</ele>
        <time>2021-07-18T07:42:58.000Z</time>
      </trkpt>
      <trkpt lat="47.24165" lon="-2.30246">
        <ele>6.4000000953674</ele>
        <time>2021-07-18T07:43:00.000Z</time>
      </trkpt>
      <trkpt lat="47.24155" lon="-2.30233">
        <ele>6.4000000953674</ele>
        <time>2021-07-18T07:43:04.000Z</time>
      </trkpt>
      <trkpt lat="47.24153" lon="-2.30228">
        <ele>6.4000000953674</ele>
        <time>2021-07-18T07:43:05.000Z</time>
      </trkpt>
      <trkpt lat="47.24144" lon="-2.30206">
        <ele>6.8000001907349</ele>
        <time>2021-07-18T07:43:10.000Z</time>
      </trkpt>
      <trkpt lat="47.24141" lon="-2.30201">
        <ele>7.1999998092651</ele>
        <time>2021-07-18T07:43:11.000Z</time>
      </trkpt>
      <trkpt lat="47.24139" lon="-2.30196">
        <ele>7.5999999046326</ele>
        <time>2021-07-18T07:43:12.000Z</time>
      </trkpt>
      <trkpt lat="47.24137" lon="-2.30191">
        <ele>8</ele>
        <time>2021-07-18T07:43:13.000Z</time>
      </trkpt>
      <trkpt lat="47.24135" lon="-2.30187">
        <ele>8.3999996185303</ele>
        <time>2021-07-18T07:43:14.000Z</time>
      </trkpt>
      <trkpt lat="47.24127" lon="-2.30172">
        <ele>8.3999996185303</ele>
        <time>2021-07-18T07:43:17.000Z</time>
      </trkpt>
      <trkpt lat="47.24125" lon="-2.30168">
        <ele>8.8000001907349</ele>
        <time>2021-07-18T07:43:18.000Z</time>
      </trkpt>
      <trkpt lat="47.24123" lon="-2.30166">
        <ele>9.3999996185303</ele>
        <time>2021-07-18T07:43:19.000Z</time>
      </trkpt>
      <trkpt lat="47.24122" lon="-2.30164">
        <ele>9.8000001907349</ele>
        <time>2021-07-18T07:43:20.000Z</time>
      </trkpt>
      <trkpt lat="47.2412" lon="-2.30164">
        <ele>10.199999809265</ele>
        <time>2021-07-18T07:43:21.000Z</time>
      </trkpt>
      <trkpt lat="47.2412" lon="-2.30164">
        <ele>10.60000038147</ele>
        <time>2021-07-18T07:43:22.000Z</time>
      </trkpt>
      <trkpt lat="47.2412" lon="-2.30165">
        <ele>11</ele>
        <time>2021-07-18T07:43:23.000Z</time>
      </trkpt>
      <trkpt lat="47.24119" lon="-2.30166">
        <ele>11.39999961853</ele>
        <time>2021-07-18T07:43:24.000Z</time>
      </trkpt>
      <trkpt lat="47.24118" lon="-2.30167">
        <ele>12</ele>
        <time>2021-07-18T07:43:25.000Z</time>
      </trkpt>
      <trkpt lat="47.24117" lon="-2.30168">
        <ele>12.39999961853</ele>
        <time>2021-07-18T07:43:26.000Z</time>
      </trkpt>
      <trkpt lat="47.24116" lon="-2.30169">
        <ele>12.800000190735</ele>
        <time>2021-07-18T07:43:27.000Z</time>
      </trkpt>
      <trkpt lat="47.24113" lon="-2.30169">
        <ele>12.800000190735</ele>
        <time>2021-07-18T07:43:29.000Z</time>
      </trkpt>
      <trkpt lat="47.2411" lon="-2.30169">
        <ele>12.800000190735</ele>
        <time>2021-07-18T07:43:31.000Z</time>
      </trkpt>
      <trkpt lat="47.24095" lon="-2.30166">
        <ele>12.800000190735</ele>
        <time>2021-07-18T07:43:37.000Z</time>
      </trkpt>
      <trkpt lat="47.24085" lon="-2.3017">
        <ele>13.199999809265</ele>
        <time>2021-07-18T07:43:40.000Z</time>
      </trkpt>
      <trkpt lat="47.24082" lon="-2.30173">
        <ele>13.60000038147</ele>
        <time>2021-07-18T07:43:41.000Z</time>
      </trkpt>
      <trkpt lat="47.2408" lon="-2.30175">
        <ele>14</ele>
        <time>2021-07-18T07:43:42.000Z</time>
      </trkpt>
      <trkpt lat="47.24077" lon="-2.30177">
        <ele>14.39999961853</ele>
        <time>2021-07-18T07:43:43.000Z</time>
      </trkpt>
      <trkpt lat="47.24074" lon="-2.30178">
        <ele>14.800000190735</ele>
        <time>2021-07-18T07:43:44.000Z</time>
      </trkpt>
      <trkpt lat="47.2407" lon="-2.3018">
        <ele>14.800000190735</ele>
        <time>2021-07-18T07:43:45.000Z</time>
      </trkpt>
      <trkpt lat="47.24063" lon="-2.30183">
        <ele>14.800000190735</ele>
        <time>2021-07-18T07:43:47.000Z</time>
      </trkpt>
      <trkpt lat="47.24042" lon="-2.3019">
        <ele>14.800000190735</ele>
        <time>2021-07-18T07:43:53.000Z</time>
      </trkpt>
      <trkpt lat="47.24023" lon="-2.30176">
        <ele>14.800000190735</ele>
        <time>2021-07-18T07:43:59.000Z</time>
      </trkpt>
      <trkpt lat="47.24004" lon="-2.30158">
        <ele>14.800000190735</ele>
        <time>2021-07-18T07:44:05.000Z</time>
      </trkpt>
      <trkpt lat="47.23986" lon="-2.3015">
        <ele>14.800000190735</ele>
        <time>2021-07-18T07:44:10.000Z</time>
      </trkpt>
      <trkpt lat="47.2397" lon="-2.30137">
        <ele>14.800000190735</ele>
        <time>2021-07-18T07:44:15.000Z</time>
      </trkpt>
      <trkpt lat="47.23968" lon="-2.30118">
        <ele>14.800000190735</ele>
        <time>2021-07-18T07:44:21.000Z</time>
      </trkpt>
      <trkpt lat="47.23976" lon="-2.30094">
        <ele>14.800000190735</ele>
        <time>2021-07-18T07:44:27.000Z</time>
      </trkpt>
      <trkpt lat="47.23982" lon="-2.30066">
        <ele>14.800000190735</ele>
        <time>2021-07-18T07:44:34.000Z</time>
      </trkpt>
      <trkpt lat="47.23992" lon="-2.30046">
        <ele>15.199999809265</ele>
        <time>2021-07-18T07:44:39.000Z</time>
      </trkpt>
      <trkpt lat="47.23993" lon="-2.30041">
        <ele>15.60000038147</ele>
        <time>2021-07-18T07:44:40.000Z</time>
      </trkpt>
      <trkpt lat="47.23995" lon="-2.30037">
        <ele>16</ele>
        <time>2021-07-18T07:44:41.000Z</time>
      </trkpt>
      <trkpt lat="47.23996" lon="-2.30033">
        <ele>16.39999961853</ele>
        <time>2021-07-18T07:44:42.000Z</time>
      </trkpt>
      <trkpt lat="47.24" lon="-2.3003">
        <ele>16.799999237061</ele>
        <time>2021-07-18T07:44:43.000Z</time>
      </trkpt>
      <trkpt lat="47.24001" lon="-2.30029">
        <ele>16.799999237061</ele>
        <time>2021-07-18T07:44:44.000Z</time>
      </trkpt>
      <trkpt lat="47.24007" lon="-2.30025">
        <ele>16.799999237061</ele>
        <time>2021-07-18T07:44:45.000Z</time>
      </trkpt>
      <trkpt lat="47.24024" lon="-2.30014">
        <ele>16.799999237061</ele>
        <time>2021-07-18T07:44:49.000Z</time>
      </trkpt>
      <trkpt lat="47.24043" lon="-2.30011">
        <ele>16.799999237061</ele>
        <time>2021-07-18T07:44:54.000Z</time>
      </trkpt>
      <trkpt lat="47.24054" lon="-2.30003">
        <ele>16.799999237061</ele>
        <time>2021-07-18T07:44:58.000Z</time>
      </trkpt>
      <trkpt lat="47.24057" lon="-2.30002">
        <ele>16.799999237061</ele>
        <time>2021-07-18T07:44:59.000Z</time>
      </trkpt>
      <trkpt lat="47.24067" lon="-2.3">
        <ele>16.799999237061</ele>
        <time>2021-07-18T07:45:03.000Z</time>
      </trkpt>
      <trkpt lat="47.24069" lon="-2.29997">
        <ele>16.799999237061</ele>
        <time>2021-07-18T07:45:04.000Z</time>
      </trkpt>
      <trkpt lat="47.24075" lon="-2.29988">
        <ele>16.799999237061</ele>
        <time>2021-07-18T07:45:07.000Z</time>
      </trkpt>
      <trkpt lat="47.24089" lon="-2.29983">
        <ele>16.799999237061</ele>
        <time>2021-07-18T07:45:12.000Z</time>
      </trkpt>
      <trkpt lat="47.2411" lon="-2.29983">
        <ele>16.799999237061</ele>
        <time>2021-07-18T07:45:17.000Z</time>
      </trkpt>
      <trkpt lat="47.24137" lon="-2.2998">
        <ele>16.799999237061</ele>
        <time>2021-07-18T07:45:24.000Z</time>
      </trkpt>
      <trkpt lat="47.24154" lon="-2.29983">
        <ele>16.799999237061</ele>
        <time>2021-07-18T07:45:29.000Z</time>
      </trkpt>
      <trkpt lat="47.24174" lon="-2.30005">
        <ele>16.799999237061</ele>
        <time>2021-07-18T07:45:35.000Z</time>
      </trkpt>
      <trkpt lat="47.24176" lon="-2.30011">
        <ele>16.799999237061</ele>
        <time>2021-07-18T07:45:36.000Z</time>
      </trkpt>
      <trkpt lat="47.24178" lon="-2.30025">
        <ele>16.799999237061</ele>
        <time>2021-07-18T07:45:39.000Z</time>
      </trkpt>
      <trkpt lat="47.24176" lon="-2.30029">
        <ele>16.799999237061</ele>
        <time>2021-07-18T07:45:41.000Z</time>
      </trkpt>
      <trkpt lat="47.24174" lon="-2.30031">
        <ele>16.799999237061</ele>
        <time>2021-07-18T07:45:43.000Z</time>
      </trkpt>
      <trkpt lat="47.2417" lon="-2.30032">
        <ele>16.799999237061</ele>
        <time>2021-07-18T07:45:45.000Z</time>
      </trkpt>
      <trkpt lat="47.2416" lon="-2.30028">
        <ele>16.799999237061</ele>
        <time>2021-07-18T07:45:48.000Z</time>
      </trkpt>
      <trkpt lat="47.24158" lon="-2.30028">
        <ele>16.799999237061</ele>
        <time>2021-07-18T07:45:49.000Z</time>
      </trkpt>
      <trkpt lat="47.24153" lon="-2.30028">
        <ele>16.799999237061</ele>
        <time>2021-07-18T07:45:52.000Z</time>
      </trkpt>
      <trkpt lat="47.24152" lon="-2.3003">
        <ele>16.799999237061</ele>
        <time>2021-07-18T07:45:55.000Z</time>
      </trkpt>
      <trkpt lat="47.24152" lon="-2.30037">
        <ele>16.799999237061</ele>
        <time>2021-07-18T07:46:23.000Z</time>
      </trkpt>
      <trkpt lat="47.24153" lon="-2.3004">
        <ele>16.799999237061</ele>
        <time>2021-07-18T07:46:24.000Z</time>
      </trkpt>
      <trkpt lat="47.24155" lon="-2.3005">
        <ele>16.799999237061</ele>
        <time>2021-07-18T07:46:27.000Z</time>
      </trkpt>
      <trkpt lat="47.24155" lon="-2.30053">
        <ele>16.39999961853</ele>
        <time>2021-07-18T07:46:28.000Z</time>
      </trkpt>
      <trkpt lat="47.24154" lon="-2.30056">
        <ele>16</ele>
        <time>2021-07-18T07:46:29.000Z</time>
      </trkpt>
      <trkpt lat="47.24152" lon="-2.30059">
        <ele>15.60000038147</ele>
        <time>2021-07-18T07:46:30.000Z</time>
      </trkpt>
      <trkpt lat="47.24151" lon="-2.30063">
        <ele>15.199999809265</ele>
        <time>2021-07-18T07:46:31.000Z</time>
      </trkpt>
      <trkpt lat="47.24149" lon="-2.30066">
        <ele>14.60000038147</ele>
        <time>2021-07-18T07:46:32.000Z</time>
      </trkpt>
      <trkpt lat="47.24143" lon="-2.30072">
        <ele>14.60000038147</ele>
        <time>2021-07-18T07:46:34.000Z</time>
      </trkpt>
      <trkpt lat="47.24119" lon="-2.30081">
        <ele>14.60000038147</ele>
        <time>2021-07-18T07:46:40.000Z</time>
      </trkpt>
      <trkpt lat="47.24097" lon="-2.30086">
        <ele>14.60000038147</ele>
        <time>2021-07-18T07:46:46.000Z</time>
      </trkpt>
      <trkpt lat="47.24077" lon="-2.3008">
        <ele>14.60000038147</ele>
        <time>2021-07-18T07:46:51.000Z</time>
      </trkpt>
      <trkpt lat="47.24062" lon="-2.30074">
        <ele>14.60000038147</ele>
        <time>2021-07-18T07:46:56.000Z</time>
      </trkpt>
      <trkpt lat="47.24053" lon="-2.30073">
        <ele>14.60000038147</ele>
        <time>2021-07-18T07:47:00.000Z</time>
      </trkpt>
      <trkpt lat="47.24052" lon="-2.30058">
        <ele>14.60000038147</ele>
        <time>2021-07-18T07:47:04.000Z</time>
      </trkpt>
      <trkpt lat="47.24053" lon="-2.30055">
        <ele>15</ele>
        <time>2021-07-18T07:47:05.000Z</time>
      </trkpt>
      <trkpt lat="47.24053" lon="-2.30052">
        <ele>15.39999961853</ele>
        <time>2021-07-18T07:47:06.000Z</time>
      </trkpt>
      <trkpt lat="47.24054" lon="-2.30049">
        <ele>16</ele>
        <time>2021-07-18T07:47:07.000Z</time>
      </trkpt>
      <trkpt lat="47.24053" lon="-2.30047">
        <ele>16.39999961853</ele>
        <time>2021-07-18T07:47:08.000Z</time>
      </trkpt>
      <trkpt lat="47.24053" lon="-2.30046">
        <ele>16.799999237061</ele>
        <time>2021-07-18T07:47:09.000Z</time>
      </trkpt>
      <trkpt lat="47.24052" lon="-2.30043">
        <ele>16.799999237061</ele>
        <time>2021-07-18T07:47:10.000Z</time>
      </trkpt>
      <trkpt lat="47.24046" lon="-2.30039">
        <ele>16.799999237061</ele>
        <time>2021-07-18T07:47:15.000Z</time>
      </trkpt>
      <trkpt lat="47.24034" lon="-2.30032">
        <ele>16.799999237061</ele>
        <time>2021-07-18T07:47:20.000Z</time>
      </trkpt>
      <trkpt lat="47.24023" lon="-2.30032">
        <ele>16.799999237061</ele>
        <time>2021-07-18T07:47:25.000Z</time>
      </trkpt>
      <trkpt lat="47.24008" lon="-2.30026">
        <ele>16.799999237061</ele>
        <time>2021-07-18T07:47:31.000Z</time>
      </trkpt>
      <trkpt lat="47.24002" lon="-2.30008">
        <ele>16.799999237061</ele>
        <time>2021-07-18T07:47:37.000Z</time>
      </trkpt>
      <trkpt lat="47.24004" lon="-2.29992">
        <ele>16.799999237061</ele>
        <time>2021-07-18T07:47:41.000Z</time>
      </trkpt>
      <trkpt lat="47.24005" lon="-2.29987">
        <ele>16.799999237061</ele>
        <time>2021-07-18T07:47:42.000Z</time>
      </trkpt>
      <trkpt lat="47.2401" lon="-2.29959">
        <ele>16.799999237061</ele>
        <time>2021-07-18T07:47:47.000Z</time>
      </trkpt>
      <trkpt lat="47.24011" lon="-2.29955">
        <ele>16.799999237061</ele>
        <time>2021-07-18T07:47:48.000Z</time>
      </trkpt>
      <trkpt lat="47.24018" lon="-2.29949">
        <ele>16.799999237061</ele>
        <time>2021-07-18T07:47:52.000Z</time>
      </trkpt>
      <trkpt lat="47.24029" lon="-2.29953">
        <ele>16.799999237061</ele>
        <time>2021-07-18T07:47:56.000Z</time>
      </trkpt>
      <trkpt lat="47.24032" lon="-2.29955">
        <ele>16.799999237061</ele>
        <time>2021-07-18T07:47:57.000Z</time>
      </trkpt>
      <trkpt lat="47.24051" lon="-2.29962">
        <ele>16.799999237061</ele>
        <time>2021-07-18T07:48:04.000Z</time>
      </trkpt>
      <trkpt lat="47.24053" lon="-2.29961">
        <ele>16.799999237061</ele>
        <time>2021-07-18T07:48:05.000Z</time>
      </trkpt>
      <trkpt lat="47.24058" lon="-2.29955">
        <ele>16.799999237061</ele>
        <time>2021-07-18T07:48:08.000Z</time>
      </trkpt>
      <trkpt lat="47.24067" lon="-2.29937">
        <ele>16.799999237061</ele>
        <time>2021-07-18T07:48:14.000Z</time>
      </trkpt>
      <trkpt lat="47.24069" lon="-2.29903">
        <ele>16.799999237061</ele>
        <time>2021-07-18T07:48:21.000Z</time>
      </trkpt>
      <trkpt lat="47.24073" lon="-2.29869">
        <ele>16.799999237061</ele>
        <time>2021-07-18T07:48:27.000Z</time>
      </trkpt>
      <trkpt lat="47.24074" lon="-2.2986">
        <ele>17.200000762939</ele>
        <time>2021-07-18T07:48:29.000Z</time>
      </trkpt>
      <trkpt lat="47.24074" lon="-2.29857">
        <ele>18</ele>
        <time>2021-07-18T07:48:30.000Z</time>
      </trkpt>
      <trkpt lat="47.24074" lon="-2.29854">
        <ele>18.39999961853</ele>
        <time>2021-07-18T07:48:31.000Z</time>
      </trkpt>
      <trkpt lat="47.24076" lon="-2.2985">
        <ele>18.799999237061</ele>
        <time>2021-07-18T07:48:32.000Z</time>
      </trkpt>
      <trkpt lat="47.24077" lon="-2.29848">
        <ele>18.799999237061</ele>
        <time>2021-07-18T07:48:33.000Z</time>
      </trkpt>
      <trkpt lat="47.24087" lon="-2.29848">
        <ele>18.799999237061</ele>
        <time>2021-07-18T07:48:36.000Z</time>
      </trkpt>
      <trkpt lat="47.24113" lon="-2.29846">
        <ele>18.799999237061</ele>
        <time>2021-07-18T07:48:43.000Z</time>
      </trkpt>
      <trkpt lat="47.2414" lon="-2.2984">
        <ele>18.799999237061</ele>
        <time>2021-07-18T07:48:50.000Z</time>
      </trkpt>
      <trkpt lat="47.24165" lon="-2.29844">
        <ele>18.799999237061</ele>
        <time>2021-07-18T07:48:55.000Z</time>
      </trkpt>
      <trkpt lat="47.24174" lon="-2.29854">
        <ele>18.799999237061</ele>
        <time>2021-07-18T07:48:59.000Z</time>
      </trkpt>
      <trkpt lat="47.24179" lon="-2.29871">
        <ele>18.799999237061</ele>
        <time>2021-07-18T07:49:05.000Z</time>
      </trkpt>
      <trkpt lat="47.24179" lon="-2.29882">
        <ele>18.799999237061</ele>
        <time>2021-07-18T07:49:08.000Z</time>
      </trkpt>
      <trkpt lat="47.24177" lon="-2.29895">
        <ele>18.799999237061</ele>
        <time>2021-07-18T07:49:11.000Z</time>
      </trkpt>
      <trkpt lat="47.24175" lon="-2.29899">
        <ele>18.799999237061</ele>
        <time>2021-07-18T07:49:12.000Z</time>
      </trkpt>
      <trkpt lat="47.24167" lon="-2.29916">
        <ele>18.799999237061</ele>
        <time>2021-07-18T07:49:16.000Z</time>
      </trkpt>
      <trkpt lat="47.24163" lon="-2.29933">
        <ele>18.799999237061</ele>
        <time>2021-07-18T07:49:19.000Z</time>
      </trkpt>
      <trkpt lat="47.24162" lon="-2.29939">
        <ele>18.799999237061</ele>
        <time>2021-07-18T07:49:20.000Z</time>
      </trkpt>
      <trkpt lat="47.24156" lon="-2.29965">
        <ele>18.799999237061</ele>
        <time>2021-07-18T07:49:25.000Z</time>
      </trkpt>
      <trkpt lat="47.24163" lon="-2.2997">
        <ele>18.799999237061</ele>
        <time>2021-07-18T07:49:29.000Z</time>
      </trkpt>
      <trkpt lat="47.2418" lon="-2.29965">
        <ele>18.799999237061</ele>
        <time>2021-07-18T07:49:34.000Z</time>
      </trkpt>
      <trkpt lat="47.24203" lon="-2.29954">
        <ele>18.39999961853</ele>
        <time>2021-07-18T07:49:39.000Z</time>
      </trkpt>
      <trkpt lat="47.24208" lon="-2.29952">
        <ele>17.799999237061</ele>
        <time>2021-07-18T07:49:40.000Z</time>
      </trkpt>
      <trkpt lat="47.24214" lon="-2.29949">
        <ele>17.39999961853</ele>
        <time>2021-07-18T07:49:41.000Z</time>
      </trkpt>
      <trkpt lat="47.24219" lon="-2.29946">
        <ele>17</ele>
        <time>2021-07-18T07:49:42.000Z</time>
      </trkpt>
      <trkpt lat="47.24225" lon="-2.29943">
        <ele>16.60000038147</ele>
        <time>2021-07-18T07:49:43.000Z</time>
      </trkpt>
      <trkpt lat="47.2423" lon="-2.29938">
        <ele>16.60000038147</ele>
        <time>2021-07-18T07:49:44.000Z</time>
      </trkpt>
      <trkpt lat="47.24236" lon="-2.29933">
        <ele>16.60000038147</ele>
        <time>2021-07-18T07:49:45.000Z</time>
      </trkpt>
      <trkpt lat="47.24268" lon="-2.29902">
        <ele>16.60000038147</ele>
        <time>2021-07-18T07:49:51.000Z</time>
      </trkpt>
      <trkpt lat="47.24296" lon="-2.2988">
        <ele>16.60000038147</ele>
        <time>2021-07-18T07:49:56.000Z</time>
      </trkpt>
      <trkpt lat="47.24301" lon="-2.29875">
        <ele>16.60000038147</ele>
        <time>2021-07-18T07:49:57.000Z</time>
      </trkpt>
      <trkpt lat="47.24306" lon="-2.29869">
        <ele>16.60000038147</ele>
        <time>2021-07-18T07:49:58.000Z</time>
      </trkpt>
      <trkpt lat="47.24311" lon="-2.29854">
        <ele>16.60000038147</ele>
        <time>2021-07-18T07:50:00.000Z</time>
      </trkpt>
      <trkpt lat="47.24313" lon="-2.2983">
        <ele>16.60000038147</ele>
        <time>2021-07-18T07:50:03.000Z</time>
      </trkpt>
      <trkpt lat="47.24315" lon="-2.29823">
        <ele>16.60000038147</ele>
        <time>2021-07-18T07:50:04.000Z</time>
      </trkpt>
      <trkpt lat="47.24327" lon="-2.29809">
        <ele>16.60000038147</ele>
        <time>2021-07-18T07:50:07.000Z</time>
      </trkpt>
      <trkpt lat="47.24344" lon="-2.29803">
        <ele>16.60000038147</ele>
        <time>2021-07-18T07:50:10.000Z</time>
      </trkpt>
      <trkpt lat="47.24355" lon="-2.29797">
        <ele>16.60000038147</ele>
        <time>2021-07-18T07:50:12.000Z</time>
      </trkpt>
      <trkpt lat="47.2437" lon="-2.29773">
        <ele>16.60000038147</ele>
        <time>2021-07-18T07:50:16.000Z</time>
      </trkpt>
      <trkpt lat="47.24373" lon="-2.29766">
        <ele>16.60000038147</ele>
        <time>2021-07-18T07:50:17.000Z</time>
      </trkpt>
      <trkpt lat="47.24382" lon="-2.29743">
        <ele>17</ele>
        <time>2021-07-18T07:50:20.000Z</time>
      </trkpt>
      <trkpt lat="47.24385" lon="-2.29736">
        <ele>17.39999961853</ele>
        <time>2021-07-18T07:50:21.000Z</time>
      </trkpt>
      <trkpt lat="47.24388" lon="-2.29729">
        <ele>17.799999237061</ele>
        <time>2021-07-18T07:50:22.000Z</time>
      </trkpt>
      <trkpt lat="47.24391" lon="-2.29721">
        <ele>18.200000762939</ele>
        <time>2021-07-18T07:50:23.000Z</time>
      </trkpt>
      <trkpt lat="47.24393" lon="-2.29714">
        <ele>18.60000038147</ele>
        <time>2021-07-18T07:50:24.000Z</time>
      </trkpt>
      <trkpt lat="47.24397" lon="-2.29708">
        <ele>18.60000038147</ele>
        <time>2021-07-18T07:50:25.000Z</time>
      </trkpt>
      <trkpt lat="47.24407" lon="-2.297">
        <ele>18.60000038147</ele>
        <time>2021-07-18T07:50:27.000Z</time>
      </trkpt>
      <trkpt lat="47.24422" lon="-2.29692">
        <ele>18.60000038147</ele>
        <time>2021-07-18T07:50:30.000Z</time>
      </trkpt>
      <trkpt lat="47.24427" lon="-2.29691">
        <ele>18.60000038147</ele>
        <time>2021-07-18T07:50:31.000Z</time>
      </trkpt>
      <trkpt lat="47.24432" lon="-2.29693">
        <ele>18.60000038147</ele>
        <time>2021-07-18T07:50:32.000Z</time>
      </trkpt>
      <trkpt lat="47.24443" lon="-2.29708">
        <ele>18.60000038147</ele>
        <time>2021-07-18T07:50:35.000Z</time>
      </trkpt>
      <trkpt lat="47.24447" lon="-2.29722">
        <ele>18.60000038147</ele>
        <time>2021-07-18T07:50:37.000Z</time>
      </trkpt>
      <trkpt lat="47.2445" lon="-2.29729">
        <ele>18.60000038147</ele>
        <time>2021-07-18T07:50:38.000Z</time>
      </trkpt>
      <trkpt lat="47.24452" lon="-2.29736">
        <ele>18.60000038147</ele>
        <time>2021-07-18T07:50:39.000Z</time>
      </trkpt>
      <trkpt lat="47.24461" lon="-2.29766">
        <ele>18.60000038147</ele>
        <time>2021-07-18T07:50:43.000Z</time>
      </trkpt>
      <trkpt lat="47.24464" lon="-2.29781">
        <ele>18.60000038147</ele>
        <time>2021-07-18T07:50:45.000Z</time>
      </trkpt>
      <trkpt lat="47.24474" lon="-2.29811">
        <ele>18.60000038147</ele>
        <time>2021-07-18T07:50:49.000Z</time>
      </trkpt>
      <trkpt lat="47.2448" lon="-2.29824">
        <ele>18.60000038147</ele>
        <time>2021-07-18T07:50:51.000Z</time>
      </trkpt>
      <trkpt lat="47.24492" lon="-2.29841">
        <ele>18.60000038147</ele>
        <time>2021-07-18T07:50:54.000Z</time>
      </trkpt>
      <trkpt lat="47.24503" lon="-2.29849">
        <ele>18.60000038147</ele>
        <time>2021-07-18T07:50:56.000Z</time>
      </trkpt>
      <trkpt lat="47.2454" lon="-2.29867">
        <ele>18.60000038147</ele>
        <time>2021-07-18T07:51:03.000Z</time>
      </trkpt>
      <trkpt lat="47.2455" lon="-2.2987">
        <ele>18.60000038147</ele>
        <time>2021-07-18T07:51:05.000Z</time>
      </trkpt>
      <trkpt lat="47.24561" lon="-2.2988">
        <ele>18.60000038147</ele>
        <time>2021-07-18T07:51:08.000Z</time>
      </trkpt>
      <trkpt lat="47.24568" lon="-2.29898">
        <ele>18.60000038147</ele>
        <time>2021-07-18T07:51:12.000Z</time>
      </trkpt>
      <trkpt lat="47.2458" lon="-2.29921">
        <ele>18.60000038147</ele>
        <time>2021-07-18T07:51:19.000Z</time>
      </trkpt>
      <trkpt lat="47.246" lon="-2.29943">
        <ele>18.60000038147</ele>
        <time>2021-07-18T07:51:25.000Z</time>
      </trkpt>
      <trkpt lat="47.24615" lon="-2.2994">
        <ele>18.60000038147</ele>
        <time>2021-07-18T07:51:28.000Z</time>
      </trkpt>
      <trkpt lat="47.24621" lon="-2.29938">
        <ele>18.60000038147</ele>
        <time>2021-07-18T07:51:29.000Z</time>
      </trkpt>
      <trkpt lat="47.24652" lon="-2.29925">
        <ele>18.60000038147</ele>
        <time>2021-07-18T07:51:35.000Z</time>
      </trkpt>
      <trkpt lat="47.24696" lon="-2.29909">
        <ele>18.60000038147</ele>
        <time>2021-07-18T07:51:43.000Z</time>
      </trkpt>
      <trkpt lat="47.24724" lon="-2.29901">
        <ele>19</ele>
        <time>2021-07-18T07:51:48.000Z</time>
      </trkpt>
      <trkpt lat="47.24729" lon="-2.29899">
        <ele>19.39999961853</ele>
        <time>2021-07-18T07:51:49.000Z</time>
      </trkpt>
      <trkpt lat="47.24734" lon="-2.29897">
        <ele>19.799999237061</ele>
        <time>2021-07-18T07:51:50.000Z</time>
      </trkpt>
      <trkpt lat="47.24739" lon="-2.29895">
        <ele>20.200000762939</ele>
        <time>2021-07-18T07:51:51.000Z</time>
      </trkpt>
      <trkpt lat="47.24744" lon="-2.29892">
        <ele>20.60000038147</ele>
        <time>2021-07-18T07:51:52.000Z</time>
      </trkpt>
      <trkpt lat="47.2476" lon="-2.29881">
        <ele>20.60000038147</ele>
        <time>2021-07-18T07:51:55.000Z</time>
      </trkpt>
      <trkpt lat="47.24798" lon="-2.29854">
        <ele>20.60000038147</ele>
        <time>2021-07-18T07:52:03.000Z</time>
      </trkpt>
      <trkpt lat="47.2483" lon="-2.29843">
        <ele>20.60000038147</ele>
        <time>2021-07-18T07:52:09.000Z</time>
      </trkpt>
      <trkpt lat="47.24835" lon="-2.29841">
        <ele>20.60000038147</ele>
        <time>2021-07-18T07:52:10.000Z</time>
      </trkpt>
      <trkpt lat="47.2485" lon="-2.29834">
        <ele>20.60000038147</ele>
        <time>2021-07-18T07:52:13.000Z</time>
      </trkpt>
      <trkpt lat="47.24855" lon="-2.2983">
        <ele>20.60000038147</ele>
        <time>2021-07-18T07:52:14.000Z</time>
      </trkpt>
      <trkpt lat="47.24864" lon="-2.29811">
        <ele>20.60000038147</ele>
        <time>2021-07-18T07:52:17.000Z</time>
      </trkpt>
      <trkpt lat="47.24868" lon="-2.29794">
        <ele>21</ele>
        <time>2021-07-18T07:52:19.000Z</time>
      </trkpt>
      <trkpt lat="47.2487" lon="-2.29786">
        <ele>21.60000038147</ele>
        <time>2021-07-18T07:52:20.000Z</time>
      </trkpt>
      <trkpt lat="47.24874" lon="-2.29779">
        <ele>22</ele>
        <time>2021-07-18T07:52:21.000Z</time>
      </trkpt>
      <trkpt lat="47.24879" lon="-2.29774">
        <ele>22.39999961853</ele>
        <time>2021-07-18T07:52:22.000Z</time>
      </trkpt>
      <trkpt lat="47.24884" lon="-2.2977">
        <ele>22.799999237061</ele>
        <time>2021-07-18T07:52:23.000Z</time>
      </trkpt>
      <trkpt lat="47.24889" lon="-2.29766">
        <ele>22.799999237061</ele>
        <time>2021-07-18T07:52:24.000Z</time>
      </trkpt>
      <trkpt lat="47.24895" lon="-2.29763">
        <ele>22.799999237061</ele>
        <time>2021-07-18T07:52:25.000Z</time>
      </trkpt>
      <trkpt lat="47.24935" lon="-2.29744">
        <ele>22.799999237061</ele>
        <time>2021-07-18T07:52:32.000Z</time>
      </trkpt>
      <trkpt lat="47.24981" lon="-2.29728">
        <ele>22.799999237061</ele>
        <time>2021-07-18T07:52:39.000Z</time>
      </trkpt>
      <trkpt lat="47.25028" lon="-2.29717">
        <ele>22.799999237061</ele>
        <time>2021-07-18T07:52:46.000Z</time>
      </trkpt>
      <trkpt lat="47.25075" lon="-2.29709">
        <ele>22.799999237061</ele>
        <time>2021-07-18T07:52:53.000Z</time>
      </trkpt>
      <trkpt lat="47.25082" lon="-2.2971">
        <ele>22.39999961853</ele>
        <time>2021-07-18T07:52:54.000Z</time>
      </trkpt>
      <trkpt lat="47.25088" lon="-2.29711">
        <ele>22</ele>
        <time>2021-07-18T07:52:55.000Z</time>
      </trkpt>
      <trkpt lat="47.25095" lon="-2.29712">
        <ele>21.60000038147</ele>
        <time>2021-07-18T07:52:56.000Z</time>
      </trkpt>
      <trkpt lat="47.25101" lon="-2.29713">
        <ele>21.200000762939</ele>
        <time>2021-07-18T07:52:57.000Z</time>
      </trkpt>
      <trkpt lat="47.25108" lon="-2.29715">
        <ele>20.799999237061</ele>
        <time>2021-07-18T07:52:58.000Z</time>
      </trkpt>
      <trkpt lat="47.25115" lon="-2.29717">
        <ele>20.799999237061</ele>
        <time>2021-07-18T07:52:59.000Z</time>
      </trkpt>
      <trkpt lat="47.25165" lon="-2.29738">
        <ele>20.799999237061</ele>
        <time>2021-07-18T07:53:07.000Z</time>
      </trkpt>
      <trkpt lat="47.25185" lon="-2.29748">
        <ele>20.799999237061</ele>
        <time>2021-07-18T07:53:11.000Z</time>
      </trkpt>
      <trkpt lat="47.25188" lon="-2.29747">
        <ele>20.799999237061</ele>
        <time>2021-07-18T07:53:12.000Z</time>
      </trkpt>
      <trkpt lat="47.2519" lon="-2.29744">
        <ele>20.39999961853</ele>
        <time>2021-07-18T07:53:13.000Z</time>
      </trkpt>
      <trkpt lat="47.25191" lon="-2.2974">
        <ele>20</ele>
        <time>2021-07-18T07:53:14.000Z</time>
      </trkpt>
      <trkpt lat="47.25191" lon="-2.29736">
        <ele>19.60000038147</ele>
        <time>2021-07-18T07:53:15.000Z</time>
      </trkpt>
      <trkpt lat="47.25191" lon="-2.29732">
        <ele>19.200000762939</ele>
        <time>2021-07-18T07:53:16.000Z</time>
      </trkpt>
      <trkpt lat="47.25191" lon="-2.29726">
        <ele>18.799999237061</ele>
        <time>2021-07-18T07:53:17.000Z</time>
      </trkpt>
      <trkpt lat="47.2519" lon="-2.29719">
        <ele>18.799999237061</ele>
        <time>2021-07-18T07:53:18.000Z</time>
      </trkpt>
      <trkpt lat="47.2519" lon="-2.29712">
        <ele>18.799999237061</ele>
        <time>2021-07-18T07:53:19.000Z</time>
      </trkpt>
      <trkpt lat="47.25187" lon="-2.29657">
        <ele>18.799999237061</ele>
        <time>2021-07-18T07:53:26.000Z</time>
      </trkpt>
      <trkpt lat="47.25186" lon="-2.29633">
        <ele>18.799999237061</ele>
        <time>2021-07-18T07:53:29.000Z</time>
      </trkpt>
      <trkpt lat="47.25188" lon="-2.29626">
        <ele>18.799999237061</ele>
        <time>2021-07-18T07:53:30.000Z</time>
      </trkpt>
      <trkpt lat="47.25197" lon="-2.29608">
        <ele>19.200000762939</ele>
        <time>2021-07-18T07:53:33.000Z</time>
      </trkpt>
      <trkpt lat="47.25199" lon="-2.29601">
        <ele>19.60000038147</ele>
        <time>2021-07-18T07:53:34.000Z</time>
      </trkpt>
      <trkpt lat="47.25201" lon="-2.29594">
        <ele>20</ele>
        <time>2021-07-18T07:53:35.000Z</time>
      </trkpt>
      <trkpt lat="47.25204" lon="-2.29588">
        <ele>20.39999961853</ele>
        <time>2021-07-18T07:53:36.000Z</time>
      </trkpt>
      <trkpt lat="47.25209" lon="-2.29583">
        <ele>20.799999237061</ele>
        <time>2021-07-18T07:53:37.000Z</time>
      </trkpt>
      <trkpt lat="47.25225" lon="-2.29575">
        <ele>20.799999237061</ele>
        <time>2021-07-18T07:53:40.000Z</time>
      </trkpt>
      <trkpt lat="47.2523" lon="-2.29572">
        <ele>20.799999237061</ele>
        <time>2021-07-18T07:53:41.000Z</time>
      </trkpt>
      <trkpt lat="47.25256" lon="-2.29552">
        <ele>20.799999237061</ele>
        <time>2021-07-18T07:53:46.000Z</time>
      </trkpt>
      <trkpt lat="47.25276" lon="-2.29538">
        <ele>20.799999237061</ele>
        <time>2021-07-18T07:53:50.000Z</time>
      </trkpt>
      <trkpt lat="47.25281" lon="-2.29536">
        <ele>20.799999237061</ele>
        <time>2021-07-18T07:53:51.000Z</time>
      </trkpt>
      <trkpt lat="47.25297" lon="-2.29531">
        <ele>20.799999237061</ele>
        <time>2021-07-18T07:53:54.000Z</time>
      </trkpt>
      <trkpt lat="47.25313" lon="-2.29523">
        <ele>20.799999237061</ele>
        <time>2021-07-18T07:53:57.000Z</time>
      </trkpt>
      <trkpt lat="47.25323" lon="-2.29515">
        <ele>20.799999237061</ele>
        <time>2021-07-18T07:53:59.000Z</time>
      </trkpt>
      <trkpt lat="47.25334" lon="-2.29497">
        <ele>20.799999237061</ele>
        <time>2021-07-18T07:54:02.000Z</time>
      </trkpt>
      <trkpt lat="47.25342" lon="-2.29467">
        <ele>20.799999237061</ele>
        <time>2021-07-18T07:54:06.000Z</time>
      </trkpt>
      <trkpt lat="47.25343" lon="-2.29459">
        <ele>20.799999237061</ele>
        <time>2021-07-18T07:54:07.000Z</time>
      </trkpt>
      <trkpt lat="47.25343" lon="-2.29434">
        <ele>20.799999237061</ele>
        <time>2021-07-18T07:54:10.000Z</time>
      </trkpt>
      <trkpt lat="47.25342" lon="-2.29418">
        <ele>20.799999237061</ele>
        <time>2021-07-18T07:54:12.000Z</time>
      </trkpt>
      <trkpt lat="47.25345" lon="-2.29362">
        <ele>20.799999237061</ele>
        <time>2021-07-18T07:54:19.000Z</time>
      </trkpt>
      <trkpt lat="47.25356" lon="-2.29314">
        <ele>20.799999237061</ele>
        <time>2021-07-18T07:54:25.000Z</time>
      </trkpt>
      <trkpt lat="47.25359" lon="-2.29297">
        <ele>20.799999237061</ele>
        <time>2021-07-18T07:54:27.000Z</time>
      </trkpt>
      <trkpt lat="47.25362" lon="-2.29274">
        <ele>20.799999237061</ele>
        <time>2021-07-18T07:54:30.000Z</time>
      </trkpt>
      <trkpt lat="47.25367" lon="-2.2925">
        <ele>20.799999237061</ele>
        <time>2021-07-18T07:54:33.000Z</time>
      </trkpt>
      <trkpt lat="47.25377" lon="-2.29229">
        <ele>20.799999237061</ele>
        <time>2021-07-18T07:54:36.000Z</time>
      </trkpt>
      <trkpt lat="47.25381" lon="-2.29222">
        <ele>20.799999237061</ele>
        <time>2021-07-18T07:54:37.000Z</time>
      </trkpt>
      <trkpt lat="47.25401" lon="-2.29195">
        <ele>20.799999237061</ele>
        <time>2021-07-18T07:54:42.000Z</time>
      </trkpt>
      <trkpt lat="47.25406" lon="-2.29191">
        <ele>20.799999237061</ele>
        <time>2021-07-18T07:54:43.000Z</time>
      </trkpt>
      <trkpt lat="47.25421" lon="-2.2918">
        <ele>20.799999237061</ele>
        <time>2021-07-18T07:54:46.000Z</time>
      </trkpt>
      <trkpt lat="47.25426" lon="-2.29176">
        <ele>20.799999237061</ele>
        <time>2021-07-18T07:54:47.000Z</time>
      </trkpt>
      <trkpt lat="47.2544" lon="-2.29159">
        <ele>20.799999237061</ele>
        <time>2021-07-18T07:54:50.000Z</time>
      </trkpt>
      <trkpt lat="47.25444" lon="-2.29153">
        <ele>20.799999237061</ele>
        <time>2021-07-18T07:54:51.000Z</time>
      </trkpt>
      <trkpt lat="47.25453" lon="-2.29143">
        <ele>20.799999237061</ele>
        <time>2021-07-18T07:54:53.000Z</time>
      </trkpt>
      <trkpt lat="47.2547" lon="-2.29129">
        <ele>20.799999237061</ele>
        <time>2021-07-18T07:54:56.000Z</time>
      </trkpt>
      <trkpt lat="47.25482" lon="-2.29123">
        <ele>20.799999237061</ele>
        <time>2021-07-18T07:54:58.000Z</time>
      </trkpt>
      <trkpt lat="47.25501" lon="-2.29115">
        <ele>20.799999237061</ele>
        <time>2021-07-18T07:55:01.000Z</time>
      </trkpt>
      <trkpt lat="47.25508" lon="-2.29112">
        <ele>20.799999237061</ele>
        <time>2021-07-18T07:55:02.000Z</time>
      </trkpt>
      <trkpt lat="47.25529" lon="-2.29103">
        <ele>20.39999961853</ele>
        <time>2021-07-18T07:55:05.000Z</time>
      </trkpt>
      <trkpt lat="47.25536" lon="-2.29096">
        <ele>19.60000038147</ele>
        <time>2021-07-18T07:55:06.000Z</time>
      </trkpt>
      <trkpt lat="47.25541" lon="-2.29089">
        <ele>19</ele>
        <time>2021-07-18T07:55:07.000Z</time>
      </trkpt>
      <trkpt lat="47.25542" lon="-2.29079">
        <ele>18.60000038147</ele>
        <time>2021-07-18T07:55:08.000Z</time>
      </trkpt>
      <trkpt lat="47.25542" lon="-2.29069">
        <ele>18.60000038147</ele>
        <time>2021-07-18T07:55:09.000Z</time>
      </trkpt>
      <trkpt lat="47.25538" lon="-2.29033">
        <ele>18.60000038147</ele>
        <time>2021-07-18T07:55:13.000Z</time>
      </trkpt>
      <trkpt lat="47.25546" lon="-2.29002">
        <ele>18.60000038147</ele>
        <time>2021-07-18T07:55:17.000Z</time>
      </trkpt>
      <trkpt lat="47.2555" lon="-2.28997">
        <ele>18.60000038147</ele>
        <time>2021-07-18T07:55:18.000Z</time>
      </trkpt>
      <trkpt lat="47.25554" lon="-2.28992">
        <ele>18.60000038147</ele>
        <time>2021-07-18T07:55:19.000Z</time>
      </trkpt>
      <trkpt lat="47.2557" lon="-2.28982">
        <ele>18.60000038147</ele>
        <time>2021-07-18T07:55:22.000Z</time>
      </trkpt>
      <trkpt lat="47.25576" lon="-2.28977">
        <ele>18.60000038147</ele>
        <time>2021-07-18T07:55:23.000Z</time>
      </trkpt>
      <trkpt lat="47.25583" lon="-2.28962">
        <ele>18.200000762939</ele>
        <time>2021-07-18T07:55:25.000Z</time>
      </trkpt>
      <trkpt lat="47.25583" lon="-2.28953">
        <ele>17.799999237061</ele>
        <time>2021-07-18T07:55:26.000Z</time>
      </trkpt>
      <trkpt lat="47.25583" lon="-2.28945">
        <ele>17.39999961853</ele>
        <time>2021-07-18T07:55:27.000Z</time>
      </trkpt>
      <trkpt lat="47.25582" lon="-2.28937">
        <ele>17</ele>
        <time>2021-07-18T07:55:28.000Z</time>
      </trkpt>
      <trkpt lat="47.25581" lon="-2.28928">
        <ele>16.60000038147</ele>
        <time>2021-07-18T07:55:29.000Z</time>
      </trkpt>
      <trkpt lat="47.25578" lon="-2.28911">
        <ele>16.60000038147</ele>
        <time>2021-07-18T07:55:31.000Z</time>
      </trkpt>
      <trkpt lat="47.25574" lon="-2.28895">
        <ele>16.60000038147</ele>
        <time>2021-07-18T07:55:33.000Z</time>
      </trkpt>
      <trkpt lat="47.25558" lon="-2.28826">
        <ele>16.60000038147</ele>
        <time>2021-07-18T07:55:41.000Z</time>
      </trkpt>
      <trkpt lat="47.25541" lon="-2.28772">
        <ele>16.60000038147</ele>
        <time>2021-07-18T07:55:48.000Z</time>
      </trkpt>
      <trkpt lat="47.25532" lon="-2.28722">
        <ele>16.60000038147</ele>
        <time>2021-07-18T07:55:54.000Z</time>
      </trkpt>
      <trkpt lat="47.25519" lon="-2.28645">
        <ele>16.60000038147</ele>
        <time>2021-07-18T07:56:03.000Z</time>
      </trkpt>
      <trkpt lat="47.25518" lon="-2.28636">
        <ele>17</ele>
        <time>2021-07-18T07:56:04.000Z</time>
      </trkpt>
      <trkpt lat="47.25517" lon="-2.28627">
        <ele>17.39999961853</ele>
        <time>2021-07-18T07:56:05.000Z</time>
      </trkpt>
      <trkpt lat="47.25516" lon="-2.28618">
        <ele>17.799999237061</ele>
        <time>2021-07-18T07:56:06.000Z</time>
      </trkpt>
      <trkpt lat="47.25516" lon="-2.2861">
        <ele>18.200000762939</ele>
        <time>2021-07-18T07:56:07.000Z</time>
      </trkpt>
      <trkpt lat="47.25515" lon="-2.28602">
        <ele>18.60000038147</ele>
        <time>2021-07-18T07:56:08.000Z</time>
      </trkpt>
      <trkpt lat="47.25514" lon="-2.28594">
        <ele>18.60000038147</ele>
        <time>2021-07-18T07:56:09.000Z</time>
      </trkpt>
      <trkpt lat="47.2551" lon="-2.28542">
        <ele>18.60000038147</ele>
        <time>2021-07-18T07:56:15.000Z</time>
      </trkpt>
      <trkpt lat="47.25511" lon="-2.28481">
        <ele>18.60000038147</ele>
        <time>2021-07-18T07:56:22.000Z</time>
      </trkpt>
      <trkpt lat="47.25514" lon="-2.28445">
        <ele>19</ele>
        <time>2021-07-18T07:56:26.000Z</time>
      </trkpt>
      <trkpt lat="47.25515" lon="-2.28436">
        <ele>19.39999961853</ele>
        <time>2021-07-18T07:56:27.000Z</time>
      </trkpt>
      <trkpt lat="47.25515" lon="-2.28427">
        <ele>19.799999237061</ele>
        <time>2021-07-18T07:56:28.000Z</time>
      </trkpt>
      <trkpt lat="47.25516" lon="-2.28418">
        <ele>20.39999961853</ele>
        <time>2021-07-18T07:56:29.000Z</time>
      </trkpt>
      <trkpt lat="47.25516" lon="-2.28409">
        <ele>20.799999237061</ele>
        <time>2021-07-18T07:56:30.000Z</time>
      </trkpt>
      <trkpt lat="47.25515" lon="-2.284">
        <ele>20.799999237061</ele>
        <time>2021-07-18T07:56:31.000Z</time>
      </trkpt>
      <trkpt lat="47.25513" lon="-2.28378">
        <ele>20.799999237061</ele>
        <time>2021-07-18T07:56:34.000Z</time>
      </trkpt>
      <trkpt lat="47.2551" lon="-2.2836">
        <ele>20.799999237061</ele>
        <time>2021-07-18T07:56:38.000Z</time>
      </trkpt>
      <trkpt lat="47.2551" lon="-2.28356">
        <ele>20.799999237061</ele>
        <time>2021-07-18T07:56:39.000Z</time>
      </trkpt>
      <trkpt lat="47.25516" lon="-2.28348">
        <ele>20.799999237061</ele>
        <time>2021-07-18T07:56:42.000Z</time>
      </trkpt>
      <trkpt lat="47.25525" lon="-2.28332">
        <ele>20.799999237061</ele>
        <time>2021-07-18T07:56:46.000Z</time>
      </trkpt>
      <trkpt lat="47.25526" lon="-2.28323">
        <ele>20.799999237061</ele>
        <time>2021-07-18T07:56:48.000Z</time>
      </trkpt>
      <trkpt lat="47.25526" lon="-2.28308">
        <ele>20.799999237061</ele>
        <time>2021-07-18T07:56:51.000Z</time>
      </trkpt>
      <trkpt lat="47.25527" lon="-2.2828">
        <ele>20.799999237061</ele>
        <time>2021-07-18T07:56:56.000Z</time>
      </trkpt>
      <trkpt lat="47.25527" lon="-2.28274">
        <ele>21.200000762939</ele>
        <time>2021-07-18T07:56:57.000Z</time>
      </trkpt>
      <trkpt lat="47.25527" lon="-2.28267">
        <ele>21.60000038147</ele>
        <time>2021-07-18T07:56:58.000Z</time>
      </trkpt>
      <trkpt lat="47.25527" lon="-2.28261">
        <ele>22</ele>
        <time>2021-07-18T07:56:59.000Z</time>
      </trkpt>
      <trkpt lat="47.25527" lon="-2.28255">
        <ele>22.60000038147</ele>
        <time>2021-07-18T07:57:00.000Z</time>
      </trkpt>
      <trkpt lat="47.25526" lon="-2.28249">
        <ele>23</ele>
        <time>2021-07-18T07:57:01.000Z</time>
      </trkpt>
      <trkpt lat="47.25526" lon="-2.28237">
        <ele>23</ele>
        <time>2021-07-18T07:57:03.000Z</time>
      </trkpt>
      <trkpt lat="47.25528" lon="-2.2823">
        <ele>23</ele>
        <time>2021-07-18T07:57:04.000Z</time>
      </trkpt>
      <trkpt lat="47.25537" lon="-2.28209">
        <ele>23.39999961853</ele>
        <time>2021-07-18T07:57:06.000Z</time>
      </trkpt>
      <trkpt lat="47.25539" lon="-2.28201">
        <ele>23.799999237061</ele>
        <time>2021-07-18T07:57:07.000Z</time>
      </trkpt>
      <trkpt lat="47.25541" lon="-2.28193">
        <ele>24.200000762939</ele>
        <time>2021-07-18T07:57:08.000Z</time>
      </trkpt>
      <trkpt lat="47.25543" lon="-2.28184">
        <ele>25</ele>
        <time>2021-07-18T07:57:09.000Z</time>
      </trkpt>
      <trkpt lat="47.25555" lon="-2.28145">
        <ele>25</ele>
        <time>2021-07-18T07:57:14.000Z</time>
      </trkpt>
      <trkpt lat="47.25559" lon="-2.28139">
        <ele>25</ele>
        <time>2021-07-18T07:57:15.000Z</time>
      </trkpt>
      <trkpt lat="47.25576" lon="-2.28115">
        <ele>25</ele>
        <time>2021-07-18T07:57:19.000Z</time>
      </trkpt>
      <trkpt lat="47.25615" lon="-2.28068">
        <ele>25</ele>
        <time>2021-07-18T07:57:27.000Z</time>
      </trkpt>
      <trkpt lat="47.25652" lon="-2.28025">
        <ele>25</ele>
        <time>2021-07-18T07:57:35.000Z</time>
      </trkpt>
      <trkpt lat="47.25672" lon="-2.27998">
        <ele>25</ele>
        <time>2021-07-18T07:57:40.000Z</time>
      </trkpt>
      <trkpt lat="47.25674" lon="-2.2799">
        <ele>25</ele>
        <time>2021-07-18T07:57:41.000Z</time>
      </trkpt>
      <trkpt lat="47.2567" lon="-2.27968">
        <ele>25</ele>
        <time>2021-07-18T07:57:44.000Z</time>
      </trkpt>
      <trkpt lat="47.25658" lon="-2.27938">
        <ele>25</ele>
        <time>2021-07-18T07:57:48.000Z</time>
      </trkpt>
      <trkpt lat="47.25654" lon="-2.27931">
        <ele>25</ele>
        <time>2021-07-18T07:57:49.000Z</time>
      </trkpt>
      <trkpt lat="47.25638" lon="-2.27908">
        <ele>25</ele>
        <time>2021-07-18T07:57:53.000Z</time>
      </trkpt>
      <trkpt lat="47.25627" lon="-2.27899">
        <ele>25</ele>
        <time>2021-07-18T07:57:55.000Z</time>
      </trkpt>
      <trkpt lat="47.25591" lon="-2.27872">
        <ele>25</ele>
        <time>2021-07-18T07:58:01.000Z</time>
      </trkpt>
      <trkpt lat="47.25557" lon="-2.27833">
        <ele>25</ele>
        <time>2021-07-18T07:58:07.000Z</time>
      </trkpt>
      <trkpt lat="47.25516" lon="-2.27773">
        <ele>25</ele>
        <time>2021-07-18T07:58:15.000Z</time>
      </trkpt>
      <trkpt lat="47.25511" lon="-2.27765">
        <ele>24.60000038147</ele>
        <time>2021-07-18T07:58:16.000Z</time>
      </trkpt>
      <trkpt lat="47.25507" lon="-2.27758">
        <ele>24.200000762939</ele>
        <time>2021-07-18T07:58:17.000Z</time>
      </trkpt>
      <trkpt lat="47.25503" lon="-2.2775">
        <ele>23.799999237061</ele>
        <time>2021-07-18T07:58:18.000Z</time>
      </trkpt>
      <trkpt lat="47.25499" lon="-2.2774">
        <ele>23.39999961853</ele>
        <time>2021-07-18T07:58:19.000Z</time>
      </trkpt>
      <trkpt lat="47.25496" lon="-2.27731">
        <ele>23</ele>
        <time>2021-07-18T07:58:20.000Z</time>
      </trkpt>
      <trkpt lat="47.25494" lon="-2.27721">
        <ele>23</ele>
        <time>2021-07-18T07:58:21.000Z</time>
      </trkpt>
      <trkpt lat="47.25491" lon="-2.277">
        <ele>23</ele>
        <time>2021-07-18T07:58:23.000Z</time>
      </trkpt>
      <trkpt lat="47.25483" lon="-2.2766">
        <ele>23</ele>
        <time>2021-07-18T07:58:27.000Z</time>
      </trkpt>
      <trkpt lat="47.2548" lon="-2.27625">
        <ele>23</ele>
        <time>2021-07-18T07:58:31.000Z</time>
      </trkpt>
      <trkpt lat="47.25476" lon="-2.27566">
        <ele>23</ele>
        <time>2021-07-18T07:58:38.000Z</time>
      </trkpt>
      <trkpt lat="47.25479" lon="-2.2751">
        <ele>23</ele>
        <time>2021-07-18T07:58:45.000Z</time>
      </trkpt>
      <trkpt lat="47.25491" lon="-2.27459">
        <ele>23</ele>
        <time>2021-07-18T07:58:51.000Z</time>
      </trkpt>
      <trkpt lat="47.25507" lon="-2.27399">
        <ele>23</ele>
        <time>2021-07-18T07:58:58.000Z</time>
      </trkpt>
      <trkpt lat="47.25511" lon="-2.27382">
        <ele>23.60000038147</ele>
        <time>2021-07-18T07:59:00.000Z</time>
      </trkpt>
      <trkpt lat="47.25513" lon="-2.27373">
        <ele>24</ele>
        <time>2021-07-18T07:59:01.000Z</time>
      </trkpt>
      <trkpt lat="47.25515" lon="-2.27365">
        <ele>24.39999961853</ele>
        <time>2021-07-18T07:59:02.000Z</time>
      </trkpt>
      <trkpt lat="47.25517" lon="-2.27357">
        <ele>24.799999237061</ele>
        <time>2021-07-18T07:59:03.000Z</time>
      </trkpt>
      <trkpt lat="47.25519" lon="-2.27348">
        <ele>25.39999961853</ele>
        <time>2021-07-18T07:59:04.000Z</time>
      </trkpt>
      <trkpt lat="47.25521" lon="-2.27339">
        <ele>25.39999961853</ele>
        <time>2021-07-18T07:59:05.000Z</time>
      </trkpt>
      <trkpt lat="47.25529" lon="-2.27295">
        <ele>25.39999961853</ele>
        <time>2021-07-18T07:59:11.000Z</time>
      </trkpt>
      <trkpt lat="47.25537" lon="-2.27248">
        <ele>25.39999961853</ele>
        <time>2021-07-18T07:59:18.000Z</time>
      </trkpt>
      <trkpt lat="47.25548" lon="-2.27215">
        <ele>25.799999237061</ele>
        <time>2021-07-18T07:59:23.000Z</time>
      </trkpt>
      <trkpt lat="47.2555" lon="-2.27209">
        <ele>26.200000762939</ele>
        <time>2021-07-18T07:59:24.000Z</time>
      </trkpt>
      <trkpt lat="47.25553" lon="-2.27202">
        <ele>26.60000038147</ele>
        <time>2021-07-18T07:59:25.000Z</time>
      </trkpt>
      <trkpt lat="47.25555" lon="-2.27196">
        <ele>27</ele>
        <time>2021-07-18T07:59:26.000Z</time>
      </trkpt>
      <trkpt lat="47.25558" lon="-2.2719">
        <ele>27.39999961853</ele>
        <time>2021-07-18T07:59:27.000Z</time>
      </trkpt>
      <trkpt lat="47.25571" lon="-2.27162">
        <ele>27.39999961853</ele>
        <time>2021-07-18T07:59:32.000Z</time>
      </trkpt>
      <trkpt lat="47.25579" lon="-2.27149">
        <ele>27.39999961853</ele>
        <time>2021-07-18T07:59:36.000Z</time>
      </trkpt>
      <trkpt lat="47.25583" lon="-2.27143">
        <ele>27.39999961853</ele>
        <time>2021-07-18T07:59:39.000Z</time>
      </trkpt>
      <trkpt lat="47.25582" lon="-2.27137">
        <ele>27.39999961853</ele>
        <time>2021-07-18T07:59:41.000Z</time>
      </trkpt>
      <trkpt lat="47.25572" lon="-2.27118">
        <ele>27.39999961853</ele>
        <time>2021-07-18T07:59:46.000Z</time>
      </trkpt>
      <trkpt lat="47.25568" lon="-2.27114">
        <ele>27.39999961853</ele>
        <time>2021-07-18T07:59:47.000Z</time>
      </trkpt>
      <trkpt lat="47.25554" lon="-2.271">
        <ele>27.39999961853</ele>
        <time>2021-07-18T07:59:51.000Z</time>
      </trkpt>
      <trkpt lat="47.25525" lon="-2.27068">
        <ele>27.39999961853</ele>
        <time>2021-07-18T07:59:58.000Z</time>
      </trkpt>
      <trkpt lat="47.25492" lon="-2.27033">
        <ele>27.39999961853</ele>
        <time>2021-07-18T08:00:05.000Z</time>
      </trkpt>
      <trkpt lat="47.2548" lon="-2.27026">
        <ele>27.39999961853</ele>
        <time>2021-07-18T08:00:07.000Z</time>
      </trkpt>
      <trkpt lat="47.25467" lon="-2.27022">
        <ele>27</ele>
        <time>2021-07-18T08:00:09.000Z</time>
      </trkpt>
      <trkpt lat="47.25461" lon="-2.2702">
        <ele>26.60000038147</ele>
        <time>2021-07-18T08:00:10.000Z</time>
      </trkpt>
      <trkpt lat="47.25454" lon="-2.27019">
        <ele>26</ele>
        <time>2021-07-18T08:00:11.000Z</time>
      </trkpt>
      <trkpt lat="47.25448" lon="-2.27018">
        <ele>25.60000038147</ele>
        <time>2021-07-18T08:00:12.000Z</time>
      </trkpt>
      <trkpt lat="47.25441" lon="-2.27016">
        <ele>25.200000762939</ele>
        <time>2021-07-18T08:00:13.000Z</time>
      </trkpt>
      <trkpt lat="47.25429" lon="-2.27012">
        <ele>25.200000762939</ele>
        <time>2021-07-18T08:00:15.000Z</time>
      </trkpt>
      <trkpt lat="47.25424" lon="-2.27009">
        <ele>25.200000762939</ele>
        <time>2021-07-18T08:00:16.000Z</time>
      </trkpt>
      <trkpt lat="47.25418" lon="-2.27007">
        <ele>25.200000762939</ele>
        <time>2021-07-18T08:00:17.000Z</time>
      </trkpt>
      <trkpt lat="47.25406" lon="-2.27005">
        <ele>25.200000762939</ele>
        <time>2021-07-18T08:00:20.000Z</time>
      </trkpt>
      <trkpt lat="47.25399" lon="-2.27004">
        <ele>25.200000762939</ele>
        <time>2021-07-18T08:00:24.000Z</time>
      </trkpt>
      <trkpt lat="47.25397" lon="-2.27002">
        <ele>25.200000762939</ele>
        <time>2021-07-18T08:00:26.000Z</time>
      </trkpt>
      <trkpt lat="47.25395" lon="-2.27002">
        <ele>24.799999237061</ele>
        <time>2021-07-18T08:00:28.000Z</time>
      </trkpt>
      <trkpt lat="47.25394" lon="-2.27001">
        <ele>24.200000762939</ele>
        <time>2021-07-18T08:00:29.000Z</time>
      </trkpt>
      <trkpt lat="47.25393" lon="-2.27002">
        <ele>23.799999237061</ele>
        <time>2021-07-18T08:00:30.000Z</time>
      </trkpt>
      <trkpt lat="47.25391" lon="-2.27002">
        <ele>23.39999961853</ele>
        <time>2021-07-18T08:00:31.000Z</time>
      </trkpt>
      <trkpt lat="47.25388" lon="-2.27002">
        <ele>23</ele>
        <time>2021-07-18T08:00:32.000Z</time>
      </trkpt>
      <trkpt lat="47.25382" lon="-2.27">
        <ele>23</ele>
        <time>2021-07-18T08:00:34.000Z</time>
      </trkpt>
      <trkpt lat="47.25374" lon="-2.26994">
        <ele>23</ele>
        <time>2021-07-18T08:00:37.000Z</time>
      </trkpt>
      <trkpt lat="47.25373" lon="-2.26988">
        <ele>23</ele>
        <time>2021-07-18T08:00:38.000Z</time>
      </trkpt>
      <trkpt lat="47.25374" lon="-2.26968">
        <ele>23</ele>
        <time>2021-07-18T08:00:41.000Z</time>
      </trkpt>
      <trkpt lat="47.25375" lon="-2.2696">
        <ele>23</ele>
        <time>2021-07-18T08:00:42.000Z</time>
      </trkpt>
      <trkpt lat="47.25378" lon="-2.26896">
        <ele>23</ele>
        <time>2021-07-18T08:00:50.000Z</time>
      </trkpt>
      <trkpt lat="47.25382" lon="-2.26829">
        <ele>23</ele>
        <time>2021-07-18T08:00:57.000Z</time>
      </trkpt>
      <trkpt lat="47.25385" lon="-2.2682">
        <ele>23</ele>
        <time>2021-07-18T08:00:58.000Z</time>
      </trkpt>
      <trkpt lat="47.25393" lon="-2.26807">
        <ele>23</ele>
        <time>2021-07-18T08:01:00.000Z</time>
      </trkpt>
      <trkpt lat="47.25404" lon="-2.26796">
        <ele>23</ele>
        <time>2021-07-18T08:01:02.000Z</time>
      </trkpt>
      <trkpt lat="47.25419" lon="-2.26781">
        <ele>23</ele>
        <time>2021-07-18T08:01:05.000Z</time>
      </trkpt>
      <trkpt lat="47.25454" lon="-2.26745">
        <ele>22.60000038147</ele>
        <time>2021-07-18T08:01:11.000Z</time>
      </trkpt>
      <trkpt lat="47.25459" lon="-2.26738">
        <ele>22.200000762939</ele>
        <time>2021-07-18T08:01:12.000Z</time>
      </trkpt>
      <trkpt lat="47.25462" lon="-2.26733">
        <ele>21.799999237061</ele>
        <time>2021-07-18T08:01:13.000Z</time>
      </trkpt>
      <trkpt lat="47.25467" lon="-2.26728">
        <ele>21.39999961853</ele>
        <time>2021-07-18T08:01:14.000Z</time>
      </trkpt>
      <trkpt lat="47.2547" lon="-2.26723">
        <ele>20.799999237061</ele>
        <time>2021-07-18T08:01:15.000Z</time>
      </trkpt>
      <trkpt lat="47.25472" lon="-2.26718">
        <ele>19.799999237061</ele>
        <time>2021-07-18T08:01:16.000Z</time>
      </trkpt>
      <trkpt lat="47.25473" lon="-2.26711">
        <ele>19.200000762939</ele>
        <time>2021-07-18T08:01:17.000Z</time>
      </trkpt>
      <trkpt lat="47.25473" lon="-2.26704">
        <ele>18.799999237061</ele>
        <time>2021-07-18T08:01:18.000Z</time>
      </trkpt>
      <trkpt lat="47.25472" lon="-2.26683">
        <ele>18.799999237061</ele>
        <time>2021-07-18T08:01:21.000Z</time>
      </trkpt>
      <trkpt lat="47.2547" lon="-2.26671">
        <ele>18.799999237061</ele>
        <time>2021-07-18T08:01:23.000Z</time>
      </trkpt>
      <trkpt lat="47.25465" lon="-2.26666">
        <ele>18.799999237061</ele>
        <time>2021-07-18T08:01:24.000Z</time>
      </trkpt>
      <trkpt lat="47.25449" lon="-2.26646">
        <ele>18.799999237061</ele>
        <time>2021-07-18T08:01:28.000Z</time>
      </trkpt>
      <trkpt lat="47.25443" lon="-2.26633">
        <ele>18.799999237061</ele>
        <time>2021-07-18T08:01:30.000Z</time>
      </trkpt>
      <trkpt lat="47.25442" lon="-2.26625">
        <ele>18.799999237061</ele>
        <time>2021-07-18T08:01:31.000Z</time>
      </trkpt>
      <trkpt lat="47.25441" lon="-2.26599">
        <ele>18.799999237061</ele>
        <time>2021-07-18T08:01:34.000Z</time>
      </trkpt>
      <trkpt lat="47.25432" lon="-2.26569">
        <ele>18.39999961853</ele>
        <time>2021-07-18T08:01:37.000Z</time>
      </trkpt>
      <trkpt lat="47.25428" lon="-2.26561">
        <ele>17.799999237061</ele>
        <time>2021-07-18T08:01:38.000Z</time>
      </trkpt>
      <trkpt lat="47.25424" lon="-2.26553">
        <ele>17.39999961853</ele>
        <time>2021-07-18T08:01:39.000Z</time>
      </trkpt>
      <trkpt lat="47.25421" lon="-2.26544">
        <ele>16.60000038147</ele>
        <time>2021-07-18T08:01:40.000Z</time>
      </trkpt>
      <trkpt lat="47.2542" lon="-2.26525">
        <ele>16.60000038147</ele>
        <time>2021-07-18T08:01:42.000Z</time>
      </trkpt>
      <trkpt lat="47.2542" lon="-2.26507">
        <ele>16.60000038147</ele>
        <time>2021-07-18T08:01:44.000Z</time>
      </trkpt>
      <trkpt lat="47.25421" lon="-2.26477">
        <ele>16</ele>
        <time>2021-07-18T08:01:47.000Z</time>
      </trkpt>
      <trkpt lat="47.2542" lon="-2.26465">
        <ele>15.60000038147</ele>
        <time>2021-07-18T08:01:48.000Z</time>
      </trkpt>
      <trkpt lat="47.25421" lon="-2.26453">
        <ele>15.199999809265</ele>
        <time>2021-07-18T08:01:49.000Z</time>
      </trkpt>
      <trkpt lat="47.25422" lon="-2.26439">
        <ele>14.800000190735</ele>
        <time>2021-07-18T08:01:50.000Z</time>
      </trkpt>
      <trkpt lat="47.25423" lon="-2.26426">
        <ele>14.39999961853</ele>
        <time>2021-07-18T08:01:51.000Z</time>
      </trkpt>
      <trkpt lat="47.25425" lon="-2.26401">
        <ele>13.800000190735</ele>
        <time>2021-07-18T08:01:53.000Z</time>
      </trkpt>
      <trkpt lat="47.25426" lon="-2.26391">
        <ele>13.39999961853</ele>
        <time>2021-07-18T08:01:54.000Z</time>
      </trkpt>
      <trkpt lat="47.25425" lon="-2.26383">
        <ele>12.800000190735</ele>
        <time>2021-07-18T08:01:55.000Z</time>
      </trkpt>
      <trkpt lat="47.25423" lon="-2.26376">
        <ele>12.199999809265</ele>
        <time>2021-07-18T08:01:56.000Z</time>
      </trkpt>
      <trkpt lat="47.25421" lon="-2.2637">
        <ele>11.39999961853</ele>
        <time>2021-07-18T08:01:57.000Z</time>
      </trkpt>
      <trkpt lat="47.25418" lon="-2.26365">
        <ele>10.800000190735</ele>
        <time>2021-07-18T08:01:58.000Z</time>
      </trkpt>
      <trkpt lat="47.25415" lon="-2.26362">
        <ele>10.199999809265</ele>
        <time>2021-07-18T08:01:59.000Z</time>
      </trkpt>
      <trkpt lat="47.25412" lon="-2.2636">
        <ele>9.3999996185303</ele>
        <time>2021-07-18T08:02:00.000Z</time>
      </trkpt>
      <trkpt lat="47.25409" lon="-2.26357">
        <ele>9.3999996185303</ele>
        <time>2021-07-18T08:02:01.000Z</time>
      </trkpt>
      <trkpt lat="47.25405" lon="-2.26339">
        <ele>9.3999996185303</ele>
        <time>2021-07-18T08:02:05.000Z</time>
      </trkpt>
      <trkpt lat="47.25402" lon="-2.26327">
        <ele>9.3999996185303</ele>
        <time>2021-07-18T08:02:07.000Z</time>
      </trkpt>
      <trkpt lat="47.25398" lon="-2.26319">
        <ele>10</ele>
        <time>2021-07-18T08:02:09.000Z</time>
      </trkpt>
      <trkpt lat="47.25396" lon="-2.26315">
        <ele>10.39999961853</ele>
        <time>2021-07-18T08:02:10.000Z</time>
      </trkpt>
      <trkpt lat="47.25395" lon="-2.2631">
        <ele>10.800000190735</ele>
        <time>2021-07-18T08:02:11.000Z</time>
      </trkpt>
      <trkpt lat="47.25394" lon="-2.26305">
        <ele>11.199999809265</ele>
        <time>2021-07-18T08:02:12.000Z</time>
      </trkpt>
      <trkpt lat="47.25393" lon="-2.26299">
        <ele>11.60000038147</ele>
        <time>2021-07-18T08:02:13.000Z</time>
      </trkpt>
      <trkpt lat="47.25389" lon="-2.26283">
        <ele>11.60000038147</ele>
        <time>2021-07-18T08:02:16.000Z</time>
      </trkpt>
      <trkpt lat="47.25385" lon="-2.26251">
        <ele>11.60000038147</ele>
        <time>2021-07-18T08:02:22.000Z</time>
      </trkpt>
      <trkpt lat="47.25384" lon="-2.26244">
        <ele>11.60000038147</ele>
        <time>2021-07-18T08:02:23.000Z</time>
      </trkpt>
      <trkpt lat="47.25382" lon="-2.26236">
        <ele>11.199999809265</ele>
        <time>2021-07-18T08:02:24.000Z</time>
      </trkpt>
      <trkpt lat="47.25381" lon="-2.26229">
        <ele>10.800000190735</ele>
        <time>2021-07-18T08:02:25.000Z</time>
      </trkpt>
      <trkpt lat="47.25378" lon="-2.26223">
        <ele>10.199999809265</ele>
        <time>2021-07-18T08:02:26.000Z</time>
      </trkpt>
      <trkpt lat="47.25376" lon="-2.26217">
        <ele>9.8000001907349</ele>
        <time>2021-07-18T08:02:27.000Z</time>
      </trkpt>
      <trkpt lat="47.25374" lon="-2.26213">
        <ele>9.3999996185303</ele>
        <time>2021-07-18T08:02:28.000Z</time>
      </trkpt>
      <trkpt lat="47.25371" lon="-2.26209">
        <ele>9.3999996185303</ele>
        <time>2021-07-18T08:02:29.000Z</time>
      </trkpt>
      <trkpt lat="47.25367" lon="-2.262">
        <ele>9.3999996185303</ele>
        <time>2021-07-18T08:02:31.000Z</time>
      </trkpt>
      <trkpt lat="47.25364" lon="-2.26181">
        <ele>9.3999996185303</ele>
        <time>2021-07-18T08:02:36.000Z</time>
      </trkpt>
      <trkpt lat="47.2536" lon="-2.2616">
        <ele>9.3999996185303</ele>
        <time>2021-07-18T08:02:41.000Z</time>
      </trkpt>
      <trkpt lat="47.25353" lon="-2.26155">
        <ele>9.3999996185303</ele>
        <time>2021-07-18T08:02:46.000Z</time>
      </trkpt>
      <trkpt lat="47.25347" lon="-2.26158">
        <ele>9.3999996185303</ele>
        <time>2021-07-18T08:02:52.000Z</time>
      </trkpt>
      <trkpt lat="47.25348" lon="-2.2616">
        <ele>9.3999996185303</ele>
        <time>2021-07-18T08:02:53.000Z</time>
      </trkpt>
      <trkpt lat="47.25348" lon="-2.26165">
        <ele>9.3999996185303</ele>
        <time>2021-07-18T08:02:57.000Z</time>
      </trkpt>
      <trkpt lat="47.25344" lon="-2.26167">
        <ele>9.8000001907349</ele>
        <time>2021-07-18T08:02:59.000Z</time>
      </trkpt>
      <trkpt lat="47.25342" lon="-2.26167">
        <ele>10.199999809265</ele>
        <time>2021-07-18T08:03:00.000Z</time>
      </trkpt>
      <trkpt lat="47.25339" lon="-2.26165">
        <ele>10.800000190735</ele>
        <time>2021-07-18T08:03:01.000Z</time>
      </trkpt>
      <trkpt lat="47.25338" lon="-2.26163">
        <ele>11.199999809265</ele>
        <time>2021-07-18T08:03:02.000Z</time>
      </trkpt>
      <trkpt lat="47.25337" lon="-2.26162">
        <ele>11.60000038147</ele>
        <time>2021-07-18T08:03:03.000Z</time>
      </trkpt>
      <trkpt lat="47.25337" lon="-2.26159">
        <ele>11.60000038147</ele>
        <time>2021-07-18T08:03:04.000Z</time>
      </trkpt>
      <trkpt lat="47.2534" lon="-2.26154">
        <ele>11.60000038147</ele>
        <time>2021-07-18T08:03:07.000Z</time>
      </trkpt>
      <trkpt lat="47.25346" lon="-2.26153">
        <ele>11.199999809265</ele>
        <time>2021-07-18T08:03:11.000Z</time>
      </trkpt>
      <trkpt lat="47.25348" lon="-2.26153">
        <ele>10.800000190735</ele>
        <time>2021-07-18T08:03:12.000Z</time>
      </trkpt>
      <trkpt lat="47.2535" lon="-2.26154">
        <ele>10.39999961853</ele>
        <time>2021-07-18T08:03:13.000Z</time>
      </trkpt>
      <trkpt lat="47.25352" lon="-2.26154">
        <ele>9.8000001907349</ele>
        <time>2021-07-18T08:03:14.000Z</time>
      </trkpt>
      <trkpt lat="47.25354" lon="-2.26155">
        <ele>9.3999996185303</ele>
        <time>2021-07-18T08:03:15.000Z</time>
      </trkpt>
      <trkpt lat="47.25357" lon="-2.26152">
        <ele>9.3999996185303</ele>
        <time>2021-07-18T08:03:18.000Z</time>
      </trkpt>
      <trkpt lat="47.25359" lon="-2.2615">
        <ele>9</ele>
        <time>2021-07-18T08:03:19.000Z</time>
      </trkpt>
      <trkpt lat="47.25362" lon="-2.26148">
        <ele>8.6000003814697</ele>
        <time>2021-07-18T08:03:20.000Z</time>
      </trkpt>
      <trkpt lat="47.25364" lon="-2.26147">
        <ele>8.1999998092651</ele>
        <time>2021-07-18T08:03:21.000Z</time>
      </trkpt>
      <trkpt lat="47.25367" lon="-2.26145">
        <ele>7.8000001907349</ele>
        <time>2021-07-18T08:03:22.000Z</time>
      </trkpt>
      <trkpt lat="47.25369" lon="-2.26142">
        <ele>7.4000000953674</ele>
        <time>2021-07-18T08:03:23.000Z</time>
      </trkpt>
      <trkpt lat="47.25379" lon="-2.26127">
        <ele>6.8000001907349</ele>
        <time>2021-07-18T08:03:28.000Z</time>
      </trkpt>
      <trkpt lat="47.25383" lon="-2.26126">
        <ele>6.4000000953674</ele>
        <time>2021-07-18T08:03:29.000Z</time>
      </trkpt>
      <trkpt lat="47.25385" lon="-2.26125">
        <ele>6</ele>
        <time>2021-07-18T08:03:30.000Z</time>
      </trkpt>
      <trkpt lat="47.25387" lon="-2.26123">
        <ele>5.5999999046326</ele>
        <time>2021-07-18T08:03:31.000Z</time>
      </trkpt>
      <trkpt lat="47.25387" lon="-2.2612">
        <ele>5.1999998092651</ele>
        <time>2021-07-18T08:03:32.000Z</time>
      </trkpt>
      <trkpt lat="47.25388" lon="-2.26106">
        <ele>5.1999998092651</ele>
        <time>2021-07-18T08:03:35.000Z</time>
      </trkpt>
      <trkpt lat="47.25388" lon="-2.26097">
        <ele>5.1999998092651</ele>
        <time>2021-07-18T08:03:37.000Z</time>
      </trkpt>
      <trkpt lat="47.2539" lon="-2.26061">
        <ele>5.1999998092651</ele>
        <time>2021-07-18T08:03:44.000Z</time>
      </trkpt>
      <trkpt lat="47.25388" lon="-2.26054">
        <ele>5.1999998092651</ele>
        <time>2021-07-18T08:03:49.000Z</time>
      </trkpt>
      <trkpt lat="47.25378" lon="-2.26035">
        <ele>5.1999998092651</ele>
        <time>2021-07-18T08:03:55.000Z</time>
      </trkpt>
      <trkpt lat="47.25373" lon="-2.26032">
        <ele>5.1999998092651</ele>
        <time>2021-07-18T08:03:57.000Z</time>
      </trkpt>
      <trkpt lat="47.25367" lon="-2.2603">
        <ele>5.5999999046326</ele>
        <time>2021-07-18T08:03:59.000Z</time>
      </trkpt>
      <trkpt lat="47.25364" lon="-2.2603">
        <ele>6</ele>
        <time>2021-07-18T08:04:00.000Z</time>
      </trkpt>
      <trkpt lat="47.25362" lon="-2.26031">
        <ele>6.4000000953674</ele>
        <time>2021-07-18T08:04:01.000Z</time>
      </trkpt>
      <trkpt lat="47.25359" lon="-2.26031">
        <ele>6.8000001907349</ele>
        <time>2021-07-18T08:04:02.000Z</time>
      </trkpt>
      <trkpt lat="47.25357" lon="-2.26033">
        <ele>7.1999998092651</ele>
        <time>2021-07-18T08:04:03.000Z</time>
      </trkpt>
      <trkpt lat="47.25341" lon="-2.26041">
        <ele>7.1999998092651</ele>
        <time>2021-07-18T08:04:09.000Z</time>
      </trkpt>
      <trkpt lat="47.25337" lon="-2.26041">
        <ele>7.5999999046326</ele>
        <time>2021-07-18T08:04:10.000Z</time>
      </trkpt>
      <trkpt lat="47.25334" lon="-2.26039">
        <ele>8</ele>
        <time>2021-07-18T08:04:11.000Z</time>
      </trkpt>
      <trkpt lat="47.25333" lon="-2.26038">
        <ele>8.3999996185303</ele>
        <time>2021-07-18T08:04:12.000Z</time>
      </trkpt>
      <trkpt lat="47.25331" lon="-2.26036">
        <ele>9</ele>
        <time>2021-07-18T08:04:13.000Z</time>
      </trkpt>
      <trkpt lat="47.2533" lon="-2.26034">
        <ele>9.3999996185303</ele>
        <time>2021-07-18T08:04:14.000Z</time>
      </trkpt>
      <trkpt lat="47.25329" lon="-2.26035">
        <ele>9.3999996185303</ele>
        <time>2021-07-18T08:04:15.000Z</time>
      </trkpt>
      <trkpt lat="47.25329" lon="-2.26027">
        <ele>9.3999996185303</ele>
        <time>2021-07-18T08:04:59.000Z</time>
      </trkpt>
      <trkpt lat="47.2533" lon="-2.26025">
        <ele>9.3999996185303</ele>
        <time>2021-07-18T08:05:00.000Z</time>
      </trkpt>
      <trkpt lat="47.25328" lon="-2.26004">
        <ele>9.3999996185303</ele>
        <time>2021-07-18T08:05:05.000Z</time>
      </trkpt>
      <trkpt lat="47.25333" lon="-2.2598">
        <ele>9.3999996185303</ele>
        <time>2021-07-18T08:05:10.000Z</time>
      </trkpt>
      <trkpt lat="47.25335" lon="-2.25974">
        <ele>9.3999996185303</ele>
        <time>2021-07-18T08:05:11.000Z</time>
      </trkpt>
      <trkpt lat="47.25337" lon="-2.25968">
        <ele>9</ele>
        <time>2021-07-18T08:05:12.000Z</time>
      </trkpt>
      <trkpt lat="47.25339" lon="-2.25962">
        <ele>8.6000003814697</ele>
        <time>2021-07-18T08:05:13.000Z</time>
      </trkpt>
      <trkpt lat="47.25342" lon="-2.25957">
        <ele>8.1999998092651</ele>
        <time>2021-07-18T08:05:14.000Z</time>
      </trkpt>
      <trkpt lat="47.25345" lon="-2.25952">
        <ele>7.8000001907349</ele>
        <time>2021-07-18T08:05:15.000Z</time>
      </trkpt>
      <trkpt lat="47.25348" lon="-2.25947">
        <ele>7.1999998092651</ele>
        <time>2021-07-18T08:05:16.000Z</time>
      </trkpt>
      <trkpt lat="47.25357" lon="-2.25928">
        <ele>7.1999998092651</ele>
        <time>2021-07-18T08:05:20.000Z</time>
      </trkpt>
      <trkpt lat="47.25359" lon="-2.25914">
        <ele>7.1999998092651</ele>
        <time>2021-07-18T08:05:25.000Z</time>
      </trkpt>
      <trkpt lat="47.25359" lon="-2.25901">
        <ele>7.1999998092651</ele>
        <time>2021-07-18T08:05:32.000Z</time>
      </trkpt>
      <trkpt lat="47.25363" lon="-2.25897">
        <ele>6.8000001907349</ele>
        <time>2021-07-18T08:05:35.000Z</time>
      </trkpt>
      <trkpt lat="47.25365" lon="-2.25896">
        <ele>6.4000000953674</ele>
        <time>2021-07-18T08:05:36.000Z</time>
      </trkpt>
      <trkpt lat="47.25368" lon="-2.25895">
        <ele>6</ele>
        <time>2021-07-18T08:05:37.000Z</time>
      </trkpt>
      <trkpt lat="47.25373" lon="-2.25894">
        <ele>5.1999998092651</ele>
        <time>2021-07-18T08:05:38.000Z</time>
      </trkpt>
      <trkpt lat="47.25378" lon="-2.25893">
        <ele>4.4000000953674</ele>
        <time>2021-07-18T08:05:39.000Z</time>
      </trkpt>
      <trkpt lat="47.25383" lon="-2.25891">
        <ele>3.2000000476837</ele>
        <time>2021-07-18T08:05:40.000Z</time>
      </trkpt>
      <trkpt lat="47.25386" lon="-2.25889">
        <ele>2.2000000476837</ele>
        <time>2021-07-18T08:05:41.000Z</time>
      </trkpt>
      <trkpt lat="47.25388" lon="-2.25886">
        <ele>0.80000001192093</ele>
        <time>2021-07-18T08:05:42.000Z</time>
      </trkpt>
      <trkpt lat="47.2539" lon="-2.25883">
        <ele>-0.40000000596046</ele>
        <time>2021-07-18T08:05:43.000Z</time>
      </trkpt>
      <trkpt lat="47.25392" lon="-2.2588">
        <ele>-1.6000000238419</ele>
        <time>2021-07-18T08:05:44.000Z</time>
      </trkpt>
      <trkpt lat="47.25394" lon="-2.25876">
        <ele>-3</ele>
        <time>2021-07-18T08:05:45.000Z</time>
      </trkpt>
      <trkpt lat="47.25396" lon="-2.25872">
        <ele>-4.1999998092651</ele>
        <time>2021-07-18T08:05:46.000Z</time>
      </trkpt>
      <trkpt lat="47.25399" lon="-2.25862">
        <ele>-4.1999998092651</ele>
        <time>2021-07-18T08:05:48.000Z</time>
      </trkpt>
      <trkpt lat="47.254" lon="-2.25837">
        <ele>-4.1999998092651</ele>
        <time>2021-07-18T08:05:54.000Z</time>
      </trkpt>
      <trkpt lat="47.25393" lon="-2.25828">
        <ele>-4.1999998092651</ele>
        <time>2021-07-18T08:05:59.000Z</time>
      </trkpt>
      <trkpt lat="47.25391" lon="-2.25828">
        <ele>-4.1999998092651</ele>
        <time>2021-07-18T08:06:00.000Z</time>
      </trkpt>
      <trkpt lat="47.25381" lon="-2.25827">
        <ele>-4.1999998092651</ele>
        <time>2021-07-18T08:06:03.000Z</time>
      </trkpt>
      <trkpt lat="47.25378" lon="-2.25826">
        <ele>-4.1999998092651</ele>
        <time>2021-07-18T08:06:04.000Z</time>
      </trkpt>
      <trkpt lat="47.25368" lon="-2.25823">
        <ele>-4.1999998092651</ele>
        <time>2021-07-18T08:06:06.000Z</time>
      </trkpt>
      <trkpt lat="47.25364" lon="-2.25822">
        <ele>-4.1999998092651</ele>
        <time>2021-07-18T08:06:07.000Z</time>
      </trkpt>
      <trkpt lat="47.25356" lon="-2.25826">
        <ele>-3.7999999523163</ele>
        <time>2021-07-18T08:06:09.000Z</time>
      </trkpt>
      <trkpt lat="47.25354" lon="-2.25829">
        <ele>-3.4000000953674</ele>
        <time>2021-07-18T08:06:10.000Z</time>
      </trkpt>
      <trkpt lat="47.25353" lon="-2.25831">
        <ele>-2.7999999523163</ele>
        <time>2021-07-18T08:06:11.000Z</time>
      </trkpt>
      <trkpt lat="47.25351" lon="-2.25833">
        <ele>-2</ele>
        <time>2021-07-18T08:06:12.000Z</time>
      </trkpt>
      <trkpt lat="47.25348" lon="-2.25837">
        <ele>-1.6000000238419</ele>
        <time>2021-07-18T08:06:14.000Z</time>
      </trkpt>
      <trkpt lat="47.25346" lon="-2.2584">
        <ele>-1.2000000476837</ele>
        <time>2021-07-18T08:06:15.000Z</time>
      </trkpt>
      <trkpt lat="47.25345" lon="-2.25843">
        <ele>-0.60000002384186</ele>
        <time>2021-07-18T08:06:16.000Z</time>
      </trkpt>
      <trkpt lat="47.25344" lon="-2.25845">
        <ele>-0.20000000298023</ele>
        <time>2021-07-18T08:06:17.000Z</time>
      </trkpt>
      <trkpt lat="47.25343" lon="-2.25847">
        <ele>0.20000000298023</ele>
        <time>2021-07-18T08:06:18.000Z</time>
      </trkpt>
      <trkpt lat="47.25342" lon="-2.25849">
        <ele>0.60000002384186</ele>
        <time>2021-07-18T08:06:19.000Z</time>
      </trkpt>
      <trkpt lat="47.2534" lon="-2.25851">
        <ele>1.2000000476837</ele>
        <time>2021-07-18T08:06:20.000Z</time>
      </trkpt>
      <trkpt lat="47.25339" lon="-2.25852">
        <ele>1.6000000238419</ele>
        <time>2021-07-18T08:06:21.000Z</time>
      </trkpt>
      <trkpt lat="47.25338" lon="-2.25853">
        <ele>2</ele>
        <time>2021-07-18T08:06:22.000Z</time>
      </trkpt>
      <trkpt lat="47.25338" lon="-2.25853">
        <ele>2.5999999046326</ele>
        <time>2021-07-18T08:06:23.000Z</time>
      </trkpt>
      <trkpt lat="47.25338" lon="-2.25848">
        <ele>2.5999999046326</ele>
        <time>2021-07-18T08:06:32.000Z</time>
      </trkpt>
      <trkpt lat="47.25338" lon="-2.25845">
        <ele>2.5999999046326</ele>
        <time>2021-07-18T08:06:33.000Z</time>
      </trkpt>
      <trkpt lat="47.25339" lon="-2.2583">
        <ele>2.5999999046326</ele>
        <time>2021-07-18T08:06:36.000Z</time>
      </trkpt>
      <trkpt lat="47.25338" lon="-2.25824">
        <ele>2.5999999046326</ele>
        <time>2021-07-18T08:06:37.000Z</time>
      </trkpt>
      <trkpt lat="47.25342" lon="-2.25795">
        <ele>2.5999999046326</ele>
        <time>2021-07-18T08:06:42.000Z</time>
      </trkpt>
      <trkpt lat="47.25347" lon="-2.25763">
        <ele>2.5999999046326</ele>
        <time>2021-07-18T08:06:49.000Z</time>
      </trkpt>
      <trkpt lat="47.25347" lon="-2.25731">
        <ele>2.5999999046326</ele>
        <time>2021-07-18T08:06:57.000Z</time>
      </trkpt>
      <trkpt lat="47.2535" lon="-2.25695">
        <ele>2.5999999046326</ele>
        <time>2021-07-18T08:07:04.000Z</time>
      </trkpt>
      <trkpt lat="47.25346" lon="-2.25655">
        <ele>2.5999999046326</ele>
        <time>2021-07-18T08:07:11.000Z</time>
      </trkpt>
      <trkpt lat="47.25341" lon="-2.25636">
        <ele>2.5999999046326</ele>
        <time>2021-07-18T08:07:17.000Z</time>
      </trkpt>
      <trkpt lat="47.25337" lon="-2.25622">
        <ele>2.5999999046326</ele>
        <time>2021-07-18T08:07:25.000Z</time>
      </trkpt>
      <trkpt lat="47.25334" lon="-2.25599">
        <ele>2.5999999046326</ele>
        <time>2021-07-18T08:07:31.000Z</time>
      </trkpt>
      <trkpt lat="47.25332" lon="-2.25566">
        <ele>2</ele>
        <time>2021-07-18T08:07:36.000Z</time>
      </trkpt>
      <trkpt lat="47.25332" lon="-2.25557">
        <ele>1.6000000238419</ele>
        <time>2021-07-18T08:07:37.000Z</time>
      </trkpt>
      <trkpt lat="47.25331" lon="-2.25548">
        <ele>1.2000000476837</ele>
        <time>2021-07-18T08:07:38.000Z</time>
      </trkpt>
      <trkpt lat="47.2533" lon="-2.25539">
        <ele>0.80000001192093</ele>
        <time>2021-07-18T08:07:39.000Z</time>
      </trkpt>
      <trkpt lat="47.2533" lon="-2.25532">
        <ele>0.40000000596046</ele>
        <time>2021-07-18T08:07:40.000Z</time>
      </trkpt>
      <trkpt lat="47.2533" lon="-2.25515">
        <ele>0.40000000596046</ele>
        <time>2021-07-18T08:07:42.000Z</time>
      </trkpt>
      <trkpt lat="47.2533" lon="-2.25499">
        <ele>13.7</ele>
        <time>2021-07-18T08:07:44.000Z</time>
      </trkpt>
      <trkpt lat="47.2533" lon="-2.25491">
        <ele>-0.40000000596046</ele>
        <time>2021-07-18T08:07:45.000Z</time>
      </trkpt>
      <trkpt lat="47.2533" lon="-2.25484">
        <ele>-1</ele>
        <time>2021-07-18T08:07:46.000Z</time>
      </trkpt>
      <trkpt lat="47.25329" lon="-2.25477">
        <ele>-1.3999999761581</ele>
        <time>2021-07-18T08:07:47.000Z</time>
      </trkpt>
      <trkpt lat="47.25329" lon="-2.2547">
        <ele>-1.7999999523163</ele>
        <time>2021-07-18T08:07:48.000Z</time>
      </trkpt>
      <trkpt lat="47.25329" lon="-2.25462">
        <ele>-2.2000000476837</ele>
        <time>2021-07-18T08:07:49.000Z</time>
      </trkpt>
      <trkpt lat="47.25329" lon="-2.25454">
        <ele>-3.2000000476837</ele>
        <time>2021-07-18T08:07:50.000Z</time>
      </trkpt>
      <trkpt lat="47.25329" lon="-2.25448">
        <ele>-3.7999999523163</ele>
        <time>2021-07-18T08:07:51.000Z</time>
      </trkpt>
      <trkpt lat="47.25329" lon="-2.25442">
        <ele>-4.4000000953674</ele>
        <time>2021-07-18T08:07:52.000Z</time>
      </trkpt>
      <trkpt lat="47.25329" lon="-2.25438">
        <ele>-5</ele>
        <time>2021-07-18T08:07:53.000Z</time>
      </trkpt>
      <trkpt lat="47.2533" lon="-2.25434">
        <ele>-5.8000001907349</ele>
        <time>2021-07-18T08:07:54.000Z</time>
      </trkpt>
      <trkpt lat="47.25331" lon="-2.25429">
        <ele>-6.4000000953674</ele>
        <time>2021-07-18T08:07:55.000Z</time>
      </trkpt>
      <trkpt lat="47.25332" lon="-2.25426">
        <ele>-7</ele>
        <time>2021-07-18T08:07:56.000Z</time>
      </trkpt>
      <trkpt lat="47.25334" lon="-2.25425">
        <ele>-7.5999999046326</ele>
        <time>2021-07-18T08:07:57.000Z</time>
      </trkpt>
      <trkpt lat="47.25337" lon="-2.25425">
        <ele>-8.1999998092651</ele>
        <time>2021-07-18T08:07:58.000Z</time>
      </trkpt>
      <trkpt lat="47.25339" lon="-2.25424">
        <ele>-8.8000001907349</ele>
        <time>2021-07-18T08:07:59.000Z</time>
      </trkpt>
      <trkpt lat="47.25341" lon="-2.25423">
        <ele>-9.3999996185303</ele>
        <time>2021-07-18T08:08:00.000Z</time>
      </trkpt>
      <trkpt lat="47.25343" lon="-2.25422">
        <ele>-10</ele>
        <time>2021-07-18T08:08:01.000Z</time>
      </trkpt>
      <trkpt lat="47.25345" lon="-2.25417">
        <ele>-10.60000038147</ele>
        <time>2021-07-18T08:08:02.000Z</time>
      </trkpt>
      <trkpt lat="47.25347" lon="-2.2541">
        <ele>-11.199999809265</ele>
        <time>2021-07-18T08:08:03.000Z</time>
      </trkpt>
      <trkpt lat="47.25348" lon="-2.25403">
        <ele>-11.800000190735</ele>
        <time>2021-07-18T08:08:04.000Z</time>
      </trkpt>
      <trkpt lat="47.25353" lon="-2.2539">
        <ele>-11.800000190735</ele>
        <time>2021-07-18T08:08:06.000Z</time>
      </trkpt>
      <trkpt lat="47.25367" lon="-2.25382">
        <ele>-11.800000190735</ele>
        <time>2021-07-18T08:08:10.000Z</time>
      </trkpt>
      <trkpt lat="47.25382" lon="-2.25379">
        <ele>-11.800000190735</ele>
        <time>2021-07-18T08:08:16.000Z</time>
      </trkpt>
      <trkpt lat="47.25383" lon="-2.2538">
        <ele>-11.800000190735</ele>
        <time>2021-07-18T08:08:17.000Z</time>
      </trkpt>
      <trkpt lat="47.25387" lon="-2.25386">
        <ele>-11.800000190735</ele>
        <time>2021-07-18T08:08:21.000Z</time>
      </trkpt>
      <trkpt lat="47.2539" lon="-2.2539">
        <ele>-11.800000190735</ele>
        <time>2021-07-18T08:08:24.000Z</time>
      </trkpt>
      <trkpt lat="47.25394" lon="-2.25392">
        <ele>-11.800000190735</ele>
        <time>2021-07-18T08:08:26.000Z</time>
      </trkpt>
      <trkpt lat="47.25408" lon="-2.25401">
        <ele>-11.800000190735</ele>
        <time>2021-07-18T08:08:31.000Z</time>
      </trkpt>
      <trkpt lat="47.25411" lon="-2.25402">
        <ele>-11.39999961853</ele>
        <time>2021-07-18T08:08:32.000Z</time>
      </trkpt>
      <trkpt lat="47.25413" lon="-2.25403">
        <ele>-11</ele>
        <time>2021-07-18T08:08:33.000Z</time>
      </trkpt>
      <trkpt lat="47.25416" lon="-2.25403">
        <ele>-10.39999961853</ele>
        <time>2021-07-18T08:08:34.000Z</time>
      </trkpt>
      <trkpt lat="47.25419" lon="-2.25404">
        <ele>-10</ele>
        <time>2021-07-18T08:08:35.000Z</time>
      </trkpt>
      <trkpt lat="47.25421" lon="-2.25405">
        <ele>-9.6000003814697</ele>
        <time>2021-07-18T08:08:36.000Z</time>
      </trkpt>
      <trkpt lat="47.25427" lon="-2.25407">
        <ele>-9.1999998092651</ele>
        <time>2021-07-18T08:08:39.000Z</time>
      </trkpt>
      <trkpt lat="47.25427" lon="-2.25407">
        <ele>-8.8000001907349</ele>
        <time>2021-07-18T08:08:40.000Z</time>
      </trkpt>
      <trkpt lat="47.25428" lon="-2.25405">
        <ele>-8.3999996185303</ele>
        <time>2021-07-18T08:08:41.000Z</time>
      </trkpt>
      <trkpt lat="47.25429" lon="-2.25403">
        <ele>-8</ele>
        <time>2021-07-18T08:08:42.000Z</time>
      </trkpt>
      <trkpt lat="47.25429" lon="-2.25402">
        <ele>-7.5999999046326</ele>
        <time>2021-07-18T08:08:43.000Z</time>
      </trkpt>
      <trkpt lat="47.25435" lon="-2.25398">
        <ele>-7.5999999046326</ele>
        <time>2021-07-18T08:08:47.000Z</time>
      </trkpt>
      <trkpt lat="47.25438" lon="-2.25398">
        <ele>-7.5999999046326</ele>
        <time>2021-07-18T08:08:49.000Z</time>
      </trkpt>
      <trkpt lat="47.25445" lon="-2.25402">
        <ele>-7.1999998092651</ele>
        <time>2021-07-18T08:08:53.000Z</time>
      </trkpt>
      <trkpt lat="47.25447" lon="-2.25404">
        <ele>-6.8000001907349</ele>
        <time>2021-07-18T08:08:54.000Z</time>
      </trkpt>
      <trkpt lat="47.25449" lon="-2.25406">
        <ele>-6.4000000953674</ele>
        <time>2021-07-18T08:08:55.000Z</time>
      </trkpt>
      <trkpt lat="47.25451" lon="-2.25407">
        <ele>-6</ele>
        <time>2021-07-18T08:08:56.000Z</time>
      </trkpt>
      <trkpt lat="47.25452" lon="-2.25407">
        <ele>-5.5999999046326</ele>
        <time>2021-07-18T08:08:57.000Z</time>
      </trkpt>
      <trkpt lat="47.25454" lon="-2.25406">
        <ele>-5.5999999046326</ele>
        <time>2021-07-18T08:08:58.000Z</time>
      </trkpt>
      <trkpt lat="47.2546" lon="-2.25405">
        <ele>-5.1999998092651</ele>
        <time>2021-07-18T08:09:02.000Z</time>
      </trkpt>
      <trkpt lat="47.25462" lon="-2.25405">
        <ele>-4.8000001907349</ele>
        <time>2021-07-18T08:09:03.000Z</time>
      </trkpt>
      <trkpt lat="47.25465" lon="-2.25405">
        <ele>-4</ele>
        <time>2021-07-18T08:09:04.000Z</time>
      </trkpt>
      <trkpt lat="47.25467" lon="-2.25404">
        <ele>-3.5999999046326</ele>
        <time>2021-07-18T08:09:05.000Z</time>
      </trkpt>
      <trkpt lat="47.2547" lon="-2.25404">
        <ele>-3.5999999046326</ele>
        <time>2021-07-18T08:09:06.000Z</time>
      </trkpt>
      <trkpt lat="47.25477" lon="-2.25407">
        <ele>-3.5999999046326</ele>
        <time>2021-07-18T08:09:09.000Z</time>
      </trkpt>
      <trkpt lat="47.25481" lon="-2.25409">
        <ele>-3.5999999046326</ele>
        <time>2021-07-18T08:09:11.000Z</time>
      </trkpt>
      <trkpt lat="47.25483" lon="-2.2541">
        <ele>-3</ele>
        <time>2021-07-18T08:09:12.000Z</time>
      </trkpt>
      <trkpt lat="47.25485" lon="-2.25412">
        <ele>-2.5999999046326</ele>
        <time>2021-07-18T08:09:13.000Z</time>
      </trkpt>
      <trkpt lat="47.25487" lon="-2.25414">
        <ele>-2.2000000476837</ele>
        <time>2021-07-18T08:09:14.000Z</time>
      </trkpt>
      <trkpt lat="47.25488" lon="-2.25416">
        <ele>-1.7999999523163</ele>
        <time>2021-07-18T08:09:15.000Z</time>
      </trkpt>
      <trkpt lat="47.2549" lon="-2.25419">
        <ele>-1.2000000476837</ele>
        <time>2021-07-18T08:09:16.000Z</time>
      </trkpt>
      <trkpt lat="47.25491" lon="-2.25423">
        <ele>-1.2000000476837</ele>
        <time>2021-07-18T08:09:17.000Z</time>
      </trkpt>
      <trkpt lat="47.25498" lon="-2.25442">
        <ele>-1.2000000476837</ele>
        <time>2021-07-18T08:09:23.000Z</time>
      </trkpt>
      <trkpt lat="47.25499" lon="-2.25446">
        <ele>-0.80000001192093</ele>
        <time>2021-07-18T08:09:24.000Z</time>
      </trkpt>
      <trkpt lat="47.255" lon="-2.2545">
        <ele>-0.40000000596046</ele>
        <time>2021-07-18T08:09:25.000Z</time>
      </trkpt>
      <trkpt lat="47.25501" lon="-2.25453">
        <ele>20.1</ele>
        <time>2021-07-18T08:09:26.000Z</time>
      </trkpt>
      <trkpt lat="47.25502" lon="-2.25457">
        <ele>0.40000000596046</ele>
        <time>2021-07-18T08:09:27.000Z</time>
      </trkpt>
      <trkpt lat="47.25503" lon="-2.2546">
        <ele>0.80000001192093</ele>
        <time>2021-07-18T08:09:28.000Z</time>
      </trkpt>
      <trkpt lat="47.25504" lon="-2.25468">
        <ele>0.80000001192093</ele>
        <time>2021-07-18T08:09:30.000Z</time>
      </trkpt>
      <trkpt lat="47.25509" lon="-2.25495">
        <ele>0.80000001192093</ele>
        <time>2021-07-18T08:09:37.000Z</time>
      </trkpt>
      <trkpt lat="47.25518" lon="-2.25512">
        <ele>0.80000001192093</ele>
        <time>2021-07-18T08:09:42.000Z</time>
      </trkpt>
      <trkpt lat="47.25528" lon="-2.25515">
        <ele>1.3999999761581</ele>
        <time>2021-07-18T08:09:46.000Z</time>
      </trkpt>
      <trkpt lat="47.25529" lon="-2.25515">
        <ele>1.7999999523163</ele>
        <time>2021-07-18T08:09:47.000Z</time>
      </trkpt>
      <trkpt lat="47.25531" lon="-2.25515">
        <ele>2.2000000476837</ele>
        <time>2021-07-18T08:09:48.000Z</time>
      </trkpt>
      <trkpt lat="47.25532" lon="-2.25515">
        <ele>2.5999999046326</ele>
        <time>2021-07-18T08:09:49.000Z</time>
      </trkpt>
      <trkpt lat="47.25534" lon="-2.25515">
        <ele>3</ele>
        <time>2021-07-18T08:09:50.000Z</time>
      </trkpt>
      <trkpt lat="47.25536" lon="-2.25517">
        <ele>3.5999999046326</ele>
        <time>2021-07-18T08:09:51.000Z</time>
      </trkpt>
      <trkpt lat="47.25538" lon="-2.25518">
        <ele>4</ele>
        <time>2021-07-18T08:09:52.000Z</time>
      </trkpt>
      <trkpt lat="47.2554" lon="-2.2552">
        <ele>4.8000001907349</ele>
        <time>2021-07-18T08:09:53.000Z</time>
      </trkpt>
      <trkpt lat="47.25542" lon="-2.25522">
        <ele>5.1999998092651</ele>
        <time>2021-07-18T08:09:54.000Z</time>
      </trkpt>
      <trkpt lat="47.25543" lon="-2.25525">
        <ele>5.8000001907349</ele>
        <time>2021-07-18T08:09:56.000Z</time>
      </trkpt>
      <trkpt lat="47.25543" lon="-2.25525">
        <ele>7.5999999046326</ele>
        <time>2021-07-18T08:10:44.000Z</time>
      </trkpt>
      <trkpt lat="47.25538" lon="-2.2554">
        <ele>7.5999999046326</ele>
        <time>2021-07-18T08:10:48.000Z</time>
      </trkpt>
      <trkpt lat="47.25533" lon="-2.25552">
        <ele>7.5999999046326</ele>
        <time>2021-07-18T08:10:50.000Z</time>
      </trkpt>
      <trkpt lat="47.25525" lon="-2.25565">
        <ele>7.5999999046326</ele>
        <time>2021-07-18T08:10:52.000Z</time>
      </trkpt>
      <trkpt lat="47.25512" lon="-2.25586">
        <ele>7</ele>
        <time>2021-07-18T08:10:55.000Z</time>
      </trkpt>
      <trkpt lat="47.25507" lon="-2.25594">
        <ele>6.5999999046326</ele>
        <time>2021-07-18T08:10:56.000Z</time>
      </trkpt>
      <trkpt lat="47.25503" lon="-2.25602">
        <ele>6</ele>
        <time>2021-07-18T08:10:57.000Z</time>
      </trkpt>
      <trkpt lat="47.25498" lon="-2.25612">
        <ele>5.5999999046326</ele>
        <time>2021-07-18T08:10:58.000Z</time>
      </trkpt>
      <trkpt lat="47.25493" lon="-2.25622">
        <ele>5</ele>
        <time>2021-07-18T08:10:59.000Z</time>
      </trkpt>
      <trkpt lat="47.25487" lon="-2.25631">
        <ele>4.5999999046326</ele>
        <time>2021-07-18T08:11:00.000Z</time>
      </trkpt>
      <trkpt lat="47.25482" lon="-2.25639">
        <ele>4</ele>
        <time>2021-07-18T08:11:01.000Z</time>
      </trkpt>
      <trkpt lat="47.25478" lon="-2.25646">
        <ele>3.5999999046326</ele>
        <time>2021-07-18T08:11:02.000Z</time>
      </trkpt>
      <trkpt lat="47.25473" lon="-2.25653">
        <ele>3</ele>
        <time>2021-07-18T08:11:03.000Z</time>
      </trkpt>
      <trkpt lat="47.2547" lon="-2.25658">
        <ele>2.4000000953674</ele>
        <time>2021-07-18T08:11:04.000Z</time>
      </trkpt>
      <trkpt lat="47.25466" lon="-2.25663">
        <ele>1.7999999523163</ele>
        <time>2021-07-18T08:11:05.000Z</time>
      </trkpt>
      <trkpt lat="47.25464" lon="-2.25667">
        <ele>1</ele>
        <time>2021-07-18T08:11:06.000Z</time>
      </trkpt>
      <trkpt lat="47.25462" lon="-2.25671">
        <ele>0.40000000596046</ele>
        <time>2021-07-18T08:11:07.000Z</time>
      </trkpt>
      <trkpt lat="47.25461" lon="-2.25674">
        <ele>-1</ele>
        <time>2021-07-18T08:11:08.000Z</time>
      </trkpt>
      <trkpt lat="47.2546" lon="-2.25678">
        <ele>-1.6000000238419</ele>
        <time>2021-07-18T08:11:09.000Z</time>
      </trkpt>
      <trkpt lat="47.25457" lon="-2.25683">
        <ele>-2</ele>
        <time>2021-07-18T08:11:11.000Z</time>
      </trkpt>
      <trkpt lat="47.25456" lon="-2.25686">
        <ele>-2.5999999046326</ele>
        <time>2021-07-18T08:11:12.000Z</time>
      </trkpt>
      <trkpt lat="47.25454" lon="-2.25688">
        <ele>-3</ele>
        <time>2021-07-18T08:11:13.000Z</time>
      </trkpt>
      <trkpt lat="47.25453" lon="-2.2569">
        <ele>-3.4000000953674</ele>
        <time>2021-07-18T08:11:14.000Z</time>
      </trkpt>
      <trkpt lat="47.25452" lon="-2.25693">
        <ele>-4</ele>
        <time>2021-07-18T08:11:15.000Z</time>
      </trkpt>
      <trkpt lat="47.25451" lon="-2.25696">
        <ele>-4</ele>
        <time>2021-07-18T08:11:17.000Z</time>
      </trkpt>
      <trkpt lat="47.25452" lon="-2.25702">
        <ele>-4</ele>
        <time>2021-07-18T08:11:21.000Z</time>
      </trkpt>
      <trkpt lat="47.25453" lon="-2.25708">
        <ele>-4</ele>
        <time>2021-07-18T08:11:23.000Z</time>
      </trkpt>
      <trkpt lat="47.25456" lon="-2.25719">
        <ele>-3.5999999046326</ele>
        <time>2021-07-18T08:11:26.000Z</time>
      </trkpt>
      <trkpt lat="47.25457" lon="-2.25722">
        <ele>-3.2000000476837</ele>
        <time>2021-07-18T08:11:27.000Z</time>
      </trkpt>
      <trkpt lat="47.25458" lon="-2.25726">
        <ele>-2.7999999523163</ele>
        <time>2021-07-18T08:11:28.000Z</time>
      </trkpt>
      <trkpt lat="47.25458" lon="-2.25729">
        <ele>-2.4000000953674</ele>
        <time>2021-07-18T08:11:29.000Z</time>
      </trkpt>
      <trkpt lat="47.25459" lon="-2.25732">
        <ele>-2</ele>
        <time>2021-07-18T08:11:30.000Z</time>
      </trkpt>
      <trkpt lat="47.25458" lon="-2.25742">
        <ele>-1.3999999761581</ele>
        <time>2021-07-18T08:11:33.000Z</time>
      </trkpt>
      <trkpt lat="47.25458" lon="-2.25745">
        <ele>-1</ele>
        <time>2021-07-18T08:11:34.000Z</time>
      </trkpt>
      <trkpt lat="47.25457" lon="-2.25749">
        <ele>-0.60000002384186</ele>
        <time>2021-07-18T08:11:35.000Z</time>
      </trkpt>
      <trkpt lat="47.25456" lon="-2.25752">
        <ele>-0.20000000298023</ele>
        <time>2021-07-18T08:11:36.000Z</time>
      </trkpt>
      <trkpt lat="47.25456" lon="-2.25756">
        <ele>0.20000000298023</ele>
        <time>2021-07-18T08:11:37.000Z</time>
      </trkpt>
      <trkpt lat="47.25455" lon="-2.2577">
        <ele>0.20000000298023</ele>
        <time>2021-07-18T08:11:43.000Z</time>
      </trkpt>
      <trkpt lat="47.25457" lon="-2.25776">
        <ele>0.20000000298023</ele>
        <time>2021-07-18T08:11:47.000Z</time>
      </trkpt>
      <trkpt lat="47.25458" lon="-2.25798">
        <ele>2.4000000953674</ele>
        <time>2021-07-18T08:12:10.000Z</time>
      </trkpt>
      <trkpt lat="47.25457" lon="-2.25798">
        <ele>2.4000000953674</ele>
        <time>2021-07-18T08:12:11.000Z</time>
      </trkpt>
      <trkpt lat="47.25452" lon="-2.25803">
        <ele>2</ele>
        <time>2021-07-18T08:12:13.000Z</time>
      </trkpt>
      <trkpt lat="47.2545" lon="-2.25807">
        <ele>1.3999999761581</ele>
        <time>2021-07-18T08:12:14.000Z</time>
      </trkpt>
      <trkpt lat="47.25449" lon="-2.25809">
        <ele>1</ele>
        <time>2021-07-18T08:12:15.000Z</time>
      </trkpt>
      <trkpt lat="47.25448" lon="-2.25813">
        <ele>0.60000002384186</ele>
        <time>2021-07-18T08:12:16.000Z</time>
      </trkpt>
      <trkpt lat="47.25447" lon="-2.25817">
        <ele>0.20000000298023</ele>
        <time>2021-07-18T08:12:17.000Z</time>
      </trkpt>
      <trkpt lat="47.25443" lon="-2.25841">
        <ele>0.20000000298023</ele>
        <time>2021-07-18T08:12:24.000Z</time>
      </trkpt>
      <trkpt lat="47.25437" lon="-2.25858">
        <ele>-0.20000000298023</ele>
        <time>2021-07-18T08:12:29.000Z</time>
      </trkpt>
      <trkpt lat="47.25436" lon="-2.25861">
        <ele>-0.80000001192093</ele>
        <time>2021-07-18T08:12:30.000Z</time>
      </trkpt>
      <trkpt lat="47.25434" lon="-2.25865">
        <ele>-1.2000000476837</ele>
        <time>2021-07-18T08:12:31.000Z</time>
      </trkpt>
      <trkpt lat="47.25432" lon="-2.25869">
        <ele>-1.6000000238419</ele>
        <time>2021-07-18T08:12:32.000Z</time>
      </trkpt>
      <trkpt lat="47.25431" lon="-2.25873">
        <ele>-2</ele>
        <time>2021-07-18T08:12:33.000Z</time>
      </trkpt>
      <trkpt lat="47.25429" lon="-2.2589">
        <ele>-2</ele>
        <time>2021-07-18T08:12:37.000Z</time>
      </trkpt>
      <trkpt lat="47.25431" lon="-2.25912">
        <ele>-2</ele>
        <time>2021-07-18T08:12:44.000Z</time>
      </trkpt>
      <trkpt lat="47.2543" lon="-2.2592">
        <ele>-2</ele>
        <time>2021-07-18T08:12:46.000Z</time>
      </trkpt>
      <trkpt lat="47.25427" lon="-2.25932">
        <ele>-2</ele>
        <time>2021-07-18T08:12:49.000Z</time>
      </trkpt>
      <trkpt lat="47.25415" lon="-2.25951">
        <ele>-2</ele>
        <time>2021-07-18T08:12:55.000Z</time>
      </trkpt>
      <trkpt lat="47.25414" lon="-2.25952">
        <ele>-2.4000000953674</ele>
        <time>2021-07-18T08:12:56.000Z</time>
      </trkpt>
      <trkpt lat="47.25412" lon="-2.25954">
        <ele>-2.7999999523163</ele>
        <time>2021-07-18T08:12:57.000Z</time>
      </trkpt>
      <trkpt lat="47.25411" lon="-2.25956">
        <ele>-3.2000000476837</ele>
        <time>2021-07-18T08:12:58.000Z</time>
      </trkpt>
      <trkpt lat="47.25409" lon="-2.25957">
        <ele>-3.5999999046326</ele>
        <time>2021-07-18T08:12:59.000Z</time>
      </trkpt>
      <trkpt lat="47.25408" lon="-2.25959">
        <ele>-4</ele>
        <time>2021-07-18T08:13:00.000Z</time>
      </trkpt>
      <trkpt lat="47.25405" lon="-2.25974">
        <ele>-4</ele>
        <time>2021-07-18T08:13:06.000Z</time>
      </trkpt>
      <trkpt lat="47.25398" lon="-2.25989">
        <ele>-4</ele>
        <time>2021-07-18T08:13:13.000Z</time>
      </trkpt>
      <trkpt lat="47.25393" lon="-2.25993">
        <ele>-4</ele>
        <time>2021-07-18T08:13:16.000Z</time>
      </trkpt>
      <trkpt lat="47.25392" lon="-2.25995">
        <ele>-3.5999999046326</ele>
        <time>2021-07-18T08:13:17.000Z</time>
      </trkpt>
      <trkpt lat="47.2539" lon="-2.25999">
        <ele>-3.2000000476837</ele>
        <time>2021-07-18T08:13:18.000Z</time>
      </trkpt>
      <trkpt lat="47.2539" lon="-2.26002">
        <ele>-2.7999999523163</ele>
        <time>2021-07-18T08:13:19.000Z</time>
      </trkpt>
      <trkpt lat="47.25389" lon="-2.26006">
        <ele>-2.2000000476837</ele>
        <time>2021-07-18T08:13:20.000Z</time>
      </trkpt>
      <trkpt lat="47.25388" lon="-2.26009">
        <ele>-1.7999999523163</ele>
        <time>2021-07-18T08:13:21.000Z</time>
      </trkpt>
      <trkpt lat="47.25388" lon="-2.26015">
        <ele>-1.3999999761581</ele>
        <time>2021-07-18T08:13:23.000Z</time>
      </trkpt>
      <trkpt lat="47.25387" lon="-2.26018">
        <ele>-0.80000001192093</ele>
        <time>2021-07-18T08:13:24.000Z</time>
      </trkpt>
      <trkpt lat="47.25387" lon="-2.26021">
        <ele>-0.40000000596046</ele>
        <time>2021-07-18T08:13:25.000Z</time>
      </trkpt>
      <trkpt lat="47.25387" lon="-2.26024">
        <ele>0.20000000298023</ele>
        <time>2021-07-18T08:13:26.000Z</time>
      </trkpt>
      <trkpt lat="47.25388" lon="-2.26027">
        <ele>0.60000002384186</ele>
        <time>2021-07-18T08:13:27.000Z</time>
      </trkpt>
      <trkpt lat="47.25388" lon="-2.2603">
        <ele>0.60000002384186</ele>
        <time>2021-07-18T08:13:28.000Z</time>
      </trkpt>
      <trkpt lat="47.25389" lon="-2.26032">
        <ele>1</ele>
        <time>2021-07-18T08:13:29.000Z</time>
      </trkpt>
      <trkpt lat="47.25389" lon="-2.26034">
        <ele>1.3999999761581</ele>
        <time>2021-07-18T08:13:30.000Z</time>
      </trkpt>
      <trkpt lat="47.25389" lon="-2.26034">
        <ele>1.7999999523163</ele>
        <time>2021-07-18T08:13:31.000Z</time>
      </trkpt>
      <trkpt lat="47.25388" lon="-2.26035">
        <ele>2.2000000476837</ele>
        <time>2021-07-18T08:13:32.000Z</time>
      </trkpt>
      <trkpt lat="47.25388" lon="-2.26036">
        <ele>2.5999999046326</ele>
        <time>2021-07-18T08:13:33.000Z</time>
      </trkpt>
      <trkpt lat="47.25388" lon="-2.26038">
        <ele>2.5999999046326</ele>
        <time>2021-07-18T08:13:34.000Z</time>
      </trkpt>
      <trkpt lat="47.25387" lon="-2.26053">
        <ele>2.5999999046326</ele>
        <time>2021-07-18T08:13:39.000Z</time>
      </trkpt>
      <trkpt lat="47.25389" lon="-2.26088">
        <ele>2.5999999046326</ele>
        <time>2021-07-18T08:13:45.000Z</time>
      </trkpt>
      <trkpt lat="47.25391" lon="-2.2611">
        <ele>2.5999999046326</ele>
        <time>2021-07-18T08:13:51.000Z</time>
      </trkpt>
      <trkpt lat="47.25385" lon="-2.26117">
        <ele>2.5999999046326</ele>
        <time>2021-07-18T08:13:56.000Z</time>
      </trkpt>
      <trkpt lat="47.25383" lon="-2.26123">
        <ele>3.2000000476837</ele>
        <time>2021-07-18T08:14:00.000Z</time>
      </trkpt>
      <trkpt lat="47.25383" lon="-2.26126">
        <ele>4</ele>
        <time>2021-07-18T08:14:01.000Z</time>
      </trkpt>
      <trkpt lat="47.25382" lon="-2.26129">
        <ele>4.4000000953674</ele>
        <time>2021-07-18T08:14:02.000Z</time>
      </trkpt>
      <trkpt lat="47.25381" lon="-2.26132">
        <ele>4.8000001907349</ele>
        <time>2021-07-18T08:14:03.000Z</time>
      </trkpt>
      <trkpt lat="47.25374" lon="-2.26151">
        <ele>4.8000001907349</ele>
        <time>2021-07-18T08:14:09.000Z</time>
      </trkpt>
      <trkpt lat="47.25369" lon="-2.26167">
        <ele>5.1999998092651</ele>
        <time>2021-07-18T08:14:13.000Z</time>
      </trkpt>
      <trkpt lat="47.25369" lon="-2.26169">
        <ele>5.5999999046326</ele>
        <time>2021-07-18T08:14:14.000Z</time>
      </trkpt>
      <trkpt lat="47.25368" lon="-2.26173">
        <ele>6</ele>
        <time>2021-07-18T08:14:15.000Z</time>
      </trkpt>
      <trkpt lat="47.25369" lon="-2.26176">
        <ele>6.4000000953674</ele>
        <time>2021-07-18T08:14:16.000Z</time>
      </trkpt>
      <trkpt lat="47.25369" lon="-2.26179">
        <ele>6.8000001907349</ele>
        <time>2021-07-18T08:14:17.000Z</time>
      </trkpt>
      <trkpt lat="47.25371" lon="-2.2619">
        <ele>6.8000001907349</ele>
        <time>2021-07-18T08:14:21.000Z</time>
      </trkpt>
      <trkpt lat="47.25372" lon="-2.26193">
        <ele>7.1999998092651</ele>
        <time>2021-07-18T08:14:22.000Z</time>
      </trkpt>
      <trkpt lat="47.25373" lon="-2.26195">
        <ele>7.5999999046326</ele>
        <time>2021-07-18T08:14:23.000Z</time>
      </trkpt>
      <trkpt lat="47.25373" lon="-2.26199">
        <ele>8</ele>
        <time>2021-07-18T08:14:24.000Z</time>
      </trkpt>
      <trkpt lat="47.25375" lon="-2.26203">
        <ele>8.3999996185303</ele>
        <time>2021-07-18T08:14:25.000Z</time>
      </trkpt>
      <trkpt lat="47.25377" lon="-2.26206">
        <ele>8.8000001907349</ele>
        <time>2021-07-18T08:14:26.000Z</time>
      </trkpt>
      <trkpt lat="47.25379" lon="-2.2621">
        <ele>8.8000001907349</ele>
        <time>2021-07-18T08:14:27.000Z</time>
      </trkpt>
      <trkpt lat="47.25391" lon="-2.26236">
        <ele>8.8000001907349</ele>
        <time>2021-07-18T08:14:32.000Z</time>
      </trkpt>
      <trkpt lat="47.25395" lon="-2.26258">
        <ele>8.8000001907349</ele>
        <time>2021-07-18T08:14:38.000Z</time>
      </trkpt>
      <trkpt lat="47.25391" lon="-2.26264">
        <ele>9.1999998092651</ele>
        <time>2021-07-18T08:14:42.000Z</time>
      </trkpt>
      <trkpt lat="47.2539" lon="-2.26266">
        <ele>9.8000001907349</ele>
        <time>2021-07-18T08:14:43.000Z</time>
      </trkpt>
      <trkpt lat="47.25389" lon="-2.26268">
        <ele>10.199999809265</ele>
        <time>2021-07-18T08:14:44.000Z</time>
      </trkpt>
      <trkpt lat="47.25389" lon="-2.26271">
        <ele>10.60000038147</ele>
        <time>2021-07-18T08:14:45.000Z</time>
      </trkpt>
      <trkpt lat="47.25388" lon="-2.26274">
        <ele>11</ele>
        <time>2021-07-18T08:14:46.000Z</time>
      </trkpt>
      <trkpt lat="47.25389" lon="-2.2629">
        <ele>11</ele>
        <time>2021-07-18T08:14:50.000Z</time>
      </trkpt>
      <trkpt lat="47.25395" lon="-2.26308">
        <ele>11</ele>
        <time>2021-07-18T08:14:55.000Z</time>
      </trkpt>
      <trkpt lat="47.25401" lon="-2.26319">
        <ele>11</ele>
        <time>2021-07-18T08:15:00.000Z</time>
      </trkpt>
      <trkpt lat="47.25404" lon="-2.26319">
        <ele>11</ele>
        <time>2021-07-18T08:15:02.000Z</time>
      </trkpt>
      <trkpt lat="47.25405" lon="-2.26318">
        <ele>10.60000038147</ele>
        <time>2021-07-18T08:15:03.000Z</time>
      </trkpt>
      <trkpt lat="47.25406" lon="-2.26317">
        <ele>10.199999809265</ele>
        <time>2021-07-18T08:15:04.000Z</time>
      </trkpt>
      <trkpt lat="47.25408" lon="-2.26313">
        <ele>9.8000001907349</ele>
        <time>2021-07-18T08:15:05.000Z</time>
      </trkpt>
      <trkpt lat="47.25411" lon="-2.2631">
        <ele>9.1999998092651</ele>
        <time>2021-07-18T08:15:06.000Z</time>
      </trkpt>
      <trkpt lat="47.25413" lon="-2.26309">
        <ele>8.8000001907349</ele>
        <time>2021-07-18T08:15:07.000Z</time>
      </trkpt>
      <trkpt lat="47.25416" lon="-2.26308">
        <ele>8.3999996185303</ele>
        <time>2021-07-18T08:15:08.000Z</time>
      </trkpt>
      <trkpt lat="47.2542" lon="-2.26308">
        <ele>8</ele>
        <time>2021-07-18T08:15:09.000Z</time>
      </trkpt>
      <trkpt lat="47.25423" lon="-2.26307">
        <ele>7.5999999046326</ele>
        <time>2021-07-18T08:15:10.000Z</time>
      </trkpt>
      <trkpt lat="47.25426" lon="-2.26306">
        <ele>7.1999998092651</ele>
        <time>2021-07-18T08:15:11.000Z</time>
      </trkpt>
      <trkpt lat="47.25429" lon="-2.26305">
        <ele>6.8000001907349</ele>
        <time>2021-07-18T08:15:12.000Z</time>
      </trkpt>
      <trkpt lat="47.25432" lon="-2.26305">
        <ele>6.8000001907349</ele>
        <time>2021-07-18T08:15:13.000Z</time>
      </trkpt>
      <trkpt lat="47.25452" lon="-2.26303">
        <ele>6.8000001907349</ele>
        <time>2021-07-18T08:15:19.000Z</time>
      </trkpt>
      <trkpt lat="47.25466" lon="-2.26295">
        <ele>6.8000001907349</ele>
        <time>2021-07-18T08:15:23.000Z</time>
      </trkpt>
      <trkpt lat="47.25469" lon="-2.26294">
        <ele>7.4000000953674</ele>
        <time>2021-07-18T08:15:25.000Z</time>
      </trkpt>
      <trkpt lat="47.25471" lon="-2.26294">
        <ele>7.8000001907349</ele>
        <time>2021-07-18T08:15:26.000Z</time>
      </trkpt>
      <trkpt lat="47.25472" lon="-2.26295">
        <ele>8.3999996185303</ele>
        <time>2021-07-18T08:15:27.000Z</time>
      </trkpt>
      <trkpt lat="47.25472" lon="-2.26298">
        <ele>8.8000001907349</ele>
        <time>2021-07-18T08:15:28.000Z</time>
      </trkpt>
      <trkpt lat="47.25473" lon="-2.26301">
        <ele>9.3999996185303</ele>
        <time>2021-07-18T08:15:29.000Z</time>
      </trkpt>
      <trkpt lat="47.25472" lon="-2.26306">
        <ele>9.3999996185303</ele>
        <time>2021-07-18T08:15:32.000Z</time>
      </trkpt>
      <trkpt lat="47.25473" lon="-2.26311">
        <ele>9.8000001907349</ele>
        <time>2021-07-18T08:15:34.000Z</time>
      </trkpt>
      <trkpt lat="47.25474" lon="-2.26313">
        <ele>10.199999809265</ele>
        <time>2021-07-18T08:15:35.000Z</time>
      </trkpt>
      <trkpt lat="47.25475" lon="-2.26315">
        <ele>10.60000038147</ele>
        <time>2021-07-18T08:15:36.000Z</time>
      </trkpt>
      <trkpt lat="47.25476" lon="-2.26318">
        <ele>11</ele>
        <time>2021-07-18T08:15:37.000Z</time>
      </trkpt>
      <trkpt lat="47.25476" lon="-2.26321">
        <ele>11.39999961853</ele>
        <time>2021-07-18T08:15:38.000Z</time>
      </trkpt>
      <trkpt lat="47.25476" lon="-2.26326">
        <ele>11.39999961853</ele>
        <time>2021-07-18T08:15:39.000Z</time>
      </trkpt>
      <trkpt lat="47.25476" lon="-2.26348">
        <ele>11.39999961853</ele>
        <time>2021-07-18T08:15:45.000Z</time>
      </trkpt>
      <trkpt lat="47.25479" lon="-2.26375">
        <ele>11.39999961853</ele>
        <time>2021-07-18T08:15:51.000Z</time>
      </trkpt>
      <trkpt lat="47.25483" lon="-2.26386">
        <ele>11.39999961853</ele>
        <time>2021-07-18T08:15:56.000Z</time>
      </trkpt>
      <trkpt lat="47.25484" lon="-2.26388">
        <ele>11.800000190735</ele>
        <time>2021-07-18T08:15:57.000Z</time>
      </trkpt>
      <trkpt lat="47.25485" lon="-2.26391">
        <ele>12.199999809265</ele>
        <time>2021-07-18T08:15:58.000Z</time>
      </trkpt>
      <trkpt lat="47.25486" lon="-2.26394">
        <ele>12.800000190735</ele>
        <time>2021-07-18T08:15:59.000Z</time>
      </trkpt>
      <trkpt lat="47.25486" lon="-2.26398">
        <ele>13.199999809265</ele>
        <time>2021-07-18T08:16:00.000Z</time>
      </trkpt>
      <trkpt lat="47.25486" lon="-2.26402">
        <ele>13.60000038147</ele>
        <time>2021-07-18T08:16:01.000Z</time>
      </trkpt>
      <trkpt lat="47.25485" lon="-2.26406">
        <ele>13.60000038147</ele>
        <time>2021-07-18T08:16:02.000Z</time>
      </trkpt>
      <trkpt lat="47.25486" lon="-2.26432">
        <ele>13.60000038147</ele>
        <time>2021-07-18T08:16:10.000Z</time>
      </trkpt>
      <trkpt lat="47.2548" lon="-2.26458">
        <ele>13.60000038147</ele>
        <time>2021-07-18T08:16:15.000Z</time>
      </trkpt>
      <trkpt lat="47.25481" lon="-2.26493">
        <ele>13.60000038147</ele>
        <time>2021-07-18T08:16:21.000Z</time>
      </trkpt>
      <trkpt lat="47.25477" lon="-2.26517">
        <ele>13.60000038147</ele>
        <time>2021-07-18T08:16:26.000Z</time>
      </trkpt>
      <trkpt lat="47.2548" lon="-2.26549">
        <ele>13.60000038147</ele>
        <time>2021-07-18T08:16:30.000Z</time>
      </trkpt>
      <trkpt lat="47.25487" lon="-2.26591">
        <ele>13.60000038147</ele>
        <time>2021-07-18T08:16:36.000Z</time>
      </trkpt>
      <trkpt lat="47.25488" lon="-2.26603">
        <ele>13.60000038147</ele>
        <time>2021-07-18T08:16:38.000Z</time>
      </trkpt>
      <trkpt lat="47.25488" lon="-2.26646">
        <ele>13.60000038147</ele>
        <time>2021-07-18T08:16:44.000Z</time>
      </trkpt>
      <trkpt lat="47.25489" lon="-2.26672">
        <ele>13.60000038147</ele>
        <time>2021-07-18T08:16:48.000Z</time>
      </trkpt>
      <trkpt lat="47.25488" lon="-2.26684">
        <ele>13.60000038147</ele>
        <time>2021-07-18T08:16:50.000Z</time>
      </trkpt>
      <trkpt lat="47.25485" lon="-2.26695">
        <ele>13.60000038147</ele>
        <time>2021-07-18T08:16:52.000Z</time>
      </trkpt>
      <trkpt lat="47.25479" lon="-2.2671">
        <ele>13.60000038147</ele>
        <time>2021-07-18T08:16:55.000Z</time>
      </trkpt>
      <trkpt lat="47.25478" lon="-2.26714">
        <ele>14</ele>
        <time>2021-07-18T08:16:56.000Z</time>
      </trkpt>
      <trkpt lat="47.25477" lon="-2.26717">
        <ele>14.60000038147</ele>
        <time>2021-07-18T08:16:57.000Z</time>
      </trkpt>
      <trkpt lat="47.25476" lon="-2.26719">
        <ele>15</ele>
        <time>2021-07-18T08:16:58.000Z</time>
      </trkpt>
      <trkpt lat="47.25475" lon="-2.26721">
        <ele>15.39999961853</ele>
        <time>2021-07-18T08:16:59.000Z</time>
      </trkpt>
      <trkpt lat="47.25475" lon="-2.26721">
        <ele>15.800000190735</ele>
        <time>2021-07-18T08:17:00.000Z</time>
      </trkpt>
      <trkpt lat="47.25475" lon="-2.26724">
        <ele>15.800000190735</ele>
        <time>2021-07-18T08:17:17.000Z</time>
      </trkpt>
      <trkpt lat="47.25476" lon="-2.26727">
        <ele>15.800000190735</ele>
        <time>2021-07-18T08:17:18.000Z</time>
      </trkpt>
      <trkpt lat="47.25482" lon="-2.26748">
        <ele>15.800000190735</ele>
        <time>2021-07-18T08:17:23.000Z</time>
      </trkpt>
      <trkpt lat="47.25493" lon="-2.26768">
        <ele>16.200000762939</ele>
        <time>2021-07-18T08:17:27.000Z</time>
      </trkpt>
      <trkpt lat="47.25495" lon="-2.26773">
        <ele>16.799999237061</ele>
        <time>2021-07-18T08:17:28.000Z</time>
      </trkpt>
      <trkpt lat="47.25498" lon="-2.26778">
        <ele>17.200000762939</ele>
        <time>2021-07-18T08:17:29.000Z</time>
      </trkpt>
      <trkpt lat="47.25501" lon="-2.26783">
        <ele>17.60000038147</ele>
        <time>2021-07-18T08:17:30.000Z</time>
      </trkpt>
      <trkpt lat="47.25504" lon="-2.26788">
        <ele>18</ele>
        <time>2021-07-18T08:17:31.000Z</time>
      </trkpt>
      <trkpt lat="47.25519" lon="-2.26812">
        <ele>18</ele>
        <time>2021-07-18T08:17:36.000Z</time>
      </trkpt>
      <trkpt lat="47.25539" lon="-2.26838">
        <ele>18.39999961853</ele>
        <time>2021-07-18T08:17:42.000Z</time>
      </trkpt>
      <trkpt lat="47.25542" lon="-2.26841">
        <ele>18.799999237061</ele>
        <time>2021-07-18T08:17:43.000Z</time>
      </trkpt>
      <trkpt lat="47.25545" lon="-2.26845">
        <ele>19.799999237061</ele>
        <time>2021-07-18T08:17:44.000Z</time>
      </trkpt>
      <trkpt lat="47.25549" lon="-2.26848">
        <ele>20.200000762939</ele>
        <time>2021-07-18T08:17:45.000Z</time>
      </trkpt>
      <trkpt lat="47.25557" lon="-2.2686">
        <ele>20.200000762939</ele>
        <time>2021-07-18T08:17:48.000Z</time>
      </trkpt>
      <trkpt lat="47.25565" lon="-2.26875">
        <ele>20.60000038147</ele>
        <time>2021-07-18T08:17:51.000Z</time>
      </trkpt>
      <trkpt lat="47.25568" lon="-2.2688">
        <ele>21</ele>
        <time>2021-07-18T08:17:52.000Z</time>
      </trkpt>
      <trkpt lat="47.25572" lon="-2.26884">
        <ele>21.60000038147</ele>
        <time>2021-07-18T08:17:53.000Z</time>
      </trkpt>
      <trkpt lat="47.25575" lon="-2.26887">
        <ele>22</ele>
        <time>2021-07-18T08:17:54.000Z</time>
      </trkpt>
      <trkpt lat="47.25579" lon="-2.26888">
        <ele>22.39999961853</ele>
        <time>2021-07-18T08:17:55.000Z</time>
      </trkpt>
      <trkpt lat="47.25595" lon="-2.26899">
        <ele>22.39999961853</ele>
        <time>2021-07-18T08:18:00.000Z</time>
      </trkpt>
      <trkpt lat="47.25598" lon="-2.26903">
        <ele>22.799999237061</ele>
        <time>2021-07-18T08:18:01.000Z</time>
      </trkpt>
      <trkpt lat="47.25601" lon="-2.26906">
        <ele>23.200000762939</ele>
        <time>2021-07-18T08:18:02.000Z</time>
      </trkpt>
      <trkpt lat="47.25605" lon="-2.26907">
        <ele>23.799999237061</ele>
        <time>2021-07-18T08:18:03.000Z</time>
      </trkpt>
      <trkpt lat="47.25608" lon="-2.26909">
        <ele>24.200000762939</ele>
        <time>2021-07-18T08:18:04.000Z</time>
      </trkpt>
      <trkpt lat="47.25612" lon="-2.26904">
        <ele>24.60000038147</ele>
        <time>2021-07-18T08:18:05.000Z</time>
      </trkpt>
      <trkpt lat="47.25619" lon="-2.2689">
        <ele>25</ele>
        <time>2021-07-18T08:18:07.000Z</time>
      </trkpt>
      <trkpt lat="47.25623" lon="-2.26883">
        <ele>25.799999237061</ele>
        <time>2021-07-18T08:18:08.000Z</time>
      </trkpt>
      <trkpt lat="47.25627" lon="-2.26877">
        <ele>26.200000762939</ele>
        <time>2021-07-18T08:18:09.000Z</time>
      </trkpt>
      <trkpt lat="47.25631" lon="-2.2687">
        <ele>26.60000038147</ele>
        <time>2021-07-18T08:18:10.000Z</time>
      </trkpt>
      <trkpt lat="47.25638" lon="-2.26859">
        <ele>26.60000038147</ele>
        <time>2021-07-18T08:18:12.000Z</time>
      </trkpt>
      <trkpt lat="47.25649" lon="-2.26842">
        <ele>26.60000038147</ele>
        <time>2021-07-18T08:18:15.000Z</time>
      </trkpt>
      <trkpt lat="47.25663" lon="-2.2683">
        <ele>26.60000038147</ele>
        <time>2021-07-18T08:18:18.000Z</time>
      </trkpt>
      <trkpt lat="47.25673" lon="-2.26827">
        <ele>26.60000038147</ele>
        <time>2021-07-18T08:18:20.000Z</time>
      </trkpt>
      <trkpt lat="47.25688" lon="-2.26824">
        <ele>26.60000038147</ele>
        <time>2021-07-18T08:18:23.000Z</time>
      </trkpt>
      <trkpt lat="47.25712" lon="-2.26832">
        <ele>26.60000038147</ele>
        <time>2021-07-18T08:18:29.000Z</time>
      </trkpt>
      <trkpt lat="47.2573" lon="-2.26849">
        <ele>26.60000038147</ele>
        <time>2021-07-18T08:18:34.000Z</time>
      </trkpt>
      <trkpt lat="47.25732" lon="-2.26854">
        <ele>26.60000038147</ele>
        <time>2021-07-18T08:18:35.000Z</time>
      </trkpt>
      <trkpt lat="47.25741" lon="-2.2688">
        <ele>26.60000038147</ele>
        <time>2021-07-18T08:18:40.000Z</time>
      </trkpt>
      <trkpt lat="47.25747" lon="-2.26899">
        <ele>26.60000038147</ele>
        <time>2021-07-18T08:18:45.000Z</time>
      </trkpt>
      <trkpt lat="47.25748" lon="-2.269">
        <ele>26.60000038147</ele>
        <time>2021-07-18T08:18:46.000Z</time>
      </trkpt>
      <trkpt lat="47.25756" lon="-2.26901">
        <ele>26.60000038147</ele>
        <time>2021-07-18T08:18:49.000Z</time>
      </trkpt>
      <trkpt lat="47.2577" lon="-2.26896">
        <ele>26.60000038147</ele>
        <time>2021-07-18T08:18:53.000Z</time>
      </trkpt>
      <trkpt lat="47.25774" lon="-2.26895">
        <ele>26.60000038147</ele>
        <time>2021-07-18T08:18:54.000Z</time>
      </trkpt>
      <trkpt lat="47.25792" lon="-2.26885">
        <ele>26.60000038147</ele>
        <time>2021-07-18T08:18:58.000Z</time>
      </trkpt>
      <trkpt lat="47.25828" lon="-2.26866">
        <ele>26.60000038147</ele>
        <time>2021-07-18T08:19:05.000Z</time>
      </trkpt>
      <trkpt lat="47.25844" lon="-2.26858">
        <ele>26.200000762939</ele>
        <time>2021-07-18T08:19:08.000Z</time>
      </trkpt>
      <trkpt lat="47.25849" lon="-2.26856">
        <ele>25.799999237061</ele>
        <time>2021-07-18T08:19:09.000Z</time>
      </trkpt>
      <trkpt lat="47.25855" lon="-2.26854">
        <ele>25.39999961853</ele>
        <time>2021-07-18T08:19:10.000Z</time>
      </trkpt>
      <trkpt lat="47.2586" lon="-2.26852">
        <ele>25</ele>
        <time>2021-07-18T08:19:11.000Z</time>
      </trkpt>
      <trkpt lat="47.25866" lon="-2.26849">
        <ele>24.60000038147</ele>
        <time>2021-07-18T08:19:12.000Z</time>
      </trkpt>
      <trkpt lat="47.25904" lon="-2.26831">
        <ele>24.60000038147</ele>
        <time>2021-07-18T08:19:19.000Z</time>
      </trkpt>
      <trkpt lat="47.25917" lon="-2.26825">
        <ele>23.60000038147</ele>
        <time>2021-07-18T08:19:22.000Z</time>
      </trkpt>
      <trkpt lat="47.25921" lon="-2.26822">
        <ele>23.200000762939</ele>
        <time>2021-07-18T08:19:23.000Z</time>
      </trkpt>
      <trkpt lat="47.25925" lon="-2.2682">
        <ele>22.799999237061</ele>
        <time>2021-07-18T08:19:24.000Z</time>
      </trkpt>
      <trkpt lat="47.25929" lon="-2.26819">
        <ele>22.39999961853</ele>
        <time>2021-07-18T08:19:25.000Z</time>
      </trkpt>
      <trkpt lat="47.25945" lon="-2.26818">
        <ele>22.39999961853</ele>
        <time>2021-07-18T08:19:28.000Z</time>
      </trkpt>
      <trkpt lat="47.25976" lon="-2.26809">
        <ele>22.39999961853</ele>
        <time>2021-07-18T08:19:34.000Z</time>
      </trkpt>
      <trkpt lat="47.2598" lon="-2.2681">
        <ele>22.39999961853</ele>
        <time>2021-07-18T08:19:35.000Z</time>
      </trkpt>
      <trkpt lat="47.25986" lon="-2.26821">
        <ele>22.39999961853</ele>
        <time>2021-07-18T08:19:37.000Z</time>
      </trkpt>
      <trkpt lat="47.25987" lon="-2.26828">
        <ele>21.799999237061</ele>
        <time>2021-07-18T08:19:38.000Z</time>
      </trkpt>
      <trkpt lat="47.25989" lon="-2.26835">
        <ele>21.39999961853</ele>
        <time>2021-07-18T08:19:39.000Z</time>
      </trkpt>
      <trkpt lat="47.2599" lon="-2.26843">
        <ele>21</ele>
        <time>2021-07-18T08:19:40.000Z</time>
      </trkpt>
      <trkpt lat="47.2599" lon="-2.26852">
        <ele>20.60000038147</ele>
        <time>2021-07-18T08:19:41.000Z</time>
      </trkpt>
      <trkpt lat="47.25991" lon="-2.2686">
        <ele>20</ele>
        <time>2021-07-18T08:19:42.000Z</time>
      </trkpt>
      <trkpt lat="47.25998" lon="-2.26903">
        <ele>20</ele>
        <time>2021-07-18T08:19:47.000Z</time>
      </trkpt>
      <trkpt lat="47.26001" lon="-2.26911">
        <ele>20</ele>
        <time>2021-07-18T08:19:48.000Z</time>
      </trkpt>
      <trkpt lat="47.26005" lon="-2.26918">
        <ele>20</ele>
        <time>2021-07-18T08:19:49.000Z</time>
      </trkpt>
      <trkpt lat="47.26022" lon="-2.26943">
        <ele>20</ele>
        <time>2021-07-18T08:19:53.000Z</time>
      </trkpt>
      <trkpt lat="47.26031" lon="-2.26955">
        <ele>20.39999961853</ele>
        <time>2021-07-18T08:19:55.000Z</time>
      </trkpt>
      <trkpt lat="47.26036" lon="-2.2696">
        <ele>21</ele>
        <time>2021-07-18T08:19:56.000Z</time>
      </trkpt>
      <trkpt lat="47.26041" lon="-2.26966">
        <ele>21.39999961853</ele>
        <time>2021-07-18T08:19:57.000Z</time>
      </trkpt>
      <trkpt lat="47.26046" lon="-2.26972">
        <ele>21.799999237061</ele>
        <time>2021-07-18T08:19:58.000Z</time>
      </trkpt>
      <trkpt lat="47.26051" lon="-2.26978">
        <ele>22.200000762939</ele>
        <time>2021-07-18T08:19:59.000Z</time>
      </trkpt>
      <trkpt lat="47.26072" lon="-2.27016">
        <ele>22.200000762939</ele>
        <time>2021-07-18T08:20:04.000Z</time>
      </trkpt>
      <trkpt lat="47.26075" lon="-2.27026">
        <ele>22.200000762939</ele>
        <time>2021-07-18T08:20:05.000Z</time>
      </trkpt>
      <trkpt lat="47.2609" lon="-2.27087">
        <ele>22.200000762939</ele>
        <time>2021-07-18T08:20:11.000Z</time>
      </trkpt>
      <trkpt lat="47.26103" lon="-2.27155">
        <ele>22.200000762939</ele>
        <time>2021-07-18T08:20:18.000Z</time>
      </trkpt>
      <trkpt lat="47.26123" lon="-2.27209">
        <ele>22.200000762939</ele>
        <time>2021-07-18T08:20:24.000Z</time>
      </trkpt>
      <trkpt lat="47.26141" lon="-2.27268">
        <ele>22.200000762939</ele>
        <time>2021-07-18T08:20:31.000Z</time>
      </trkpt>
      <trkpt lat="47.26146" lon="-2.27293">
        <ele>22.200000762939</ele>
        <time>2021-07-18T08:20:34.000Z</time>
      </trkpt>
      <trkpt lat="47.26149" lon="-2.27308">
        <ele>22.200000762939</ele>
        <time>2021-07-18T08:20:36.000Z</time>
      </trkpt>
      <trkpt lat="47.26158" lon="-2.27321">
        <ele>22.200000762939</ele>
        <time>2021-07-18T08:20:39.000Z</time>
      </trkpt>
      <trkpt lat="47.26175" lon="-2.2732">
        <ele>22.200000762939</ele>
        <time>2021-07-18T08:20:42.000Z</time>
      </trkpt>
      <trkpt lat="47.26181" lon="-2.27319">
        <ele>22.200000762939</ele>
        <time>2021-07-18T08:20:43.000Z</time>
      </trkpt>
      <trkpt lat="47.2621" lon="-2.27314">
        <ele>22.200000762939</ele>
        <time>2021-07-18T08:20:48.000Z</time>
      </trkpt>
      <trkpt lat="47.26247" lon="-2.2732">
        <ele>22.200000762939</ele>
        <time>2021-07-18T08:20:54.000Z</time>
      </trkpt>
      <trkpt lat="47.26282" lon="-2.27322">
        <ele>22.200000762939</ele>
        <time>2021-07-18T08:20:59.000Z</time>
      </trkpt>
      <trkpt lat="47.26317" lon="-2.27327">
        <ele>21.799999237061</ele>
        <time>2021-07-18T08:21:04.000Z</time>
      </trkpt>
      <trkpt lat="47.26324" lon="-2.27328">
        <ele>21.200000762939</ele>
        <time>2021-07-18T08:21:05.000Z</time>
      </trkpt>
      <trkpt lat="47.26331" lon="-2.27328">
        <ele>20.799999237061</ele>
        <time>2021-07-18T08:21:06.000Z</time>
      </trkpt>
      <trkpt lat="47.26337" lon="-2.27329">
        <ele>20.39999961853</ele>
        <time>2021-07-18T08:21:07.000Z</time>
      </trkpt>
      <trkpt lat="47.26343" lon="-2.2733">
        <ele>20</ele>
        <time>2021-07-18T08:21:08.000Z</time>
      </trkpt>
      <trkpt lat="47.26363" lon="-2.27331">
        <ele>20</ele>
        <time>2021-07-18T08:21:11.000Z</time>
      </trkpt>
      <trkpt lat="47.26369" lon="-2.27331">
        <ele>20</ele>
        <time>2021-07-18T08:21:12.000Z</time>
      </trkpt>
      <trkpt lat="47.26402" lon="-2.27332">
        <ele>20</ele>
        <time>2021-07-18T08:21:17.000Z</time>
      </trkpt>
      <trkpt lat="47.26408" lon="-2.27334">
        <ele>20</ele>
        <time>2021-07-18T08:21:18.000Z</time>
      </trkpt>
      <trkpt lat="47.26429" lon="-2.27346">
        <ele>19.60000038147</ele>
        <time>2021-07-18T08:21:22.000Z</time>
      </trkpt>
      <trkpt lat="47.26433" lon="-2.27352">
        <ele>19.200000762939</ele>
        <time>2021-07-18T08:21:23.000Z</time>
      </trkpt>
      <trkpt lat="47.26438" lon="-2.27359">
        <ele>18.60000038147</ele>
        <time>2021-07-18T08:21:24.000Z</time>
      </trkpt>
      <trkpt lat="47.26441" lon="-2.27366">
        <ele>18.200000762939</ele>
        <time>2021-07-18T08:21:25.000Z</time>
      </trkpt>
      <trkpt lat="47.26445" lon="-2.27374">
        <ele>17.799999237061</ele>
        <time>2021-07-18T08:21:26.000Z</time>
      </trkpt>
      <trkpt lat="47.26447" lon="-2.27382">
        <ele>17.799999237061</ele>
        <time>2021-07-18T08:21:27.000Z</time>
      </trkpt>
      <trkpt lat="47.26459" lon="-2.27427">
        <ele>17.799999237061</ele>
        <time>2021-07-18T08:21:32.000Z</time>
      </trkpt>
      <trkpt lat="47.26464" lon="-2.27448">
        <ele>17.799999237061</ele>
        <time>2021-07-18T08:21:34.000Z</time>
      </trkpt>
      <trkpt lat="47.2647" lon="-2.27468">
        <ele>17.39999961853</ele>
        <time>2021-07-18T08:21:36.000Z</time>
      </trkpt>
      <trkpt lat="47.26473" lon="-2.27478">
        <ele>17</ele>
        <time>2021-07-18T08:21:37.000Z</time>
      </trkpt>
      <trkpt lat="47.26476" lon="-2.27489">
        <ele>16.60000038147</ele>
        <time>2021-07-18T08:21:38.000Z</time>
      </trkpt>
      <trkpt lat="47.26479" lon="-2.275">
        <ele>16.200000762939</ele>
        <time>2021-07-18T08:21:39.000Z</time>
      </trkpt>
      <trkpt lat="47.26481" lon="-2.27511">
        <ele>15.800000190735</ele>
        <time>2021-07-18T08:21:40.000Z</time>
      </trkpt>
      <trkpt lat="47.26484" lon="-2.27521">
        <ele>15.800000190735</ele>
        <time>2021-07-18T08:21:41.000Z</time>
      </trkpt>
      <trkpt lat="47.26493" lon="-2.27569">
        <ele>15.199999809265</ele>
        <time>2021-07-18T08:21:46.000Z</time>
      </trkpt>
      <trkpt lat="47.26496" lon="-2.27574">
        <ele>14.800000190735</ele>
        <time>2021-07-18T08:21:47.000Z</time>
      </trkpt>
      <trkpt lat="47.265" lon="-2.27577">
        <ele>14.39999961853</ele>
        <time>2021-07-18T08:21:48.000Z</time>
      </trkpt>
      <trkpt lat="47.26504" lon="-2.27579">
        <ele>14</ele>
        <time>2021-07-18T08:21:49.000Z</time>
      </trkpt>
      <trkpt lat="47.2651" lon="-2.27579">
        <ele>13.60000038147</ele>
        <time>2021-07-18T08:21:50.000Z</time>
      </trkpt>
      <trkpt lat="47.26521" lon="-2.27578">
        <ele>13.60000038147</ele>
        <time>2021-07-18T08:21:52.000Z</time>
      </trkpt>
      <trkpt lat="47.26527" lon="-2.27579">
        <ele>13.60000038147</ele>
        <time>2021-07-18T08:21:53.000Z</time>
      </trkpt>
      <trkpt lat="47.26565" lon="-2.27584">
        <ele>13.60000038147</ele>
        <time>2021-07-18T08:21:59.000Z</time>
      </trkpt>
      <trkpt lat="47.26599" lon="-2.27593">
        <ele>13.60000038147</ele>
        <time>2021-07-18T08:22:04.000Z</time>
      </trkpt>
      <trkpt lat="47.26642" lon="-2.27616">
        <ele>13.60000038147</ele>
        <time>2021-07-18T08:22:12.000Z</time>
      </trkpt>
      <trkpt lat="47.26676" lon="-2.27632">
        <ele>13.60000038147</ele>
        <time>2021-07-18T08:22:18.000Z</time>
      </trkpt>
      <trkpt lat="47.26693" lon="-2.27638">
        <ele>13</ele>
        <time>2021-07-18T08:22:21.000Z</time>
      </trkpt>
      <trkpt lat="47.26698" lon="-2.2764">
        <ele>12.60000038147</ele>
        <time>2021-07-18T08:22:22.000Z</time>
      </trkpt>
      <trkpt lat="47.26703" lon="-2.27642">
        <ele>12.199999809265</ele>
        <time>2021-07-18T08:22:23.000Z</time>
      </trkpt>
      <trkpt lat="47.26707" lon="-2.27645">
        <ele>11.800000190735</ele>
        <time>2021-07-18T08:22:24.000Z</time>
      </trkpt>
      <trkpt lat="47.26713" lon="-2.27647">
        <ele>11.39999961853</ele>
        <time>2021-07-18T08:22:25.000Z</time>
      </trkpt>
      <trkpt lat="47.2674" lon="-2.27654">
        <ele>11.39999961853</ele>
        <time>2021-07-18T08:22:31.000Z</time>
      </trkpt>
      <trkpt lat="47.26756" lon="-2.27654">
        <ele>11.39999961853</ele>
        <time>2021-07-18T08:22:35.000Z</time>
      </trkpt>
      <trkpt lat="47.2676" lon="-2.2765">
        <ele>11.39999961853</ele>
        <time>2021-07-18T08:22:36.000Z</time>
      </trkpt>
      <trkpt lat="47.26762" lon="-2.27631">
        <ele>11.39999961853</ele>
        <time>2021-07-18T08:22:39.000Z</time>
      </trkpt>
      <trkpt lat="47.26761" lon="-2.27624">
        <ele>11.39999961853</ele>
        <time>2021-07-18T08:22:40.000Z</time>
      </trkpt>
      <trkpt lat="47.26756" lon="-2.27585">
        <ele>11.39999961853</ele>
        <time>2021-07-18T08:22:45.000Z</time>
      </trkpt>
      <trkpt lat="47.26752" lon="-2.27531">
        <ele>11.800000190735</ele>
        <time>2021-07-18T08:22:52.000Z</time>
      </trkpt>
      <trkpt lat="47.26751" lon="-2.27523">
        <ele>12.199999809265</ele>
        <time>2021-07-18T08:22:53.000Z</time>
      </trkpt>
      <trkpt lat="47.26751" lon="-2.27515">
        <ele>12.800000190735</ele>
        <time>2021-07-18T08:22:54.000Z</time>
      </trkpt>
      <trkpt lat="47.26751" lon="-2.27507">
        <ele>13.199999809265</ele>
        <time>2021-07-18T08:22:55.000Z</time>
      </trkpt>
      <trkpt lat="47.26751" lon="-2.27499">
        <ele>13.60000038147</ele>
        <time>2021-07-18T08:22:56.000Z</time>
      </trkpt>
      <trkpt lat="47.26753" lon="-2.2746">
        <ele>13.60000038147</ele>
        <time>2021-07-18T08:23:01.000Z</time>
      </trkpt>
      <trkpt lat="47.26752" lon="-2.27421">
        <ele>13.60000038147</ele>
        <time>2021-07-18T08:23:06.000Z</time>
      </trkpt>
      <trkpt lat="47.26753" lon="-2.27416">
        <ele>13.60000038147</ele>
        <time>2021-07-18T08:23:07.000Z</time>
      </trkpt>
      <trkpt lat="47.26762" lon="-2.27411">
        <ele>13.60000038147</ele>
        <time>2021-07-18T08:23:10.000Z</time>
      </trkpt>
      <trkpt lat="47.26771" lon="-2.27413">
        <ele>13.60000038147</ele>
        <time>2021-07-18T08:23:12.000Z</time>
      </trkpt>
      <trkpt lat="47.26777" lon="-2.27413">
        <ele>13.60000038147</ele>
        <time>2021-07-18T08:23:13.000Z</time>
      </trkpt>
      <trkpt lat="47.26809" lon="-2.27413">
        <ele>13.60000038147</ele>
        <time>2021-07-18T08:23:19.000Z</time>
      </trkpt>
      <trkpt lat="47.26826" lon="-2.27412">
        <ele>13.199999809265</ele>
        <time>2021-07-18T08:23:22.000Z</time>
      </trkpt>
      <trkpt lat="47.26832" lon="-2.27411">
        <ele>12.800000190735</ele>
        <time>2021-07-18T08:23:23.000Z</time>
      </trkpt>
      <trkpt lat="47.26838" lon="-2.27409">
        <ele>12.39999961853</ele>
        <time>2021-07-18T08:23:24.000Z</time>
      </trkpt>
      <trkpt lat="47.26844" lon="-2.27408">
        <ele>12</ele>
        <time>2021-07-18T08:23:25.000Z</time>
      </trkpt>
      <trkpt lat="47.2685" lon="-2.27406">
        <ele>11.39999961853</ele>
        <time>2021-07-18T08:23:26.000Z</time>
      </trkpt>
      <trkpt lat="47.26882" lon="-2.27392">
        <ele>11.39999961853</ele>
        <time>2021-07-18T08:23:31.000Z</time>
      </trkpt>
      <trkpt lat="47.26888" lon="-2.27389">
        <ele>11</ele>
        <time>2021-07-18T08:23:32.000Z</time>
      </trkpt>
      <trkpt lat="47.26893" lon="-2.27386">
        <ele>10.60000038147</ele>
        <time>2021-07-18T08:23:33.000Z</time>
      </trkpt>
      <trkpt lat="47.26899" lon="-2.27383">
        <ele>10.199999809265</ele>
        <time>2021-07-18T08:23:34.000Z</time>
      </trkpt>
      <trkpt lat="47.26903" lon="-2.27381">
        <ele>9.8000001907349</ele>
        <time>2021-07-18T08:23:35.000Z</time>
      </trkpt>
      <trkpt lat="47.26905" lon="-2.27377">
        <ele>9.3999996185303</ele>
        <time>2021-07-18T08:23:36.000Z</time>
      </trkpt>
      <trkpt lat="47.26907" lon="-2.27374">
        <ele>8.8000001907349</ele>
        <time>2021-07-18T08:23:37.000Z</time>
      </trkpt>
      <trkpt lat="47.2691" lon="-2.2737">
        <ele>8.3999996185303</ele>
        <time>2021-07-18T08:23:38.000Z</time>
      </trkpt>
      <trkpt lat="47.26911" lon="-2.27366">
        <ele>7.8000001907349</ele>
        <time>2021-07-18T08:23:39.000Z</time>
      </trkpt>
      <trkpt lat="47.26912" lon="-2.27361">
        <ele>7.4000000953674</ele>
        <time>2021-07-18T08:23:40.000Z</time>
      </trkpt>
      <trkpt lat="47.26913" lon="-2.27357">
        <ele>7.4000000953674</ele>
        <time>2021-07-18T08:23:41.000Z</time>
      </trkpt>
      <trkpt lat="47.26919" lon="-2.27336">
        <ele>7.4000000953674</ele>
        <time>2021-07-18T08:23:47.000Z</time>
      </trkpt>
      <trkpt lat="47.26924" lon="-2.27314">
        <ele>7.4000000953674</ele>
        <time>2021-07-18T08:23:54.000Z</time>
      </trkpt>
      <trkpt lat="47.26924" lon="-2.27296">
        <ele>7.4000000953674</ele>
        <time>2021-07-18T08:24:01.000Z</time>
      </trkpt>
      <trkpt lat="47.26925" lon="-2.27289">
        <ele>7.4000000953674</ele>
        <time>2021-07-18T08:24:03.000Z</time>
      </trkpt>
      <trkpt lat="47.26928" lon="-2.27279">
        <ele>7.4000000953674</ele>
        <time>2021-07-18T08:24:06.000Z</time>
      </trkpt>
      <trkpt lat="47.26939" lon="-2.27272">
        <ele>7.4000000953674</ele>
        <time>2021-07-18T08:24:10.000Z</time>
      </trkpt>
      <trkpt lat="47.26953" lon="-2.27265">
        <ele>7.4000000953674</ele>
        <time>2021-07-18T08:24:15.000Z</time>
      </trkpt>
      <trkpt lat="47.26963" lon="-2.27244">
        <ele>7.4000000953674</ele>
        <time>2021-07-18T08:24:21.000Z</time>
      </trkpt>
      <trkpt lat="47.26962" lon="-2.27226">
        <ele>7.4000000953674</ele>
        <time>2021-07-18T08:24:26.000Z</time>
      </trkpt>
      <trkpt lat="47.26965" lon="-2.27213">
        <ele>7.4000000953674</ele>
        <time>2021-07-18T08:24:31.000Z</time>
      </trkpt>
      <trkpt lat="47.26967" lon="-2.27211">
        <ele>7.4000000953674</ele>
        <time>2021-07-18T08:24:32.000Z</time>
      </trkpt>
      <trkpt lat="47.26975" lon="-2.2719">
        <ele>7.4000000953674</ele>
        <time>2021-07-18T08:24:37.000Z</time>
      </trkpt>
      <trkpt lat="47.26977" lon="-2.27185">
        <ele>7.4000000953674</ele>
        <time>2021-07-18T08:24:38.000Z</time>
      </trkpt>
      <trkpt lat="47.26984" lon="-2.27181">
        <ele>7.4000000953674</ele>
        <time>2021-07-18T08:24:41.000Z</time>
      </trkpt>
      <trkpt lat="47.26987" lon="-2.27181">
        <ele>7.4000000953674</ele>
        <time>2021-07-18T08:24:42.000Z</time>
      </trkpt>
      <trkpt lat="47.2699" lon="-2.2718">
        <ele>7.4000000953674</ele>
        <time>2021-07-18T08:24:44.000Z</time>
      </trkpt>
      <trkpt lat="47.26991" lon="-2.27176">
        <ele>7.4000000953674</ele>
        <time>2021-07-18T08:24:46.000Z</time>
      </trkpt>
      <trkpt lat="47.26993" lon="-2.27174">
        <ele>7.4000000953674</ele>
        <time>2021-07-18T08:24:47.000Z</time>
      </trkpt>
      <trkpt lat="47.26999" lon="-2.2717">
        <ele>7.4000000953674</ele>
        <time>2021-07-18T08:24:51.000Z</time>
      </trkpt>
      <trkpt lat="47.27001" lon="-2.27168">
        <ele>7.4000000953674</ele>
        <time>2021-07-18T08:24:52.000Z</time>
      </trkpt>
      <trkpt lat="47.27003" lon="-2.27169">
        <ele>7.4000000953674</ele>
        <time>2021-07-18T08:24:53.000Z</time>
      </trkpt>
      <trkpt lat="47.27006" lon="-2.27174">
        <ele>7.4000000953674</ele>
        <time>2021-07-18T08:24:56.000Z</time>
      </trkpt>
      <trkpt lat="47.27007" lon="-2.27175">
        <ele>7.4000000953674</ele>
        <time>2021-07-18T08:24:57.000Z</time>
      </trkpt>
      <trkpt lat="47.27008" lon="-2.27176">
        <ele>7</ele>
        <time>2021-07-18T08:24:58.000Z</time>
      </trkpt>
      <trkpt lat="47.27008" lon="-2.27176">
        <ele>6.5999999046326</ele>
        <time>2021-07-18T08:24:59.000Z</time>
      </trkpt>
      <trkpt lat="47.27009" lon="-2.27176">
        <ele>6.1999998092651</ele>
        <time>2021-07-18T08:25:00.000Z</time>
      </trkpt>
      <trkpt lat="47.27011" lon="-2.27174">
        <ele>5.8000001907349</ele>
        <time>2021-07-18T08:25:01.000Z</time>
      </trkpt>
      <trkpt lat="47.27012" lon="-2.27172">
        <ele>5.4000000953674</ele>
        <time>2021-07-18T08:25:02.000Z</time>
      </trkpt>
      <trkpt lat="47.27019" lon="-2.2716">
        <ele>5.4000000953674</ele>
        <time>2021-07-18T08:25:07.000Z</time>
      </trkpt>
      <trkpt lat="47.27022" lon="-2.27159">
        <ele>5.4000000953674</ele>
        <time>2021-07-18T08:25:08.000Z</time>
      </trkpt>
      <trkpt lat="47.2703" lon="-2.27151">
        <ele>5</ele>
        <time>2021-07-18T08:25:11.000Z</time>
      </trkpt>
      <trkpt lat="47.27032" lon="-2.27148">
        <ele>4.5999999046326</ele>
        <time>2021-07-18T08:25:12.000Z</time>
      </trkpt>
      <trkpt lat="47.27034" lon="-2.27145">
        <ele>4</ele>
        <time>2021-07-18T08:25:13.000Z</time>
      </trkpt>
      <trkpt lat="47.27035" lon="-2.27143">
        <ele>3.5999999046326</ele>
        <time>2021-07-18T08:25:14.000Z</time>
      </trkpt>
      <trkpt lat="47.27034" lon="-2.27141">
        <ele>3.2000000476837</ele>
        <time>2021-07-18T08:25:15.000Z</time>
      </trkpt>
      <trkpt lat="47.27033" lon="-2.27138">
        <ele>3.2000000476837</ele>
        <time>2021-07-18T08:25:16.000Z</time>
      </trkpt>
      <trkpt lat="47.27029" lon="-2.27132">
        <ele>3.2000000476837</ele>
        <time>2021-07-18T08:25:18.000Z</time>
      </trkpt>
      <trkpt lat="47.2702" lon="-2.27117">
        <ele>3.2000000476837</ele>
        <time>2021-07-18T08:25:22.000Z</time>
      </trkpt>
      <trkpt lat="47.27018" lon="-2.27112">
        <ele>3.5999999046326</ele>
        <time>2021-07-18T08:25:23.000Z</time>
      </trkpt>
      <trkpt lat="47.27017" lon="-2.27107">
        <ele>4</ele>
        <time>2021-07-18T08:25:24.000Z</time>
      </trkpt>
      <trkpt lat="47.27015" lon="-2.27102">
        <ele>4.5999999046326</ele>
        <time>2021-07-18T08:25:25.000Z</time>
      </trkpt>
      <trkpt lat="47.27014" lon="-2.27096">
        <ele>5</ele>
        <time>2021-07-18T08:25:26.000Z</time>
      </trkpt>
      <trkpt lat="47.27013" lon="-2.27091">
        <ele>5.4000000953674</ele>
        <time>2021-07-18T08:25:27.000Z</time>
      </trkpt>
      <trkpt lat="47.27011" lon="-2.27085">
        <ele>5.4000000953674</ele>
        <time>2021-07-18T08:25:28.000Z</time>
      </trkpt>
      <trkpt lat="47.27007" lon="-2.27068">
        <ele>5.4000000953674</ele>
        <time>2021-07-18T08:25:31.000Z</time>
      </trkpt>
      <trkpt lat="47.27" lon="-2.2705">
        <ele>5.4000000953674</ele>
        <time>2021-07-18T08:25:34.000Z</time>
      </trkpt>
      <trkpt lat="47.26996" lon="-2.27045">
        <ele>5.4000000953674</ele>
        <time>2021-07-18T08:25:35.000Z</time>
      </trkpt>
      <trkpt lat="47.26985" lon="-2.27031">
        <ele>5.4000000953674</ele>
        <time>2021-07-18T08:25:38.000Z</time>
      </trkpt>
      <trkpt lat="47.26978" lon="-2.27022">
        <ele>5.4000000953674</ele>
        <time>2021-07-18T08:25:40.000Z</time>
      </trkpt>
      <trkpt lat="47.26965" lon="-2.27006">
        <ele>5.4000000953674</ele>
        <time>2021-07-18T08:25:43.000Z</time>
      </trkpt>
      <trkpt lat="47.26962" lon="-2.26998">
        <ele>5.4000000953674</ele>
        <time>2021-07-18T08:25:44.000Z</time>
      </trkpt>
      <trkpt lat="47.2696" lon="-2.26981">
        <ele>5.4000000953674</ele>
        <time>2021-07-18T08:25:46.000Z</time>
      </trkpt>
      <trkpt lat="47.26965" lon="-2.2695">
        <ele>5.4000000953674</ele>
        <time>2021-07-18T08:25:50.000Z</time>
      </trkpt>
      <trkpt lat="47.26966" lon="-2.26943">
        <ele>5.4000000953674</ele>
        <time>2021-07-18T08:25:51.000Z</time>
      </trkpt>
      <trkpt lat="47.26968" lon="-2.26898">
        <ele>5.4000000953674</ele>
        <time>2021-07-18T08:25:56.000Z</time>
      </trkpt>
      <trkpt lat="47.26967" lon="-2.2689">
        <ele>5.4000000953674</ele>
        <time>2021-07-18T08:25:57.000Z</time>
      </trkpt>
      <trkpt lat="47.26964" lon="-2.26873">
        <ele>4.5999999046326</ele>
        <time>2021-07-18T08:25:59.000Z</time>
      </trkpt>
      <trkpt lat="47.26963" lon="-2.26865">
        <ele>4.1999998092651</ele>
        <time>2021-07-18T08:26:00.000Z</time>
      </trkpt>
      <trkpt lat="47.26962" lon="-2.26857">
        <ele>3.7999999523163</ele>
        <time>2021-07-18T08:26:01.000Z</time>
      </trkpt>
      <trkpt lat="47.26961" lon="-2.26848">
        <ele>3.4000000953674</ele>
        <time>2021-07-18T08:26:02.000Z</time>
      </trkpt>
      <trkpt lat="47.26959" lon="-2.26832">
        <ele>3.4000000953674</ele>
        <time>2021-07-18T08:26:04.000Z</time>
      </trkpt>
      <trkpt lat="47.26961" lon="-2.26826">
        <ele>3.4000000953674</ele>
        <time>2021-07-18T08:26:05.000Z</time>
      </trkpt>
      <trkpt lat="47.26964" lon="-2.2682">
        <ele>3.4000000953674</ele>
        <time>2021-07-18T08:26:06.000Z</time>
      </trkpt>
      <trkpt lat="47.26974" lon="-2.26807">
        <ele>3.4000000953674</ele>
        <time>2021-07-18T08:26:10.000Z</time>
      </trkpt>
      <trkpt lat="47.26984" lon="-2.268">
        <ele>3</ele>
        <time>2021-07-18T08:26:14.000Z</time>
      </trkpt>
      <trkpt lat="47.26986" lon="-2.26797">
        <ele>2.5999999046326</ele>
        <time>2021-07-18T08:26:15.000Z</time>
      </trkpt>
      <trkpt lat="47.26989" lon="-2.26796">
        <ele>2.2000000476837</ele>
        <time>2021-07-18T08:26:16.000Z</time>
      </trkpt>
      <trkpt lat="47.26992" lon="-2.26795">
        <ele>1.7999999523163</ele>
        <time>2021-07-18T08:26:17.000Z</time>
      </trkpt>
      <trkpt lat="47.26994" lon="-2.26794">
        <ele>1.2000000476837</ele>
        <time>2021-07-18T08:26:18.000Z</time>
      </trkpt>
      <trkpt lat="47.26998" lon="-2.2679">
        <ele>1.2000000476837</ele>
        <time>2021-07-18T08:26:20.000Z</time>
      </trkpt>
      <trkpt lat="47.2701" lon="-2.26777">
        <ele>1.2000000476837</ele>
        <time>2021-07-18T08:26:25.000Z</time>
      </trkpt>
      <trkpt lat="47.27016" lon="-2.26768">
        <ele>1.2000000476837</ele>
        <time>2021-07-18T08:26:30.000Z</time>
      </trkpt>
      <trkpt lat="47.27027" lon="-2.26758">
        <ele>1.2000000476837</ele>
        <time>2021-07-18T08:26:37.000Z</time>
      </trkpt>
      <trkpt lat="47.27033" lon="-2.26743">
        <ele>1.2000000476837</ele>
        <time>2021-07-18T08:26:43.000Z</time>
      </trkpt>
      <trkpt lat="47.27039" lon="-2.2671">
        <ele>1.2000000476837</ele>
        <time>2021-07-18T08:26:49.000Z</time>
      </trkpt>
      <trkpt lat="47.27039" lon="-2.26677">
        <ele>1.2000000476837</ele>
        <time>2021-07-18T08:26:55.000Z</time>
      </trkpt>
      <trkpt lat="47.2704" lon="-2.26659">
        <ele>1.2000000476837</ele>
        <time>2021-07-18T08:26:58.000Z</time>
      </trkpt>
      <trkpt lat="47.27036" lon="-2.26649">
        <ele>1.2000000476837</ele>
        <time>2021-07-18T08:27:00.000Z</time>
      </trkpt>
      <trkpt lat="47.2703" lon="-2.2664">
        <ele>1.2000000476837</ele>
        <time>2021-07-18T08:27:02.000Z</time>
      </trkpt>
      <trkpt lat="47.27012" lon="-2.26607">
        <ele>1.2000000476837</ele>
        <time>2021-07-18T08:27:07.000Z</time>
      </trkpt>
      <trkpt lat="47.27001" lon="-2.26594">
        <ele>1.2000000476837</ele>
        <time>2021-07-18T08:27:09.000Z</time>
      </trkpt>
      <trkpt lat="47.26985" lon="-2.26576">
        <ele>1.2000000476837</ele>
        <time>2021-07-18T08:27:12.000Z</time>
      </trkpt>
      <trkpt lat="47.26982" lon="-2.2657">
        <ele>2.2000000476837</ele>
        <time>2021-07-18T08:27:13.000Z</time>
      </trkpt>
      <trkpt lat="47.26978" lon="-2.26564">
        <ele>2.5999999046326</ele>
        <time>2021-07-18T08:27:14.000Z</time>
      </trkpt>
      <trkpt lat="47.26975" lon="-2.26556">
        <ele>3</ele>
        <time>2021-07-18T08:27:15.000Z</time>
      </trkpt>
      <trkpt lat="47.26974" lon="-2.2655">
        <ele>3.4000000953674</ele>
        <time>2021-07-18T08:27:16.000Z</time>
      </trkpt>
      <trkpt lat="47.26972" lon="-2.26543">
        <ele>3.4000000953674</ele>
        <time>2021-07-18T08:27:17.000Z</time>
      </trkpt>
      <trkpt lat="47.2697" lon="-2.26532">
        <ele>3.4000000953674</ele>
        <time>2021-07-18T08:27:19.000Z</time>
      </trkpt>
      <trkpt lat="47.26967" lon="-2.26519">
        <ele>3.4000000953674</ele>
        <time>2021-07-18T08:27:22.000Z</time>
      </trkpt>
      <trkpt lat="47.26967" lon="-2.26516">
        <ele>3.7999999523163</ele>
        <time>2021-07-18T08:27:23.000Z</time>
      </trkpt>
      <trkpt lat="47.26968" lon="-2.26512">
        <ele>4.1999998092651</ele>
        <time>2021-07-18T08:27:24.000Z</time>
      </trkpt>
      <trkpt lat="47.2697" lon="-2.26508">
        <ele>4.5999999046326</ele>
        <time>2021-07-18T08:27:25.000Z</time>
      </trkpt>
      <trkpt lat="47.26972" lon="-2.26504">
        <ele>5</ele>
        <time>2021-07-18T08:27:26.000Z</time>
      </trkpt>
      <trkpt lat="47.26974" lon="-2.265">
        <ele>5.4000000953674</ele>
        <time>2021-07-18T08:27:27.000Z</time>
      </trkpt>
      <trkpt lat="47.26978" lon="-2.26493">
        <ele>5.4000000953674</ele>
        <time>2021-07-18T08:27:29.000Z</time>
      </trkpt>
      <trkpt lat="47.26983" lon="-2.26484">
        <ele>5.4000000953674</ele>
        <time>2021-07-18T08:27:32.000Z</time>
      </trkpt>
      <trkpt lat="47.26984" lon="-2.26479">
        <ele>5.4000000953674</ele>
        <time>2021-07-18T08:27:36.000Z</time>
      </trkpt>
      <trkpt lat="47.26987" lon="-2.26479">
        <ele>5.4000000953674</ele>
        <time>2021-07-18T08:28:07.000Z</time>
      </trkpt>
      <trkpt lat="47.2699" lon="-2.26476">
        <ele>5.4000000953674</ele>
        <time>2021-07-18T08:28:09.000Z</time>
      </trkpt>
      <trkpt lat="47.26995" lon="-2.26469">
        <ele>5.4000000953674</ele>
        <time>2021-07-18T08:28:11.000Z</time>
      </trkpt>
      <trkpt lat="47.27002" lon="-2.26459">
        <ele>5.4000000953674</ele>
        <time>2021-07-18T08:28:13.000Z</time>
      </trkpt>
      <trkpt lat="47.27024" lon="-2.26422">
        <ele>5.4000000953674</ele>
        <time>2021-07-18T08:28:20.000Z</time>
      </trkpt>
      <trkpt lat="47.27049" lon="-2.26386">
        <ele>5.4000000953674</ele>
        <time>2021-07-18T08:28:26.000Z</time>
      </trkpt>
      <trkpt lat="47.27061" lon="-2.26368">
        <ele>5.8000001907349</ele>
        <time>2021-07-18T08:28:29.000Z</time>
      </trkpt>
      <trkpt lat="47.27065" lon="-2.26361">
        <ele>6.1999998092651</ele>
        <time>2021-07-18T08:28:30.000Z</time>
      </trkpt>
      <trkpt lat="47.2707" lon="-2.26355">
        <ele>6.5999999046326</ele>
        <time>2021-07-18T08:28:31.000Z</time>
      </trkpt>
      <trkpt lat="47.27074" lon="-2.26348">
        <ele>7.1999998092651</ele>
        <time>2021-07-18T08:28:32.000Z</time>
      </trkpt>
      <trkpt lat="47.27079" lon="-2.26342">
        <ele>7.5999999046326</ele>
        <time>2021-07-18T08:28:33.000Z</time>
      </trkpt>
      <trkpt lat="47.27084" lon="-2.26335">
        <ele>7.5999999046326</ele>
        <time>2021-07-18T08:28:34.000Z</time>
      </trkpt>
      <trkpt lat="47.27114" lon="-2.26293">
        <ele>7.5999999046326</ele>
        <time>2021-07-18T08:28:40.000Z</time>
      </trkpt>
      <trkpt lat="47.27145" lon="-2.26251">
        <ele>7.5999999046326</ele>
        <time>2021-07-18T08:28:46.000Z</time>
      </trkpt>
      <trkpt lat="47.27172" lon="-2.26218">
        <ele>7.1999998092651</ele>
        <time>2021-07-18T08:28:51.000Z</time>
      </trkpt>
      <trkpt lat="47.27178" lon="-2.26212">
        <ele>6.4000000953674</ele>
        <time>2021-07-18T08:28:52.000Z</time>
      </trkpt>
      <trkpt lat="47.27183" lon="-2.26206">
        <ele>5.8000001907349</ele>
        <time>2021-07-18T08:28:53.000Z</time>
      </trkpt>
      <trkpt lat="47.27189" lon="-2.26201">
        <ele>5.4000000953674</ele>
        <time>2021-07-18T08:28:54.000Z</time>
      </trkpt>
      <trkpt lat="47.2723" lon="-2.26169">
        <ele>5.4000000953674</ele>
        <time>2021-07-18T08:29:00.000Z</time>
      </trkpt>
      <trkpt lat="47.27262" lon="-2.26149">
        <ele>5.4000000953674</ele>
        <time>2021-07-18T08:29:05.000Z</time>
      </trkpt>
      <trkpt lat="47.27283" lon="-2.2614">
        <ele>5</ele>
        <time>2021-07-18T08:29:08.000Z</time>
      </trkpt>
      <trkpt lat="47.2729" lon="-2.26139">
        <ele>4.5999999046326</ele>
        <time>2021-07-18T08:29:09.000Z</time>
      </trkpt>
      <trkpt lat="47.27296" lon="-2.26137">
        <ele>4.1999998092651</ele>
        <time>2021-07-18T08:29:10.000Z</time>
      </trkpt>
      <trkpt lat="47.27303" lon="-2.26135">
        <ele>3.7999999523163</ele>
        <time>2021-07-18T08:29:11.000Z</time>
      </trkpt>
      <trkpt lat="47.27309" lon="-2.26133">
        <ele>3.4000000953674</ele>
        <time>2021-07-18T08:29:12.000Z</time>
      </trkpt>
      <trkpt lat="47.27341" lon="-2.26123">
        <ele>3.4000000953674</ele>
        <time>2021-07-18T08:29:18.000Z</time>
      </trkpt>
      <trkpt lat="47.27344" lon="-2.26104">
        <ele>3.4000000953674</ele>
        <time>2021-07-18T08:29:21.000Z</time>
      </trkpt>
      <trkpt lat="47.27335" lon="-2.26085">
        <ele>3.4000000953674</ele>
        <time>2021-07-18T08:29:24.000Z</time>
      </trkpt>
      <trkpt lat="47.27305" lon="-2.26027">
        <ele>3.4000000953674</ele>
        <time>2021-07-18T08:29:32.000Z</time>
      </trkpt>
      <trkpt lat="47.27302" lon="-2.26021">
        <ele>3</ele>
        <time>2021-07-18T08:29:33.000Z</time>
      </trkpt>
      <trkpt lat="47.27298" lon="-2.26014">
        <ele>2.5999999046326</ele>
        <time>2021-07-18T08:29:34.000Z</time>
      </trkpt>
      <trkpt lat="47.27295" lon="-2.26008">
        <ele>2.2000000476837</ele>
        <time>2021-07-18T08:29:35.000Z</time>
      </trkpt>
      <trkpt lat="47.27292" lon="-2.26002">
        <ele>1.7999999523163</ele>
        <time>2021-07-18T08:29:36.000Z</time>
      </trkpt>
      <trkpt lat="47.27291" lon="-2.25997">
        <ele>1.3999999761581</ele>
        <time>2021-07-18T08:29:37.000Z</time>
      </trkpt>
      <trkpt lat="47.27295" lon="-2.25987">
        <ele>1.3999999761581</ele>
        <time>2021-07-18T08:29:40.000Z</time>
      </trkpt>
      <trkpt lat="47.27298" lon="-2.25983">
        <ele>1.3999999761581</ele>
        <time>2021-07-18T08:29:41.000Z</time>
      </trkpt>
      <trkpt lat="47.27309" lon="-2.25976">
        <ele>1.3999999761581</ele>
        <time>2021-07-18T08:29:44.000Z</time>
      </trkpt>
      <trkpt lat="47.27336" lon="-2.25962">
        <ele>1.3999999761581</ele>
        <time>2021-07-18T08:29:50.000Z</time>
      </trkpt>
      <trkpt lat="47.2734" lon="-2.2596">
        <ele>1.3999999761581</ele>
        <time>2021-07-18T08:29:51.000Z</time>
      </trkpt>
      <trkpt lat="47.27353" lon="-2.25955">
        <ele>1.3999999761581</ele>
        <time>2021-07-18T08:29:54.000Z</time>
      </trkpt>
      <trkpt lat="47.27357" lon="-2.25951">
        <ele>1.3999999761581</ele>
        <time>2021-07-18T08:29:55.000Z</time>
      </trkpt>
      <trkpt lat="47.2737" lon="-2.25932">
        <ele>1.3999999761581</ele>
        <time>2021-07-18T08:29:58.000Z</time>
      </trkpt>
      <trkpt lat="47.2738" lon="-2.2592">
        <ele>1.3999999761581</ele>
        <time>2021-07-18T08:30:00.000Z</time>
      </trkpt>
      <trkpt lat="47.274" lon="-2.25896">
        <ele>1.3999999761581</ele>
        <time>2021-07-18T08:30:04.000Z</time>
      </trkpt>
      <trkpt lat="47.27425" lon="-2.25852">
        <ele>1.3999999761581</ele>
        <time>2021-07-18T08:30:10.000Z</time>
      </trkpt>
      <trkpt lat="47.27438" lon="-2.25831">
        <ele>1.3999999761581</ele>
        <time>2021-07-18T08:30:13.000Z</time>
      </trkpt>
      <trkpt lat="47.27445" lon="-2.25816">
        <ele>1.3999999761581</ele>
        <time>2021-07-18T08:30:15.000Z</time>
      </trkpt>
      <trkpt lat="47.27449" lon="-2.25809">
        <ele>1.3999999761581</ele>
        <time>2021-07-18T08:30:16.000Z</time>
      </trkpt>
      <trkpt lat="47.27463" lon="-2.25799">
        <ele>1.3999999761581</ele>
        <time>2021-07-18T08:30:19.000Z</time>
      </trkpt>
      <trkpt lat="47.27476" lon="-2.25787">
        <ele>1.3999999761581</ele>
        <time>2021-07-18T08:30:22.000Z</time>
      </trkpt>
      <trkpt lat="47.2748" lon="-2.25782">
        <ele>1.3999999761581</ele>
        <time>2021-07-18T08:30:23.000Z</time>
      </trkpt>
      <trkpt lat="47.27508" lon="-2.25748">
        <ele>1.3999999761581</ele>
        <time>2021-07-18T08:30:30.000Z</time>
      </trkpt>
      <trkpt lat="47.27523" lon="-2.25728">
        <ele>1.3999999761581</ele>
        <time>2021-07-18T08:30:34.000Z</time>
      </trkpt>
      <trkpt lat="47.27533" lon="-2.25709">
        <ele>0.80000001192093</ele>
        <time>2021-07-18T08:30:37.000Z</time>
      </trkpt>
      <trkpt lat="47.27537" lon="-2.25703">
        <ele>0.40000000596046</ele>
        <time>2021-07-18T08:30:38.000Z</time>
      </trkpt>
      <trkpt lat="47.2754" lon="-2.25696">
        <ele>17</ele>
        <time>2021-07-18T08:30:39.000Z</time>
      </trkpt>
      <trkpt lat="47.27544" lon="-2.2569">
        <ele>-0.40000000596046</ele>
        <time>2021-07-18T08:30:40.000Z</time>
      </trkpt>
      <trkpt lat="47.27548" lon="-2.25683">
        <ele>-0.80000001192093</ele>
        <time>2021-07-18T08:30:41.000Z</time>
      </trkpt>
      <trkpt lat="47.27555" lon="-2.25672">
        <ele>-0.80000001192093</ele>
        <time>2021-07-18T08:30:43.000Z</time>
      </trkpt>
      <trkpt lat="47.27559" lon="-2.25667">
        <ele>-0.80000001192093</ele>
        <time>2021-07-18T08:30:44.000Z</time>
      </trkpt>
      <trkpt lat="47.27563" lon="-2.25662">
        <ele>-0.80000001192093</ele>
        <time>2021-07-18T08:30:45.000Z</time>
      </trkpt>
      <trkpt lat="47.27569" lon="-2.25656">
        <ele>-1.3999999761581</ele>
        <time>2021-07-18T08:30:47.000Z</time>
      </trkpt>
      <trkpt lat="47.27572" lon="-2.25653">
        <ele>-1.7999999523163</ele>
        <time>2021-07-18T08:30:48.000Z</time>
      </trkpt>
      <trkpt lat="47.27573" lon="-2.25651">
        <ele>-2.2000000476837</ele>
        <time>2021-07-18T08:30:49.000Z</time>
      </trkpt>
      <trkpt lat="47.27574" lon="-2.25649">
        <ele>-2.5999999046326</ele>
        <time>2021-07-18T08:30:50.000Z</time>
      </trkpt>
      <trkpt lat="47.27575" lon="-2.25645">
        <ele>-3</ele>
        <time>2021-07-18T08:30:51.000Z</time>
      </trkpt>
      <trkpt lat="47.27576" lon="-2.25641">
        <ele>-3</ele>
        <time>2021-07-18T08:30:52.000Z</time>
      </trkpt>
      <trkpt lat="47.27579" lon="-2.25618">
        <ele>-3</ele>
        <time>2021-07-18T08:30:58.000Z</time>
      </trkpt>
      <trkpt lat="47.27571" lon="-2.25615">
        <ele>-3</ele>
        <time>2021-07-18T08:31:02.000Z</time>
      </trkpt>
      <trkpt lat="47.27566" lon="-2.25604">
        <ele>-3</ele>
        <time>2021-07-18T08:31:06.000Z</time>
      </trkpt>
      <trkpt lat="47.2756" lon="-2.25573">
        <ele>-3</ele>
        <time>2021-07-18T08:31:11.000Z</time>
      </trkpt>
      <trkpt lat="47.27552" lon="-2.25528">
        <ele>-3</ele>
        <time>2021-07-18T08:31:17.000Z</time>
      </trkpt>
      <trkpt lat="47.27538" lon="-2.25503">
        <ele>-3</ele>
        <time>2021-07-18T08:31:22.000Z</time>
      </trkpt>
      <trkpt lat="47.27525" lon="-2.25482">
        <ele>-3</ele>
        <time>2021-07-18T08:31:26.000Z</time>
      </trkpt>
      <trkpt lat="47.27521" lon="-2.25478">
        <ele>-3</ele>
        <time>2021-07-18T08:31:27.000Z</time>
      </trkpt>
      <trkpt lat="47.27502" lon="-2.25458">
        <ele>-3</ele>
        <time>2021-07-18T08:31:32.000Z</time>
      </trkpt>
      <trkpt lat="47.27497" lon="-2.25456">
        <ele>-3</ele>
        <time>2021-07-18T08:31:33.000Z</time>
      </trkpt>
      <trkpt lat="47.27482" lon="-2.25459">
        <ele>-3</ele>
        <time>2021-07-18T08:31:36.000Z</time>
      </trkpt>
      <trkpt lat="47.27468" lon="-2.25459">
        <ele>-3</ele>
        <time>2021-07-18T08:31:39.000Z</time>
      </trkpt>
      <trkpt lat="47.27458" lon="-2.25456">
        <ele>-3</ele>
        <time>2021-07-18T08:31:41.000Z</time>
      </trkpt>
      <trkpt lat="47.27438" lon="-2.2544">
        <ele>-3</ele>
        <time>2021-07-18T08:31:45.000Z</time>
      </trkpt>
      <trkpt lat="47.27433" lon="-2.25434">
        <ele>-3</ele>
        <time>2021-07-18T08:31:46.000Z</time>
      </trkpt>
      <trkpt lat="47.27423" lon="-2.25424">
        <ele>-3</ele>
        <time>2021-07-18T08:31:48.000Z</time>
      </trkpt>
      <trkpt lat="47.27415" lon="-2.25414">
        <ele>-3</ele>
        <time>2021-07-18T08:31:50.000Z</time>
      </trkpt>
      <trkpt lat="47.27412" lon="-2.25409">
        <ele>-3</ele>
        <time>2021-07-18T08:31:51.000Z</time>
      </trkpt>
      <trkpt lat="47.27406" lon="-2.25397">
        <ele>-3</ele>
        <time>2021-07-18T08:31:54.000Z</time>
      </trkpt>
      <trkpt lat="47.27402" lon="-2.25391">
        <ele>-3</ele>
        <time>2021-07-18T08:31:56.000Z</time>
      </trkpt>
      <trkpt lat="47.27398" lon="-2.25372">
        <ele>-3</ele>
        <time>2021-07-18T08:32:00.000Z</time>
      </trkpt>
      <trkpt lat="47.27398" lon="-2.25366">
        <ele>-3</ele>
        <time>2021-07-18T08:32:01.000Z</time>
      </trkpt>
      <trkpt lat="47.274" lon="-2.25339">
        <ele>-3</ele>
        <time>2021-07-18T08:32:05.000Z</time>
      </trkpt>
      <trkpt lat="47.27395" lon="-2.25316">
        <ele>-3</ele>
        <time>2021-07-18T08:32:09.000Z</time>
      </trkpt>
      <trkpt lat="47.27397" lon="-2.25292">
        <ele>-3</ele>
        <time>2021-07-18T08:32:13.000Z</time>
      </trkpt>
      <trkpt lat="47.27397" lon="-2.25286">
        <ele>-3</ele>
        <time>2021-07-18T08:32:14.000Z</time>
      </trkpt>
      <trkpt lat="47.27392" lon="-2.25249">
        <ele>-3</ele>
        <time>2021-07-18T08:32:20.000Z</time>
      </trkpt>
      <trkpt lat="47.27393" lon="-2.25236">
        <ele>-3</ele>
        <time>2021-07-18T08:32:22.000Z</time>
      </trkpt>
      <trkpt lat="47.27397" lon="-2.25221">
        <ele>-3</ele>
        <time>2021-07-18T08:32:24.000Z</time>
      </trkpt>
      <trkpt lat="47.27395" lon="-2.252">
        <ele>-3</ele>
        <time>2021-07-18T08:32:28.000Z</time>
      </trkpt>
      <trkpt lat="47.27387" lon="-2.25178">
        <ele>-3</ele>
        <time>2021-07-18T08:32:33.000Z</time>
      </trkpt>
      <trkpt lat="47.27376" lon="-2.25145">
        <ele>-3</ele>
        <time>2021-07-18T08:32:38.000Z</time>
      </trkpt>
      <trkpt lat="47.27362" lon="-2.25106">
        <ele>-3</ele>
        <time>2021-07-18T08:32:44.000Z</time>
      </trkpt>
      <trkpt lat="47.27342" lon="-2.25056">
        <ele>-3</ele>
        <time>2021-07-18T08:32:52.000Z</time>
      </trkpt>
      <trkpt lat="47.27336" lon="-2.25026">
        <ele>-3</ele>
        <time>2021-07-18T08:32:57.000Z</time>
      </trkpt>
      <trkpt lat="47.27331" lon="-2.24997">
        <ele>-3</ele>
        <time>2021-07-18T08:33:03.000Z</time>
      </trkpt>
      <trkpt lat="47.27338" lon="-2.24982">
        <ele>-3</ele>
        <time>2021-07-18T08:33:08.000Z</time>
      </trkpt>
      <trkpt lat="47.27343" lon="-2.24973">
        <ele>-3</ele>
        <time>2021-07-18T08:33:12.000Z</time>
      </trkpt>
      <trkpt lat="47.27346" lon="-2.2497">
        <ele>-3</ele>
        <time>2021-07-18T08:33:14.000Z</time>
      </trkpt>
      <trkpt lat="47.27355" lon="-2.24955">
        <ele>-3</ele>
        <time>2021-07-18T08:33:20.000Z</time>
      </trkpt>
      <trkpt lat="47.2736" lon="-2.24948">
        <ele>-3</ele>
        <time>2021-07-18T08:33:22.000Z</time>
      </trkpt>
      <trkpt lat="47.2737" lon="-2.24934">
        <ele>-3</ele>
        <time>2021-07-18T08:33:26.000Z</time>
      </trkpt>
      <trkpt lat="47.27383" lon="-2.24912">
        <ele>-3</ele>
        <time>2021-07-18T08:33:32.000Z</time>
      </trkpt>
      <trkpt lat="47.274" lon="-2.24887">
        <ele>-3</ele>
        <time>2021-07-18T08:33:39.000Z</time>
      </trkpt>
      <trkpt lat="47.27401" lon="-2.24882">
        <ele>-3</ele>
        <time>2021-07-18T08:33:40.000Z</time>
      </trkpt>
      <trkpt lat="47.27403" lon="-2.2487">
        <ele>-3</ele>
        <time>2021-07-18T08:33:43.000Z</time>
      </trkpt>
      <trkpt lat="47.27424" lon="-2.24808">
        <ele>-3</ele>
        <time>2021-07-18T08:33:55.000Z</time>
      </trkpt>
      <trkpt lat="47.27439" lon="-2.24792">
        <ele>-3</ele>
        <time>2021-07-18T08:33:58.000Z</time>
      </trkpt>
      <trkpt lat="47.27446" lon="-2.24786">
        <ele>-3</ele>
        <time>2021-07-18T08:34:00.000Z</time>
      </trkpt>
      <trkpt lat="47.27461" lon="-2.24782">
        <ele>-3</ele>
        <time>2021-07-18T08:34:04.000Z</time>
      </trkpt>
      <trkpt lat="47.27468" lon="-2.24783">
        <ele>-2.5999999046326</ele>
        <time>2021-07-18T08:34:06.000Z</time>
      </trkpt>
      <trkpt lat="47.27471" lon="-2.24783">
        <ele>-2.2000000476837</ele>
        <time>2021-07-18T08:34:07.000Z</time>
      </trkpt>
      <trkpt lat="47.27474" lon="-2.24783">
        <ele>-1.7999999523163</ele>
        <time>2021-07-18T08:34:08.000Z</time>
      </trkpt>
      <trkpt lat="47.27478" lon="-2.24783">
        <ele>-1.3999999761581</ele>
        <time>2021-07-18T08:34:09.000Z</time>
      </trkpt>
      <trkpt lat="47.27481" lon="-2.24784">
        <ele>-0.80000001192093</ele>
        <time>2021-07-18T08:34:10.000Z</time>
      </trkpt>
      <trkpt lat="47.27486" lon="-2.24784">
        <ele>-0.40000000596046</ele>
        <time>2021-07-18T08:34:12.000Z</time>
      </trkpt>
      <trkpt lat="47.27488" lon="-2.24784">
        <ele>0.40000000596046</ele>
        <time>2021-07-18T08:34:13.000Z</time>
      </trkpt>
      <trkpt lat="47.2749" lon="-2.24784">
        <ele>0.80000001192093</ele>
        <time>2021-07-18T08:34:14.000Z</time>
      </trkpt>
      <trkpt lat="47.27492" lon="-2.24784">
        <ele>1.2000000476837</ele>
        <time>2021-07-18T08:34:15.000Z</time>
      </trkpt>
      <trkpt lat="47.27495" lon="-2.24784">
        <ele>1.2000000476837</ele>
        <time>2021-07-18T08:34:17.000Z</time>
      </trkpt>
      <trkpt lat="47.27505" lon="-2.24784">
        <ele>1.2000000476837</ele>
        <time>2021-07-18T08:34:24.000Z</time>
      </trkpt>
      <trkpt lat="47.27519" lon="-2.24784">
        <ele>1.2000000476837</ele>
        <time>2021-07-18T08:34:31.000Z</time>
      </trkpt>
      <trkpt lat="47.27542" lon="-2.24783">
        <ele>1.2000000476837</ele>
        <time>2021-07-18T08:34:39.000Z</time>
      </trkpt>
      <trkpt lat="47.27562" lon="-2.24785">
        <ele>1.2000000476837</ele>
        <time>2021-07-18T08:34:46.000Z</time>
      </trkpt>
      <trkpt lat="47.27571" lon="-2.24786">
        <ele>1.6000000238419</ele>
        <time>2021-07-18T08:34:49.000Z</time>
      </trkpt>
      <trkpt lat="47.27575" lon="-2.24787">
        <ele>2</ele>
        <time>2021-07-18T08:34:50.000Z</time>
      </trkpt>
      <trkpt lat="47.27578" lon="-2.24787">
        <ele>2.4000000953674</ele>
        <time>2021-07-18T08:34:51.000Z</time>
      </trkpt>
      <trkpt lat="47.27581" lon="-2.24787">
        <ele>2.7999999523163</ele>
        <time>2021-07-18T08:34:52.000Z</time>
      </trkpt>
      <trkpt lat="47.27585" lon="-2.24788">
        <ele>3.2000000476837</ele>
        <time>2021-07-18T08:34:53.000Z</time>
      </trkpt>
      <trkpt lat="47.27604" lon="-2.24788">
        <ele>3.2000000476837</ele>
        <time>2021-07-18T08:35:01.000Z</time>
      </trkpt>
      <trkpt lat="47.27622" lon="-2.24786">
        <ele>3.2000000476837</ele>
        <time>2021-07-18T08:35:07.000Z</time>
      </trkpt>
      <trkpt lat="47.2764" lon="-2.24791">
        <ele>3.2000000476837</ele>
        <time>2021-07-18T08:35:14.000Z</time>
      </trkpt>
      <trkpt lat="47.27668" lon="-2.24801">
        <ele>3.2000000476837</ele>
        <time>2021-07-18T08:35:19.000Z</time>
      </trkpt>
      <trkpt lat="47.27686" lon="-2.24802">
        <ele>3.2000000476837</ele>
        <time>2021-07-18T08:35:23.000Z</time>
      </trkpt>
      <trkpt lat="47.27712" lon="-2.24802">
        <ele>3.2000000476837</ele>
        <time>2021-07-18T08:35:30.000Z</time>
      </trkpt>
      <trkpt lat="47.2774" lon="-2.24802">
        <ele>3.2000000476837</ele>
        <time>2021-07-18T08:35:37.000Z</time>
      </trkpt>
      <trkpt lat="47.27765" lon="-2.24803">
        <ele>3.2000000476837</ele>
        <time>2021-07-18T08:35:44.000Z</time>
      </trkpt>
      <trkpt lat="47.27791" lon="-2.24802">
        <ele>3.2000000476837</ele>
        <time>2021-07-18T08:35:51.000Z</time>
      </trkpt>
      <trkpt lat="47.27813" lon="-2.24798">
        <ele>3.2000000476837</ele>
        <time>2021-07-18T08:35:57.000Z</time>
      </trkpt>
      <trkpt lat="47.27838" lon="-2.24794">
        <ele>3.2000000476837</ele>
        <time>2021-07-18T08:36:03.000Z</time>
      </trkpt>
      <trkpt lat="47.27842" lon="-2.24793">
        <ele>3.2000000476837</ele>
        <time>2021-07-18T08:36:04.000Z</time>
      </trkpt>
      <trkpt lat="47.27856" lon="-2.24779">
        <ele>3.2000000476837</ele>
        <time>2021-07-18T08:36:09.000Z</time>
      </trkpt>
      <trkpt lat="47.27862" lon="-2.2477">
        <ele>3.2000000476837</ele>
        <time>2021-07-18T08:36:12.000Z</time>
      </trkpt>
      <trkpt lat="47.27868" lon="-2.2477">
        <ele>3.2000000476837</ele>
        <time>2021-07-18T08:36:14.000Z</time>
      </trkpt>
      <trkpt lat="47.2788" lon="-2.24769">
        <ele>3.2000000476837</ele>
        <time>2021-07-18T08:36:17.000Z</time>
      </trkpt>
      <trkpt lat="47.27889" lon="-2.24767">
        <ele>3.2000000476837</ele>
        <time>2021-07-18T08:36:19.000Z</time>
      </trkpt>
      <trkpt lat="47.27906" lon="-2.24765">
        <ele>3.7999999523163</ele>
        <time>2021-07-18T08:36:23.000Z</time>
      </trkpt>
      <trkpt lat="47.27909" lon="-2.24765">
        <ele>4.1999998092651</ele>
        <time>2021-07-18T08:36:24.000Z</time>
      </trkpt>
      <trkpt lat="47.27912" lon="-2.24765">
        <ele>4.8000001907349</ele>
        <time>2021-07-18T08:36:25.000Z</time>
      </trkpt>
      <trkpt lat="47.27916" lon="-2.24764">
        <ele>5.1999998092651</ele>
        <time>2021-07-18T08:36:26.000Z</time>
      </trkpt>
      <trkpt lat="47.27919" lon="-2.24764">
        <ele>5.5999999046326</ele>
        <time>2021-07-18T08:36:27.000Z</time>
      </trkpt>
      <trkpt lat="47.27925" lon="-2.2477">
        <ele>5.5999999046326</ele>
        <time>2021-07-18T08:36:30.000Z</time>
      </trkpt>
      <trkpt lat="47.2792" lon="-2.24775">
        <ele>5.5999999046326</ele>
        <time>2021-07-18T08:36:33.000Z</time>
      </trkpt>
      <trkpt lat="47.27916" lon="-2.24777">
        <ele>5.5999999046326</ele>
        <time>2021-07-18T08:36:34.000Z</time>
      </trkpt>
      <trkpt lat="47.27901" lon="-2.2479">
        <ele>5.5999999046326</ele>
        <time>2021-07-18T08:36:37.000Z</time>
      </trkpt>
      <trkpt lat="47.279" lon="-2.24795">
        <ele>5.5999999046326</ele>
        <time>2021-07-18T08:36:38.000Z</time>
      </trkpt>
      <trkpt lat="47.27905" lon="-2.24804">
        <ele>5.5999999046326</ele>
        <time>2021-07-18T08:36:40.000Z</time>
      </trkpt>
      <trkpt lat="47.27918" lon="-2.24812">
        <ele>5.5999999046326</ele>
        <time>2021-07-18T08:36:43.000Z</time>
      </trkpt>
      <trkpt lat="47.27932" lon="-2.24819">
        <ele>5.5999999046326</ele>
        <time>2021-07-18T08:36:46.000Z</time>
      </trkpt>
      <trkpt lat="47.27941" lon="-2.24822">
        <ele>5.5999999046326</ele>
        <time>2021-07-18T08:36:48.000Z</time>
      </trkpt>
      <trkpt lat="47.27945" lon="-2.24824">
        <ele>5.5999999046326</ele>
        <time>2021-07-18T08:36:49.000Z</time>
      </trkpt>
      <trkpt lat="47.27958" lon="-2.24823">
        <ele>5.5999999046326</ele>
        <time>2021-07-18T08:36:52.000Z</time>
      </trkpt>
      <trkpt lat="47.27973" lon="-2.24827">
        <ele>5.5999999046326</ele>
        <time>2021-07-18T08:36:55.000Z</time>
      </trkpt>
      <trkpt lat="47.27988" lon="-2.24831">
        <ele>5.5999999046326</ele>
        <time>2021-07-18T08:36:58.000Z</time>
      </trkpt>
      <trkpt lat="47.28018" lon="-2.24836">
        <ele>5.5999999046326</ele>
        <time>2021-07-18T08:37:04.000Z</time>
      </trkpt>
      <trkpt lat="47.28034" lon="-2.24839">
        <ele>5.5999999046326</ele>
        <time>2021-07-18T08:37:07.000Z</time>
      </trkpt>
      <trkpt lat="47.28044" lon="-2.24841">
        <ele>5.5999999046326</ele>
        <time>2021-07-18T08:37:09.000Z</time>
      </trkpt>
      <trkpt lat="47.28049" lon="-2.2484">
        <ele>5.5999999046326</ele>
        <time>2021-07-18T08:37:10.000Z</time>
      </trkpt>
      <trkpt lat="47.28063" lon="-2.24847">
        <ele>5.5999999046326</ele>
        <time>2021-07-18T08:37:13.000Z</time>
      </trkpt>
      <trkpt lat="47.28068" lon="-2.24849">
        <ele>5.5999999046326</ele>
        <time>2021-07-18T08:37:14.000Z</time>
      </trkpt>
      <trkpt lat="47.28073" lon="-2.24848">
        <ele>5.5999999046326</ele>
        <time>2021-07-18T08:37:15.000Z</time>
      </trkpt>
      <trkpt lat="47.2809" lon="-2.24847">
        <ele>5.5999999046326</ele>
        <time>2021-07-18T08:37:18.000Z</time>
      </trkpt>
      <trkpt lat="47.28121" lon="-2.24857">
        <ele>5.5999999046326</ele>
        <time>2021-07-18T08:37:23.000Z</time>
      </trkpt>
      <trkpt lat="47.2814" lon="-2.24858">
        <ele>5.5999999046326</ele>
        <time>2021-07-18T08:37:26.000Z</time>
      </trkpt>
      <trkpt lat="47.2815" lon="-2.24855">
        <ele>5.5999999046326</ele>
        <time>2021-07-18T08:37:28.000Z</time>
      </trkpt>
      <trkpt lat="47.28154" lon="-2.24852">
        <ele>5.1999998092651</ele>
        <time>2021-07-18T08:37:29.000Z</time>
      </trkpt>
      <trkpt lat="47.28157" lon="-2.24848">
        <ele>4.1999998092651</ele>
        <time>2021-07-18T08:37:30.000Z</time>
      </trkpt>
      <trkpt lat="47.28159" lon="-2.24846">
        <ele>3.5999999046326</ele>
        <time>2021-07-18T08:37:31.000Z</time>
      </trkpt>
      <trkpt lat="47.28161" lon="-2.24841">
        <ele>3.2000000476837</ele>
        <time>2021-07-18T08:37:32.000Z</time>
      </trkpt>
      <trkpt lat="47.28165" lon="-2.24823">
        <ele>3.2000000476837</ele>
        <time>2021-07-18T08:37:35.000Z</time>
      </trkpt>
      <trkpt lat="47.28167" lon="-2.24817">
        <ele>3.2000000476837</ele>
        <time>2021-07-18T08:37:36.000Z</time>
      </trkpt>
      <trkpt lat="47.28169" lon="-2.24814">
        <ele>2.7999999523163</ele>
        <time>2021-07-18T08:37:37.000Z</time>
      </trkpt>
      <trkpt lat="47.28171" lon="-2.24812">
        <ele>2.2000000476837</ele>
        <time>2021-07-18T08:37:38.000Z</time>
      </trkpt>
      <trkpt lat="47.28174" lon="-2.24811">
        <ele>1.7999999523163</ele>
        <time>2021-07-18T08:37:39.000Z</time>
      </trkpt>
      <trkpt lat="47.28178" lon="-2.2481">
        <ele>1.3999999761581</ele>
        <time>2021-07-18T08:37:40.000Z</time>
      </trkpt>
      <trkpt lat="47.28183" lon="-2.2481">
        <ele>1</ele>
        <time>2021-07-18T08:37:41.000Z</time>
      </trkpt>
      <trkpt lat="47.28188" lon="-2.2481">
        <ele>1</ele>
        <time>2021-07-18T08:37:42.000Z</time>
      </trkpt>
      <trkpt lat="47.28194" lon="-2.24811">
        <ele>0.60000002384186</ele>
        <time>2021-07-18T08:37:43.000Z</time>
      </trkpt>
      <trkpt lat="47.282" lon="-2.24811">
        <ele>15.7</ele>
        <time>2021-07-18T08:37:44.000Z</time>
      </trkpt>
      <trkpt lat="47.28207" lon="-2.24814">
        <ele>-0.40000000596046</ele>
        <time>2021-07-18T08:37:45.000Z</time>
      </trkpt>
      <trkpt lat="47.28215" lon="-2.24816">
        <ele>-1</ele>
        <time>2021-07-18T08:37:46.000Z</time>
      </trkpt>
      <trkpt lat="47.28221" lon="-2.24817">
        <ele>-1.6000000238419</ele>
        <time>2021-07-18T08:37:47.000Z</time>
      </trkpt>
      <trkpt lat="47.28227" lon="-2.24817">
        <ele>-2</ele>
        <time>2021-07-18T08:37:48.000Z</time>
      </trkpt>
      <trkpt lat="47.28234" lon="-2.24817">
        <ele>-2.5999999046326</ele>
        <time>2021-07-18T08:37:49.000Z</time>
      </trkpt>
      <trkpt lat="47.28239" lon="-2.24816">
        <ele>-3.4000000953674</ele>
        <time>2021-07-18T08:37:50.000Z</time>
      </trkpt>
      <trkpt lat="47.28244" lon="-2.24813">
        <ele>-4.1999998092651</ele>
        <time>2021-07-18T08:37:51.000Z</time>
      </trkpt>
      <trkpt lat="47.28249" lon="-2.24809">
        <ele>-4.8000001907349</ele>
        <time>2021-07-18T08:37:52.000Z</time>
      </trkpt>
      <trkpt lat="47.28253" lon="-2.24805">
        <ele>-5.5999999046326</ele>
        <time>2021-07-18T08:37:53.000Z</time>
      </trkpt>
      <trkpt lat="47.28258" lon="-2.24801">
        <ele>-6.4000000953674</ele>
        <time>2021-07-18T08:37:54.000Z</time>
      </trkpt>
      <trkpt lat="47.28263" lon="-2.24797">
        <ele>-6.4000000953674</ele>
        <time>2021-07-18T08:37:55.000Z</time>
      </trkpt>
      <trkpt lat="47.28269" lon="-2.24794">
        <ele>-6.4000000953674</ele>
        <time>2021-07-18T08:37:56.000Z</time>
      </trkpt>
      <trkpt lat="47.2829" lon="-2.24781">
        <ele>-6.4000000953674</ele>
        <time>2021-07-18T08:38:00.000Z</time>
      </trkpt>
      <trkpt lat="47.28296" lon="-2.24777">
        <ele>-6.8000001907349</ele>
        <time>2021-07-18T08:38:01.000Z</time>
      </trkpt>
      <trkpt lat="47.28302" lon="-2.24773">
        <ele>-7.1999998092651</ele>
        <time>2021-07-18T08:38:02.000Z</time>
      </trkpt>
      <trkpt lat="47.28308" lon="-2.24769">
        <ele>-7.5999999046326</ele>
        <time>2021-07-18T08:38:03.000Z</time>
      </trkpt>
      <trkpt lat="47.28315" lon="-2.24764">
        <ele>-8</ele>
        <time>2021-07-18T08:38:04.000Z</time>
      </trkpt>
      <trkpt lat="47.28321" lon="-2.2476">
        <ele>-8.6000003814697</ele>
        <time>2021-07-18T08:38:05.000Z</time>
      </trkpt>
      <trkpt lat="47.28328" lon="-2.24758">
        <ele>-8.6000003814697</ele>
        <time>2021-07-18T08:38:06.000Z</time>
      </trkpt>
      <trkpt lat="47.28347" lon="-2.24759">
        <ele>-8.6000003814697</ele>
        <time>2021-07-18T08:38:09.000Z</time>
      </trkpt>
      <trkpt lat="47.28365" lon="-2.24768">
        <ele>-9</ele>
        <time>2021-07-18T08:38:12.000Z</time>
      </trkpt>
      <trkpt lat="47.28369" lon="-2.2477">
        <ele>-9.3999996185303</ele>
        <time>2021-07-18T08:38:13.000Z</time>
      </trkpt>
      <trkpt lat="47.28373" lon="-2.24772">
        <ele>-9.8000001907349</ele>
        <time>2021-07-18T08:38:14.000Z</time>
      </trkpt>
      <trkpt lat="47.28377" lon="-2.24773">
        <ele>-10.199999809265</ele>
        <time>2021-07-18T08:38:15.000Z</time>
      </trkpt>
      <trkpt lat="47.2838" lon="-2.24772">
        <ele>-10.60000038147</ele>
        <time>2021-07-18T08:38:16.000Z</time>
      </trkpt>
      <trkpt lat="47.28383" lon="-2.24771">
        <ele>-11.199999809265</ele>
        <time>2021-07-18T08:38:17.000Z</time>
      </trkpt>
      <trkpt lat="47.28387" lon="-2.2477">
        <ele>-11.60000038147</ele>
        <time>2021-07-18T08:38:18.000Z</time>
      </trkpt>
      <trkpt lat="47.28391" lon="-2.24769">
        <ele>-12.199999809265</ele>
        <time>2021-07-18T08:38:19.000Z</time>
      </trkpt>
      <trkpt lat="47.28395" lon="-2.24766">
        <ele>-12.60000038147</ele>
        <time>2021-07-18T08:38:20.000Z</time>
      </trkpt>
      <trkpt lat="47.28403" lon="-2.24761">
        <ele>-12.60000038147</ele>
        <time>2021-07-18T08:38:22.000Z</time>
      </trkpt>
      <trkpt lat="47.28433" lon="-2.24741">
        <ele>-12.60000038147</ele>
        <time>2021-07-18T08:38:28.000Z</time>
      </trkpt>
      <trkpt lat="47.28469" lon="-2.24713">
        <ele>-12.60000038147</ele>
        <time>2021-07-18T08:38:35.000Z</time>
      </trkpt>
      <trkpt lat="47.28509" lon="-2.24685">
        <ele>-12.60000038147</ele>
        <time>2021-07-18T08:38:43.000Z</time>
      </trkpt>
      <trkpt lat="47.28542" lon="-2.24658">
        <ele>-12.60000038147</ele>
        <time>2021-07-18T08:38:50.000Z</time>
      </trkpt>
      <trkpt lat="47.28563" lon="-2.24638">
        <ele>-12.60000038147</ele>
        <time>2021-07-18T08:38:55.000Z</time>
      </trkpt>
      <trkpt lat="47.2858" lon="-2.24627">
        <ele>-12.60000038147</ele>
        <time>2021-07-18T08:39:00.000Z</time>
      </trkpt>
      <trkpt lat="47.28583" lon="-2.24624">
        <ele>-12.60000038147</ele>
        <time>2021-07-18T08:39:02.000Z</time>
      </trkpt>
      <trkpt lat="47.28589" lon="-2.24617">
        <ele>-12.60000038147</ele>
        <time>2021-07-18T08:39:05.000Z</time>
      </trkpt>
      <trkpt lat="47.28595" lon="-2.2461">
        <ele>-12.60000038147</ele>
        <time>2021-07-18T08:39:11.000Z</time>
      </trkpt>
      <trkpt lat="47.28596" lon="-2.24609">
        <ele>-12.60000038147</ele>
        <time>2021-07-18T08:39:13.000Z</time>
      </trkpt>
      <trkpt lat="47.28598" lon="-2.24607">
        <ele>-12.60000038147</ele>
        <time>2021-07-18T08:39:16.000Z</time>
      </trkpt>
      <trkpt lat="47.28602" lon="-2.24602">
        <ele>-12.60000038147</ele>
        <time>2021-07-18T08:39:18.000Z</time>
      </trkpt>
      <trkpt lat="47.28604" lon="-2.24596">
        <ele>-12.60000038147</ele>
        <time>2021-07-18T08:39:19.000Z</time>
      </trkpt>
      <trkpt lat="47.28607" lon="-2.24579">
        <ele>-12.60000038147</ele>
        <time>2021-07-18T08:39:22.000Z</time>
      </trkpt>
      <trkpt lat="47.28608" lon="-2.24573">
        <ele>-12.60000038147</ele>
        <time>2021-07-18T08:39:23.000Z</time>
      </trkpt>
      <trkpt lat="47.28617" lon="-2.24539">
        <ele>-12.60000038147</ele>
        <time>2021-07-18T08:39:28.000Z</time>
      </trkpt>
      <trkpt lat="47.28631" lon="-2.24489">
        <ele>-12.60000038147</ele>
        <time>2021-07-18T08:39:35.000Z</time>
      </trkpt>
      <trkpt lat="47.28649" lon="-2.24437">
        <ele>-12.60000038147</ele>
        <time>2021-07-18T08:39:42.000Z</time>
      </trkpt>
      <trkpt lat="47.28659" lon="-2.24403">
        <ele>-12.60000038147</ele>
        <time>2021-07-18T08:39:47.000Z</time>
      </trkpt>
      <trkpt lat="47.28661" lon="-2.24396">
        <ele>-12.60000038147</ele>
        <time>2021-07-18T08:39:48.000Z</time>
      </trkpt>
      <trkpt lat="47.28673" lon="-2.24347">
        <ele>-12.60000038147</ele>
        <time>2021-07-18T08:39:55.000Z</time>
      </trkpt>
      <trkpt lat="47.28686" lon="-2.24293">
        <ele>-12.60000038147</ele>
        <time>2021-07-18T08:40:02.000Z</time>
      </trkpt>
      <trkpt lat="47.28692" lon="-2.24251">
        <ele>-12.60000038147</ele>
        <time>2021-07-18T08:40:07.000Z</time>
      </trkpt>
      <trkpt lat="47.28691" lon="-2.24243">
        <ele>-12.60000038147</ele>
        <time>2021-07-18T08:40:08.000Z</time>
      </trkpt>
      <trkpt lat="47.28683" lon="-2.24178">
        <ele>-12.60000038147</ele>
        <time>2021-07-18T08:40:16.000Z</time>
      </trkpt>
      <trkpt lat="47.28677" lon="-2.24121">
        <ele>-12.60000038147</ele>
        <time>2021-07-18T08:40:23.000Z</time>
      </trkpt>
      <trkpt lat="47.28672" lon="-2.24067">
        <ele>-12.60000038147</ele>
        <time>2021-07-18T08:40:29.000Z</time>
      </trkpt>
      <trkpt lat="47.28668" lon="-2.24014">
        <ele>-12.60000038147</ele>
        <time>2021-07-18T08:40:35.000Z</time>
      </trkpt>
      <trkpt lat="47.28659" lon="-2.23941">
        <ele>-12.60000038147</ele>
        <time>2021-07-18T08:40:43.000Z</time>
      </trkpt>
      <trkpt lat="47.28655" lon="-2.23917">
        <ele>-12.60000038147</ele>
        <time>2021-07-18T08:40:46.000Z</time>
      </trkpt>
      <trkpt lat="47.28652" lon="-2.23884">
        <ele>-12.60000038147</ele>
        <time>2021-07-18T08:40:50.000Z</time>
      </trkpt>
      <trkpt lat="47.28643" lon="-2.23817">
        <ele>-12.60000038147</ele>
        <time>2021-07-18T08:40:58.000Z</time>
      </trkpt>
      <trkpt lat="47.28634" lon="-2.23747">
        <ele>-12.60000038147</ele>
        <time>2021-07-18T08:41:07.000Z</time>
      </trkpt>
      <trkpt lat="47.28632" lon="-2.23719">
        <ele>-12.60000038147</ele>
        <time>2021-07-18T08:41:11.000Z</time>
      </trkpt>
      <trkpt lat="47.2863" lon="-2.23693">
        <ele>-12.60000038147</ele>
        <time>2021-07-18T08:41:14.000Z</time>
      </trkpt>
      <trkpt lat="47.28625" lon="-2.23642">
        <ele>-12.60000038147</ele>
        <time>2021-07-18T08:41:21.000Z</time>
      </trkpt>
      <trkpt lat="47.28623" lon="-2.23605">
        <ele>-12.60000038147</ele>
        <time>2021-07-18T08:41:26.000Z</time>
      </trkpt>
      <trkpt lat="47.28626" lon="-2.23591">
        <ele>-12.60000038147</ele>
        <time>2021-07-18T08:41:28.000Z</time>
      </trkpt>
      <trkpt lat="47.2863" lon="-2.23578">
        <ele>-12.60000038147</ele>
        <time>2021-07-18T08:41:30.000Z</time>
      </trkpt>
      <trkpt lat="47.28637" lon="-2.23569">
        <ele>-12.60000038147</ele>
        <time>2021-07-18T08:41:32.000Z</time>
      </trkpt>
      <trkpt lat="47.28648" lon="-2.23558">
        <ele>-13</ele>
        <time>2021-07-18T08:41:35.000Z</time>
      </trkpt>
      <trkpt lat="47.2865" lon="-2.23551">
        <ele>-13.800000190735</ele>
        <time>2021-07-18T08:41:36.000Z</time>
      </trkpt>
      <trkpt lat="47.2865" lon="-2.23544">
        <ele>-14.199999809265</ele>
        <time>2021-07-18T08:41:37.000Z</time>
      </trkpt>
      <trkpt lat="47.2865" lon="-2.23538">
        <ele>-14.60000038147</ele>
        <time>2021-07-18T08:41:38.000Z</time>
      </trkpt>
      <trkpt lat="47.2865" lon="-2.23532">
        <ele>-14.60000038147</ele>
        <time>2021-07-18T08:41:39.000Z</time>
      </trkpt>
      <trkpt lat="47.28649" lon="-2.23516">
        <ele>-14.60000038147</ele>
        <time>2021-07-18T08:41:42.000Z</time>
      </trkpt>
      <trkpt lat="47.2865" lon="-2.23509">
        <ele>-14.60000038147</ele>
        <time>2021-07-18T08:41:43.000Z</time>
      </trkpt>
      <trkpt lat="47.28654" lon="-2.23487">
        <ele>-14.60000038147</ele>
        <time>2021-07-18T08:41:46.000Z</time>
      </trkpt>
      <trkpt lat="47.28655" lon="-2.23448">
        <ele>-14.60000038147</ele>
        <time>2021-07-18T08:41:52.000Z</time>
      </trkpt>
      <trkpt lat="47.28646" lon="-2.23416">
        <ele>-14.60000038147</ele>
        <time>2021-07-18T08:41:57.000Z</time>
      </trkpt>
      <trkpt lat="47.28644" lon="-2.234">
        <ele>-14.60000038147</ele>
        <time>2021-07-18T08:41:59.000Z</time>
      </trkpt>
      <trkpt lat="47.28644" lon="-2.23376">
        <ele>-14.60000038147</ele>
        <time>2021-07-18T08:42:02.000Z</time>
      </trkpt>
      <trkpt lat="47.28649" lon="-2.23362">
        <ele>-14.60000038147</ele>
        <time>2021-07-18T08:42:05.000Z</time>
      </trkpt>
      <trkpt lat="47.2865" lon="-2.23362">
        <ele>-14.60000038147</ele>
        <time>2021-07-18T08:42:06.000Z</time>
      </trkpt>
      <trkpt lat="47.28653" lon="-2.23364">
        <ele>-14.60000038147</ele>
        <time>2021-07-18T08:42:07.000Z</time>
      </trkpt>
      <trkpt lat="47.28659" lon="-2.23366">
        <ele>-14.60000038147</ele>
        <time>2021-07-18T08:42:10.000Z</time>
      </trkpt>
      <trkpt lat="47.28664" lon="-2.23357">
        <ele>-14.60000038147</ele>
        <time>2021-07-18T08:42:14.000Z</time>
      </trkpt>
      <trkpt lat="47.28665" lon="-2.23345">
        <ele>-14.60000038147</ele>
        <time>2021-07-18T08:42:17.000Z</time>
      </trkpt>
      <trkpt lat="47.28668" lon="-2.23331">
        <ele>-14.60000038147</ele>
        <time>2021-07-18T08:42:20.000Z</time>
      </trkpt>
      <trkpt lat="47.2867" lon="-2.23322">
        <ele>-14.60000038147</ele>
        <time>2021-07-18T08:42:23.000Z</time>
      </trkpt>
      <trkpt lat="47.28672" lon="-2.23312">
        <ele>-14.199999809265</ele>
        <time>2021-07-18T08:42:26.000Z</time>
      </trkpt>
      <trkpt lat="47.28672" lon="-2.23308">
        <ele>-13.800000190735</ele>
        <time>2021-07-18T08:42:27.000Z</time>
      </trkpt>
      <trkpt lat="47.28673" lon="-2.23306">
        <ele>-13.39999961853</ele>
        <time>2021-07-18T08:42:28.000Z</time>
      </trkpt>
      <trkpt lat="47.28673" lon="-2.233">
        <ele>-13</ele>
        <time>2021-07-18T08:42:29.000Z</time>
      </trkpt>
      <trkpt lat="47.28673" lon="-2.23292">
        <ele>-12.60000038147</ele>
        <time>2021-07-18T08:42:30.000Z</time>
      </trkpt>
      <trkpt lat="47.28673" lon="-2.23276">
        <ele>-12.60000038147</ele>
        <time>2021-07-18T08:42:33.000Z</time>
      </trkpt>
      <trkpt lat="47.28676" lon="-2.23252">
        <ele>-12.60000038147</ele>
        <time>2021-07-18T08:42:38.000Z</time>
      </trkpt>
      <trkpt lat="47.28678" lon="-2.23219">
        <ele>-12.60000038147</ele>
        <time>2021-07-18T08:42:44.000Z</time>
      </trkpt>
      <trkpt lat="47.28668" lon="-2.23199">
        <ele>-12.60000038147</ele>
        <time>2021-07-18T08:42:47.000Z</time>
      </trkpt>
      <trkpt lat="47.28663" lon="-2.23195">
        <ele>-13</ele>
        <time>2021-07-18T08:42:48.000Z</time>
      </trkpt>
      <trkpt lat="47.28659" lon="-2.23191">
        <ele>-13.39999961853</ele>
        <time>2021-07-18T08:42:49.000Z</time>
      </trkpt>
      <trkpt lat="47.28654" lon="-2.23188">
        <ele>-13.800000190735</ele>
        <time>2021-07-18T08:42:50.000Z</time>
      </trkpt>
      <trkpt lat="47.28649" lon="-2.23186">
        <ele>-14.60000038147</ele>
        <time>2021-07-18T08:42:51.000Z</time>
      </trkpt>
      <trkpt lat="47.2863" lon="-2.23192">
        <ele>-14.60000038147</ele>
        <time>2021-07-18T08:42:55.000Z</time>
      </trkpt>
      <trkpt lat="47.28615" lon="-2.23202">
        <ele>-14.60000038147</ele>
        <time>2021-07-18T08:42:58.000Z</time>
      </trkpt>
      <trkpt lat="47.28601" lon="-2.23218">
        <ele>-14.60000038147</ele>
        <time>2021-07-18T08:43:01.000Z</time>
      </trkpt>
      <trkpt lat="47.28592" lon="-2.23247">
        <ele>-14.60000038147</ele>
        <time>2021-07-18T08:43:05.000Z</time>
      </trkpt>
      <trkpt lat="47.28588" lon="-2.2327">
        <ele>-14.60000038147</ele>
        <time>2021-07-18T08:43:08.000Z</time>
      </trkpt>
      <trkpt lat="47.2859" lon="-2.23285">
        <ele>-14.60000038147</ele>
        <time>2021-07-18T08:43:10.000Z</time>
      </trkpt>
      <trkpt lat="47.28599" lon="-2.23303">
        <ele>-14.60000038147</ele>
        <time>2021-07-18T08:43:13.000Z</time>
      </trkpt>
      <trkpt lat="47.28622" lon="-2.23308">
        <ele>-14.60000038147</ele>
        <time>2021-07-18T08:43:17.000Z</time>
      </trkpt>
      <trkpt lat="47.28642" lon="-2.23304">
        <ele>-14.60000038147</ele>
        <time>2021-07-18T08:43:21.000Z</time>
      </trkpt>
      <trkpt lat="47.28646" lon="-2.23303">
        <ele>-14.60000038147</ele>
        <time>2021-07-18T08:43:22.000Z</time>
      </trkpt>
      <trkpt lat="47.28659" lon="-2.23306">
        <ele>-14.60000038147</ele>
        <time>2021-07-18T08:43:25.000Z</time>
      </trkpt>
      <trkpt lat="47.28669" lon="-2.23303">
        <ele>-14.60000038147</ele>
        <time>2021-07-18T08:43:29.000Z</time>
      </trkpt>
      <trkpt lat="47.28669" lon="-2.23301">
        <ele>-14.199999809265</ele>
        <time>2021-07-18T08:43:30.000Z</time>
      </trkpt>
      <trkpt lat="47.28669" lon="-2.23299">
        <ele>-13.800000190735</ele>
        <time>2021-07-18T08:43:31.000Z</time>
      </trkpt>
      <trkpt lat="47.28668" lon="-2.23298">
        <ele>-13.39999961853</ele>
        <time>2021-07-18T08:43:32.000Z</time>
      </trkpt>
      <trkpt lat="47.28668" lon="-2.23297">
        <ele>-13</ele>
        <time>2021-07-18T08:43:33.000Z</time>
      </trkpt>
      <trkpt lat="47.28667" lon="-2.23297">
        <ele>-12.60000038147</ele>
        <time>2021-07-18T08:43:34.000Z</time>
      </trkpt>
      <trkpt lat="47.28666" lon="-2.23298">
        <ele>-12.60000038147</ele>
        <time>2021-07-18T08:43:35.000Z</time>
      </trkpt>
      <trkpt lat="47.28664" lon="-2.23305">
        <ele>-12.60000038147</ele>
        <time>2021-07-18T08:43:37.000Z</time>
      </trkpt>
      <trkpt lat="47.28661" lon="-2.23315">
        <ele>-13</ele>
        <time>2021-07-18T08:43:40.000Z</time>
      </trkpt>
      <trkpt lat="47.2866" lon="-2.23317">
        <ele>-13.60000038147</ele>
        <time>2021-07-18T08:43:41.000Z</time>
      </trkpt>
      <trkpt lat="47.2866" lon="-2.23318">
        <ele>-14</ele>
        <time>2021-07-18T08:43:42.000Z</time>
      </trkpt>
      <trkpt lat="47.28659" lon="-2.23318">
        <ele>-14.39999961853</ele>
        <time>2021-07-18T08:43:43.000Z</time>
      </trkpt>
      <trkpt lat="47.28659" lon="-2.23321">
        <ele>-15</ele>
        <time>2021-07-18T08:45:08.000Z</time>
      </trkpt>
      <trkpt lat="47.2866" lon="-2.23327">
        <ele>-15</ele>
        <time>2021-07-18T08:45:10.000Z</time>
      </trkpt>
      <trkpt lat="47.28657" lon="-2.23355">
        <ele>-15</ele>
        <time>2021-07-18T08:45:17.000Z</time>
      </trkpt>
      <trkpt lat="47.28654" lon="-2.23383">
        <ele>-15</ele>
        <time>2021-07-18T08:45:22.000Z</time>
      </trkpt>
      <trkpt lat="47.28651" lon="-2.23395">
        <ele>-15</ele>
        <time>2021-07-18T08:45:24.000Z</time>
      </trkpt>
      <trkpt lat="47.28653" lon="-2.23406">
        <ele>-15</ele>
        <time>2021-07-18T08:45:26.000Z</time>
      </trkpt>
      <trkpt lat="47.28658" lon="-2.23432">
        <ele>-14.39999961853</ele>
        <time>2021-07-18T08:45:30.000Z</time>
      </trkpt>
      <trkpt lat="47.2866" lon="-2.23438">
        <ele>-14</ele>
        <time>2021-07-18T08:45:31.000Z</time>
      </trkpt>
      <trkpt lat="47.28662" lon="-2.23444">
        <ele>-13.60000038147</ele>
        <time>2021-07-18T08:45:32.000Z</time>
      </trkpt>
      <trkpt lat="47.28663" lon="-2.23449">
        <ele>-13.199999809265</ele>
        <time>2021-07-18T08:45:33.000Z</time>
      </trkpt>
      <trkpt lat="47.28664" lon="-2.23455">
        <ele>-12.800000190735</ele>
        <time>2021-07-18T08:45:34.000Z</time>
      </trkpt>
      <trkpt lat="47.28666" lon="-2.23471">
        <ele>-12.800000190735</ele>
        <time>2021-07-18T08:45:37.000Z</time>
      </trkpt>
      <trkpt lat="47.28661" lon="-2.23515">
        <ele>-12.800000190735</ele>
        <time>2021-07-18T08:45:43.000Z</time>
      </trkpt>
      <trkpt lat="47.2866" lon="-2.23524">
        <ele>-12.800000190735</ele>
        <time>2021-07-18T08:45:44.000Z</time>
      </trkpt>
      <trkpt lat="47.28657" lon="-2.23548">
        <ele>-12.800000190735</ele>
        <time>2021-07-18T08:45:47.000Z</time>
      </trkpt>
      <trkpt lat="47.28662" lon="-2.23558">
        <ele>-12.800000190735</ele>
        <time>2021-07-18T08:45:50.000Z</time>
      </trkpt>
      <trkpt lat="47.28665" lon="-2.23559">
        <ele>-12.800000190735</ele>
        <time>2021-07-18T08:45:51.000Z</time>
      </trkpt>
      <trkpt lat="47.28673" lon="-2.23565">
        <ele>-12.800000190735</ele>
        <time>2021-07-18T08:45:53.000Z</time>
      </trkpt>
      <trkpt lat="47.28681" lon="-2.23575">
        <ele>-12.800000190735</ele>
        <time>2021-07-18T08:45:55.000Z</time>
      </trkpt>
      <trkpt lat="47.28688" lon="-2.23586">
        <ele>-12.800000190735</ele>
        <time>2021-07-18T08:45:57.000Z</time>
      </trkpt>
      <trkpt lat="47.28693" lon="-2.23591">
        <ele>-12.800000190735</ele>
        <time>2021-07-18T08:45:59.000Z</time>
      </trkpt>
      <trkpt lat="47.28701" lon="-2.23592">
        <ele>-12.800000190735</ele>
        <time>2021-07-18T08:46:01.000Z</time>
      </trkpt>
      <trkpt lat="47.28707" lon="-2.2359">
        <ele>-12.800000190735</ele>
        <time>2021-07-18T08:46:03.000Z</time>
      </trkpt>
      <trkpt lat="47.28711" lon="-2.23586">
        <ele>-12.800000190735</ele>
        <time>2021-07-18T08:46:05.000Z</time>
      </trkpt>
      <trkpt lat="47.28722" lon="-2.23564">
        <ele>-12.800000190735</ele>
        <time>2021-07-18T08:46:11.000Z</time>
      </trkpt>
      <trkpt lat="47.28735" lon="-2.23545">
        <ele>-12.800000190735</ele>
        <time>2021-07-18T08:46:17.000Z</time>
      </trkpt>
      <trkpt lat="47.28752" lon="-2.23531">
        <ele>-12.800000190735</ele>
        <time>2021-07-18T08:46:23.000Z</time>
      </trkpt>
      <trkpt lat="47.28755" lon="-2.23529">
        <ele>-12.39999961853</ele>
        <time>2021-07-18T08:46:24.000Z</time>
      </trkpt>
      <trkpt lat="47.28758" lon="-2.23525">
        <ele>-11.800000190735</ele>
        <time>2021-07-18T08:46:25.000Z</time>
      </trkpt>
      <trkpt lat="47.28763" lon="-2.23523">
        <ele>-11.39999961853</ele>
        <time>2021-07-18T08:46:26.000Z</time>
      </trkpt>
      <trkpt lat="47.28767" lon="-2.23521">
        <ele>-11</ele>
        <time>2021-07-18T08:46:27.000Z</time>
      </trkpt>
      <trkpt lat="47.28771" lon="-2.23519">
        <ele>-10.60000038147</ele>
        <time>2021-07-18T08:46:28.000Z</time>
      </trkpt>
      <trkpt lat="47.28797" lon="-2.2351">
        <ele>-10.60000038147</ele>
        <time>2021-07-18T08:46:34.000Z</time>
      </trkpt>
      <trkpt lat="47.28801" lon="-2.2351">
        <ele>-10.199999809265</ele>
        <time>2021-07-18T08:46:35.000Z</time>
      </trkpt>
      <trkpt lat="47.28805" lon="-2.23509">
        <ele>-9.8000001907349</ele>
        <time>2021-07-18T08:46:36.000Z</time>
      </trkpt>
      <trkpt lat="47.28809" lon="-2.23509">
        <ele>-9.3999996185303</ele>
        <time>2021-07-18T08:46:37.000Z</time>
      </trkpt>
      <trkpt lat="47.28813" lon="-2.23509">
        <ele>-9</ele>
        <time>2021-07-18T08:46:38.000Z</time>
      </trkpt>
      <trkpt lat="47.28817" lon="-2.23509">
        <ele>-8.6000003814697</ele>
        <time>2021-07-18T08:46:39.000Z</time>
      </trkpt>
      <trkpt lat="47.28824" lon="-2.23509">
        <ele>-8.6000003814697</ele>
        <time>2021-07-18T08:46:41.000Z</time>
      </trkpt>
      <trkpt lat="47.2885" lon="-2.23507">
        <ele>-8.1999998092651</ele>
        <time>2021-07-18T08:46:47.000Z</time>
      </trkpt>
      <trkpt lat="47.28855" lon="-2.23506">
        <ele>-7.8000001907349</ele>
        <time>2021-07-18T08:46:48.000Z</time>
      </trkpt>
      <trkpt lat="47.28859" lon="-2.23506">
        <ele>-7.4000000953674</ele>
        <time>2021-07-18T08:46:49.000Z</time>
      </trkpt>
      <trkpt lat="47.28864" lon="-2.23505">
        <ele>-7</ele>
        <time>2021-07-18T08:46:50.000Z</time>
      </trkpt>
      <trkpt lat="47.28869" lon="-2.23504">
        <ele>-6.5999999046326</ele>
        <time>2021-07-18T08:46:51.000Z</time>
      </trkpt>
      <trkpt lat="47.28891" lon="-2.23504">
        <ele>-6.5999999046326</ele>
        <time>2021-07-18T08:46:56.000Z</time>
      </trkpt>
      <trkpt lat="47.28919" lon="-2.23497">
        <ele>-6.1999998092651</ele>
        <time>2021-07-18T08:47:03.000Z</time>
      </trkpt>
      <trkpt lat="47.28923" lon="-2.23496">
        <ele>-5.8000001907349</ele>
        <time>2021-07-18T08:47:04.000Z</time>
      </trkpt>
      <trkpt lat="47.28927" lon="-2.23494">
        <ele>-5.1999998092651</ele>
        <time>2021-07-18T08:47:05.000Z</time>
      </trkpt>
      <trkpt lat="47.28932" lon="-2.23493">
        <ele>-4.8000001907349</ele>
        <time>2021-07-18T08:47:06.000Z</time>
      </trkpt>
      <trkpt lat="47.28936" lon="-2.23492">
        <ele>-4.4000000953674</ele>
        <time>2021-07-18T08:47:07.000Z</time>
      </trkpt>
      <trkpt lat="47.28944" lon="-2.23491">
        <ele>-4.4000000953674</ele>
        <time>2021-07-18T08:47:09.000Z</time>
      </trkpt>
      <trkpt lat="47.28958" lon="-2.23486">
        <ele>-4.4000000953674</ele>
        <time>2021-07-18T08:47:13.000Z</time>
      </trkpt>
      <trkpt lat="47.2896" lon="-2.23481">
        <ele>-4.4000000953674</ele>
        <time>2021-07-18T08:47:14.000Z</time>
      </trkpt>
      <trkpt lat="47.2896" lon="-2.23461">
        <ele>-4.4000000953674</ele>
        <time>2021-07-18T08:47:17.000Z</time>
      </trkpt>
      <trkpt lat="47.28965" lon="-2.2341">
        <ele>-4.4000000953674</ele>
        <time>2021-07-18T08:47:24.000Z</time>
      </trkpt>
      <trkpt lat="47.28972" lon="-2.23349">
        <ele>-4.4000000953674</ele>
        <time>2021-07-18T08:47:32.000Z</time>
      </trkpt>
      <trkpt lat="47.28979" lon="-2.23287">
        <ele>-4.4000000953674</ele>
        <time>2021-07-18T08:47:39.000Z</time>
      </trkpt>
      <trkpt lat="47.28986" lon="-2.23211">
        <ele>-4.4000000953674</ele>
        <time>2021-07-18T08:47:47.000Z</time>
      </trkpt>
      <trkpt lat="47.28988" lon="-2.23184">
        <ele>-4.8000001907349</ele>
        <time>2021-07-18T08:47:50.000Z</time>
      </trkpt>
      <trkpt lat="47.28989" lon="-2.23175">
        <ele>-5.1999998092651</ele>
        <time>2021-07-18T08:47:51.000Z</time>
      </trkpt>
      <trkpt lat="47.2899" lon="-2.23166">
        <ele>-5.5999999046326</ele>
        <time>2021-07-18T08:47:52.000Z</time>
      </trkpt>
      <trkpt lat="47.28992" lon="-2.23156">
        <ele>-6</ele>
        <time>2021-07-18T08:47:53.000Z</time>
      </trkpt>
      <trkpt lat="47.28993" lon="-2.23147">
        <ele>-6.5999999046326</ele>
        <time>2021-07-18T08:47:54.000Z</time>
      </trkpt>
      <trkpt lat="47.28995" lon="-2.23127">
        <ele>-6.5999999046326</ele>
        <time>2021-07-18T08:47:56.000Z</time>
      </trkpt>
      <trkpt lat="47.29" lon="-2.23096">
        <ele>-7</ele>
        <time>2021-07-18T08:47:59.000Z</time>
      </trkpt>
      <trkpt lat="47.29001" lon="-2.23086">
        <ele>-7.8000001907349</ele>
        <time>2021-07-18T08:48:00.000Z</time>
      </trkpt>
      <trkpt lat="47.29002" lon="-2.23076">
        <ele>-8.3999996185303</ele>
        <time>2021-07-18T08:48:01.000Z</time>
      </trkpt>
      <trkpt lat="47.29005" lon="-2.23066">
        <ele>-8.8000001907349</ele>
        <time>2021-07-18T08:48:02.000Z</time>
      </trkpt>
      <trkpt lat="47.29007" lon="-2.23056">
        <ele>-8.8000001907349</ele>
        <time>2021-07-18T08:48:03.000Z</time>
      </trkpt>
      <trkpt lat="47.29015" lon="-2.23029">
        <ele>-9.1999998092651</ele>
        <time>2021-07-18T08:48:06.000Z</time>
      </trkpt>
      <trkpt lat="47.29018" lon="-2.2302">
        <ele>-9.6000003814697</ele>
        <time>2021-07-18T08:48:07.000Z</time>
      </trkpt>
      <trkpt lat="47.2902" lon="-2.23011">
        <ele>-10.199999809265</ele>
        <time>2021-07-18T08:48:08.000Z</time>
      </trkpt>
      <trkpt lat="47.29022" lon="-2.23002">
        <ele>-10.60000038147</ele>
        <time>2021-07-18T08:48:09.000Z</time>
      </trkpt>
      <trkpt lat="47.29025" lon="-2.22997">
        <ele>-11</ele>
        <time>2021-07-18T08:48:10.000Z</time>
      </trkpt>
      <trkpt lat="47.29027" lon="-2.22983">
        <ele>-11</ele>
        <time>2021-07-18T08:48:12.000Z</time>
      </trkpt>
      <trkpt lat="47.29028" lon="-2.22977">
        <ele>-11.39999961853</ele>
        <time>2021-07-18T08:48:13.000Z</time>
      </trkpt>
      <trkpt lat="47.29031" lon="-2.22972">
        <ele>-11.800000190735</ele>
        <time>2021-07-18T08:48:14.000Z</time>
      </trkpt>
      <trkpt lat="47.29035" lon="-2.22972">
        <ele>-12.39999961853</ele>
        <time>2021-07-18T08:48:15.000Z</time>
      </trkpt>
      <trkpt lat="47.2904" lon="-2.22974">
        <ele>-12.800000190735</ele>
        <time>2021-07-18T08:48:16.000Z</time>
      </trkpt>
      <trkpt lat="47.29044" lon="-2.22979">
        <ele>-13.199999809265</ele>
        <time>2021-07-18T08:48:17.000Z</time>
      </trkpt>
      <trkpt lat="47.29047" lon="-2.22985">
        <ele>-13.199999809265</ele>
        <time>2021-07-18T08:48:18.000Z</time>
      </trkpt>
      <trkpt lat="47.29063" lon="-2.23009">
        <ele>-13.199999809265</ele>
        <time>2021-07-18T08:48:22.000Z</time>
      </trkpt>
      <trkpt lat="47.29071" lon="-2.2302">
        <ele>-13.199999809265</ele>
        <time>2021-07-18T08:48:24.000Z</time>
      </trkpt>
      <trkpt lat="47.2908" lon="-2.23032">
        <ele>-13.199999809265</ele>
        <time>2021-07-18T08:48:26.000Z</time>
      </trkpt>
      <trkpt lat="47.29084" lon="-2.23038">
        <ele>-13.199999809265</ele>
        <time>2021-07-18T08:48:27.000Z</time>
      </trkpt>
      <trkpt lat="47.29128" lon="-2.23094">
        <ele>-13.199999809265</ele>
        <time>2021-07-18T08:48:37.000Z</time>
      </trkpt>
      <trkpt lat="47.29164" lon="-2.2314">
        <ele>-13.199999809265</ele>
        <time>2021-07-18T08:48:45.000Z</time>
      </trkpt>
      <trkpt lat="47.29189" lon="-2.23174">
        <ele>-13.199999809265</ele>
        <time>2021-07-18T08:48:51.000Z</time>
      </trkpt>
      <trkpt lat="47.29201" lon="-2.23198">
        <ele>-13.199999809265</ele>
        <time>2021-07-18T08:48:55.000Z</time>
      </trkpt>
      <trkpt lat="47.29202" lon="-2.23206">
        <ele>-13.199999809265</ele>
        <time>2021-07-18T08:48:56.000Z</time>
      </trkpt>
      <trkpt lat="47.29205" lon="-2.23223">
        <ele>-13.199999809265</ele>
        <time>2021-07-18T08:48:58.000Z</time>
      </trkpt>
      <trkpt lat="47.29213" lon="-2.23237">
        <ele>-13.199999809265</ele>
        <time>2021-07-18T08:49:00.000Z</time>
      </trkpt>
      <trkpt lat="47.29227" lon="-2.23254">
        <ele>-13.199999809265</ele>
        <time>2021-07-18T08:49:03.000Z</time>
      </trkpt>
      <trkpt lat="47.29231" lon="-2.2326">
        <ele>-13.199999809265</ele>
        <time>2021-07-18T08:49:04.000Z</time>
      </trkpt>
      <trkpt lat="47.2926" lon="-2.23306">
        <ele>-13.199999809265</ele>
        <time>2021-07-18T08:49:11.000Z</time>
      </trkpt>
      <trkpt lat="47.29263" lon="-2.23314">
        <ele>-13.199999809265</ele>
        <time>2021-07-18T08:49:12.000Z</time>
      </trkpt>
      <trkpt lat="47.2927" lon="-2.2334">
        <ele>-13.199999809265</ele>
        <time>2021-07-18T08:49:15.000Z</time>
      </trkpt>
      <trkpt lat="47.29274" lon="-2.23358">
        <ele>-13.199999809265</ele>
        <time>2021-07-18T08:49:17.000Z</time>
      </trkpt>
      <trkpt lat="47.2928" lon="-2.23392">
        <ele>-13.199999809265</ele>
        <time>2021-07-18T08:49:21.000Z</time>
      </trkpt>
      <trkpt lat="47.29293" lon="-2.2346">
        <ele>-13.199999809265</ele>
        <time>2021-07-18T08:49:29.000Z</time>
      </trkpt>
      <trkpt lat="47.29299" lon="-2.23494">
        <ele>-13.199999809265</ele>
        <time>2021-07-18T08:49:33.000Z</time>
      </trkpt>
      <trkpt lat="47.29302" lon="-2.23511">
        <ele>-13.199999809265</ele>
        <time>2021-07-18T08:49:35.000Z</time>
      </trkpt>
      <trkpt lat="47.29311" lon="-2.23571">
        <ele>-13.199999809265</ele>
        <time>2021-07-18T08:49:42.000Z</time>
      </trkpt>
      <trkpt lat="47.29314" lon="-2.2362">
        <ele>-13.199999809265</ele>
        <time>2021-07-18T08:49:48.000Z</time>
      </trkpt>
      <trkpt lat="47.29316" lon="-2.23678">
        <ele>-13.199999809265</ele>
        <time>2021-07-18T08:49:55.000Z</time>
      </trkpt>
      <trkpt lat="47.29316" lon="-2.23744">
        <ele>-13.199999809265</ele>
        <time>2021-07-18T08:50:03.000Z</time>
      </trkpt>
      <trkpt lat="47.29318" lon="-2.23806">
        <ele>-13.199999809265</ele>
        <time>2021-07-18T08:50:10.000Z</time>
      </trkpt>
      <trkpt lat="47.29321" lon="-2.23874">
        <ele>-13.199999809265</ele>
        <time>2021-07-18T08:50:17.000Z</time>
      </trkpt>
      <trkpt lat="47.29331" lon="-2.2391">
        <ele>-13.199999809265</ele>
        <time>2021-07-18T08:50:21.000Z</time>
      </trkpt>
      <trkpt lat="47.29334" lon="-2.23918">
        <ele>-13.199999809265</ele>
        <time>2021-07-18T08:50:22.000Z</time>
      </trkpt>
      <trkpt lat="47.29357" lon="-2.2396">
        <ele>-13.199999809265</ele>
        <time>2021-07-18T08:50:28.000Z</time>
      </trkpt>
      <trkpt lat="47.29359" lon="-2.23967">
        <ele>-13.199999809265</ele>
        <time>2021-07-18T08:50:29.000Z</time>
      </trkpt>
      <trkpt lat="47.29356" lon="-2.23976">
        <ele>-13.199999809265</ele>
        <time>2021-07-18T08:50:31.000Z</time>
      </trkpt>
      <trkpt lat="47.29343" lon="-2.23977">
        <ele>-13.199999809265</ele>
        <time>2021-07-18T08:50:34.000Z</time>
      </trkpt>
      <trkpt lat="47.29337" lon="-2.23977">
        <ele>-13.199999809265</ele>
        <time>2021-07-18T08:50:35.000Z</time>
      </trkpt>
      <trkpt lat="47.29315" lon="-2.23975">
        <ele>-13.199999809265</ele>
        <time>2021-07-18T08:50:39.000Z</time>
      </trkpt>
      <trkpt lat="47.2931" lon="-2.23974">
        <ele>-13.199999809265</ele>
        <time>2021-07-18T08:50:40.000Z</time>
      </trkpt>
      <trkpt lat="47.29289" lon="-2.23967">
        <ele>-13.199999809265</ele>
        <time>2021-07-18T08:50:44.000Z</time>
      </trkpt>
      <trkpt lat="47.29261" lon="-2.23975">
        <ele>-13.199999809265</ele>
        <time>2021-07-18T08:50:49.000Z</time>
      </trkpt>
      <trkpt lat="47.2925" lon="-2.23981">
        <ele>-13.199999809265</ele>
        <time>2021-07-18T08:50:51.000Z</time>
      </trkpt>
      <trkpt lat="47.29232" lon="-2.23995">
        <ele>-13.199999809265</ele>
        <time>2021-07-18T08:50:55.000Z</time>
      </trkpt>
      <trkpt lat="47.29213" lon="-2.24014">
        <ele>-13.199999809265</ele>
        <time>2021-07-18T08:51:00.000Z</time>
      </trkpt>
      <trkpt lat="47.29209" lon="-2.24017">
        <ele>-12.800000190735</ele>
        <time>2021-07-18T08:51:01.000Z</time>
      </trkpt>
      <trkpt lat="47.29205" lon="-2.2402">
        <ele>-12.39999961853</ele>
        <time>2021-07-18T08:51:02.000Z</time>
      </trkpt>
      <trkpt lat="47.292" lon="-2.24024">
        <ele>-12</ele>
        <time>2021-07-18T08:51:03.000Z</time>
      </trkpt>
      <trkpt lat="47.29196" lon="-2.24028">
        <ele>-11.60000038147</ele>
        <time>2021-07-18T08:51:04.000Z</time>
      </trkpt>
      <trkpt lat="47.29192" lon="-2.24031">
        <ele>-11.199999809265</ele>
        <time>2021-07-18T08:51:05.000Z</time>
      </trkpt>
      <trkpt lat="47.29158" lon="-2.24056">
        <ele>-11.199999809265</ele>
        <time>2021-07-18T08:51:13.000Z</time>
      </trkpt>
      <trkpt lat="47.29152" lon="-2.24059">
        <ele>-10.800000190735</ele>
        <time>2021-07-18T08:51:14.000Z</time>
      </trkpt>
      <trkpt lat="47.29147" lon="-2.24061">
        <ele>-10.39999961853</ele>
        <time>2021-07-18T08:51:15.000Z</time>
      </trkpt>
      <trkpt lat="47.29141" lon="-2.24064">
        <ele>-10</ele>
        <time>2021-07-18T08:51:16.000Z</time>
      </trkpt>
      <trkpt lat="47.29135" lon="-2.24067">
        <ele>-9</ele>
        <time>2021-07-18T08:51:17.000Z</time>
      </trkpt>
      <trkpt lat="47.29125" lon="-2.24075">
        <ele>-9</ele>
        <time>2021-07-18T08:51:19.000Z</time>
      </trkpt>
      <trkpt lat="47.29123" lon="-2.24081">
        <ele>-9</ele>
        <time>2021-07-18T08:51:20.000Z</time>
      </trkpt>
      <trkpt lat="47.29125" lon="-2.24095">
        <ele>-8.6000003814697</ele>
        <time>2021-07-18T08:51:22.000Z</time>
      </trkpt>
      <trkpt lat="47.29126" lon="-2.24101">
        <ele>-8.1999998092651</ele>
        <time>2021-07-18T08:51:23.000Z</time>
      </trkpt>
      <trkpt lat="47.29127" lon="-2.24108">
        <ele>-7.8000001907349</ele>
        <time>2021-07-18T08:51:24.000Z</time>
      </trkpt>
      <trkpt lat="47.29128" lon="-2.24114">
        <ele>-7.4000000953674</ele>
        <time>2021-07-18T08:51:25.000Z</time>
      </trkpt>
      <trkpt lat="47.2913" lon="-2.2412">
        <ele>-7</ele>
        <time>2021-07-18T08:51:26.000Z</time>
      </trkpt>
      <trkpt lat="47.29132" lon="-2.24132">
        <ele>-7</ele>
        <time>2021-07-18T08:51:28.000Z</time>
      </trkpt>
      <trkpt lat="47.29133" lon="-2.2415">
        <ele>-7</ele>
        <time>2021-07-18T08:51:31.000Z</time>
      </trkpt>
      <trkpt lat="47.29134" lon="-2.24156">
        <ele>-7</ele>
        <time>2021-07-18T08:51:32.000Z</time>
      </trkpt>
      <trkpt lat="47.29147" lon="-2.24198">
        <ele>-7</ele>
        <time>2021-07-18T08:51:38.000Z</time>
      </trkpt>
      <trkpt lat="47.29165" lon="-2.24257">
        <ele>-7</ele>
        <time>2021-07-18T08:51:46.000Z</time>
      </trkpt>
      <trkpt lat="47.29179" lon="-2.24306">
        <ele>-7</ele>
        <time>2021-07-18T08:51:52.000Z</time>
      </trkpt>
      <trkpt lat="47.29201" lon="-2.24352">
        <ele>-7</ele>
        <time>2021-07-18T08:51:58.000Z</time>
      </trkpt>
      <trkpt lat="47.29205" lon="-2.24359">
        <ele>-7</ele>
        <time>2021-07-18T08:51:59.000Z</time>
      </trkpt>
      <trkpt lat="47.29224" lon="-2.24413">
        <ele>-7</ele>
        <time>2021-07-18T08:52:06.000Z</time>
      </trkpt>
      <trkpt lat="47.29233" lon="-2.24459">
        <ele>-7</ele>
        <time>2021-07-18T08:52:12.000Z</time>
      </trkpt>
      <trkpt lat="47.29235" lon="-2.24464">
        <ele>-7</ele>
        <time>2021-07-18T08:52:13.000Z</time>
      </trkpt>
      <trkpt lat="47.2924" lon="-2.24469">
        <ele>-7</ele>
        <time>2021-07-18T08:52:15.000Z</time>
      </trkpt>
      <trkpt lat="47.29253" lon="-2.24465">
        <ele>-7</ele>
        <time>2021-07-18T08:52:19.000Z</time>
      </trkpt>
      <trkpt lat="47.29274" lon="-2.24455">
        <ele>-7</ele>
        <time>2021-07-18T08:52:26.000Z</time>
      </trkpt>
      <trkpt lat="47.29289" lon="-2.24456">
        <ele>-7</ele>
        <time>2021-07-18T08:52:31.000Z</time>
      </trkpt>
      <trkpt lat="47.2929" lon="-2.24461">
        <ele>-7</ele>
        <time>2021-07-18T08:52:32.000Z</time>
      </trkpt>
      <trkpt lat="47.29293" lon="-2.24491">
        <ele>-7</ele>
        <time>2021-07-18T08:52:37.000Z</time>
      </trkpt>
      <trkpt lat="47.29294" lon="-2.24543">
        <ele>-7</ele>
        <time>2021-07-18T08:52:43.000Z</time>
      </trkpt>
      <trkpt lat="47.29299" lon="-2.24582">
        <ele>-7</ele>
        <time>2021-07-18T08:52:47.000Z</time>
      </trkpt>
      <trkpt lat="47.29299" lon="-2.246">
        <ele>-7</ele>
        <time>2021-07-18T08:52:49.000Z</time>
      </trkpt>
      <trkpt lat="47.29296" lon="-2.24643">
        <ele>-7</ele>
        <time>2021-07-18T08:52:54.000Z</time>
      </trkpt>
      <trkpt lat="47.29298" lon="-2.24673">
        <ele>-6.5999999046326</ele>
        <time>2021-07-18T08:52:58.000Z</time>
      </trkpt>
      <trkpt lat="47.293" lon="-2.24681">
        <ele>-6</ele>
        <time>2021-07-18T08:52:59.000Z</time>
      </trkpt>
      <trkpt lat="47.29302" lon="-2.24688">
        <ele>-5.5999999046326</ele>
        <time>2021-07-18T08:53:00.000Z</time>
      </trkpt>
      <trkpt lat="47.29304" lon="-2.24695">
        <ele>-5.1999998092651</ele>
        <time>2021-07-18T08:53:01.000Z</time>
      </trkpt>
      <trkpt lat="47.29306" lon="-2.24703">
        <ele>-4.5999999046326</ele>
        <time>2021-07-18T08:53:02.000Z</time>
      </trkpt>
      <trkpt lat="47.29312" lon="-2.24725">
        <ele>-4.5999999046326</ele>
        <time>2021-07-18T08:53:05.000Z</time>
      </trkpt>
      <trkpt lat="47.29324" lon="-2.24765">
        <ele>-4.5999999046326</ele>
        <time>2021-07-18T08:53:10.000Z</time>
      </trkpt>
      <trkpt lat="47.29326" lon="-2.24772">
        <ele>-4.5999999046326</ele>
        <time>2021-07-18T08:53:11.000Z</time>
      </trkpt>
      <trkpt lat="47.29331" lon="-2.24786">
        <ele>-4.5999999046326</ele>
        <time>2021-07-18T08:53:13.000Z</time>
      </trkpt>
      <trkpt lat="47.29336" lon="-2.24816">
        <ele>-4.5999999046326</ele>
        <time>2021-07-18T08:53:17.000Z</time>
      </trkpt>
      <trkpt lat="47.29337" lon="-2.24823">
        <ele>-4.5999999046326</ele>
        <time>2021-07-18T08:53:18.000Z</time>
      </trkpt>
      <trkpt lat="47.29339" lon="-2.24863">
        <ele>-4.5999999046326</ele>
        <time>2021-07-18T08:53:23.000Z</time>
      </trkpt>
      <trkpt lat="47.29336" lon="-2.24885">
        <ele>-4.5999999046326</ele>
        <time>2021-07-18T08:53:27.000Z</time>
      </trkpt>
      <trkpt lat="47.29329" lon="-2.24906">
        <ele>-4.5999999046326</ele>
        <time>2021-07-18T08:53:31.000Z</time>
      </trkpt>
      <trkpt lat="47.29326" lon="-2.2491">
        <ele>-4.5999999046326</ele>
        <time>2021-07-18T08:53:32.000Z</time>
      </trkpt>
      <trkpt lat="47.29312" lon="-2.24915">
        <ele>-4.5999999046326</ele>
        <time>2021-07-18T08:53:35.000Z</time>
      </trkpt>
      <trkpt lat="47.29307" lon="-2.24914">
        <ele>-4.5999999046326</ele>
        <time>2021-07-18T08:53:36.000Z</time>
      </trkpt>
      <trkpt lat="47.29302" lon="-2.24914">
        <ele>-4.1999998092651</ele>
        <time>2021-07-18T08:53:37.000Z</time>
      </trkpt>
      <trkpt lat="47.29297" lon="-2.24916">
        <ele>-3.7999999523163</ele>
        <time>2021-07-18T08:53:38.000Z</time>
      </trkpt>
      <trkpt lat="47.29292" lon="-2.24916">
        <ele>-3.4000000953674</ele>
        <time>2021-07-18T08:53:39.000Z</time>
      </trkpt>
      <trkpt lat="47.29287" lon="-2.24917">
        <ele>-3</ele>
        <time>2021-07-18T08:53:40.000Z</time>
      </trkpt>
      <trkpt lat="47.29282" lon="-2.24917">
        <ele>-2.5999999046326</ele>
        <time>2021-07-18T08:53:41.000Z</time>
      </trkpt>
      <trkpt lat="47.29263" lon="-2.24919">
        <ele>-2.5999999046326</ele>
        <time>2021-07-18T08:53:45.000Z</time>
      </trkpt>
      <trkpt lat="47.29256" lon="-2.24921">
        <ele>-2.5999999046326</ele>
        <time>2021-07-18T08:53:47.000Z</time>
      </trkpt>
      <trkpt lat="47.29253" lon="-2.24937">
        <ele>-2.5999999046326</ele>
        <time>2021-07-18T08:53:50.000Z</time>
      </trkpt>
      <trkpt lat="47.29256" lon="-2.24966">
        <ele>-2.5999999046326</ele>
        <time>2021-07-18T08:53:54.000Z</time>
      </trkpt>
      <trkpt lat="47.29258" lon="-2.24974">
        <ele>-2.5999999046326</ele>
        <time>2021-07-18T08:53:55.000Z</time>
      </trkpt>
      <trkpt lat="47.2927" lon="-2.25025">
        <ele>-2.5999999046326</ele>
        <time>2021-07-18T08:54:01.000Z</time>
      </trkpt>
      <trkpt lat="47.29288" lon="-2.25083">
        <ele>-2.5999999046326</ele>
        <time>2021-07-18T08:54:08.000Z</time>
      </trkpt>
      <trkpt lat="47.29298" lon="-2.25139">
        <ele>-2.5999999046326</ele>
        <time>2021-07-18T08:54:14.000Z</time>
      </trkpt>
      <trkpt lat="47.29305" lon="-2.25178">
        <ele>-3</ele>
        <time>2021-07-18T08:54:18.000Z</time>
      </trkpt>
      <trkpt lat="47.29307" lon="-2.25187">
        <ele>-3.4000000953674</ele>
        <time>2021-07-18T08:54:19.000Z</time>
      </trkpt>
      <trkpt lat="47.29309" lon="-2.25194">
        <ele>-4</ele>
        <time>2021-07-18T08:54:20.000Z</time>
      </trkpt>
      <trkpt lat="47.29313" lon="-2.25196">
        <ele>-4.4000000953674</ele>
        <time>2021-07-18T08:54:21.000Z</time>
      </trkpt>
      <trkpt lat="47.29317" lon="-2.25195">
        <ele>-4.8000001907349</ele>
        <time>2021-07-18T08:54:22.000Z</time>
      </trkpt>
      <trkpt lat="47.29327" lon="-2.25194">
        <ele>-4.8000001907349</ele>
        <time>2021-07-18T08:54:24.000Z</time>
      </trkpt>
      <trkpt lat="47.29337" lon="-2.25194">
        <ele>-4.8000001907349</ele>
        <time>2021-07-18T08:54:26.000Z</time>
      </trkpt>
      <trkpt lat="47.29348" lon="-2.25197">
        <ele>-4.8000001907349</ele>
        <time>2021-07-18T08:54:28.000Z</time>
      </trkpt>
      <trkpt lat="47.29386" lon="-2.25207">
        <ele>-4.8000001907349</ele>
        <time>2021-07-18T08:54:34.000Z</time>
      </trkpt>
      <trkpt lat="47.29405" lon="-2.25211">
        <ele>-4.8000001907349</ele>
        <time>2021-07-18T08:54:37.000Z</time>
      </trkpt>
      <trkpt lat="47.29417" lon="-2.25209">
        <ele>-4.8000001907349</ele>
        <time>2021-07-18T08:54:39.000Z</time>
      </trkpt>
      <trkpt lat="47.2943" lon="-2.25204">
        <ele>-4.8000001907349</ele>
        <time>2021-07-18T08:54:41.000Z</time>
      </trkpt>
      <trkpt lat="47.29447" lon="-2.252">
        <ele>-4.8000001907349</ele>
        <time>2021-07-18T08:54:44.000Z</time>
      </trkpt>
      <trkpt lat="47.29492" lon="-2.25188">
        <ele>-4.4000000953674</ele>
        <time>2021-07-18T08:54:52.000Z</time>
      </trkpt>
      <trkpt lat="47.29497" lon="-2.25186">
        <ele>-4</ele>
        <time>2021-07-18T08:54:53.000Z</time>
      </trkpt>
      <trkpt lat="47.29503" lon="-2.25185">
        <ele>-3.5999999046326</ele>
        <time>2021-07-18T08:54:54.000Z</time>
      </trkpt>
      <trkpt lat="47.29508" lon="-2.25183">
        <ele>-3.2000000476837</ele>
        <time>2021-07-18T08:54:55.000Z</time>
      </trkpt>
      <trkpt lat="47.29513" lon="-2.25182">
        <ele>-2.5999999046326</ele>
        <time>2021-07-18T08:54:56.000Z</time>
      </trkpt>
      <trkpt lat="47.29531" lon="-2.25177">
        <ele>-2.5999999046326</ele>
        <time>2021-07-18T08:55:00.000Z</time>
      </trkpt>
      <trkpt lat="47.29542" lon="-2.2518">
        <ele>-2.5999999046326</ele>
        <time>2021-07-18T08:55:03.000Z</time>
      </trkpt>
      <trkpt lat="47.29545" lon="-2.25185">
        <ele>-2.5999999046326</ele>
        <time>2021-07-18T08:55:04.000Z</time>
      </trkpt>
      <trkpt lat="47.29546" lon="-2.25206">
        <ele>-2.5999999046326</ele>
        <time>2021-07-18T08:55:07.000Z</time>
      </trkpt>
      <trkpt lat="47.29543" lon="-2.25223">
        <ele>-2.5999999046326</ele>
        <time>2021-07-18T08:55:09.000Z</time>
      </trkpt>
      <trkpt lat="47.29539" lon="-2.25256">
        <ele>-2.5999999046326</ele>
        <time>2021-07-18T08:55:13.000Z</time>
      </trkpt>
      <trkpt lat="47.29542" lon="-2.2529">
        <ele>-2.5999999046326</ele>
        <time>2021-07-18T08:55:17.000Z</time>
      </trkpt>
      <trkpt lat="47.29544" lon="-2.25298">
        <ele>-2.2000000476837</ele>
        <time>2021-07-18T08:55:18.000Z</time>
      </trkpt>
      <trkpt lat="47.29546" lon="-2.25307">
        <ele>-1.7999999523163</ele>
        <time>2021-07-18T08:55:19.000Z</time>
      </trkpt>
      <trkpt lat="47.29548" lon="-2.25314">
        <ele>-1.3999999761581</ele>
        <time>2021-07-18T08:55:20.000Z</time>
      </trkpt>
      <trkpt lat="47.29551" lon="-2.25322">
        <ele>-1</ele>
        <time>2021-07-18T08:55:21.000Z</time>
      </trkpt>
      <trkpt lat="47.29554" lon="-2.25329">
        <ele>-0.60000002384186</ele>
        <time>2021-07-18T08:55:22.000Z</time>
      </trkpt>
      <trkpt lat="47.29561" lon="-2.25344">
        <ele>-0.60000002384186</ele>
        <time>2021-07-18T08:55:24.000Z</time>
      </trkpt>
      <trkpt lat="47.29573" lon="-2.25374">
        <ele>-0.20000000298023</ele>
        <time>2021-07-18T08:55:28.000Z</time>
      </trkpt>
      <trkpt lat="47.29576" lon="-2.25383">
        <ele>0.20000000298023</ele>
        <time>2021-07-18T08:55:29.000Z</time>
      </trkpt>
      <trkpt lat="47.29579" lon="-2.25391">
        <ele>0.60000002384186</ele>
        <time>2021-07-18T08:55:30.000Z</time>
      </trkpt>
      <trkpt lat="47.29581" lon="-2.25399">
        <ele>1</ele>
        <time>2021-07-18T08:55:31.000Z</time>
      </trkpt>
      <trkpt lat="47.29582" lon="-2.25407">
        <ele>1.3999999761581</ele>
        <time>2021-07-18T08:55:32.000Z</time>
      </trkpt>
      <trkpt lat="47.29584" lon="-2.25416">
        <ele>1.3999999761581</ele>
        <time>2021-07-18T08:55:33.000Z</time>
      </trkpt>
      <trkpt lat="47.29586" lon="-2.25441">
        <ele>1.3999999761581</ele>
        <time>2021-07-18T08:55:36.000Z</time>
      </trkpt>
      <trkpt lat="47.29587" lon="-2.25494">
        <ele>1.3999999761581</ele>
        <time>2021-07-18T08:55:42.000Z</time>
      </trkpt>
      <trkpt lat="47.29586" lon="-2.25502">
        <ele>1.3999999761581</ele>
        <time>2021-07-18T08:55:43.000Z</time>
      </trkpt>
      <trkpt lat="47.29577" lon="-2.25526">
        <ele>1.3999999761581</ele>
        <time>2021-07-18T08:55:46.000Z</time>
      </trkpt>
      <trkpt lat="47.29564" lon="-2.25543">
        <ele>2.4000000953674</ele>
        <time>2021-07-18T08:55:49.000Z</time>
      </trkpt>
      <trkpt lat="47.29558" lon="-2.25548">
        <ele>2.7999999523163</ele>
        <time>2021-07-18T08:55:50.000Z</time>
      </trkpt>
      <trkpt lat="47.29552" lon="-2.25552">
        <ele>3.2000000476837</ele>
        <time>2021-07-18T08:55:51.000Z</time>
      </trkpt>
      <trkpt lat="47.29547" lon="-2.25556">
        <ele>3.5999999046326</ele>
        <time>2021-07-18T08:55:52.000Z</time>
      </trkpt>
      <trkpt lat="47.29541" lon="-2.25559">
        <ele>3.5999999046326</ele>
        <time>2021-07-18T08:55:53.000Z</time>
      </trkpt>
      <trkpt lat="47.29525" lon="-2.2557">
        <ele>3.5999999046326</ele>
        <time>2021-07-18T08:55:56.000Z</time>
      </trkpt>
      <trkpt lat="47.29492" lon="-2.25592">
        <ele>3.5999999046326</ele>
        <time>2021-07-18T08:56:02.000Z</time>
      </trkpt>
      <trkpt lat="47.29447" lon="-2.25613">
        <ele>4</ele>
        <time>2021-07-18T08:56:10.000Z</time>
      </trkpt>
      <trkpt lat="47.29442" lon="-2.25616">
        <ele>4.4000000953674</ele>
        <time>2021-07-18T08:56:11.000Z</time>
      </trkpt>
      <trkpt lat="47.29436" lon="-2.25618">
        <ele>5</ele>
        <time>2021-07-18T08:56:12.000Z</time>
      </trkpt>
      <trkpt lat="47.2943" lon="-2.2562">
        <ele>5.4000000953674</ele>
        <time>2021-07-18T08:56:13.000Z</time>
      </trkpt>
      <trkpt lat="47.29424" lon="-2.25623">
        <ele>5.8000001907349</ele>
        <time>2021-07-18T08:56:14.000Z</time>
      </trkpt>
      <trkpt lat="47.29401" lon="-2.25633">
        <ele>5.8000001907349</ele>
        <time>2021-07-18T08:56:18.000Z</time>
      </trkpt>
      <trkpt lat="47.29396" lon="-2.25638">
        <ele>5.8000001907349</ele>
        <time>2021-07-18T08:56:19.000Z</time>
      </trkpt>
      <trkpt lat="47.29388" lon="-2.25654">
        <ele>5.8000001907349</ele>
        <time>2021-07-18T08:56:21.000Z</time>
      </trkpt>
      <trkpt lat="47.29383" lon="-2.25693">
        <ele>5.8000001907349</ele>
        <time>2021-07-18T08:56:25.000Z</time>
      </trkpt>
      <trkpt lat="47.29376" lon="-2.2572">
        <ele>5.8000001907349</ele>
        <time>2021-07-18T08:56:28.000Z</time>
      </trkpt>
      <trkpt lat="47.29368" lon="-2.25736">
        <ele>5.8000001907349</ele>
        <time>2021-07-18T08:56:30.000Z</time>
      </trkpt>
      <trkpt lat="47.29349" lon="-2.25761">
        <ele>5.8000001907349</ele>
        <time>2021-07-18T08:56:34.000Z</time>
      </trkpt>
      <trkpt lat="47.29345" lon="-2.25766">
        <ele>5.8000001907349</ele>
        <time>2021-07-18T08:56:35.000Z</time>
      </trkpt>
      <trkpt lat="47.29324" lon="-2.25786">
        <ele>5.8000001907349</ele>
        <time>2021-07-18T08:56:41.000Z</time>
      </trkpt>
      <trkpt lat="47.29324" lon="-2.25789">
        <ele>5.8000001907349</ele>
        <time>2021-07-18T08:56:42.000Z</time>
      </trkpt>
      <trkpt lat="47.29324" lon="-2.25797">
        <ele>5.8000001907349</ele>
        <time>2021-07-18T08:56:45.000Z</time>
      </trkpt>
      <trkpt lat="47.29325" lon="-2.258">
        <ele>5.8000001907349</ele>
        <time>2021-07-18T08:56:47.000Z</time>
      </trkpt>
      <trkpt lat="47.2933" lon="-2.25807">
        <ele>5.8000001907349</ele>
        <time>2021-07-18T08:56:50.000Z</time>
      </trkpt>
      <trkpt lat="47.29338" lon="-2.25806">
        <ele>5.4000000953674</ele>
        <time>2021-07-18T08:56:54.000Z</time>
      </trkpt>
      <trkpt lat="47.2934" lon="-2.25803">
        <ele>5</ele>
        <time>2021-07-18T08:56:55.000Z</time>
      </trkpt>
      <trkpt lat="47.29342" lon="-2.25801">
        <ele>4.5999999046326</ele>
        <time>2021-07-18T08:56:56.000Z</time>
      </trkpt>
      <trkpt lat="47.29343" lon="-2.25797">
        <ele>4.1999998092651</ele>
        <time>2021-07-18T08:56:57.000Z</time>
      </trkpt>
      <trkpt lat="47.29344" lon="-2.25795">
        <ele>3.7999999523163</ele>
        <time>2021-07-18T08:56:58.000Z</time>
      </trkpt>
      <trkpt lat="47.29346" lon="-2.25791">
        <ele>3.7999999523163</ele>
        <time>2021-07-18T08:56:59.000Z</time>
      </trkpt>
      <trkpt lat="47.29354" lon="-2.25772">
        <ele>3.7999999523163</ele>
        <time>2021-07-18T08:57:05.000Z</time>
      </trkpt>
      <trkpt lat="47.29359" lon="-2.25769">
        <ele>3.7999999523163</ele>
        <time>2021-07-18T08:57:09.000Z</time>
      </trkpt>
      <trkpt lat="47.29361" lon="-2.25767">
        <ele>3.7999999523163</ele>
        <time>2021-07-18T08:57:10.000Z</time>
      </trkpt>
      <trkpt lat="47.29378" lon="-2.2576">
        <ele>3.7999999523163</ele>
        <time>2021-07-18T08:57:17.000Z</time>
      </trkpt>
      <trkpt lat="47.29397" lon="-2.25762">
        <ele>3.7999999523163</ele>
        <time>2021-07-18T08:57:22.000Z</time>
      </trkpt>
      <trkpt lat="47.29403" lon="-2.25768">
        <ele>3.2000000476837</ele>
        <time>2021-07-18T08:57:24.000Z</time>
      </trkpt>
      <trkpt lat="47.29407" lon="-2.2577">
        <ele>2.7999999523163</ele>
        <time>2021-07-18T08:57:25.000Z</time>
      </trkpt>
      <trkpt lat="47.29409" lon="-2.25772">
        <ele>2.4000000953674</ele>
        <time>2021-07-18T08:57:26.000Z</time>
      </trkpt>
      <trkpt lat="47.29412" lon="-2.25773">
        <ele>1.7999999523163</ele>
        <time>2021-07-18T08:57:27.000Z</time>
      </trkpt>
      <trkpt lat="47.29415" lon="-2.25775">
        <ele>1.3999999761581</ele>
        <time>2021-07-18T08:57:28.000Z</time>
      </trkpt>
      <trkpt lat="47.29417" lon="-2.25781">
        <ele>1.3999999761581</ele>
        <time>2021-07-18T08:57:30.000Z</time>
      </trkpt>
      <trkpt lat="47.29424" lon="-2.25794">
        <ele>1.3999999761581</ele>
        <time>2021-07-18T08:57:34.000Z</time>
      </trkpt>
      <trkpt lat="47.29427" lon="-2.25799">
        <ele>1.3999999761581</ele>
        <time>2021-07-18T08:57:35.000Z</time>
      </trkpt>
      <trkpt lat="47.29431" lon="-2.25819">
        <ele>1.3999999761581</ele>
        <time>2021-07-18T08:57:39.000Z</time>
      </trkpt>
      <trkpt lat="47.29426" lon="-2.25841">
        <ele>1.3999999761581</ele>
        <time>2021-07-18T08:57:44.000Z</time>
      </trkpt>
      <trkpt lat="47.29424" lon="-2.25871">
        <ele>1.3999999761581</ele>
        <time>2021-07-18T08:57:50.000Z</time>
      </trkpt>
      <trkpt lat="47.29428" lon="-2.25877">
        <ele>1.3999999761581</ele>
        <time>2021-07-18T08:57:51.000Z</time>
      </trkpt>
      <trkpt lat="47.29436" lon="-2.25895">
        <ele>1.3999999761581</ele>
        <time>2021-07-18T08:57:54.000Z</time>
      </trkpt>
      <trkpt lat="47.29444" lon="-2.25922">
        <ele>1</ele>
        <time>2021-07-18T08:57:59.000Z</time>
      </trkpt>
      <trkpt lat="47.29444" lon="-2.25925">
        <ele>0.60000002384186</ele>
        <time>2021-07-18T08:58:00.000Z</time>
      </trkpt>
      <trkpt lat="47.29444" lon="-2.25927">
        <ele>0.20000000298023</ele>
        <time>2021-07-18T08:58:01.000Z</time>
      </trkpt>
      <trkpt lat="47.29443" lon="-2.25929">
        <ele>-0.20000000298023</ele>
        <time>2021-07-18T08:58:02.000Z</time>
      </trkpt>
      <trkpt lat="47.29442" lon="-2.25931">
        <ele>-0.80000001192093</ele>
        <time>2021-07-18T08:58:03.000Z</time>
      </trkpt>
      <trkpt lat="47.29435" lon="-2.25939">
        <ele>-0.80000001192093</ele>
        <time>2021-07-18T08:58:05.000Z</time>
      </trkpt>
      <trkpt lat="47.29425" lon="-2.25947">
        <ele>-0.80000001192093</ele>
        <time>2021-07-18T08:58:08.000Z</time>
      </trkpt>
      <trkpt lat="47.29413" lon="-2.25956">
        <ele>-0.80000001192093</ele>
        <time>2021-07-18T08:58:12.000Z</time>
      </trkpt>
      <trkpt lat="47.29409" lon="-2.25955">
        <ele>-0.80000001192093</ele>
        <time>2021-07-18T08:58:13.000Z</time>
      </trkpt>
      <trkpt lat="47.29402" lon="-2.25952">
        <ele>-0.40000000596046</ele>
        <time>2021-07-18T08:58:15.000Z</time>
      </trkpt>
      <trkpt lat="47.29399" lon="-2.25953">
        <ele>18.8</ele>
        <time>2021-07-18T08:58:16.000Z</time>
      </trkpt>
      <trkpt lat="47.29396" lon="-2.25955">
        <ele>0.40000000596046</ele>
        <time>2021-07-18T08:58:17.000Z</time>
      </trkpt>
      <trkpt lat="47.29396" lon="-2.25958">
        <ele>1.2000000476837</ele>
        <time>2021-07-18T08:58:18.000Z</time>
      </trkpt>
      <trkpt lat="47.29397" lon="-2.25969">
        <ele>1.2000000476837</ele>
        <time>2021-07-18T08:58:20.000Z</time>
      </trkpt>
      <trkpt lat="47.29398" lon="-2.25975">
        <ele>1.2000000476837</ele>
        <time>2021-07-18T08:58:21.000Z</time>
      </trkpt>
      <trkpt lat="47.29398" lon="-2.26002">
        <ele>1.2000000476837</ele>
        <time>2021-07-18T08:58:26.000Z</time>
      </trkpt>
      <trkpt lat="47.29396" lon="-2.26015">
        <ele>1.2000000476837</ele>
        <time>2021-07-18T08:58:28.000Z</time>
      </trkpt>
      <trkpt lat="47.29395" lon="-2.26026">
        <ele>1.2000000476837</ele>
        <time>2021-07-18T08:58:30.000Z</time>
      </trkpt>
      <trkpt lat="47.29401" lon="-2.26059">
        <ele>1.2000000476837</ele>
        <time>2021-07-18T08:58:36.000Z</time>
      </trkpt>
      <trkpt lat="47.29402" lon="-2.26062">
        <ele>0.80000001192093</ele>
        <time>2021-07-18T08:58:37.000Z</time>
      </trkpt>
      <trkpt lat="47.29403" lon="-2.26066">
        <ele>0.40000000596046</ele>
        <time>2021-07-18T08:58:38.000Z</time>
      </trkpt>
      <trkpt lat="47.29404" lon="-2.26069">
        <ele>15.9</ele>
        <time>2021-07-18T08:58:39.000Z</time>
      </trkpt>
      <trkpt lat="47.29405" lon="-2.26074">
        <ele>-0.40000000596046</ele>
        <time>2021-07-18T08:58:40.000Z</time>
      </trkpt>
      <trkpt lat="47.29407" lon="-2.26078">
        <ele>-0.80000001192093</ele>
        <time>2021-07-18T08:58:41.000Z</time>
      </trkpt>
      <trkpt lat="47.29415" lon="-2.26112">
        <ele>-0.80000001192093</ele>
        <time>2021-07-18T08:58:47.000Z</time>
      </trkpt>
      <trkpt lat="47.29412" lon="-2.26145">
        <ele>-0.80000001192093</ele>
        <time>2021-07-18T08:58:53.000Z</time>
      </trkpt>
      <trkpt lat="47.29411" lon="-2.26153">
        <ele>-0.40000000596046</ele>
        <time>2021-07-18T08:58:55.000Z</time>
      </trkpt>
      <trkpt lat="47.2941" lon="-2.26156">
        <ele>18.5</ele>
        <time>2021-07-18T08:58:56.000Z</time>
      </trkpt>
      <trkpt lat="47.29408" lon="-2.26158">
        <ele>0.40000000596046</ele>
        <time>2021-07-18T08:58:57.000Z</time>
      </trkpt>
      <trkpt lat="47.29405" lon="-2.2616">
        <ele>1</ele>
        <time>2021-07-18T08:58:58.000Z</time>
      </trkpt>
      <trkpt lat="47.29401" lon="-2.26161">
        <ele>1.3999999761581</ele>
        <time>2021-07-18T08:58:59.000Z</time>
      </trkpt>
      <trkpt lat="47.29391" lon="-2.26161">
        <ele>1.3999999761581</ele>
        <time>2021-07-18T08:59:02.000Z</time>
      </trkpt>
      <trkpt lat="47.29388" lon="-2.2616">
        <ele>1.7999999523163</ele>
        <time>2021-07-18T08:59:03.000Z</time>
      </trkpt>
      <trkpt lat="47.29385" lon="-2.2616">
        <ele>2.2000000476837</ele>
        <time>2021-07-18T08:59:04.000Z</time>
      </trkpt>
      <trkpt lat="47.29383" lon="-2.2616">
        <ele>2.5999999046326</ele>
        <time>2021-07-18T08:59:05.000Z</time>
      </trkpt>
      <trkpt lat="47.2938" lon="-2.26159">
        <ele>3</ele>
        <time>2021-07-18T08:59:06.000Z</time>
      </trkpt>
      <trkpt lat="47.29378" lon="-2.26159">
        <ele>3.4000000953674</ele>
        <time>2021-07-18T08:59:07.000Z</time>
      </trkpt>
      <trkpt lat="47.29376" lon="-2.26159">
        <ele>3.4000000953674</ele>
        <time>2021-07-18T08:59:08.000Z</time>
      </trkpt>
      <trkpt lat="47.29369" lon="-2.26157">
        <ele>3.4000000953674</ele>
        <time>2021-07-18T08:59:14.000Z</time>
      </trkpt>
      <trkpt lat="47.29368" lon="-2.26159">
        <ele>3.4000000953674</ele>
        <time>2021-07-18T08:59:16.000Z</time>
      </trkpt>
      <trkpt lat="47.2937" lon="-2.26161">
        <ele>3.4000000953674</ele>
        <time>2021-07-18T09:17:06.000Z</time>
      </trkpt>
      <trkpt lat="47.29367" lon="-2.26164">
        <ele>3.4000000953674</ele>
        <time>2021-07-18T09:17:08.000Z</time>
      </trkpt>
      <trkpt lat="47.29355" lon="-2.26165">
        <ele>3.4000000953674</ele>
        <time>2021-07-18T09:17:13.000Z</time>
      </trkpt>
      <trkpt lat="47.2935" lon="-2.26166">
        <ele>3.7999999523163</ele>
        <time>2021-07-18T09:17:15.000Z</time>
      </trkpt>
      <trkpt lat="47.29347" lon="-2.26166">
        <ele>4.1999998092651</ele>
        <time>2021-07-18T09:17:16.000Z</time>
      </trkpt>
      <trkpt lat="47.29344" lon="-2.26166">
        <ele>4.5999999046326</ele>
        <time>2021-07-18T09:17:17.000Z</time>
      </trkpt>
      <trkpt lat="47.29341" lon="-2.26167">
        <ele>5</ele>
        <time>2021-07-18T09:17:18.000Z</time>
      </trkpt>
      <trkpt lat="47.29339" lon="-2.26168">
        <ele>5.4000000953674</ele>
        <time>2021-07-18T09:17:19.000Z</time>
      </trkpt>
      <trkpt lat="47.29337" lon="-2.26168">
        <ele>5.4000000953674</ele>
        <time>2021-07-18T09:17:20.000Z</time>
      </trkpt>
      <trkpt lat="47.29323" lon="-2.2617">
        <ele>5.4000000953674</ele>
        <time>2021-07-18T09:17:27.000Z</time>
      </trkpt>
      <trkpt lat="47.2932" lon="-2.26177">
        <ele>5.8000001907349</ele>
        <time>2021-07-18T09:17:30.000Z</time>
      </trkpt>
      <trkpt lat="47.29319" lon="-2.26181">
        <ele>6.1999998092651</ele>
        <time>2021-07-18T09:17:31.000Z</time>
      </trkpt>
      <trkpt lat="47.29318" lon="-2.26184">
        <ele>6.5999999046326</ele>
        <time>2021-07-18T09:17:32.000Z</time>
      </trkpt>
      <trkpt lat="47.29316" lon="-2.26185">
        <ele>7</ele>
        <time>2021-07-18T09:17:33.000Z</time>
      </trkpt>
      <trkpt lat="47.29313" lon="-2.26185">
        <ele>7.4000000953674</ele>
        <time>2021-07-18T09:17:34.000Z</time>
      </trkpt>
      <trkpt lat="47.2931" lon="-2.26184">
        <ele>7.4000000953674</ele>
        <time>2021-07-18T09:17:35.000Z</time>
      </trkpt>
      <trkpt lat="47.29292" lon="-2.26183">
        <ele>7.4000000953674</ele>
        <time>2021-07-18T09:17:40.000Z</time>
      </trkpt>
      <trkpt lat="47.29274" lon="-2.26183">
        <ele>7.4000000953674</ele>
        <time>2021-07-18T09:17:46.000Z</time>
      </trkpt>
      <trkpt lat="47.29264" lon="-2.26176">
        <ele>7.4000000953674</ele>
        <time>2021-07-18T09:17:51.000Z</time>
      </trkpt>
      <trkpt lat="47.29256" lon="-2.26151">
        <ele>7.4000000953674</ele>
        <time>2021-07-18T09:17:56.000Z</time>
      </trkpt>
      <trkpt lat="47.29241" lon="-2.26114">
        <ele>7.4000000953674</ele>
        <time>2021-07-18T09:18:04.000Z</time>
      </trkpt>
      <trkpt lat="47.29236" lon="-2.26097">
        <ele>7.4000000953674</ele>
        <time>2021-07-18T09:18:09.000Z</time>
      </trkpt>
      <trkpt lat="47.29239" lon="-2.26095">
        <ele>7.4000000953674</ele>
        <time>2021-07-18T09:18:11.000Z</time>
      </trkpt>
      <trkpt lat="47.29246" lon="-2.2609">
        <ele>7.4000000953674</ele>
        <time>2021-07-18T09:18:13.000Z</time>
      </trkpt>
      <trkpt lat="47.29276" lon="-2.26076">
        <ele>7.4000000953674</ele>
        <time>2021-07-18T09:18:19.000Z</time>
      </trkpt>
      <trkpt lat="47.29286" lon="-2.26079">
        <ele>7.4000000953674</ele>
        <time>2021-07-18T09:18:21.000Z</time>
      </trkpt>
      <trkpt lat="47.29295" lon="-2.26083">
        <ele>7.4000000953674</ele>
        <time>2021-07-18T09:18:23.000Z</time>
      </trkpt>
      <trkpt lat="47.29299" lon="-2.26099">
        <ele>7.4000000953674</ele>
        <time>2021-07-18T09:18:27.000Z</time>
      </trkpt>
      <trkpt lat="47.29305" lon="-2.26111">
        <ele>7.4000000953674</ele>
        <time>2021-07-18T09:18:34.000Z</time>
      </trkpt>
      <trkpt lat="47.29308" lon="-2.26115">
        <ele>7.4000000953674</ele>
        <time>2021-07-18T09:18:38.000Z</time>
      </trkpt>
      <trkpt lat="47.2932" lon="-2.26111">
        <ele>7.4000000953674</ele>
        <time>2021-07-18T09:19:09.000Z</time>
      </trkpt>
      <trkpt lat="47.29323" lon="-2.26109">
        <ele>7.4000000953674</ele>
        <time>2021-07-18T09:19:10.000Z</time>
      </trkpt>
      <trkpt lat="47.29326" lon="-2.26108">
        <ele>7</ele>
        <time>2021-07-18T09:19:11.000Z</time>
      </trkpt>
      <trkpt lat="47.29329" lon="-2.26108">
        <ele>6.5999999046326</ele>
        <time>2021-07-18T09:19:12.000Z</time>
      </trkpt>
      <trkpt lat="47.29333" lon="-2.2611">
        <ele>6.1999998092651</ele>
        <time>2021-07-18T09:19:13.000Z</time>
      </trkpt>
      <trkpt lat="47.29338" lon="-2.26113">
        <ele>5.5999999046326</ele>
        <time>2021-07-18T09:19:14.000Z</time>
      </trkpt>
      <trkpt lat="47.29341" lon="-2.26116">
        <ele>5.1999998092651</ele>
        <time>2021-07-18T09:19:15.000Z</time>
      </trkpt>
      <trkpt lat="47.29343" lon="-2.26119">
        <ele>5.1999998092651</ele>
        <time>2021-07-18T09:19:16.000Z</time>
      </trkpt>
      <trkpt lat="47.29353" lon="-2.26133">
        <ele>5.1999998092651</ele>
        <time>2021-07-18T09:19:19.000Z</time>
      </trkpt>
      <trkpt lat="47.29368" lon="-2.26152">
        <ele>5.1999998092651</ele>
        <time>2021-07-18T09:19:23.000Z</time>
      </trkpt>
      <trkpt lat="47.29372" lon="-2.26155">
        <ele>5.1999998092651</ele>
        <time>2021-07-18T09:19:24.000Z</time>
      </trkpt>
      <trkpt lat="47.29392" lon="-2.26168">
        <ele>5.1999998092651</ele>
        <time>2021-07-18T09:19:30.000Z</time>
      </trkpt>
      <trkpt lat="47.29414" lon="-2.26177">
        <ele>5.1999998092651</ele>
        <time>2021-07-18T09:19:34.000Z</time>
      </trkpt>
      <trkpt lat="47.29423" lon="-2.2618">
        <ele>4.4000000953674</ele>
        <time>2021-07-18T09:19:36.000Z</time>
      </trkpt>
      <trkpt lat="47.29428" lon="-2.26181">
        <ele>4</ele>
        <time>2021-07-18T09:19:37.000Z</time>
      </trkpt>
      <trkpt lat="47.29433" lon="-2.26183">
        <ele>3.5999999046326</ele>
        <time>2021-07-18T09:19:38.000Z</time>
      </trkpt>
      <trkpt lat="47.29437" lon="-2.26183">
        <ele>3</ele>
        <time>2021-07-18T09:19:39.000Z</time>
      </trkpt>
      <trkpt lat="47.29443" lon="-2.26183">
        <ele>3</ele>
        <time>2021-07-18T09:19:40.000Z</time>
      </trkpt>
      <trkpt lat="47.29471" lon="-2.2618">
        <ele>2.5999999046326</ele>
        <time>2021-07-18T09:19:45.000Z</time>
      </trkpt>
      <trkpt lat="47.29476" lon="-2.26181">
        <ele>2.2000000476837</ele>
        <time>2021-07-18T09:19:46.000Z</time>
      </trkpt>
      <trkpt lat="47.29481" lon="-2.26182">
        <ele>1.7999999523163</ele>
        <time>2021-07-18T09:19:47.000Z</time>
      </trkpt>
      <trkpt lat="47.29487" lon="-2.26184">
        <ele>1.3999999761581</ele>
        <time>2021-07-18T09:19:48.000Z</time>
      </trkpt>
      <trkpt lat="47.29492" lon="-2.26187">
        <ele>1</ele>
        <time>2021-07-18T09:19:49.000Z</time>
      </trkpt>
      <trkpt lat="47.29508" lon="-2.26195">
        <ele>1</ele>
        <time>2021-07-18T09:19:52.000Z</time>
      </trkpt>
      <trkpt lat="47.29523" lon="-2.26204">
        <ele>1</ele>
        <time>2021-07-18T09:19:55.000Z</time>
      </trkpt>
      <trkpt lat="47.2953" lon="-2.2621">
        <ele>0.60000002384186</ele>
        <time>2021-07-18T09:19:57.000Z</time>
      </trkpt>
      <trkpt lat="47.29533" lon="-2.26213">
        <ele>0.20000000298023</ele>
        <time>2021-07-18T09:19:58.000Z</time>
      </trkpt>
      <trkpt lat="47.29536" lon="-2.26216">
        <ele>-0.40000000596046</ele>
        <time>2021-07-18T09:19:59.000Z</time>
      </trkpt>
      <trkpt lat="47.29537" lon="-2.26219">
        <ele>-0.80000001192093</ele>
        <time>2021-07-18T09:20:00.000Z</time>
      </trkpt>
      <trkpt lat="47.29539" lon="-2.26221">
        <ele>-1.7999999523163</ele>
        <time>2021-07-18T09:20:01.000Z</time>
      </trkpt>
      <trkpt lat="47.2954" lon="-2.26226">
        <ele>-2.4000000953674</ele>
        <time>2021-07-18T09:20:02.000Z</time>
      </trkpt>
      <trkpt lat="47.2954" lon="-2.2623">
        <ele>-2.7999999523163</ele>
        <time>2021-07-18T09:20:03.000Z</time>
      </trkpt>
      <trkpt lat="47.29538" lon="-2.26233">
        <ele>-3.4000000953674</ele>
        <time>2021-07-18T09:20:04.000Z</time>
      </trkpt>
      <trkpt lat="47.29537" lon="-2.26236">
        <ele>-3.4000000953674</ele>
        <time>2021-07-18T09:20:05.000Z</time>
      </trkpt>
      <trkpt lat="47.29536" lon="-2.2624">
        <ele>-3.4000000953674</ele>
        <time>2021-07-18T09:20:06.000Z</time>
      </trkpt>
      <trkpt lat="47.29541" lon="-2.26247">
        <ele>-3.4000000953674</ele>
        <time>2021-07-18T09:20:08.000Z</time>
      </trkpt>
      <trkpt lat="47.29556" lon="-2.26251">
        <ele>-3.4000000953674</ele>
        <time>2021-07-18T09:20:12.000Z</time>
      </trkpt>
      <trkpt lat="47.29562" lon="-2.26252">
        <ele>-3.7999999523163</ele>
        <time>2021-07-18T09:20:13.000Z</time>
      </trkpt>
      <trkpt lat="47.29567" lon="-2.26252">
        <ele>-4.1999998092651</ele>
        <time>2021-07-18T09:20:14.000Z</time>
      </trkpt>
      <trkpt lat="47.29573" lon="-2.26252">
        <ele>-4.5999999046326</ele>
        <time>2021-07-18T09:20:15.000Z</time>
      </trkpt>
      <trkpt lat="47.2958" lon="-2.26253">
        <ele>-5</ele>
        <time>2021-07-18T09:20:16.000Z</time>
      </trkpt>
      <trkpt lat="47.29587" lon="-2.26254">
        <ele>-5.5999999046326</ele>
        <time>2021-07-18T09:20:17.000Z</time>
      </trkpt>
      <trkpt lat="47.29601" lon="-2.26254">
        <ele>-5.5999999046326</ele>
        <time>2021-07-18T09:20:19.000Z</time>
      </trkpt>
      <trkpt lat="47.29615" lon="-2.26254">
        <ele>-5.5999999046326</ele>
        <time>2021-07-18T09:20:21.000Z</time>
      </trkpt>
      <trkpt lat="47.29619" lon="-2.26254">
        <ele>-6</ele>
        <time>2021-07-18T09:20:22.000Z</time>
      </trkpt>
      <trkpt lat="47.29623" lon="-2.26255">
        <ele>-6.4000000953674</ele>
        <time>2021-07-18T09:20:23.000Z</time>
      </trkpt>
      <trkpt lat="47.29625" lon="-2.26256">
        <ele>-7</ele>
        <time>2021-07-18T09:20:24.000Z</time>
      </trkpt>
      <trkpt lat="47.29625" lon="-2.26258">
        <ele>-8.1999998092651</ele>
        <time>2021-07-18T09:20:25.000Z</time>
      </trkpt>
      <trkpt lat="47.29624" lon="-2.26259">
        <ele>-8.8000001907349</ele>
        <time>2021-07-18T09:20:26.000Z</time>
      </trkpt>
      <trkpt lat="47.29623" lon="-2.26261">
        <ele>-9.6000003814697</ele>
        <time>2021-07-18T09:20:27.000Z</time>
      </trkpt>
      <trkpt lat="47.29622" lon="-2.26263">
        <ele>-10.199999809265</ele>
        <time>2021-07-18T09:20:28.000Z</time>
      </trkpt>
      <trkpt lat="47.29614" lon="-2.26272">
        <ele>-10.199999809265</ele>
        <time>2021-07-18T09:20:32.000Z</time>
      </trkpt>
      <trkpt lat="47.29612" lon="-2.26275">
        <ele>-10.199999809265</ele>
        <time>2021-07-18T09:20:33.000Z</time>
      </trkpt>
      <trkpt lat="47.29601" lon="-2.26289">
        <ele>-10.199999809265</ele>
        <time>2021-07-18T09:20:39.000Z</time>
      </trkpt>
      <trkpt lat="47.29602" lon="-2.26291">
        <ele>-10.199999809265</ele>
        <time>2021-07-18T09:20:40.000Z</time>
      </trkpt>
      <trkpt lat="47.29601" lon="-2.26293">
        <ele>-10.199999809265</ele>
        <time>2021-07-18T09:20:42.000Z</time>
      </trkpt>
      <trkpt lat="47.29602" lon="-2.26299">
        <ele>-10.199999809265</ele>
        <time>2021-07-18T09:20:48.000Z</time>
      </trkpt>
      <trkpt lat="47.29606" lon="-2.26314">
        <ele>-10.199999809265</ele>
        <time>2021-07-18T09:20:54.000Z</time>
      </trkpt>
      <trkpt lat="47.29611" lon="-2.26327">
        <ele>-10.199999809265</ele>
        <time>2021-07-18T09:20:58.000Z</time>
      </trkpt>
      <trkpt lat="47.29613" lon="-2.26333">
        <ele>-10.199999809265</ele>
        <time>2021-07-18T09:21:03.000Z</time>
      </trkpt>
      <trkpt lat="47.29613" lon="-2.26336">
        <ele>-10.199999809265</ele>
        <time>2021-07-18T09:21:04.000Z</time>
      </trkpt>
      <trkpt lat="47.29611" lon="-2.26348">
        <ele>-10.199999809265</ele>
        <time>2021-07-18T09:21:09.000Z</time>
      </trkpt>
      <trkpt lat="47.29612" lon="-2.26357">
        <ele>-10.199999809265</ele>
        <time>2021-07-18T09:21:11.000Z</time>
      </trkpt>
      <trkpt lat="47.29616" lon="-2.26364">
        <ele>-10.199999809265</ele>
        <time>2021-07-18T09:21:13.000Z</time>
      </trkpt>
      <trkpt lat="47.29621" lon="-2.26381">
        <ele>-10.199999809265</ele>
        <time>2021-07-18T09:21:17.000Z</time>
      </trkpt>
      <trkpt lat="47.29619" lon="-2.26393">
        <ele>-10.199999809265</ele>
        <time>2021-07-18T09:21:19.000Z</time>
      </trkpt>
      <trkpt lat="47.29616" lon="-2.26404">
        <ele>-10.199999809265</ele>
        <time>2021-07-18T09:21:21.000Z</time>
      </trkpt>
      <trkpt lat="47.29606" lon="-2.26421">
        <ele>-10.199999809265</ele>
        <time>2021-07-18T09:21:25.000Z</time>
      </trkpt>
      <trkpt lat="47.29602" lon="-2.26442">
        <ele>-9.8000001907349</ele>
        <time>2021-07-18T09:21:29.000Z</time>
      </trkpt>
      <trkpt lat="47.29601" lon="-2.26446">
        <ele>-9.3999996185303</ele>
        <time>2021-07-18T09:21:30.000Z</time>
      </trkpt>
      <trkpt lat="47.29601" lon="-2.2645">
        <ele>-9</ele>
        <time>2021-07-18T09:21:31.000Z</time>
      </trkpt>
      <trkpt lat="47.296" lon="-2.26455">
        <ele>-8.6000003814697</ele>
        <time>2021-07-18T09:21:32.000Z</time>
      </trkpt>
      <trkpt lat="47.296" lon="-2.2646">
        <ele>-8.1999998092651</ele>
        <time>2021-07-18T09:21:33.000Z</time>
      </trkpt>
      <trkpt lat="47.29599" lon="-2.26484">
        <ele>-7.8000001907349</ele>
        <time>2021-07-18T09:21:38.000Z</time>
      </trkpt>
      <trkpt lat="47.296" lon="-2.26488">
        <ele>-7</ele>
        <time>2021-07-18T09:21:39.000Z</time>
      </trkpt>
      <trkpt lat="47.29599" lon="-2.26492">
        <ele>-6.4000000953674</ele>
        <time>2021-07-18T09:21:40.000Z</time>
      </trkpt>
      <trkpt lat="47.29598" lon="-2.26496">
        <ele>-6</ele>
        <time>2021-07-18T09:21:41.000Z</time>
      </trkpt>
      <trkpt lat="47.29594" lon="-2.26502">
        <ele>-6</ele>
        <time>2021-07-18T09:21:43.000Z</time>
      </trkpt>
      <trkpt lat="47.29585" lon="-2.26511">
        <ele>-5.5999999046326</ele>
        <time>2021-07-18T09:21:47.000Z</time>
      </trkpt>
      <trkpt lat="47.29582" lon="-2.26512">
        <ele>-5.1999998092651</ele>
        <time>2021-07-18T09:21:48.000Z</time>
      </trkpt>
      <trkpt lat="47.2958" lon="-2.26514">
        <ele>-4.8000001907349</ele>
        <time>2021-07-18T09:21:49.000Z</time>
      </trkpt>
      <trkpt lat="47.29577" lon="-2.26515">
        <ele>-4.4000000953674</ele>
        <time>2021-07-18T09:21:50.000Z</time>
      </trkpt>
      <trkpt lat="47.29574" lon="-2.26517">
        <ele>-4</ele>
        <time>2021-07-18T09:21:51.000Z</time>
      </trkpt>
      <trkpt lat="47.29554" lon="-2.26532">
        <ele>-4</ele>
        <time>2021-07-18T09:21:58.000Z</time>
      </trkpt>
      <trkpt lat="47.29537" lon="-2.26548">
        <ele>-3.5999999046326</ele>
        <time>2021-07-18T09:22:05.000Z</time>
      </trkpt>
      <trkpt lat="47.29534" lon="-2.26551">
        <ele>-3.2000000476837</ele>
        <time>2021-07-18T09:22:06.000Z</time>
      </trkpt>
      <trkpt lat="47.29532" lon="-2.26554">
        <ele>-2.7999999523163</ele>
        <time>2021-07-18T09:22:07.000Z</time>
      </trkpt>
      <trkpt lat="47.29529" lon="-2.26557">
        <ele>-2.4000000953674</ele>
        <time>2021-07-18T09:22:08.000Z</time>
      </trkpt>
      <trkpt lat="47.29526" lon="-2.2656">
        <ele>-2</ele>
        <time>2021-07-18T09:22:09.000Z</time>
      </trkpt>
      <trkpt lat="47.29515" lon="-2.26572">
        <ele>-2</ele>
        <time>2021-07-18T09:22:13.000Z</time>
      </trkpt>
      <trkpt lat="47.2949" lon="-2.26594">
        <ele>-2</ele>
        <time>2021-07-18T09:22:21.000Z</time>
      </trkpt>
      <trkpt lat="47.29469" lon="-2.26604">
        <ele>-2</ele>
        <time>2021-07-18T09:22:27.000Z</time>
      </trkpt>
      <trkpt lat="47.29445" lon="-2.26615">
        <ele>-2</ele>
        <time>2021-07-18T09:22:33.000Z</time>
      </trkpt>
      <trkpt lat="47.29412" lon="-2.26625">
        <ele>-2</ele>
        <time>2021-07-18T09:22:41.000Z</time>
      </trkpt>
      <trkpt lat="47.2938" lon="-2.2664">
        <ele>-2</ele>
        <time>2021-07-18T09:22:49.000Z</time>
      </trkpt>
      <trkpt lat="47.29376" lon="-2.26643">
        <ele>-2</ele>
        <time>2021-07-18T09:22:50.000Z</time>
      </trkpt>
      <trkpt lat="47.2936" lon="-2.26648">
        <ele>-2</ele>
        <time>2021-07-18T09:22:54.000Z</time>
      </trkpt>
      <trkpt lat="47.29356" lon="-2.26649">
        <ele>-2</ele>
        <time>2021-07-18T09:22:55.000Z</time>
      </trkpt>
      <trkpt lat="47.29325" lon="-2.2666">
        <ele>-2</ele>
        <time>2021-07-18T09:23:03.000Z</time>
      </trkpt>
      <trkpt lat="47.293" lon="-2.26676">
        <ele>-2</ele>
        <time>2021-07-18T09:23:10.000Z</time>
      </trkpt>
      <trkpt lat="47.29291" lon="-2.26679">
        <ele>-2</ele>
        <time>2021-07-18T09:23:12.000Z</time>
      </trkpt>
      <trkpt lat="47.29272" lon="-2.26682">
        <ele>-2</ele>
        <time>2021-07-18T09:23:16.000Z</time>
      </trkpt>
      <trkpt lat="47.29244" lon="-2.2669">
        <ele>-2</ele>
        <time>2021-07-18T09:23:22.000Z</time>
      </trkpt>
      <trkpt lat="47.29234" lon="-2.26704">
        <ele>-2</ele>
        <time>2021-07-18T09:23:25.000Z</time>
      </trkpt>
      <trkpt lat="47.29221" lon="-2.26717">
        <ele>-2</ele>
        <time>2021-07-18T09:23:29.000Z</time>
      </trkpt>
      <trkpt lat="47.2921" lon="-2.26726">
        <ele>-2</ele>
        <time>2021-07-18T09:23:34.000Z</time>
      </trkpt>
      <trkpt lat="47.29208" lon="-2.26726">
        <ele>-2</ele>
        <time>2021-07-18T09:23:37.000Z</time>
      </trkpt>
      <trkpt lat="47.29205" lon="-2.26729">
        <ele>-2</ele>
        <time>2021-07-18T09:23:40.000Z</time>
      </trkpt>
      <trkpt lat="47.29204" lon="-2.26732">
        <ele>-2</ele>
        <time>2021-07-18T09:23:41.000Z</time>
      </trkpt>
      <trkpt lat="47.29207" lon="-2.26745">
        <ele>-2</ele>
        <time>2021-07-18T09:23:44.000Z</time>
      </trkpt>
      <trkpt lat="47.29212" lon="-2.26763">
        <ele>-2</ele>
        <time>2021-07-18T09:23:47.000Z</time>
      </trkpt>
      <trkpt lat="47.29216" lon="-2.26784">
        <ele>-2</ele>
        <time>2021-07-18T09:23:50.000Z</time>
      </trkpt>
      <trkpt lat="47.29229" lon="-2.26854">
        <ele>-2</ele>
        <time>2021-07-18T09:23:59.000Z</time>
      </trkpt>
      <trkpt lat="47.29237" lon="-2.26909">
        <ele>-2</ele>
        <time>2021-07-18T09:24:07.000Z</time>
      </trkpt>
      <trkpt lat="47.29236" lon="-2.26926">
        <ele>-2</ele>
        <time>2021-07-18T09:24:11.000Z</time>
      </trkpt>
      <trkpt lat="47.29236" lon="-2.26926">
        <ele>-2</ele>
        <time>2021-07-18T09:24:13.000Z</time>
      </trkpt>
      <trkpt lat="47.29231" lon="-2.26931">
        <ele>-2</ele>
        <time>2021-07-18T09:24:29.000Z</time>
      </trkpt>
      <trkpt lat="47.29229" lon="-2.26942">
        <ele>-2</ele>
        <time>2021-07-18T09:24:33.000Z</time>
      </trkpt>
      <trkpt lat="47.29229" lon="-2.26958">
        <ele>-2</ele>
        <time>2021-07-18T09:24:37.000Z</time>
      </trkpt>
      <trkpt lat="47.29229" lon="-2.26967">
        <ele>-2</ele>
        <time>2021-07-18T09:24:39.000Z</time>
      </trkpt>
      <trkpt lat="47.29227" lon="-2.26994">
        <ele>-2</ele>
        <time>2021-07-18T09:24:44.000Z</time>
      </trkpt>
      <trkpt lat="47.29231" lon="-2.27027">
        <ele>-2</ele>
        <time>2021-07-18T09:24:49.000Z</time>
      </trkpt>
      <trkpt lat="47.29234" lon="-2.27064">
        <ele>-2</ele>
        <time>2021-07-18T09:24:55.000Z</time>
      </trkpt>
      <trkpt lat="47.29235" lon="-2.27078">
        <ele>-2</ele>
        <time>2021-07-18T09:24:57.000Z</time>
      </trkpt>
      <trkpt lat="47.29237" lon="-2.27089">
        <ele>-2</ele>
        <time>2021-07-18T09:24:59.000Z</time>
      </trkpt>
      <trkpt lat="47.29237" lon="-2.27106">
        <ele>-2</ele>
        <time>2021-07-18T09:25:02.000Z</time>
      </trkpt>
      <trkpt lat="47.29235" lon="-2.2711">
        <ele>-2</ele>
        <time>2021-07-18T09:25:03.000Z</time>
      </trkpt>
      <trkpt lat="47.29229" lon="-2.27138">
        <ele>-2</ele>
        <time>2021-07-18T09:25:08.000Z</time>
      </trkpt>
      <trkpt lat="47.29224" lon="-2.27148">
        <ele>-2</ele>
        <time>2021-07-18T09:25:10.000Z</time>
      </trkpt>
      <trkpt lat="47.29218" lon="-2.27155">
        <ele>-2</ele>
        <time>2021-07-18T09:25:12.000Z</time>
      </trkpt>
      <trkpt lat="47.29213" lon="-2.27161">
        <ele>-2</ele>
        <time>2021-07-18T09:25:14.000Z</time>
      </trkpt>
      <trkpt lat="47.29208" lon="-2.27162">
        <ele>-2</ele>
        <time>2021-07-18T09:25:15.000Z</time>
      </trkpt>
      <trkpt lat="47.29202" lon="-2.27167">
        <ele>-2</ele>
        <time>2021-07-18T09:25:16.000Z</time>
      </trkpt>
      <trkpt lat="47.29176" lon="-2.27183">
        <ele>-2</ele>
        <time>2021-07-18T09:25:21.000Z</time>
      </trkpt>
      <trkpt lat="47.29174" lon="-2.27186">
        <ele>-2</ele>
        <time>2021-07-18T09:25:24.000Z</time>
      </trkpt>
      <trkpt lat="47.29168" lon="-2.27187">
        <ele>-2</ele>
        <time>2021-07-18T09:25:53.000Z</time>
      </trkpt>
      <trkpt lat="47.29167" lon="-2.27187">
        <ele>-2</ele>
        <time>2021-07-18T09:25:55.000Z</time>
      </trkpt>
      <trkpt lat="47.29164" lon="-2.27189">
        <ele>-2</ele>
        <time>2021-07-18T09:25:57.000Z</time>
      </trkpt>
      <trkpt lat="47.29161" lon="-2.27189">
        <ele>-2</ele>
        <time>2021-07-18T09:25:58.000Z</time>
      </trkpt>
      <trkpt lat="47.29157" lon="-2.27192">
        <ele>-2</ele>
        <time>2021-07-18T09:26:00.000Z</time>
      </trkpt>
      <trkpt lat="47.29155" lon="-2.27194">
        <ele>-2</ele>
        <time>2021-07-18T09:26:02.000Z</time>
      </trkpt>
      <trkpt lat="47.29152" lon="-2.27193">
        <ele>-2</ele>
        <time>2021-07-18T09:26:04.000Z</time>
      </trkpt>
      <trkpt lat="47.29148" lon="-2.27193">
        <ele>-2</ele>
        <time>2021-07-18T09:26:07.000Z</time>
      </trkpt>
      <trkpt lat="47.29146" lon="-2.27193">
        <ele>-2</ele>
        <time>2021-07-18T09:26:10.000Z</time>
      </trkpt>
      <trkpt lat="47.29143" lon="-2.27194">
        <ele>-2</ele>
        <time>2021-07-18T09:26:16.000Z</time>
      </trkpt>
      <trkpt lat="47.29141" lon="-2.27194">
        <ele>-2</ele>
        <time>2021-07-18T09:26:17.000Z</time>
      </trkpt>
      <trkpt lat="47.29132" lon="-2.27203">
        <ele>-2</ele>
        <time>2021-07-18T09:26:21.000Z</time>
      </trkpt>
      <trkpt lat="47.29129" lon="-2.27216">
        <ele>-2</ele>
        <time>2021-07-18T09:26:25.000Z</time>
      </trkpt>
      <trkpt lat="47.29128" lon="-2.27218">
        <ele>-2</ele>
        <time>2021-07-18T09:26:26.000Z</time>
      </trkpt>
      <trkpt lat="47.29126" lon="-2.27228">
        <ele>-2</ele>
        <time>2021-07-18T09:26:29.000Z</time>
      </trkpt>
      <trkpt lat="47.29122" lon="-2.27253">
        <ele>-2</ele>
        <time>2021-07-18T09:26:34.000Z</time>
      </trkpt>
      <trkpt lat="47.29115" lon="-2.27287">
        <ele>-2</ele>
        <time>2021-07-18T09:26:41.000Z</time>
      </trkpt>
      <trkpt lat="47.29109" lon="-2.27318">
        <ele>-2</ele>
        <time>2021-07-18T09:26:47.000Z</time>
      </trkpt>
      <trkpt lat="47.29102" lon="-2.27351">
        <ele>-2</ele>
        <time>2021-07-18T09:26:54.000Z</time>
      </trkpt>
      <trkpt lat="47.29104" lon="-2.27377">
        <ele>-2</ele>
        <time>2021-07-18T09:26:59.000Z</time>
      </trkpt>
      <trkpt lat="47.29106" lon="-2.27384">
        <ele>-2</ele>
        <time>2021-07-18T09:27:00.000Z</time>
      </trkpt>
      <trkpt lat="47.29112" lon="-2.27419">
        <ele>-2</ele>
        <time>2021-07-18T09:27:05.000Z</time>
      </trkpt>
      <trkpt lat="47.29112" lon="-2.27425">
        <ele>-2</ele>
        <time>2021-07-18T09:27:06.000Z</time>
      </trkpt>
      <trkpt lat="47.2911" lon="-2.27459">
        <ele>-2</ele>
        <time>2021-07-18T09:27:11.000Z</time>
      </trkpt>
      <trkpt lat="47.29106" lon="-2.27501">
        <ele>-1.6000000238419</ele>
        <time>2021-07-18T09:27:17.000Z</time>
      </trkpt>
      <trkpt lat="47.29105" lon="-2.27509">
        <ele>-1.2000000476837</ele>
        <time>2021-07-18T09:27:18.000Z</time>
      </trkpt>
      <trkpt lat="47.29105" lon="-2.27515">
        <ele>-0.80000001192093</ele>
        <time>2021-07-18T09:27:19.000Z</time>
      </trkpt>
      <trkpt lat="47.29104" lon="-2.27521">
        <ele>-0.40000000596046</ele>
        <time>2021-07-18T09:27:20.000Z</time>
      </trkpt>
      <trkpt lat="47.29104" lon="-2.27525">
        <ele>16.3</ele>
        <time>2021-07-18T09:27:21.000Z</time>
      </trkpt>
      <trkpt lat="47.29103" lon="-2.27528">
        <ele>16.3</ele>
        <time>2021-07-18T09:27:22.000Z</time>
      </trkpt>
      <trkpt lat="47.291" lon="-2.2753">
        <ele>16.5</ele>
        <time>2021-07-18T09:27:23.000Z</time>
      </trkpt>
      <trkpt lat="47.29092" lon="-2.27532">
        <ele>16.7</ele>
        <time>2021-07-18T09:27:25.000Z</time>
      </trkpt>
      <trkpt lat="47.29078" lon="-2.27531">
        <ele>17</ele>
        <time>2021-07-18T09:27:28.000Z</time>
      </trkpt>
      <trkpt lat="47.29068" lon="-2.27531">
        <ele>17.1</ele>
        <time>2021-07-18T09:27:30.000Z</time>
      </trkpt>
      <trkpt lat="47.2903" lon="-2.27525">
        <ele>17.1</ele>
        <time>2021-07-18T09:27:37.000Z</time>
      </trkpt>
      <trkpt lat="47.28981" lon="-2.27522">
        <ele>17</ele>
        <time>2021-07-18T09:27:46.000Z</time>
      </trkpt>
      <trkpt lat="47.2893" lon="-2.27522">
        <ele>16</ele>
        <time>2021-07-18T09:27:54.000Z</time>
      </trkpt>
      <trkpt lat="47.28886" lon="-2.27528">
        <ele>15.9</ele>
        <time>2021-07-18T09:28:01.000Z</time>
      </trkpt>
      <trkpt lat="47.28829" lon="-2.2754">
        <ele>16</ele>
        <time>2021-07-18T09:28:10.000Z</time>
      </trkpt>
      <trkpt lat="47.28817" lon="-2.27544">
        <ele>16</ele>
        <time>2021-07-18T09:28:12.000Z</time>
      </trkpt>
      <trkpt lat="47.28799" lon="-2.27556">
        <ele>16</ele>
        <time>2021-07-18T09:28:15.000Z</time>
      </trkpt>
      <trkpt lat="47.28786" lon="-2.27574">
        <ele>16.2</ele>
        <time>2021-07-18T09:28:18.000Z</time>
      </trkpt>
      <trkpt lat="47.28781" lon="-2.2758">
        <ele>16.1</ele>
        <time>2021-07-18T09:28:19.000Z</time>
      </trkpt>
      <trkpt lat="47.28749" lon="-2.27618">
        <ele>17</ele>
        <time>2021-07-18T09:28:26.000Z</time>
      </trkpt>
      <trkpt lat="47.28719" lon="-2.27663">
        <ele>17</ele>
        <time>2021-07-18T09:28:33.000Z</time>
      </trkpt>
      <trkpt lat="47.28691" lon="-2.27713">
        <ele>17.7</ele>
        <time>2021-07-18T09:28:40.000Z</time>
      </trkpt>
      <trkpt lat="47.2867" lon="-2.2775">
        <ele>18.1</ele>
        <time>2021-07-18T09:28:45.000Z</time>
      </trkpt>
      <trkpt lat="47.28652" lon="-2.27799">
        <ele>18.9</ele>
        <time>2021-07-18T09:28:51.000Z</time>
      </trkpt>
      <trkpt lat="47.28642" lon="-2.2784">
        <ele>18.5</ele>
        <time>2021-07-18T09:28:56.000Z</time>
      </trkpt>
      <trkpt lat="47.2864" lon="-2.27848">
        <ele>0.40000000596046</ele>
        <time>2021-07-18T09:28:57.000Z</time>
      </trkpt>
      <trkpt lat="47.2864" lon="-2.27855">
        <ele>0.80000001192093</ele>
        <time>2021-07-18T09:28:58.000Z</time>
      </trkpt>
      <trkpt lat="47.28639" lon="-2.27862">
        <ele>1.2000000476837</ele>
        <time>2021-07-18T09:28:59.000Z</time>
      </trkpt>
      <trkpt lat="47.28637" lon="-2.27869">
        <ele>1.7999999523163</ele>
        <time>2021-07-18T09:29:00.000Z</time>
      </trkpt>
      <trkpt lat="47.28636" lon="-2.27877">
        <ele>2.2000000476837</ele>
        <time>2021-07-18T09:29:01.000Z</time>
      </trkpt>
      <trkpt lat="47.28629" lon="-2.27925">
        <ele>2.2000000476837</ele>
        <time>2021-07-18T09:29:08.000Z</time>
      </trkpt>
      <trkpt lat="47.2862" lon="-2.27953">
        <ele>2.2000000476837</ele>
        <time>2021-07-18T09:29:13.000Z</time>
      </trkpt>
      <trkpt lat="47.28617" lon="-2.27959">
        <ele>2.2000000476837</ele>
        <time>2021-07-18T09:29:14.000Z</time>
      </trkpt>
      <trkpt lat="47.2861" lon="-2.27979">
        <ele>2.2000000476837</ele>
        <time>2021-07-18T09:29:17.000Z</time>
      </trkpt>
      <trkpt lat="47.28609" lon="-2.27987">
        <ele>2.2000000476837</ele>
        <time>2021-07-18T09:29:18.000Z</time>
      </trkpt>
      <trkpt lat="47.28601" lon="-2.28014">
        <ele>2.2000000476837</ele>
        <time>2021-07-18T09:29:22.000Z</time>
      </trkpt>
      <trkpt lat="47.28594" lon="-2.28023">
        <ele>2.2000000476837</ele>
        <time>2021-07-18T09:29:24.000Z</time>
      </trkpt>
      <trkpt lat="47.28587" lon="-2.2803">
        <ele>2.2000000476837</ele>
        <time>2021-07-18T09:29:26.000Z</time>
      </trkpt>
      <trkpt lat="47.28574" lon="-2.28046">
        <ele>2.2000000476837</ele>
        <time>2021-07-18T09:29:30.000Z</time>
      </trkpt>
      <trkpt lat="47.28572" lon="-2.28046">
        <ele>2.2000000476837</ele>
        <time>2021-07-18T09:29:31.000Z</time>
      </trkpt>
      <trkpt lat="47.28565" lon="-2.28048">
        <ele>2.2000000476837</ele>
        <time>2021-07-18T09:29:33.000Z</time>
      </trkpt>
      <trkpt lat="47.28561" lon="-2.2805">
        <ele>2.5999999046326</ele>
        <time>2021-07-18T09:29:34.000Z</time>
      </trkpt>
      <trkpt lat="47.28557" lon="-2.2805">
        <ele>3</ele>
        <time>2021-07-18T09:29:35.000Z</time>
      </trkpt>
      <trkpt lat="47.28554" lon="-2.2805">
        <ele>3.4000000953674</ele>
        <time>2021-07-18T09:29:36.000Z</time>
      </trkpt>
      <trkpt lat="47.28551" lon="-2.28049">
        <ele>3.7999999523163</ele>
        <time>2021-07-18T09:29:37.000Z</time>
      </trkpt>
      <trkpt lat="47.28548" lon="-2.28047">
        <ele>4.1999998092651</ele>
        <time>2021-07-18T09:29:38.000Z</time>
      </trkpt>
      <trkpt lat="47.28538" lon="-2.28047">
        <ele>4.1999998092651</ele>
        <time>2021-07-18T09:29:42.000Z</time>
      </trkpt>
      <trkpt lat="47.28532" lon="-2.28046">
        <ele>4.5999999046326</ele>
        <time>2021-07-18T09:29:45.000Z</time>
      </trkpt>
      <trkpt lat="47.28529" lon="-2.28047">
        <ele>5</ele>
        <time>2021-07-18T09:29:46.000Z</time>
      </trkpt>
      <trkpt lat="47.28526" lon="-2.28047">
        <ele>5.5999999046326</ele>
        <time>2021-07-18T09:29:47.000Z</time>
      </trkpt>
      <trkpt lat="47.28524" lon="-2.28047">
        <ele>6</ele>
        <time>2021-07-18T09:29:48.000Z</time>
      </trkpt>
      <trkpt lat="47.2852" lon="-2.28047">
        <ele>6.4000000953674</ele>
        <time>2021-07-18T09:29:49.000Z</time>
      </trkpt>
      <trkpt lat="47.28515" lon="-2.28045">
        <ele>6.8000001907349</ele>
        <time>2021-07-18T09:29:51.000Z</time>
      </trkpt>
      <trkpt lat="47.28513" lon="-2.28043">
        <ele>7.8000001907349</ele>
        <time>2021-07-18T09:29:52.000Z</time>
      </trkpt>
      <trkpt lat="47.28512" lon="-2.28041">
        <ele>8.1999998092651</ele>
        <time>2021-07-18T09:29:53.000Z</time>
      </trkpt>
      <trkpt lat="47.2851" lon="-2.2804">
        <ele>8.8000001907349</ele>
        <time>2021-07-18T09:29:54.000Z</time>
      </trkpt>
      <trkpt lat="47.28503" lon="-2.28036">
        <ele>8.8000001907349</ele>
        <time>2021-07-18T09:29:57.000Z</time>
      </trkpt>
      <trkpt lat="47.28501" lon="-2.28037">
        <ele>8.8000001907349</ele>
        <time>2021-07-18T09:29:58.000Z</time>
      </trkpt>
      <trkpt lat="47.28495" lon="-2.28039">
        <ele>9.1999998092651</ele>
        <time>2021-07-18T09:30:00.000Z</time>
      </trkpt>
      <trkpt lat="47.28492" lon="-2.28041">
        <ele>9.6000003814697</ele>
        <time>2021-07-18T09:30:01.000Z</time>
      </trkpt>
      <trkpt lat="47.2849" lon="-2.28044">
        <ele>10</ele>
        <time>2021-07-18T09:30:02.000Z</time>
      </trkpt>
      <trkpt lat="47.28489" lon="-2.28047">
        <ele>10.39999961853</ele>
        <time>2021-07-18T09:30:03.000Z</time>
      </trkpt>
      <trkpt lat="47.28488" lon="-2.28051">
        <ele>10.800000190735</ele>
        <time>2021-07-18T09:30:04.000Z</time>
      </trkpt>
      <trkpt lat="47.28489" lon="-2.28059">
        <ele>10.800000190735</ele>
        <time>2021-07-18T09:30:06.000Z</time>
      </trkpt>
      <trkpt lat="47.28495" lon="-2.28068">
        <ele>10.800000190735</ele>
        <time>2021-07-18T09:30:09.000Z</time>
      </trkpt>
      <trkpt lat="47.28495" lon="-2.28073">
        <ele>10.800000190735</ele>
        <time>2021-07-18T09:30:11.000Z</time>
      </trkpt>
      <trkpt lat="47.28494" lon="-2.28077">
        <ele>10.800000190735</ele>
        <time>2021-07-18T09:30:12.000Z</time>
      </trkpt>
      <trkpt lat="47.28487" lon="-2.28083">
        <ele>10.800000190735</ele>
        <time>2021-07-18T09:30:15.000Z</time>
      </trkpt>
      <trkpt lat="47.28484" lon="-2.28085">
        <ele>10.800000190735</ele>
        <time>2021-07-18T09:30:16.000Z</time>
      </trkpt>
      <trkpt lat="47.28482" lon="-2.28087">
        <ele>10</ele>
        <time>2021-07-18T09:30:17.000Z</time>
      </trkpt>
      <trkpt lat="47.28479" lon="-2.28088">
        <ele>9.6000003814697</ele>
        <time>2021-07-18T09:30:18.000Z</time>
      </trkpt>
      <trkpt lat="47.28474" lon="-2.28087">
        <ele>9.1999998092651</ele>
        <time>2021-07-18T09:30:19.000Z</time>
      </trkpt>
      <trkpt lat="47.2847" lon="-2.28087">
        <ele>8.8000001907349</ele>
        <time>2021-07-18T09:30:20.000Z</time>
      </trkpt>
      <trkpt lat="47.28466" lon="-2.28087">
        <ele>8.8000001907349</ele>
        <time>2021-07-18T09:30:21.000Z</time>
      </trkpt>
      <trkpt lat="47.28443" lon="-2.28084">
        <ele>8.8000001907349</ele>
        <time>2021-07-18T09:30:28.000Z</time>
      </trkpt>
      <trkpt lat="47.28434" lon="-2.28087">
        <ele>8.8000001907349</ele>
        <time>2021-07-18T09:30:31.000Z</time>
      </trkpt>
      <trkpt lat="47.28429" lon="-2.28085">
        <ele>8.8000001907349</ele>
        <time>2021-07-18T09:30:33.000Z</time>
      </trkpt>
      <trkpt lat="47.28427" lon="-2.28085">
        <ele>8.8000001907349</ele>
        <time>2021-07-18T09:30:34.000Z</time>
      </trkpt>
      <trkpt lat="47.2842" lon="-2.28085">
        <ele>8.8000001907349</ele>
        <time>2021-07-18T09:30:37.000Z</time>
      </trkpt>
      <trkpt lat="47.28404" lon="-2.28081">
        <ele>8.8000001907349</ele>
        <time>2021-07-18T09:30:43.000Z</time>
      </trkpt>
      <trkpt lat="47.28387" lon="-2.28078">
        <ele>8.8000001907349</ele>
        <time>2021-07-18T09:30:48.000Z</time>
      </trkpt>
      <trkpt lat="47.28375" lon="-2.28075">
        <ele>8.8000001907349</ele>
        <time>2021-07-18T09:30:54.000Z</time>
      </trkpt>
      <trkpt lat="47.28371" lon="-2.28067">
        <ele>8.8000001907349</ele>
        <time>2021-07-18T09:30:59.000Z</time>
      </trkpt>
      <trkpt lat="47.2837" lon="-2.28061">
        <ele>8.8000001907349</ele>
        <time>2021-07-18T09:31:02.000Z</time>
      </trkpt>
      <trkpt lat="47.28371" lon="-2.28062">
        <ele>8.8000001907349</ele>
        <time>2021-07-18T09:31:04.000Z</time>
      </trkpt>
      <trkpt lat="47.28371" lon="-2.28065">
        <ele>8.8000001907349</ele>
        <time>2021-07-18T09:31:05.000Z</time>
      </trkpt>
      <trkpt lat="47.28368" lon="-2.28079">
        <ele>8.8000001907349</ele>
        <time>2021-07-18T09:31:09.000Z</time>
      </trkpt>
      <trkpt lat="47.28365" lon="-2.28082">
        <ele>8.3999996185303</ele>
        <time>2021-07-18T09:31:10.000Z</time>
      </trkpt>
      <trkpt lat="47.28363" lon="-2.28084">
        <ele>8</ele>
        <time>2021-07-18T09:31:11.000Z</time>
      </trkpt>
      <trkpt lat="47.2836" lon="-2.28086">
        <ele>7.5999999046326</ele>
        <time>2021-07-18T09:31:12.000Z</time>
      </trkpt>
      <trkpt lat="47.28358" lon="-2.28088">
        <ele>7</ele>
        <time>2021-07-18T09:31:13.000Z</time>
      </trkpt>
      <trkpt lat="47.28356" lon="-2.28089">
        <ele>6.5999999046326</ele>
        <time>2021-07-18T09:31:14.000Z</time>
      </trkpt>
      <trkpt lat="47.28333" lon="-2.28092">
        <ele>6.5999999046326</ele>
        <time>2021-07-18T09:31:21.000Z</time>
      </trkpt>
      <trkpt lat="47.2833" lon="-2.28085">
        <ele>6.5999999046326</ele>
        <time>2021-07-18T09:31:23.000Z</time>
      </trkpt>
      <trkpt lat="47.28328" lon="-2.28076">
        <ele>6.5999999046326</ele>
        <time>2021-07-18T09:31:25.000Z</time>
      </trkpt>
      <trkpt lat="47.28324" lon="-2.28049">
        <ele>6.5999999046326</ele>
        <time>2021-07-18T09:31:30.000Z</time>
      </trkpt>
      <trkpt lat="47.28324" lon="-2.28043">
        <ele>7.1999998092651</ele>
        <time>2021-07-18T09:31:31.000Z</time>
      </trkpt>
      <trkpt lat="47.28324" lon="-2.28037">
        <ele>7.5999999046326</ele>
        <time>2021-07-18T09:31:32.000Z</time>
      </trkpt>
      <trkpt lat="47.28324" lon="-2.28032">
        <ele>8</ele>
        <time>2021-07-18T09:31:33.000Z</time>
      </trkpt>
      <trkpt lat="47.28323" lon="-2.28027">
        <ele>8.3999996185303</ele>
        <time>2021-07-18T09:31:34.000Z</time>
      </trkpt>
      <trkpt lat="47.28323" lon="-2.28023">
        <ele>8.8000001907349</ele>
        <time>2021-07-18T09:31:35.000Z</time>
      </trkpt>
      <trkpt lat="47.28324" lon="-2.28004">
        <ele>9.3999996185303</ele>
        <time>2021-07-18T09:31:39.000Z</time>
      </trkpt>
      <trkpt lat="47.28323" lon="-2.28">
        <ele>9.8000001907349</ele>
        <time>2021-07-18T09:31:40.000Z</time>
      </trkpt>
      <trkpt lat="47.28322" lon="-2.27997">
        <ele>10.199999809265</ele>
        <time>2021-07-18T09:31:41.000Z</time>
      </trkpt>
      <trkpt lat="47.28321" lon="-2.27994">
        <ele>10.800000190735</ele>
        <time>2021-07-18T09:31:42.000Z</time>
      </trkpt>
      <trkpt lat="47.2832" lon="-2.27991">
        <ele>11.199999809265</ele>
        <time>2021-07-18T09:31:43.000Z</time>
      </trkpt>
      <trkpt lat="47.28319" lon="-2.27982">
        <ele>11.199999809265</ele>
        <time>2021-07-18T09:31:45.000Z</time>
      </trkpt>
      <trkpt lat="47.28319" lon="-2.27979">
        <ele>11.199999809265</ele>
        <time>2021-07-18T09:31:46.000Z</time>
      </trkpt>
      <trkpt lat="47.28322" lon="-2.27968">
        <ele>11.60000038147</ele>
        <time>2021-07-18T09:31:49.000Z</time>
      </trkpt>
      <trkpt lat="47.28322" lon="-2.27964">
        <ele>12</ele>
        <time>2021-07-18T09:31:50.000Z</time>
      </trkpt>
      <trkpt lat="47.28323" lon="-2.27958">
        <ele>12.39999961853</ele>
        <time>2021-07-18T09:31:51.000Z</time>
      </trkpt>
      <trkpt lat="47.28323" lon="-2.27952">
        <ele>13</ele>
        <time>2021-07-18T09:31:52.000Z</time>
      </trkpt>
      <trkpt lat="47.28323" lon="-2.27947">
        <ele>13.39999961853</ele>
        <time>2021-07-18T09:31:53.000Z</time>
      </trkpt>
      <trkpt lat="47.28323" lon="-2.27936">
        <ele>13.39999961853</ele>
        <time>2021-07-18T09:31:55.000Z</time>
      </trkpt>
      <trkpt lat="47.28324" lon="-2.27905">
        <ele>13.39999961853</ele>
        <time>2021-07-18T09:32:00.000Z</time>
      </trkpt>
      <trkpt lat="47.28325" lon="-2.27898">
        <ele>13.39999961853</ele>
        <time>2021-07-18T09:32:01.000Z</time>
      </trkpt>
      <trkpt lat="47.2833" lon="-2.27834">
        <ele>13.39999961853</ele>
        <time>2021-07-18T09:32:10.000Z</time>
      </trkpt>
      <trkpt lat="47.28336" lon="-2.27771">
        <ele>13.39999961853</ele>
        <time>2021-07-18T09:32:18.000Z</time>
      </trkpt>
      <trkpt lat="47.28341" lon="-2.27717">
        <ele>13.39999961853</ele>
        <time>2021-07-18T09:32:25.000Z</time>
      </trkpt>
      <trkpt lat="47.28343" lon="-2.27684">
        <ele>13.39999961853</ele>
        <time>2021-07-18T09:32:31.000Z</time>
      </trkpt>
      <trkpt lat="47.28347" lon="-2.27651">
        <ele>13.39999961853</ele>
        <time>2021-07-18T09:32:37.000Z</time>
      </trkpt>
      <trkpt lat="47.28349" lon="-2.27629">
        <ele>13.39999961853</ele>
        <time>2021-07-18T09:32:41.000Z</time>
      </trkpt>
      <trkpt lat="47.28349" lon="-2.27617">
        <ele>13.39999961853</ele>
        <time>2021-07-18T09:32:43.000Z</time>
      </trkpt>
      <trkpt lat="47.2835" lon="-2.27611">
        <ele>14.199999809265</ele>
        <time>2021-07-18T09:32:44.000Z</time>
      </trkpt>
      <trkpt lat="47.2835" lon="-2.27606">
        <ele>14.60000038147</ele>
        <time>2021-07-18T09:32:45.000Z</time>
      </trkpt>
      <trkpt lat="47.2835" lon="-2.276">
        <ele>15</ele>
        <time>2021-07-18T09:32:46.000Z</time>
      </trkpt>
      <trkpt lat="47.2835" lon="-2.27595">
        <ele>15.39999961853</ele>
        <time>2021-07-18T09:32:47.000Z</time>
      </trkpt>
      <trkpt lat="47.28349" lon="-2.2758">
        <ele>15.39999961853</ele>
        <time>2021-07-18T09:32:50.000Z</time>
      </trkpt>
      <trkpt lat="47.28354" lon="-2.27559">
        <ele>15.39999961853</ele>
        <time>2021-07-18T09:32:54.000Z</time>
      </trkpt>
      <trkpt lat="47.28359" lon="-2.27522">
        <ele>15.39999961853</ele>
        <time>2021-07-18T09:33:00.000Z</time>
      </trkpt>
      <trkpt lat="47.28364" lon="-2.27482">
        <ele>15.39999961853</ele>
        <time>2021-07-18T09:33:06.000Z</time>
      </trkpt>
      <trkpt lat="47.28367" lon="-2.27466">
        <ele>15.39999961853</ele>
        <time>2021-07-18T09:33:08.000Z</time>
      </trkpt>
      <trkpt lat="47.28371" lon="-2.27435">
        <ele>15.39999961853</ele>
        <time>2021-07-18T09:33:12.000Z</time>
      </trkpt>
      <trkpt lat="47.28381" lon="-2.27376">
        <ele>15.39999961853</ele>
        <time>2021-07-18T09:33:19.000Z</time>
      </trkpt>
      <trkpt lat="47.28382" lon="-2.27369">
        <ele>15</ele>
        <time>2021-07-18T09:33:20.000Z</time>
      </trkpt>
      <trkpt lat="47.28382" lon="-2.27363">
        <ele>14.60000038147</ele>
        <time>2021-07-18T09:33:21.000Z</time>
      </trkpt>
      <trkpt lat="47.28382" lon="-2.27359">
        <ele>14.199999809265</ele>
        <time>2021-07-18T09:33:22.000Z</time>
      </trkpt>
      <trkpt lat="47.28381" lon="-2.27356">
        <ele>13.39999961853</ele>
        <time>2021-07-18T09:33:23.000Z</time>
      </trkpt>
      <trkpt lat="47.2838" lon="-2.27354">
        <ele>12.800000190735</ele>
        <time>2021-07-18T09:33:24.000Z</time>
      </trkpt>
      <trkpt lat="47.28378" lon="-2.27352">
        <ele>12</ele>
        <time>2021-07-18T09:33:25.000Z</time>
      </trkpt>
      <trkpt lat="47.28376" lon="-2.2735">
        <ele>11.39999961853</ele>
        <time>2021-07-18T09:33:26.000Z</time>
      </trkpt>
      <trkpt lat="47.28373" lon="-2.2735">
        <ele>10.800000190735</ele>
        <time>2021-07-18T09:33:27.000Z</time>
      </trkpt>
      <trkpt lat="47.28364" lon="-2.2735">
        <ele>10.800000190735</ele>
        <time>2021-07-18T09:33:30.000Z</time>
      </trkpt>
      <trkpt lat="47.2835" lon="-2.27349">
        <ele>11.199999809265</ele>
        <time>2021-07-18T09:33:34.000Z</time>
      </trkpt>
      <trkpt lat="47.28346" lon="-2.27349">
        <ele>11.60000038147</ele>
        <time>2021-07-18T09:33:35.000Z</time>
      </trkpt>
      <trkpt lat="47.28343" lon="-2.27349">
        <ele>12</ele>
        <time>2021-07-18T09:33:36.000Z</time>
      </trkpt>
      <trkpt lat="47.28339" lon="-2.27349">
        <ele>12.39999961853</ele>
        <time>2021-07-18T09:33:37.000Z</time>
      </trkpt>
      <trkpt lat="47.28335" lon="-2.2735">
        <ele>12.800000190735</ele>
        <time>2021-07-18T09:33:38.000Z</time>
      </trkpt>
      <trkpt lat="47.28319" lon="-2.2735">
        <ele>13.39999961853</ele>
        <time>2021-07-18T09:33:42.000Z</time>
      </trkpt>
      <trkpt lat="47.28315" lon="-2.2735">
        <ele>13.800000190735</ele>
        <time>2021-07-18T09:33:43.000Z</time>
      </trkpt>
      <trkpt lat="47.28312" lon="-2.27351">
        <ele>14.199999809265</ele>
        <time>2021-07-18T09:33:44.000Z</time>
      </trkpt>
      <trkpt lat="47.28308" lon="-2.27351">
        <ele>14.60000038147</ele>
        <time>2021-07-18T09:33:45.000Z</time>
      </trkpt>
      <trkpt lat="47.28304" lon="-2.27351">
        <ele>15</ele>
        <time>2021-07-18T09:33:46.000Z</time>
      </trkpt>
      <trkpt lat="47.28294" lon="-2.27353">
        <ele>15.60000038147</ele>
        <time>2021-07-18T09:33:49.000Z</time>
      </trkpt>
      <trkpt lat="47.2829" lon="-2.27353">
        <ele>16</ele>
        <time>2021-07-18T09:33:50.000Z</time>
      </trkpt>
      <trkpt lat="47.28286" lon="-2.27353">
        <ele>16.39999961853</ele>
        <time>2021-07-18T09:33:51.000Z</time>
      </trkpt>
      <trkpt lat="47.28283" lon="-2.27353">
        <ele>16.799999237061</ele>
        <time>2021-07-18T09:33:52.000Z</time>
      </trkpt>
      <trkpt lat="47.28279" lon="-2.27352">
        <ele>17.39999961853</ele>
        <time>2021-07-18T09:33:53.000Z</time>
      </trkpt>
      <trkpt lat="47.28271" lon="-2.27352">
        <ele>17.39999961853</ele>
        <time>2021-07-18T09:33:55.000Z</time>
      </trkpt>
      <trkpt lat="47.28256" lon="-2.27351">
        <ele>17.799999237061</ele>
        <time>2021-07-18T09:33:59.000Z</time>
      </trkpt>
      <trkpt lat="47.28252" lon="-2.27351">
        <ele>18.200000762939</ele>
        <time>2021-07-18T09:34:00.000Z</time>
      </trkpt>
      <trkpt lat="47.28248" lon="-2.27351">
        <ele>18.60000038147</ele>
        <time>2021-07-18T09:34:01.000Z</time>
      </trkpt>
      <trkpt lat="47.28244" lon="-2.27351">
        <ele>19</ele>
        <time>2021-07-18T09:34:02.000Z</time>
      </trkpt>
      <trkpt lat="47.2824" lon="-2.27352">
        <ele>19.39999961853</ele>
        <time>2021-07-18T09:34:03.000Z</time>
      </trkpt>
      <trkpt lat="47.28225" lon="-2.27355">
        <ele>19.39999961853</ele>
        <time>2021-07-18T09:34:07.000Z</time>
      </trkpt>
      <trkpt lat="47.28214" lon="-2.27357">
        <ele>19.799999237061</ele>
        <time>2021-07-18T09:34:10.000Z</time>
      </trkpt>
      <trkpt lat="47.2821" lon="-2.27358">
        <ele>20.200000762939</ele>
        <time>2021-07-18T09:34:11.000Z</time>
      </trkpt>
      <trkpt lat="47.28207" lon="-2.27359">
        <ele>20.60000038147</ele>
        <time>2021-07-18T09:34:12.000Z</time>
      </trkpt>
      <trkpt lat="47.28203" lon="-2.27359">
        <ele>21</ele>
        <time>2021-07-18T09:34:13.000Z</time>
      </trkpt>
      <trkpt lat="47.28198" lon="-2.27361">
        <ele>21.39999961853</ele>
        <time>2021-07-18T09:34:14.000Z</time>
      </trkpt>
      <trkpt lat="47.28172" lon="-2.27366">
        <ele>21.39999961853</ele>
        <time>2021-07-18T09:34:21.000Z</time>
      </trkpt>
      <trkpt lat="47.28151" lon="-2.2737">
        <ele>21.39999961853</ele>
        <time>2021-07-18T09:34:27.000Z</time>
      </trkpt>
      <trkpt lat="47.2813" lon="-2.2738">
        <ele>21.39999961853</ele>
        <time>2021-07-18T09:34:33.000Z</time>
      </trkpt>
      <trkpt lat="47.28127" lon="-2.27385">
        <ele>21.39999961853</ele>
        <time>2021-07-18T09:34:34.000Z</time>
      </trkpt>
      <trkpt lat="47.2812" lon="-2.27401">
        <ele>21.39999961853</ele>
        <time>2021-07-18T09:34:37.000Z</time>
      </trkpt>
      <trkpt lat="47.28118" lon="-2.27407">
        <ele>21.39999961853</ele>
        <time>2021-07-18T09:34:38.000Z</time>
      </trkpt>
      <trkpt lat="47.28106" lon="-2.2744">
        <ele>21.39999961853</ele>
        <time>2021-07-18T09:34:43.000Z</time>
      </trkpt>
      <trkpt lat="47.28104" lon="-2.27447">
        <ele>21.39999961853</ele>
        <time>2021-07-18T09:34:44.000Z</time>
      </trkpt>
      <trkpt lat="47.28092" lon="-2.27486">
        <ele>21.39999961853</ele>
        <time>2021-07-18T09:34:49.000Z</time>
      </trkpt>
      <trkpt lat="47.28083" lon="-2.27512">
        <ele>21</ele>
        <time>2021-07-18T09:34:52.000Z</time>
      </trkpt>
      <trkpt lat="47.28079" lon="-2.27521">
        <ele>20.60000038147</ele>
        <time>2021-07-18T09:34:53.000Z</time>
      </trkpt>
      <trkpt lat="47.28075" lon="-2.2753">
        <ele>20.200000762939</ele>
        <time>2021-07-18T09:34:54.000Z</time>
      </trkpt>
      <trkpt lat="47.28069" lon="-2.27538">
        <ele>19.799999237061</ele>
        <time>2021-07-18T09:34:55.000Z</time>
      </trkpt>
      <trkpt lat="47.28063" lon="-2.27545">
        <ele>19.39999961853</ele>
        <time>2021-07-18T09:34:56.000Z</time>
      </trkpt>
      <trkpt lat="47.2804" lon="-2.2756">
        <ele>19.39999961853</ele>
        <time>2021-07-18T09:34:59.000Z</time>
      </trkpt>
      <trkpt lat="47.28021" lon="-2.27563">
        <ele>19</ele>
        <time>2021-07-18T09:35:01.000Z</time>
      </trkpt>
      <trkpt lat="47.28012" lon="-2.27563">
        <ele>18.39999961853</ele>
        <time>2021-07-18T09:35:02.000Z</time>
      </trkpt>
      <trkpt lat="47.28003" lon="-2.27562">
        <ele>18</ele>
        <time>2021-07-18T09:35:03.000Z</time>
      </trkpt>
      <trkpt lat="47.27994" lon="-2.27562">
        <ele>17.60000038147</ele>
        <time>2021-07-18T09:35:04.000Z</time>
      </trkpt>
      <trkpt lat="47.27986" lon="-2.27561">
        <ele>17.200000762939</ele>
        <time>2021-07-18T09:35:05.000Z</time>
      </trkpt>
      <trkpt lat="47.27972" lon="-2.27559">
        <ele>16.799999237061</ele>
        <time>2021-07-18T09:35:07.000Z</time>
      </trkpt>
      <trkpt lat="47.27967" lon="-2.27559">
        <ele>16.200000762939</ele>
        <time>2021-07-18T09:35:08.000Z</time>
      </trkpt>
      <trkpt lat="47.27962" lon="-2.27559">
        <ele>15.800000190735</ele>
        <time>2021-07-18T09:35:09.000Z</time>
      </trkpt>
      <trkpt lat="47.27957" lon="-2.27559">
        <ele>15.199999809265</ele>
        <time>2021-07-18T09:35:10.000Z</time>
      </trkpt>
      <trkpt lat="47.27953" lon="-2.27559">
        <ele>14.60000038147</ele>
        <time>2021-07-18T09:35:11.000Z</time>
      </trkpt>
      <trkpt lat="47.27948" lon="-2.2756">
        <ele>13.39999961853</ele>
        <time>2021-07-18T09:35:12.000Z</time>
      </trkpt>
      <trkpt lat="47.27943" lon="-2.27561">
        <ele>12.800000190735</ele>
        <time>2021-07-18T09:35:13.000Z</time>
      </trkpt>
      <trkpt lat="47.27938" lon="-2.27564">
        <ele>12.800000190735</ele>
        <time>2021-07-18T09:35:14.000Z</time>
      </trkpt>
      <trkpt lat="47.27918" lon="-2.27587">
        <ele>12.800000190735</ele>
        <time>2021-07-18T09:35:18.000Z</time>
      </trkpt>
      <trkpt lat="47.27915" lon="-2.27595">
        <ele>12.39999961853</ele>
        <time>2021-07-18T09:35:19.000Z</time>
      </trkpt>
      <trkpt lat="47.27912" lon="-2.27603">
        <ele>11.800000190735</ele>
        <time>2021-07-18T09:35:20.000Z</time>
      </trkpt>
      <trkpt lat="47.27909" lon="-2.27611">
        <ele>11.39999961853</ele>
        <time>2021-07-18T09:35:21.000Z</time>
      </trkpt>
      <trkpt lat="47.27907" lon="-2.27619">
        <ele>11</ele>
        <time>2021-07-18T09:35:22.000Z</time>
      </trkpt>
      <trkpt lat="47.27905" lon="-2.27627">
        <ele>10.60000038147</ele>
        <time>2021-07-18T09:35:23.000Z</time>
      </trkpt>
      <trkpt lat="47.27903" lon="-2.27636">
        <ele>10.60000038147</ele>
        <time>2021-07-18T09:35:24.000Z</time>
      </trkpt>
      <trkpt lat="47.27896" lon="-2.27661">
        <ele>10.60000038147</ele>
        <time>2021-07-18T09:35:27.000Z</time>
      </trkpt>
      <trkpt lat="47.2788" lon="-2.27704">
        <ele>10.60000038147</ele>
        <time>2021-07-18T09:35:33.000Z</time>
      </trkpt>
      <trkpt lat="47.27857" lon="-2.2775">
        <ele>10.60000038147</ele>
        <time>2021-07-18T09:35:40.000Z</time>
      </trkpt>
      <trkpt lat="47.27837" lon="-2.27791">
        <ele>10.60000038147</ele>
        <time>2021-07-18T09:35:46.000Z</time>
      </trkpt>
      <trkpt lat="47.27812" lon="-2.27844">
        <ele>10.60000038147</ele>
        <time>2021-07-18T09:35:54.000Z</time>
      </trkpt>
      <trkpt lat="47.27802" lon="-2.27864">
        <ele>10.60000038147</ele>
        <time>2021-07-18T09:35:57.000Z</time>
      </trkpt>
      <trkpt lat="47.27792" lon="-2.27882">
        <ele>10.60000038147</ele>
        <time>2021-07-18T09:36:00.000Z</time>
      </trkpt>
      <trkpt lat="47.27774" lon="-2.27922">
        <ele>10.60000038147</ele>
        <time>2021-07-18T09:36:07.000Z</time>
      </trkpt>
      <trkpt lat="47.27767" lon="-2.27957">
        <ele>10.60000038147</ele>
        <time>2021-07-18T09:36:12.000Z</time>
      </trkpt>
      <trkpt lat="47.27756" lon="-2.28011">
        <ele>10.60000038147</ele>
        <time>2021-07-18T09:36:19.000Z</time>
      </trkpt>
      <trkpt lat="47.27755" lon="-2.28018">
        <ele>11</ele>
        <time>2021-07-18T09:36:20.000Z</time>
      </trkpt>
      <trkpt lat="47.27753" lon="-2.28026">
        <ele>11.39999961853</ele>
        <time>2021-07-18T09:36:21.000Z</time>
      </trkpt>
      <trkpt lat="47.27752" lon="-2.28033">
        <ele>11.800000190735</ele>
        <time>2021-07-18T09:36:22.000Z</time>
      </trkpt>
      <trkpt lat="47.27751" lon="-2.28041">
        <ele>12.199999809265</ele>
        <time>2021-07-18T09:36:23.000Z</time>
      </trkpt>
      <trkpt lat="47.2775" lon="-2.28049">
        <ele>12.60000038147</ele>
        <time>2021-07-18T09:36:24.000Z</time>
      </trkpt>
      <trkpt lat="47.27744" lon="-2.28101">
        <ele>12.60000038147</ele>
        <time>2021-07-18T09:36:30.000Z</time>
      </trkpt>
      <trkpt lat="47.27735" lon="-2.28151">
        <ele>12.60000038147</ele>
        <time>2021-07-18T09:36:36.000Z</time>
      </trkpt>
      <trkpt lat="47.27721" lon="-2.28188">
        <ele>12.60000038147</ele>
        <time>2021-07-18T09:36:41.000Z</time>
      </trkpt>
      <trkpt lat="47.27696" lon="-2.28232">
        <ele>12.60000038147</ele>
        <time>2021-07-18T09:36:47.000Z</time>
      </trkpt>
      <trkpt lat="47.27668" lon="-2.28271">
        <ele>12.60000038147</ele>
        <time>2021-07-18T09:36:53.000Z</time>
      </trkpt>
      <trkpt lat="47.27652" lon="-2.28291">
        <ele>12.60000038147</ele>
        <time>2021-07-18T09:36:58.000Z</time>
      </trkpt>
      <trkpt lat="47.27645" lon="-2.28299">
        <ele>12.60000038147</ele>
        <time>2021-07-18T09:37:00.000Z</time>
      </trkpt>
      <trkpt lat="47.27626" lon="-2.28318">
        <ele>12.60000038147</ele>
        <time>2021-07-18T09:37:04.000Z</time>
      </trkpt>
      <trkpt lat="47.27605" lon="-2.28347">
        <ele>12.60000038147</ele>
        <time>2021-07-18T09:37:09.000Z</time>
      </trkpt>
      <trkpt lat="47.2758" lon="-2.28379">
        <ele>12.60000038147</ele>
        <time>2021-07-18T09:37:15.000Z</time>
      </trkpt>
      <trkpt lat="47.27552" lon="-2.28414">
        <ele>12.60000038147</ele>
        <time>2021-07-18T09:37:21.000Z</time>
      </trkpt>
      <trkpt lat="47.27527" lon="-2.28464">
        <ele>12.60000038147</ele>
        <time>2021-07-18T09:37:27.000Z</time>
      </trkpt>
      <trkpt lat="47.2751" lon="-2.2851">
        <ele>12.60000038147</ele>
        <time>2021-07-18T09:37:33.000Z</time>
      </trkpt>
      <trkpt lat="47.27493" lon="-2.28546">
        <ele>12.60000038147</ele>
        <time>2021-07-18T09:37:38.000Z</time>
      </trkpt>
      <trkpt lat="47.2749" lon="-2.28555">
        <ele>12.60000038147</ele>
        <time>2021-07-18T09:37:39.000Z</time>
      </trkpt>
      <trkpt lat="47.27465" lon="-2.28622">
        <ele>12.60000038147</ele>
        <time>2021-07-18T09:37:47.000Z</time>
      </trkpt>
      <trkpt lat="47.27461" lon="-2.2863">
        <ele>12.60000038147</ele>
        <time>2021-07-18T09:37:48.000Z</time>
      </trkpt>
      <trkpt lat="47.27447" lon="-2.28656">
        <ele>12.60000038147</ele>
        <time>2021-07-18T09:37:52.000Z</time>
      </trkpt>
      <trkpt lat="47.27421" lon="-2.28703">
        <ele>12.60000038147</ele>
        <time>2021-07-18T09:37:59.000Z</time>
      </trkpt>
      <trkpt lat="47.27398" lon="-2.28753">
        <ele>12.60000038147</ele>
        <time>2021-07-18T09:38:06.000Z</time>
      </trkpt>
      <trkpt lat="47.27374" lon="-2.28806">
        <ele>12.60000038147</ele>
        <time>2021-07-18T09:38:13.000Z</time>
      </trkpt>
      <trkpt lat="47.27371" lon="-2.28816">
        <ele>12.60000038147</ele>
        <time>2021-07-18T09:38:14.000Z</time>
      </trkpt>
      <trkpt lat="47.27366" lon="-2.28844">
        <ele>12.60000038147</ele>
        <time>2021-07-18T09:38:17.000Z</time>
      </trkpt>
      <trkpt lat="47.27352" lon="-2.28921">
        <ele>12.60000038147</ele>
        <time>2021-07-18T09:38:25.000Z</time>
      </trkpt>
      <trkpt lat="47.27347" lon="-2.28945">
        <ele>12.60000038147</ele>
        <time>2021-07-18T09:38:29.000Z</time>
      </trkpt>
      <trkpt lat="47.27339" lon="-2.28947">
        <ele>12.60000038147</ele>
        <time>2021-07-18T09:38:32.000Z</time>
      </trkpt>
      <trkpt lat="47.27322" lon="-2.28944">
        <ele>12.60000038147</ele>
        <time>2021-07-18T09:38:37.000Z</time>
      </trkpt>
      <trkpt lat="47.27316" lon="-2.28957">
        <ele>12.60000038147</ele>
        <time>2021-07-18T09:38:40.000Z</time>
      </trkpt>
      <trkpt lat="47.2731" lon="-2.28969">
        <ele>12.60000038147</ele>
        <time>2021-07-18T09:38:43.000Z</time>
      </trkpt>
      <trkpt lat="47.27303" lon="-2.28974">
        <ele>12.60000038147</ele>
        <time>2021-07-18T09:38:45.000Z</time>
      </trkpt>
      <trkpt lat="47.27294" lon="-2.28985">
        <ele>12.60000038147</ele>
        <time>2021-07-18T09:38:48.000Z</time>
      </trkpt>
      <trkpt lat="47.27287" lon="-2.28996">
        <ele>12.60000038147</ele>
        <time>2021-07-18T09:38:50.000Z</time>
      </trkpt>
      <trkpt lat="47.27272" lon="-2.29026">
        <ele>12.60000038147</ele>
        <time>2021-07-18T09:38:55.000Z</time>
      </trkpt>
      <trkpt lat="47.27268" lon="-2.29031">
        <ele>12.60000038147</ele>
        <time>2021-07-18T09:38:56.000Z</time>
      </trkpt>
      <trkpt lat="47.27254" lon="-2.29048">
        <ele>12.60000038147</ele>
        <time>2021-07-18T09:38:59.000Z</time>
      </trkpt>
      <trkpt lat="47.27239" lon="-2.29061">
        <ele>12.60000038147</ele>
        <time>2021-07-18T09:39:02.000Z</time>
      </trkpt>
      <trkpt lat="47.27229" lon="-2.29071">
        <ele>12.60000038147</ele>
        <time>2021-07-18T09:39:04.000Z</time>
      </trkpt>
      <trkpt lat="47.27215" lon="-2.29088">
        <ele>12.60000038147</ele>
        <time>2021-07-18T09:39:07.000Z</time>
      </trkpt>
      <trkpt lat="47.27211" lon="-2.29092">
        <ele>12.60000038147</ele>
        <time>2021-07-18T09:39:08.000Z</time>
      </trkpt>
      <trkpt lat="47.27185" lon="-2.29115">
        <ele>12.60000038147</ele>
        <time>2021-07-18T09:39:13.000Z</time>
      </trkpt>
      <trkpt lat="47.27156" lon="-2.2915">
        <ele>12.60000038147</ele>
        <time>2021-07-18T09:39:20.000Z</time>
      </trkpt>
      <trkpt lat="47.2715" lon="-2.29161">
        <ele>12.60000038147</ele>
        <time>2021-07-18T09:39:22.000Z</time>
      </trkpt>
      <trkpt lat="47.27151" lon="-2.29175">
        <ele>12.60000038147</ele>
        <time>2021-07-18T09:39:24.000Z</time>
      </trkpt>
      <trkpt lat="47.27157" lon="-2.29197">
        <ele>12.60000038147</ele>
        <time>2021-07-18T09:39:27.000Z</time>
      </trkpt>
      <trkpt lat="47.27162" lon="-2.2921">
        <ele>12.60000038147</ele>
        <time>2021-07-18T09:39:29.000Z</time>
      </trkpt>
      <trkpt lat="47.27173" lon="-2.29233">
        <ele>12.60000038147</ele>
        <time>2021-07-18T09:39:33.000Z</time>
      </trkpt>
      <trkpt lat="47.27174" lon="-2.2924">
        <ele>12.60000038147</ele>
        <time>2021-07-18T09:39:34.000Z</time>
      </trkpt>
      <trkpt lat="47.27169" lon="-2.29261">
        <ele>12.60000038147</ele>
        <time>2021-07-18T09:39:37.000Z</time>
      </trkpt>
      <trkpt lat="47.27167" lon="-2.29267">
        <ele>12.60000038147</ele>
        <time>2021-07-18T09:39:38.000Z</time>
      </trkpt>
      <trkpt lat="47.2716" lon="-2.29286">
        <ele>12.60000038147</ele>
        <time>2021-07-18T09:39:41.000Z</time>
      </trkpt>
      <trkpt lat="47.27153" lon="-2.29304">
        <ele>12.60000038147</ele>
        <time>2021-07-18T09:39:44.000Z</time>
      </trkpt>
      <trkpt lat="47.27159" lon="-2.2933">
        <ele>12.60000038147</ele>
        <time>2021-07-18T09:39:48.000Z</time>
      </trkpt>
      <trkpt lat="47.27169" lon="-2.29345">
        <ele>12.60000038147</ele>
        <time>2021-07-18T09:39:51.000Z</time>
      </trkpt>
      <trkpt lat="47.27174" lon="-2.2935">
        <ele>12.60000038147</ele>
        <time>2021-07-18T09:39:52.000Z</time>
      </trkpt>
      <trkpt lat="47.27178" lon="-2.29355">
        <ele>12.60000038147</ele>
        <time>2021-07-18T09:39:53.000Z</time>
      </trkpt>
      <trkpt lat="47.27192" lon="-2.29381">
        <ele>12.60000038147</ele>
        <time>2021-07-18T09:39:57.000Z</time>
      </trkpt>
      <trkpt lat="47.27208" lon="-2.29424">
        <ele>12.60000038147</ele>
        <time>2021-07-18T09:40:03.000Z</time>
      </trkpt>
      <trkpt lat="47.27214" lon="-2.29439">
        <ele>13.199999809265</ele>
        <time>2021-07-18T09:40:05.000Z</time>
      </trkpt>
      <trkpt lat="47.27216" lon="-2.29447">
        <ele>13.60000038147</ele>
        <time>2021-07-18T09:40:06.000Z</time>
      </trkpt>
      <trkpt lat="47.27219" lon="-2.29456">
        <ele>14</ele>
        <time>2021-07-18T09:40:07.000Z</time>
      </trkpt>
      <trkpt lat="47.27222" lon="-2.29464">
        <ele>14.39999961853</ele>
        <time>2021-07-18T09:40:08.000Z</time>
      </trkpt>
      <trkpt lat="47.27225" lon="-2.29473">
        <ele>14.800000190735</ele>
        <time>2021-07-18T09:40:09.000Z</time>
      </trkpt>
      <trkpt lat="47.27227" lon="-2.29481">
        <ele>14.800000190735</ele>
        <time>2021-07-18T09:40:10.000Z</time>
      </trkpt>
      <trkpt lat="47.27231" lon="-2.29498">
        <ele>14.800000190735</ele>
        <time>2021-07-18T09:40:12.000Z</time>
      </trkpt>
      <trkpt lat="47.2724" lon="-2.2952">
        <ele>14.800000190735</ele>
        <time>2021-07-18T09:40:15.000Z</time>
      </trkpt>
      <trkpt lat="47.27255" lon="-2.29566">
        <ele>14.800000190735</ele>
        <time>2021-07-18T09:40:21.000Z</time>
      </trkpt>
      <trkpt lat="47.27266" lon="-2.29628">
        <ele>14.800000190735</ele>
        <time>2021-07-18T09:40:29.000Z</time>
      </trkpt>
      <trkpt lat="47.27267" lon="-2.29639">
        <ele>14.800000190735</ele>
        <time>2021-07-18T09:40:31.000Z</time>
      </trkpt>
      <trkpt lat="47.27269" lon="-2.29658">
        <ele>14.800000190735</ele>
        <time>2021-07-18T09:40:34.000Z</time>
      </trkpt>
      <trkpt lat="47.27272" lon="-2.29677">
        <ele>14.800000190735</ele>
        <time>2021-07-18T09:40:37.000Z</time>
      </trkpt>
      <trkpt lat="47.27276" lon="-2.29699">
        <ele>14.800000190735</ele>
        <time>2021-07-18T09:40:40.000Z</time>
      </trkpt>
      <trkpt lat="47.27293" lon="-2.29757">
        <ele>14.800000190735</ele>
        <time>2021-07-18T09:40:47.000Z</time>
      </trkpt>
      <trkpt lat="47.27308" lon="-2.29799">
        <ele>14.800000190735</ele>
        <time>2021-07-18T09:40:52.000Z</time>
      </trkpt>
      <trkpt lat="47.27312" lon="-2.29806">
        <ele>14.800000190735</ele>
        <time>2021-07-18T09:40:53.000Z</time>
      </trkpt>
      <trkpt lat="47.27337" lon="-2.29846">
        <ele>14.800000190735</ele>
        <time>2021-07-18T09:40:59.000Z</time>
      </trkpt>
      <trkpt lat="47.27366" lon="-2.29897">
        <ele>14.800000190735</ele>
        <time>2021-07-18T09:41:06.000Z</time>
      </trkpt>
      <trkpt lat="47.27391" lon="-2.29957">
        <ele>14.800000190735</ele>
        <time>2021-07-18T09:41:13.000Z</time>
      </trkpt>
      <trkpt lat="47.27414" lon="-2.30017">
        <ele>14.800000190735</ele>
        <time>2021-07-18T09:41:20.000Z</time>
      </trkpt>
      <trkpt lat="47.27433" lon="-2.30069">
        <ele>14.39999961853</ele>
        <time>2021-07-18T09:41:26.000Z</time>
      </trkpt>
      <trkpt lat="47.27435" lon="-2.30078">
        <ele>14</ele>
        <time>2021-07-18T09:41:27.000Z</time>
      </trkpt>
      <trkpt lat="47.27438" lon="-2.30086">
        <ele>13.60000038147</ele>
        <time>2021-07-18T09:41:28.000Z</time>
      </trkpt>
      <trkpt lat="47.27441" lon="-2.30095">
        <ele>13</ele>
        <time>2021-07-18T09:41:29.000Z</time>
      </trkpt>
      <trkpt lat="47.27444" lon="-2.30104">
        <ele>12.60000038147</ele>
        <time>2021-07-18T09:41:30.000Z</time>
      </trkpt>
      <trkpt lat="47.27458" lon="-2.30154">
        <ele>12.60000038147</ele>
        <time>2021-07-18T09:41:36.000Z</time>
      </trkpt>
      <trkpt lat="47.27463" lon="-2.3017">
        <ele>12.199999809265</ele>
        <time>2021-07-18T09:41:38.000Z</time>
      </trkpt>
      <trkpt lat="47.27465" lon="-2.30179">
        <ele>11.800000190735</ele>
        <time>2021-07-18T09:41:39.000Z</time>
      </trkpt>
      <trkpt lat="47.27466" lon="-2.30188">
        <ele>11.39999961853</ele>
        <time>2021-07-18T09:41:40.000Z</time>
      </trkpt>
      <trkpt lat="47.27468" lon="-2.30197">
        <ele>11</ele>
        <time>2021-07-18T09:41:41.000Z</time>
      </trkpt>
      <trkpt lat="47.27469" lon="-2.30208">
        <ele>10.60000038147</ele>
        <time>2021-07-18T09:41:42.000Z</time>
      </trkpt>
      <trkpt lat="47.27478" lon="-2.30248">
        <ele>10.60000038147</ele>
        <time>2021-07-18T09:41:46.000Z</time>
      </trkpt>
      <trkpt lat="47.27482" lon="-2.30269">
        <ele>9.8000001907349</ele>
        <time>2021-07-18T09:41:48.000Z</time>
      </trkpt>
      <trkpt lat="47.27484" lon="-2.30279">
        <ele>9.1999998092651</ele>
        <time>2021-07-18T09:41:49.000Z</time>
      </trkpt>
      <trkpt lat="47.27486" lon="-2.30289">
        <ele>8.8000001907349</ele>
        <time>2021-07-18T09:41:50.000Z</time>
      </trkpt>
      <trkpt lat="47.27489" lon="-2.30299">
        <ele>8.3999996185303</ele>
        <time>2021-07-18T09:41:51.000Z</time>
      </trkpt>
      <trkpt lat="47.27498" lon="-2.30342">
        <ele>8.3999996185303</ele>
        <time>2021-07-18T09:41:55.000Z</time>
      </trkpt>
      <trkpt lat="47.27501" lon="-2.30354">
        <ele>8</ele>
        <time>2021-07-18T09:41:56.000Z</time>
      </trkpt>
      <trkpt lat="47.27502" lon="-2.30366">
        <ele>7.5999999046326</ele>
        <time>2021-07-18T09:41:57.000Z</time>
      </trkpt>
      <trkpt lat="47.27504" lon="-2.30377">
        <ele>7.1999998092651</ele>
        <time>2021-07-18T09:41:58.000Z</time>
      </trkpt>
      <trkpt lat="47.27506" lon="-2.30389">
        <ele>6.5999999046326</ele>
        <time>2021-07-18T09:41:59.000Z</time>
      </trkpt>
      <trkpt lat="47.27507" lon="-2.304">
        <ele>6.1999998092651</ele>
        <time>2021-07-18T09:42:00.000Z</time>
      </trkpt>
      <trkpt lat="47.27509" lon="-2.30411">
        <ele>6.1999998092651</ele>
        <time>2021-07-18T09:42:01.000Z</time>
      </trkpt>
      <trkpt lat="47.27512" lon="-2.30432">
        <ele>5.8000001907349</ele>
        <time>2021-07-18T09:42:03.000Z</time>
      </trkpt>
      <trkpt lat="47.27514" lon="-2.30443">
        <ele>5.4000000953674</ele>
        <time>2021-07-18T09:42:04.000Z</time>
      </trkpt>
      <trkpt lat="47.27516" lon="-2.30452">
        <ele>5</ele>
        <time>2021-07-18T09:42:05.000Z</time>
      </trkpt>
      <trkpt lat="47.27518" lon="-2.30462">
        <ele>4.5999999046326</ele>
        <time>2021-07-18T09:42:06.000Z</time>
      </trkpt>
      <trkpt lat="47.2752" lon="-2.30473">
        <ele>4.1999998092651</ele>
        <time>2021-07-18T09:42:07.000Z</time>
      </trkpt>
      <trkpt lat="47.27522" lon="-2.30483">
        <ele>4.1999998092651</ele>
        <time>2021-07-18T09:42:08.000Z</time>
      </trkpt>
      <trkpt lat="47.2753" lon="-2.3053">
        <ele>3.4000000953674</ele>
        <time>2021-07-18T09:42:13.000Z</time>
      </trkpt>
      <trkpt lat="47.27532" lon="-2.3054">
        <ele>3</ele>
        <time>2021-07-18T09:42:14.000Z</time>
      </trkpt>
      <trkpt lat="47.27534" lon="-2.30548">
        <ele>2.5999999046326</ele>
        <time>2021-07-18T09:42:15.000Z</time>
      </trkpt>
      <trkpt lat="47.27536" lon="-2.30556">
        <ele>2.2000000476837</ele>
        <time>2021-07-18T09:42:16.000Z</time>
      </trkpt>
      <trkpt lat="47.27544" lon="-2.30583">
        <ele>2.2000000476837</ele>
        <time>2021-07-18T09:42:20.000Z</time>
      </trkpt>
      <trkpt lat="47.27548" lon="-2.30606">
        <ele>2.2000000476837</ele>
        <time>2021-07-18T09:42:24.000Z</time>
      </trkpt>
      <trkpt lat="47.27549" lon="-2.30612">
        <ele>2.2000000476837</ele>
        <time>2021-07-18T09:42:25.000Z</time>
      </trkpt>
      <trkpt lat="47.27561" lon="-2.30647">
        <ele>2.2000000476837</ele>
        <time>2021-07-18T09:42:31.000Z</time>
      </trkpt>
      <trkpt lat="47.27573" lon="-2.30701">
        <ele>2.2000000476837</ele>
        <time>2021-07-18T09:42:38.000Z</time>
      </trkpt>
      <trkpt lat="47.27586" lon="-2.30746">
        <ele>2.2000000476837</ele>
        <time>2021-07-18T09:42:44.000Z</time>
      </trkpt>
      <trkpt lat="47.27589" lon="-2.30755">
        <ele>2.2000000476837</ele>
        <time>2021-07-18T09:42:45.000Z</time>
      </trkpt>
      <trkpt lat="47.27594" lon="-2.30773">
        <ele>2.5999999046326</ele>
        <time>2021-07-18T09:42:47.000Z</time>
      </trkpt>
      <trkpt lat="47.27596" lon="-2.30781">
        <ele>3</ele>
        <time>2021-07-18T09:42:48.000Z</time>
      </trkpt>
      <trkpt lat="47.27599" lon="-2.30789">
        <ele>3.4000000953674</ele>
        <time>2021-07-18T09:42:49.000Z</time>
      </trkpt>
      <trkpt lat="47.27602" lon="-2.30796">
        <ele>3.7999999523163</ele>
        <time>2021-07-18T09:42:50.000Z</time>
      </trkpt>
      <trkpt lat="47.27606" lon="-2.30803">
        <ele>4.1999998092651</ele>
        <time>2021-07-18T09:42:51.000Z</time>
      </trkpt>
      <trkpt lat="47.27622" lon="-2.30841">
        <ele>4.1999998092651</ele>
        <time>2021-07-18T09:42:56.000Z</time>
      </trkpt>
      <trkpt lat="47.27649" lon="-2.30904">
        <ele>4.1999998092651</ele>
        <time>2021-07-18T09:43:04.000Z</time>
      </trkpt>
      <trkpt lat="47.27667" lon="-2.30941">
        <ele>4.1999998092651</ele>
        <time>2021-07-18T09:43:09.000Z</time>
      </trkpt>
      <trkpt lat="47.27689" lon="-2.31">
        <ele>4.1999998092651</ele>
        <time>2021-07-18T09:43:16.000Z</time>
      </trkpt>
      <trkpt lat="47.27708" lon="-2.31053">
        <ele>4.1999998092651</ele>
        <time>2021-07-18T09:43:23.000Z</time>
      </trkpt>
      <trkpt lat="47.27714" lon="-2.31065">
        <ele>4.1999998092651</ele>
        <time>2021-07-18T09:43:25.000Z</time>
      </trkpt>
      <trkpt lat="47.27718" lon="-2.31086">
        <ele>4.1999998092651</ele>
        <time>2021-07-18T09:43:28.000Z</time>
      </trkpt>
      <trkpt lat="47.2771" lon="-2.31116">
        <ele>4.1999998092651</ele>
        <time>2021-07-18T09:43:32.000Z</time>
      </trkpt>
      <trkpt lat="47.27698" lon="-2.31157">
        <ele>4.1999998092651</ele>
        <time>2021-07-18T09:43:37.000Z</time>
      </trkpt>
      <trkpt lat="47.2769" lon="-2.31185">
        <ele>3.7999999523163</ele>
        <time>2021-07-18T09:43:40.000Z</time>
      </trkpt>
      <trkpt lat="47.27688" lon="-2.31194">
        <ele>3.4000000953674</ele>
        <time>2021-07-18T09:43:41.000Z</time>
      </trkpt>
      <trkpt lat="47.27685" lon="-2.31204">
        <ele>3</ele>
        <time>2021-07-18T09:43:42.000Z</time>
      </trkpt>
      <trkpt lat="47.27683" lon="-2.31214">
        <ele>2.5999999046326</ele>
        <time>2021-07-18T09:43:43.000Z</time>
      </trkpt>
      <trkpt lat="47.27682" lon="-2.31224">
        <ele>2.2000000476837</ele>
        <time>2021-07-18T09:43:44.000Z</time>
      </trkpt>
      <trkpt lat="47.27669" lon="-2.31273">
        <ele>2.2000000476837</ele>
        <time>2021-07-18T09:43:49.000Z</time>
      </trkpt>
      <trkpt lat="47.27667" lon="-2.31282">
        <ele>1.7999999523163</ele>
        <time>2021-07-18T09:43:50.000Z</time>
      </trkpt>
      <trkpt lat="47.27664" lon="-2.31292">
        <ele>1.3999999761581</ele>
        <time>2021-07-18T09:43:51.000Z</time>
      </trkpt>
      <trkpt lat="47.27661" lon="-2.31302">
        <ele>1</ele>
        <time>2021-07-18T09:43:52.000Z</time>
      </trkpt>
      <trkpt lat="47.27658" lon="-2.31313">
        <ele>0.40000000596046</ele>
        <time>2021-07-18T09:43:53.000Z</time>
      </trkpt>
      <trkpt lat="47.27655" lon="-2.31323">
        <ele>15.2</ele>
        <time>2021-07-18T09:43:54.000Z</time>
      </trkpt>
      <trkpt lat="47.27652" lon="-2.31334">
        <ele>15</ele>
        <time>2021-07-18T09:43:55.000Z</time>
      </trkpt>
      <trkpt lat="47.27631" lon="-2.314">
        <ele>13.3</ele>
        <time>2021-07-18T09:44:01.000Z</time>
      </trkpt>
      <trkpt lat="47.27618" lon="-2.31449">
        <ele>-0.40000000596046</ele>
        <time>2021-07-18T09:44:05.000Z</time>
      </trkpt>
      <trkpt lat="47.27615" lon="-2.31461">
        <ele>-0.80000001192093</ele>
        <time>2021-07-18T09:44:06.000Z</time>
      </trkpt>
      <trkpt lat="47.27612" lon="-2.31473">
        <ele>-1.2000000476837</ele>
        <time>2021-07-18T09:44:07.000Z</time>
      </trkpt>
      <trkpt lat="47.27608" lon="-2.31486">
        <ele>-1.6000000238419</ele>
        <time>2021-07-18T09:44:08.000Z</time>
      </trkpt>
      <trkpt lat="47.27605" lon="-2.31499">
        <ele>-2</ele>
        <time>2021-07-18T09:44:09.000Z</time>
      </trkpt>
      <trkpt lat="47.27589" lon="-2.31556">
        <ele>-2</ele>
        <time>2021-07-18T09:44:14.000Z</time>
      </trkpt>
      <trkpt lat="47.27585" lon="-2.31566">
        <ele>-2</ele>
        <time>2021-07-18T09:44:15.000Z</time>
      </trkpt>
      <trkpt lat="47.27569" lon="-2.31608">
        <ele>-2</ele>
        <time>2021-07-18T09:44:19.000Z</time>
      </trkpt>
      <trkpt lat="47.27552" lon="-2.31671">
        <ele>-2</ele>
        <time>2021-07-18T09:44:25.000Z</time>
      </trkpt>
      <trkpt lat="47.27547" lon="-2.31692">
        <ele>-2.4000000953674</ele>
        <time>2021-07-18T09:44:27.000Z</time>
      </trkpt>
      <trkpt lat="47.27544" lon="-2.31703">
        <ele>-2.7999999523163</ele>
        <time>2021-07-18T09:44:28.000Z</time>
      </trkpt>
      <trkpt lat="47.27542" lon="-2.31715">
        <ele>-3.2000000476837</ele>
        <time>2021-07-18T09:44:29.000Z</time>
      </trkpt>
      <trkpt lat="47.27539" lon="-2.31727">
        <ele>-3.5999999046326</ele>
        <time>2021-07-18T09:44:30.000Z</time>
      </trkpt>
      <trkpt lat="47.27537" lon="-2.31739">
        <ele>-4</ele>
        <time>2021-07-18T09:44:31.000Z</time>
      </trkpt>
      <trkpt lat="47.27534" lon="-2.31752">
        <ele>-4</ele>
        <time>2021-07-18T09:44:32.000Z</time>
      </trkpt>
      <trkpt lat="47.27526" lon="-2.3179">
        <ele>-4.4000000953674</ele>
        <time>2021-07-18T09:44:35.000Z</time>
      </trkpt>
      <trkpt lat="47.27523" lon="-2.31802">
        <ele>-5</ele>
        <time>2021-07-18T09:44:36.000Z</time>
      </trkpt>
      <trkpt lat="47.2752" lon="-2.31814">
        <ele>-5.4000000953674</ele>
        <time>2021-07-18T09:44:37.000Z</time>
      </trkpt>
      <trkpt lat="47.27516" lon="-2.31825">
        <ele>-5.8000001907349</ele>
        <time>2021-07-18T09:44:38.000Z</time>
      </trkpt>
      <trkpt lat="47.27512" lon="-2.31837">
        <ele>-6.1999998092651</ele>
        <time>2021-07-18T09:44:39.000Z</time>
      </trkpt>
      <trkpt lat="47.2749" lon="-2.31895">
        <ele>-6.5999999046326</ele>
        <time>2021-07-18T09:44:44.000Z</time>
      </trkpt>
      <trkpt lat="47.27486" lon="-2.31906">
        <ele>-7</ele>
        <time>2021-07-18T09:44:45.000Z</time>
      </trkpt>
      <trkpt lat="47.27481" lon="-2.31918">
        <ele>-7.5999999046326</ele>
        <time>2021-07-18T09:44:46.000Z</time>
      </trkpt>
      <trkpt lat="47.27476" lon="-2.31929">
        <ele>-8</ele>
        <time>2021-07-18T09:44:47.000Z</time>
      </trkpt>
      <trkpt lat="47.27471" lon="-2.31941">
        <ele>-8.3999996185303</ele>
        <time>2021-07-18T09:44:48.000Z</time>
      </trkpt>
      <trkpt lat="47.27438" lon="-2.32018">
        <ele>-8.3999996185303</ele>
        <time>2021-07-18T09:44:55.000Z</time>
      </trkpt>
      <trkpt lat="47.27428" lon="-2.32037">
        <ele>-8.3999996185303</ele>
        <time>2021-07-18T09:44:57.000Z</time>
      </trkpt>
      <trkpt lat="47.27415" lon="-2.32046">
        <ele>-8.3999996185303</ele>
        <time>2021-07-18T09:44:59.000Z</time>
      </trkpt>
      <trkpt lat="47.27402" lon="-2.32042">
        <ele>-8.3999996185303</ele>
        <time>2021-07-18T09:45:01.000Z</time>
      </trkpt>
      <trkpt lat="47.2739" lon="-2.3203">
        <ele>-8.3999996185303</ele>
        <time>2021-07-18T09:45:03.000Z</time>
      </trkpt>
      <trkpt lat="47.27378" lon="-2.3202">
        <ele>-8.3999996185303</ele>
        <time>2021-07-18T09:45:05.000Z</time>
      </trkpt>
      <trkpt lat="47.27364" lon="-2.32004">
        <ele>-8.3999996185303</ele>
        <time>2021-07-18T09:45:08.000Z</time>
      </trkpt>
      <trkpt lat="47.27355" lon="-2.31993">
        <ele>-8.3999996185303</ele>
        <time>2021-07-18T09:45:10.000Z</time>
      </trkpt>
      <trkpt lat="47.27345" lon="-2.31986">
        <ele>-8.3999996185303</ele>
        <time>2021-07-18T09:45:13.000Z</time>
      </trkpt>
      <trkpt lat="47.27344" lon="-2.31988">
        <ele>-8.3999996185303</ele>
        <time>2021-07-18T09:45:14.000Z</time>
      </trkpt>
      <trkpt lat="47.27347" lon="-2.32002">
        <ele>-8.3999996185303</ele>
        <time>2021-07-18T09:45:17.000Z</time>
      </trkpt>
      <trkpt lat="47.27356" lon="-2.32018">
        <ele>-8.3999996185303</ele>
        <time>2021-07-18T09:45:20.000Z</time>
      </trkpt>
      <trkpt lat="47.27363" lon="-2.32028">
        <ele>-8.3999996185303</ele>
        <time>2021-07-18T09:45:22.000Z</time>
      </trkpt>
      <trkpt lat="47.27385" lon="-2.32056">
        <ele>-8.3999996185303</ele>
        <time>2021-07-18T09:45:28.000Z</time>
      </trkpt>
      <trkpt lat="47.27388" lon="-2.32059">
        <ele>-8.8000001907349</ele>
        <time>2021-07-18T09:45:29.000Z</time>
      </trkpt>
      <trkpt lat="47.27391" lon="-2.32061">
        <ele>-9.1999998092651</ele>
        <time>2021-07-18T09:45:30.000Z</time>
      </trkpt>
      <trkpt lat="47.27393" lon="-2.32063">
        <ele>-9.6000003814697</ele>
        <time>2021-07-18T09:45:31.000Z</time>
      </trkpt>
      <trkpt lat="47.27396" lon="-2.32066">
        <ele>-10</ele>
        <time>2021-07-18T09:45:32.000Z</time>
      </trkpt>
      <trkpt lat="47.27399" lon="-2.3207">
        <ele>-10.39999961853</ele>
        <time>2021-07-18T09:45:33.000Z</time>
      </trkpt>
      <trkpt lat="47.2741" lon="-2.32084">
        <ele>-10.39999961853</ele>
        <time>2021-07-18T09:45:36.000Z</time>
      </trkpt>
      <trkpt lat="47.27415" lon="-2.32096">
        <ele>-10.39999961853</ele>
        <time>2021-07-18T09:45:38.000Z</time>
      </trkpt>
      <trkpt lat="47.27415" lon="-2.3212">
        <ele>-10.39999961853</ele>
        <time>2021-07-18T09:45:42.000Z</time>
      </trkpt>
      <trkpt lat="47.27409" lon="-2.32165">
        <ele>-10.39999961853</ele>
        <time>2021-07-18T09:45:47.000Z</time>
      </trkpt>
      <trkpt lat="47.27401" lon="-2.32211">
        <ele>-10.39999961853</ele>
        <time>2021-07-18T09:45:51.000Z</time>
      </trkpt>
      <trkpt lat="47.27399" lon="-2.32222">
        <ele>-10.39999961853</ele>
        <time>2021-07-18T09:45:52.000Z</time>
      </trkpt>
      <trkpt lat="47.27397" lon="-2.32232">
        <ele>-10.39999961853</ele>
        <time>2021-07-18T09:45:53.000Z</time>
      </trkpt>
      <trkpt lat="47.27386" lon="-2.32271">
        <ele>-10.39999961853</ele>
        <time>2021-07-18T09:45:57.000Z</time>
      </trkpt>
      <trkpt lat="47.27384" lon="-2.32279">
        <ele>-10</ele>
        <time>2021-07-18T09:45:58.000Z</time>
      </trkpt>
      <trkpt lat="47.27382" lon="-2.32286">
        <ele>-9.6000003814697</ele>
        <time>2021-07-18T09:45:59.000Z</time>
      </trkpt>
      <trkpt lat="47.27381" lon="-2.32294">
        <ele>-9.1999998092651</ele>
        <time>2021-07-18T09:46:00.000Z</time>
      </trkpt>
      <trkpt lat="47.27379" lon="-2.32303">
        <ele>-8.8000001907349</ele>
        <time>2021-07-18T09:46:01.000Z</time>
      </trkpt>
      <trkpt lat="47.27377" lon="-2.32311">
        <ele>-8.3999996185303</ele>
        <time>2021-07-18T09:46:02.000Z</time>
      </trkpt>
      <trkpt lat="47.27362" lon="-2.3238">
        <ele>-8.3999996185303</ele>
        <time>2021-07-18T09:46:09.000Z</time>
      </trkpt>
      <trkpt lat="47.27347" lon="-2.32434">
        <ele>-8.3999996185303</ele>
        <time>2021-07-18T09:46:14.000Z</time>
      </trkpt>
      <trkpt lat="47.2733" lon="-2.32472">
        <ele>-8.3999996185303</ele>
        <time>2021-07-18T09:46:18.000Z</time>
      </trkpt>
      <trkpt lat="47.27324" lon="-2.3248">
        <ele>-8.3999996185303</ele>
        <time>2021-07-18T09:46:19.000Z</time>
      </trkpt>
      <trkpt lat="47.27298" lon="-2.32525">
        <ele>-8.3999996185303</ele>
        <time>2021-07-18T09:46:25.000Z</time>
      </trkpt>
      <trkpt lat="47.27267" lon="-2.32565">
        <ele>-8.3999996185303</ele>
        <time>2021-07-18T09:46:31.000Z</time>
      </trkpt>
      <trkpt lat="47.27228" lon="-2.32606">
        <ele>-8.3999996185303</ele>
        <time>2021-07-18T09:46:38.000Z</time>
      </trkpt>
      <trkpt lat="47.27179" lon="-2.32652">
        <ele>-8.3999996185303</ele>
        <time>2021-07-18T09:46:46.000Z</time>
      </trkpt>
      <trkpt lat="47.27135" lon="-2.32696">
        <ele>-8.3999996185303</ele>
        <time>2021-07-18T09:46:54.000Z</time>
      </trkpt>
      <trkpt lat="47.27126" lon="-2.32711">
        <ele>-8.3999996185303</ele>
        <time>2021-07-18T09:46:57.000Z</time>
      </trkpt>
      <trkpt lat="47.27122" lon="-2.32715">
        <ele>-8.3999996185303</ele>
        <time>2021-07-18T09:46:58.000Z</time>
      </trkpt>
      <trkpt lat="47.27103" lon="-2.32731">
        <ele>-8.3999996185303</ele>
        <time>2021-07-18T09:47:03.000Z</time>
      </trkpt>
      <trkpt lat="47.27063" lon="-2.32767">
        <ele>-8.3999996185303</ele>
        <time>2021-07-18T09:47:10.000Z</time>
      </trkpt>
      <trkpt lat="47.27017" lon="-2.32809">
        <ele>-8.3999996185303</ele>
        <time>2021-07-18T09:47:18.000Z</time>
      </trkpt>
      <trkpt lat="47.26975" lon="-2.32848">
        <ele>-8.3999996185303</ele>
        <time>2021-07-18T09:47:25.000Z</time>
      </trkpt>
      <trkpt lat="47.2693" lon="-2.3289">
        <ele>-8.3999996185303</ele>
        <time>2021-07-18T09:47:33.000Z</time>
      </trkpt>
      <trkpt lat="47.26886" lon="-2.3293">
        <ele>-8.3999996185303</ele>
        <time>2021-07-18T09:47:41.000Z</time>
      </trkpt>
      <trkpt lat="47.26853" lon="-2.32961">
        <ele>-8.8000001907349</ele>
        <time>2021-07-18T09:47:47.000Z</time>
      </trkpt>
      <trkpt lat="47.26847" lon="-2.32966">
        <ele>-9.1999998092651</ele>
        <time>2021-07-18T09:47:48.000Z</time>
      </trkpt>
      <trkpt lat="47.26841" lon="-2.32972">
        <ele>-9.6000003814697</ele>
        <time>2021-07-18T09:47:49.000Z</time>
      </trkpt>
      <trkpt lat="47.26834" lon="-2.32978">
        <ele>-10</ele>
        <time>2021-07-18T09:47:50.000Z</time>
      </trkpt>
      <trkpt lat="47.26828" lon="-2.32984">
        <ele>-10.39999961853</ele>
        <time>2021-07-18T09:47:51.000Z</time>
      </trkpt>
      <trkpt lat="47.26798" lon="-2.33013">
        <ele>-10.39999961853</ele>
        <time>2021-07-18T09:47:56.000Z</time>
      </trkpt>
      <trkpt lat="47.26753" lon="-2.33057">
        <ele>-10.39999961853</ele>
        <time>2021-07-18T09:48:04.000Z</time>
      </trkpt>
      <trkpt lat="47.26748" lon="-2.33061">
        <ele>-10.39999961853</ele>
        <time>2021-07-18T09:48:05.000Z</time>
      </trkpt>
      <trkpt lat="47.26738" lon="-2.33066">
        <ele>-10.39999961853</ele>
        <time>2021-07-18T09:48:08.000Z</time>
      </trkpt>
      <trkpt lat="47.26735" lon="-2.33064">
        <ele>-10.800000190735</ele>
        <time>2021-07-18T09:48:09.000Z</time>
      </trkpt>
      <trkpt lat="47.26732" lon="-2.33061">
        <ele>-11.199999809265</ele>
        <time>2021-07-18T09:48:10.000Z</time>
      </trkpt>
      <trkpt lat="47.2673" lon="-2.33057">
        <ele>-11.800000190735</ele>
        <time>2021-07-18T09:48:11.000Z</time>
      </trkpt>
      <trkpt lat="47.26728" lon="-2.33056">
        <ele>-12.199999809265</ele>
        <time>2021-07-18T09:48:12.000Z</time>
      </trkpt>
      <trkpt lat="47.26726" lon="-2.33056">
        <ele>-12.60000038147</ele>
        <time>2021-07-18T09:48:13.000Z</time>
      </trkpt>
      <trkpt lat="47.26722" lon="-2.33064">
        <ele>-12.60000038147</ele>
        <time>2021-07-18T09:48:15.000Z</time>
      </trkpt>
      <trkpt lat="47.2671" lon="-2.3308">
        <ele>-12.60000038147</ele>
        <time>2021-07-18T09:48:19.000Z</time>
      </trkpt>
      <trkpt lat="47.26706" lon="-2.33084">
        <ele>-12.60000038147</ele>
        <time>2021-07-18T09:48:20.000Z</time>
      </trkpt>
      <trkpt lat="47.26678" lon="-2.33114">
        <ele>-12.60000038147</ele>
        <time>2021-07-18T09:48:27.000Z</time>
      </trkpt>
      <trkpt lat="47.2667" lon="-2.33122">
        <ele>-12.60000038147</ele>
        <time>2021-07-18T09:48:29.000Z</time>
      </trkpt>
      <trkpt lat="47.26656" lon="-2.33134">
        <ele>-12.60000038147</ele>
        <time>2021-07-18T09:48:33.000Z</time>
      </trkpt>
      <trkpt lat="47.26633" lon="-2.33152">
        <ele>-12.60000038147</ele>
        <time>2021-07-18T09:48:39.000Z</time>
      </trkpt>
      <trkpt lat="47.26617" lon="-2.33152">
        <ele>-12.60000038147</ele>
        <time>2021-07-18T09:48:43.000Z</time>
      </trkpt>
      <trkpt lat="47.26609" lon="-2.33154">
        <ele>-12.60000038147</ele>
        <time>2021-07-18T09:48:45.000Z</time>
      </trkpt>
      <trkpt lat="47.26606" lon="-2.33157">
        <ele>-12.60000038147</ele>
        <time>2021-07-18T09:48:46.000Z</time>
      </trkpt>
      <trkpt lat="47.266" lon="-2.33171">
        <ele>-12.60000038147</ele>
        <time>2021-07-18T09:48:49.000Z</time>
      </trkpt>
      <trkpt lat="47.26596" lon="-2.33182">
        <ele>-12.60000038147</ele>
        <time>2021-07-18T09:48:51.000Z</time>
      </trkpt>
      <trkpt lat="47.26586" lon="-2.33204">
        <ele>-12.60000038147</ele>
        <time>2021-07-18T09:48:56.000Z</time>
      </trkpt>
      <trkpt lat="47.26565" lon="-2.33217">
        <ele>-12.60000038147</ele>
        <time>2021-07-18T09:49:01.000Z</time>
      </trkpt>
      <trkpt lat="47.26529" lon="-2.33241">
        <ele>-12.60000038147</ele>
        <time>2021-07-18T09:49:09.000Z</time>
      </trkpt>
      <trkpt lat="47.26504" lon="-2.33259">
        <ele>-12.60000038147</ele>
        <time>2021-07-18T09:49:16.000Z</time>
      </trkpt>
      <trkpt lat="47.26501" lon="-2.3326">
        <ele>-12.60000038147</ele>
        <time>2021-07-18T09:49:19.000Z</time>
      </trkpt>
      <trkpt lat="47.26501" lon="-2.3326">
        <ele>-12.60000038147</ele>
        <time>2021-07-18T09:49:20.000Z</time>
      </trkpt>
      <trkpt lat="47.26499" lon="-2.33261">
        <ele>-14.60000038147</ele>
        <time>2021-07-18T09:53:58.000Z</time>
      </trkpt>
      <trkpt lat="47.26497" lon="-2.33265">
        <ele>-14.60000038147</ele>
        <time>2021-07-18T09:54:00.000Z</time>
      </trkpt>
      <trkpt lat="47.26499" lon="-2.33277">
        <ele>-14.60000038147</ele>
        <time>2021-07-18T09:54:04.000Z</time>
      </trkpt>
      <trkpt lat="47.26497" lon="-2.3328">
        <ele>-14.60000038147</ele>
        <time>2021-07-18T09:54:05.000Z</time>
      </trkpt>
      <trkpt lat="47.26491" lon="-2.33279">
        <ele>-14.60000038147</ele>
        <time>2021-07-18T09:54:07.000Z</time>
      </trkpt>
      <trkpt lat="47.26485" lon="-2.33282">
        <ele>-14.60000038147</ele>
        <time>2021-07-18T09:54:09.000Z</time>
      </trkpt>
      <trkpt lat="47.26481" lon="-2.33291">
        <ele>-14.60000038147</ele>
        <time>2021-07-18T09:54:11.000Z</time>
      </trkpt>
      <trkpt lat="47.26467" lon="-2.33308">
        <ele>-14.60000038147</ele>
        <time>2021-07-18T09:54:16.000Z</time>
      </trkpt>
      <trkpt lat="47.26441" lon="-2.3333">
        <ele>-14.60000038147</ele>
        <time>2021-07-18T09:54:24.000Z</time>
      </trkpt>
      <trkpt lat="47.26407" lon="-2.33355">
        <ele>-14.60000038147</ele>
        <time>2021-07-18T09:54:32.000Z</time>
      </trkpt>
      <trkpt lat="47.2637" lon="-2.33377">
        <ele>-14.60000038147</ele>
        <time>2021-07-18T09:54:40.000Z</time>
      </trkpt>
      <trkpt lat="47.26328" lon="-2.33398">
        <ele>-14.60000038147</ele>
        <time>2021-07-18T09:54:49.000Z</time>
      </trkpt>
      <trkpt lat="47.26319" lon="-2.33403">
        <ele>-14.60000038147</ele>
        <time>2021-07-18T09:54:53.000Z</time>
      </trkpt>
      <trkpt lat="47.26318" lon="-2.33406">
        <ele>-14.60000038147</ele>
        <time>2021-07-18T09:54:55.000Z</time>
      </trkpt>
      <trkpt lat="47.26315" lon="-2.33411">
        <ele>-14.60000038147</ele>
        <time>2021-07-18T09:54:57.000Z</time>
      </trkpt>
      <trkpt lat="47.26303" lon="-2.33418">
        <ele>-14.60000038147</ele>
        <time>2021-07-18T09:55:01.000Z</time>
      </trkpt>
      <trkpt lat="47.2627" lon="-2.33426">
        <ele>-14.60000038147</ele>
        <time>2021-07-18T09:55:09.000Z</time>
      </trkpt>
      <trkpt lat="47.26242" lon="-2.33433">
        <ele>-14.60000038147</ele>
        <time>2021-07-18T09:55:15.000Z</time>
      </trkpt>
      <trkpt lat="47.26208" lon="-2.33442">
        <ele>-14.60000038147</ele>
        <time>2021-07-18T09:55:22.000Z</time>
      </trkpt>
      <trkpt lat="47.26178" lon="-2.33444">
        <ele>-14.60000038147</ele>
        <time>2021-07-18T09:55:29.000Z</time>
      </trkpt>
      <trkpt lat="47.26146" lon="-2.33432">
        <ele>-14.60000038147</ele>
        <time>2021-07-18T09:55:37.000Z</time>
      </trkpt>
      <trkpt lat="47.26143" lon="-2.33432">
        <ele>-14.60000038147</ele>
        <time>2021-07-18T09:55:38.000Z</time>
      </trkpt>
      <trkpt lat="47.26139" lon="-2.33435">
        <ele>-14.60000038147</ele>
        <time>2021-07-18T09:55:40.000Z</time>
      </trkpt>
      <trkpt lat="47.26135" lon="-2.33452">
        <ele>-14.60000038147</ele>
        <time>2021-07-18T09:55:44.000Z</time>
      </trkpt>
      <trkpt lat="47.26132" lon="-2.33455">
        <ele>-14.60000038147</ele>
        <time>2021-07-18T09:55:45.000Z</time>
      </trkpt>
      <trkpt lat="47.26128" lon="-2.33466">
        <ele>-14.60000038147</ele>
        <time>2021-07-18T09:55:47.000Z</time>
      </trkpt>
      <trkpt lat="47.26123" lon="-2.33479">
        <ele>-14.60000038147</ele>
        <time>2021-07-18T09:55:49.000Z</time>
      </trkpt>
      <trkpt lat="47.26113" lon="-2.33507">
        <ele>-14.60000038147</ele>
        <time>2021-07-18T09:55:53.000Z</time>
      </trkpt>
      <trkpt lat="47.26093" lon="-2.33561">
        <ele>-14.60000038147</ele>
        <time>2021-07-18T09:56:01.000Z</time>
      </trkpt>
      <trkpt lat="47.2607" lon="-2.33619">
        <ele>-14.60000038147</ele>
        <time>2021-07-18T09:56:10.000Z</time>
      </trkpt>
      <trkpt lat="47.26057" lon="-2.33658">
        <ele>-14.60000038147</ele>
        <time>2021-07-18T09:56:17.000Z</time>
      </trkpt>
      <trkpt lat="47.26048" lon="-2.33675">
        <ele>-14.60000038147</ele>
        <time>2021-07-18T09:56:22.000Z</time>
      </trkpt>
      <trkpt lat="47.2604" lon="-2.33697">
        <ele>-14.60000038147</ele>
        <time>2021-07-18T09:56:27.000Z</time>
      </trkpt>
      <trkpt lat="47.26028" lon="-2.33734">
        <ele>-14.60000038147</ele>
        <time>2021-07-18T09:56:33.000Z</time>
      </trkpt>
      <trkpt lat="47.26012" lon="-2.3378">
        <ele>-14.60000038147</ele>
        <time>2021-07-18T09:56:40.000Z</time>
      </trkpt>
      <trkpt lat="47.25996" lon="-2.33822">
        <ele>-14.60000038147</ele>
        <time>2021-07-18T09:56:47.000Z</time>
      </trkpt>
      <trkpt lat="47.25983" lon="-2.33856">
        <ele>-14.60000038147</ele>
        <time>2021-07-18T09:56:53.000Z</time>
      </trkpt>
      <trkpt lat="47.25982" lon="-2.33862">
        <ele>-14.60000038147</ele>
        <time>2021-07-18T09:56:54.000Z</time>
      </trkpt>
      <trkpt lat="47.25973" lon="-2.33891">
        <ele>-14.60000038147</ele>
        <time>2021-07-18T09:57:00.000Z</time>
      </trkpt>
      <trkpt lat="47.2597" lon="-2.33913">
        <ele>-14.60000038147</ele>
        <time>2021-07-18T09:57:05.000Z</time>
      </trkpt>
      <trkpt lat="47.25966" lon="-2.33923">
        <ele>-14.60000038147</ele>
        <time>2021-07-18T09:57:07.000Z</time>
      </trkpt>
      <trkpt lat="47.2596" lon="-2.33932">
        <ele>-14.60000038147</ele>
        <time>2021-07-18T09:57:09.000Z</time>
      </trkpt>
      <trkpt lat="47.25957" lon="-2.33938">
        <ele>-14.60000038147</ele>
        <time>2021-07-18T09:57:10.000Z</time>
      </trkpt>
      <trkpt lat="47.25947" lon="-2.33965">
        <ele>-14.60000038147</ele>
        <time>2021-07-18T09:57:14.000Z</time>
      </trkpt>
      <trkpt lat="47.25932" lon="-2.3401">
        <ele>-14.60000038147</ele>
        <time>2021-07-18T09:57:20.000Z</time>
      </trkpt>
      <trkpt lat="47.25931" lon="-2.34019">
        <ele>-14.60000038147</ele>
        <time>2021-07-18T09:57:21.000Z</time>
      </trkpt>
      <trkpt lat="47.25933" lon="-2.34034">
        <ele>-14</ele>
        <time>2021-07-18T09:57:23.000Z</time>
      </trkpt>
      <trkpt lat="47.25935" lon="-2.34041">
        <ele>-13.60000038147</ele>
        <time>2021-07-18T09:57:24.000Z</time>
      </trkpt>
      <trkpt lat="47.25938" lon="-2.34048">
        <ele>-12.800000190735</ele>
        <time>2021-07-18T09:57:25.000Z</time>
      </trkpt>
      <trkpt lat="47.2594" lon="-2.34055">
        <ele>-12.39999961853</ele>
        <time>2021-07-18T09:57:26.000Z</time>
      </trkpt>
      <trkpt lat="47.25944" lon="-2.34061">
        <ele>-12.39999961853</ele>
        <time>2021-07-18T09:57:27.000Z</time>
      </trkpt>
      <trkpt lat="47.25953" lon="-2.34068">
        <ele>-12.39999961853</ele>
        <time>2021-07-18T09:57:29.000Z</time>
      </trkpt>
      <trkpt lat="47.25963" lon="-2.34074">
        <ele>-12.39999961853</ele>
        <time>2021-07-18T09:57:31.000Z</time>
      </trkpt>
      <trkpt lat="47.25988" lon="-2.34084">
        <ele>-12.39999961853</ele>
        <time>2021-07-18T09:57:36.000Z</time>
      </trkpt>
      <trkpt lat="47.26023" lon="-2.34101">
        <ele>-12</ele>
        <time>2021-07-18T09:57:43.000Z</time>
      </trkpt>
      <trkpt lat="47.26028" lon="-2.34103">
        <ele>-11.60000038147</ele>
        <time>2021-07-18T09:57:44.000Z</time>
      </trkpt>
      <trkpt lat="47.26033" lon="-2.34105">
        <ele>-11.199999809265</ele>
        <time>2021-07-18T09:57:45.000Z</time>
      </trkpt>
      <trkpt lat="47.26038" lon="-2.34107">
        <ele>-10.800000190735</ele>
        <time>2021-07-18T09:57:46.000Z</time>
      </trkpt>
      <trkpt lat="47.26043" lon="-2.34109">
        <ele>-10.39999961853</ele>
        <time>2021-07-18T09:57:47.000Z</time>
      </trkpt>
      <trkpt lat="47.26058" lon="-2.34117">
        <ele>-10.39999961853</ele>
        <time>2021-07-18T09:57:50.000Z</time>
      </trkpt>
      <trkpt lat="47.26108" lon="-2.34139">
        <ele>-10.39999961853</ele>
        <time>2021-07-18T09:58:00.000Z</time>
      </trkpt>
      <trkpt lat="47.2614" lon="-2.34154">
        <ele>-10.39999961853</ele>
        <time>2021-07-18T09:58:07.000Z</time>
      </trkpt>
      <trkpt lat="47.26145" lon="-2.34157">
        <ele>-10.39999961853</ele>
        <time>2021-07-18T09:58:08.000Z</time>
      </trkpt>
      <trkpt lat="47.26161" lon="-2.34174">
        <ele>-10.39999961853</ele>
        <time>2021-07-18T09:58:12.000Z</time>
      </trkpt>
      <trkpt lat="47.26165" lon="-2.34179">
        <ele>-10.39999961853</ele>
        <time>2021-07-18T09:58:13.000Z</time>
      </trkpt>
      <trkpt lat="47.26192" lon="-2.34208">
        <ele>-10.39999961853</ele>
        <time>2021-07-18T09:58:20.000Z</time>
      </trkpt>
      <trkpt lat="47.26205" lon="-2.34224">
        <ele>-10.39999961853</ele>
        <time>2021-07-18T09:58:25.000Z</time>
      </trkpt>
      <trkpt lat="47.26219" lon="-2.34237">
        <ele>-10.39999961853</ele>
        <time>2021-07-18T09:58:30.000Z</time>
      </trkpt>
      <trkpt lat="47.26244" lon="-2.34264">
        <ele>-10.39999961853</ele>
        <time>2021-07-18T09:58:36.000Z</time>
      </trkpt>
      <trkpt lat="47.26253" lon="-2.34273">
        <ele>-10.39999961853</ele>
        <time>2021-07-18T09:58:38.000Z</time>
      </trkpt>
      <trkpt lat="47.26271" lon="-2.34292">
        <ele>-10.39999961853</ele>
        <time>2021-07-18T09:58:42.000Z</time>
      </trkpt>
      <trkpt lat="47.26301" lon="-2.34325">
        <ele>-10.39999961853</ele>
        <time>2021-07-18T09:58:49.000Z</time>
      </trkpt>
      <trkpt lat="47.26324" lon="-2.34349">
        <ele>-10.39999961853</ele>
        <time>2021-07-18T09:58:55.000Z</time>
      </trkpt>
      <trkpt lat="47.26328" lon="-2.3435">
        <ele>-10.39999961853</ele>
        <time>2021-07-18T09:58:56.000Z</time>
      </trkpt>
      <trkpt lat="47.26346" lon="-2.3437">
        <ele>-10.39999961853</ele>
        <time>2021-07-18T09:59:01.000Z</time>
      </trkpt>
      <trkpt lat="47.26357" lon="-2.34381">
        <ele>-10.39999961853</ele>
        <time>2021-07-18T09:59:04.000Z</time>
      </trkpt>
      <trkpt lat="47.26362" lon="-2.34384">
        <ele>-10.39999961853</ele>
        <time>2021-07-18T09:59:05.000Z</time>
      </trkpt>
      <trkpt lat="47.26398" lon="-2.34412">
        <ele>-10.39999961853</ele>
        <time>2021-07-18T09:59:13.000Z</time>
      </trkpt>
      <trkpt lat="47.26427" lon="-2.34434">
        <ele>-10.39999961853</ele>
        <time>2021-07-18T09:59:20.000Z</time>
      </trkpt>
      <trkpt lat="47.26448" lon="-2.34449">
        <ele>-10.39999961853</ele>
        <time>2021-07-18T09:59:26.000Z</time>
      </trkpt>
      <trkpt lat="47.26462" lon="-2.34458">
        <ele>-10.39999961853</ele>
        <time>2021-07-18T09:59:32.000Z</time>
      </trkpt>
      <trkpt lat="47.26474" lon="-2.34463">
        <ele>-10.39999961853</ele>
        <time>2021-07-18T09:59:39.000Z</time>
      </trkpt>
      <trkpt lat="47.26486" lon="-2.34478">
        <ele>-10.39999961853</ele>
        <time>2021-07-18T09:59:45.000Z</time>
      </trkpt>
      <trkpt lat="47.26499" lon="-2.34487">
        <ele>-10.39999961853</ele>
        <time>2021-07-18T09:59:49.000Z</time>
      </trkpt>
      <trkpt lat="47.26503" lon="-2.3449">
        <ele>-10.39999961853</ele>
        <time>2021-07-18T09:59:50.000Z</time>
      </trkpt>
      <trkpt lat="47.26528" lon="-2.34509">
        <ele>-10.39999961853</ele>
        <time>2021-07-18T09:59:57.000Z</time>
      </trkpt>
      <trkpt lat="47.26545" lon="-2.3452">
        <ele>-10.39999961853</ele>
        <time>2021-07-18T10:00:02.000Z</time>
      </trkpt>
      <trkpt lat="47.26558" lon="-2.34538">
        <ele>-10.39999961853</ele>
        <time>2021-07-18T10:00:06.000Z</time>
      </trkpt>
      <trkpt lat="47.26588" lon="-2.34576">
        <ele>-10.39999961853</ele>
        <time>2021-07-18T10:00:14.000Z</time>
      </trkpt>
      <trkpt lat="47.26592" lon="-2.34582">
        <ele>-10.39999961853</ele>
        <time>2021-07-18T10:00:15.000Z</time>
      </trkpt>
      <trkpt lat="47.26612" lon="-2.34606">
        <ele>-10.39999961853</ele>
        <time>2021-07-18T10:00:20.000Z</time>
      </trkpt>
      <trkpt lat="47.26648" lon="-2.34646">
        <ele>-10.39999961853</ele>
        <time>2021-07-18T10:00:29.000Z</time>
      </trkpt>
      <trkpt lat="47.26683" lon="-2.34689">
        <ele>-10.39999961853</ele>
        <time>2021-07-18T10:00:38.000Z</time>
      </trkpt>
      <trkpt lat="47.26713" lon="-2.34727">
        <ele>-10.39999961853</ele>
        <time>2021-07-18T10:00:46.000Z</time>
      </trkpt>
      <trkpt lat="47.26736" lon="-2.34753">
        <ele>-10.39999961853</ele>
        <time>2021-07-18T10:00:52.000Z</time>
      </trkpt>
      <trkpt lat="47.26743" lon="-2.34762">
        <ele>-10.39999961853</ele>
        <time>2021-07-18T10:00:54.000Z</time>
      </trkpt>
      <trkpt lat="47.26773" lon="-2.34798">
        <ele>-10.39999961853</ele>
        <time>2021-07-18T10:01:02.000Z</time>
      </trkpt>
      <trkpt lat="47.26793" lon="-2.34827">
        <ele>-10.39999961853</ele>
        <time>2021-07-18T10:01:08.000Z</time>
      </trkpt>
      <trkpt lat="47.26821" lon="-2.34869">
        <ele>-10.39999961853</ele>
        <time>2021-07-18T10:01:16.000Z</time>
      </trkpt>
      <trkpt lat="47.26827" lon="-2.34879">
        <ele>-10</ele>
        <time>2021-07-18T10:01:18.000Z</time>
      </trkpt>
      <trkpt lat="47.2683" lon="-2.34885">
        <ele>-9.3999996185303</ele>
        <time>2021-07-18T10:01:19.000Z</time>
      </trkpt>
      <trkpt lat="47.26833" lon="-2.3489">
        <ele>-9</ele>
        <time>2021-07-18T10:01:20.000Z</time>
      </trkpt>
      <trkpt lat="47.26837" lon="-2.34895">
        <ele>-8.6000003814697</ele>
        <time>2021-07-18T10:01:21.000Z</time>
      </trkpt>
      <trkpt lat="47.2684" lon="-2.349">
        <ele>-8.1999998092651</ele>
        <time>2021-07-18T10:01:22.000Z</time>
      </trkpt>
      <trkpt lat="47.26843" lon="-2.34905">
        <ele>-8.1999998092651</ele>
        <time>2021-07-18T10:01:23.000Z</time>
      </trkpt>
      <trkpt lat="47.2686" lon="-2.34931">
        <ele>-8.1999998092651</ele>
        <time>2021-07-18T10:01:28.000Z</time>
      </trkpt>
      <trkpt lat="47.26877" lon="-2.34956">
        <ele>-8.1999998092651</ele>
        <time>2021-07-18T10:01:33.000Z</time>
      </trkpt>
      <trkpt lat="47.269" lon="-2.3499">
        <ele>-8.1999998092651</ele>
        <time>2021-07-18T10:01:40.000Z</time>
      </trkpt>
      <trkpt lat="47.2691" lon="-2.35005">
        <ele>-8.1999998092651</ele>
        <time>2021-07-18T10:01:43.000Z</time>
      </trkpt>
      <trkpt lat="47.26923" lon="-2.35027">
        <ele>-8.1999998092651</ele>
        <time>2021-07-18T10:01:47.000Z</time>
      </trkpt>
      <trkpt lat="47.26953" lon="-2.35071">
        <ele>-8.1999998092651</ele>
        <time>2021-07-18T10:01:56.000Z</time>
      </trkpt>
      <trkpt lat="47.26983" lon="-2.35119">
        <ele>-8.1999998092651</ele>
        <time>2021-07-18T10:02:05.000Z</time>
      </trkpt>
      <trkpt lat="47.27008" lon="-2.35157">
        <ele>-8.1999998092651</ele>
        <time>2021-07-18T10:02:12.000Z</time>
      </trkpt>
      <trkpt lat="47.27034" lon="-2.35197">
        <ele>-8.1999998092651</ele>
        <time>2021-07-18T10:02:20.000Z</time>
      </trkpt>
      <trkpt lat="47.27061" lon="-2.35239">
        <ele>-8.1999998092651</ele>
        <time>2021-07-18T10:02:28.000Z</time>
      </trkpt>
      <trkpt lat="47.27087" lon="-2.3528">
        <ele>-8.1999998092651</ele>
        <time>2021-07-18T10:02:36.000Z</time>
      </trkpt>
      <trkpt lat="47.27109" lon="-2.35313">
        <ele>-8.1999998092651</ele>
        <time>2021-07-18T10:02:43.000Z</time>
      </trkpt>
      <trkpt lat="47.27131" lon="-2.35352">
        <ele>-8.1999998092651</ele>
        <time>2021-07-18T10:02:50.000Z</time>
      </trkpt>
      <trkpt lat="47.27153" lon="-2.3539">
        <ele>-8.1999998092651</ele>
        <time>2021-07-18T10:02:57.000Z</time>
      </trkpt>
      <trkpt lat="47.27178" lon="-2.35437">
        <ele>-8.1999998092651</ele>
        <time>2021-07-18T10:03:05.000Z</time>
      </trkpt>
      <trkpt lat="47.27203" lon="-2.35481">
        <ele>-8.1999998092651</ele>
        <time>2021-07-18T10:03:13.000Z</time>
      </trkpt>
      <trkpt lat="47.2722" lon="-2.35519">
        <ele>-8.1999998092651</ele>
        <time>2021-07-18T10:03:19.000Z</time>
      </trkpt>
      <trkpt lat="47.27238" lon="-2.35558">
        <ele>-8.1999998092651</ele>
        <time>2021-07-18T10:03:25.000Z</time>
      </trkpt>
      <trkpt lat="47.27249" lon="-2.35584">
        <ele>-8.1999998092651</ele>
        <time>2021-07-18T10:03:29.000Z</time>
      </trkpt>
      <trkpt lat="47.27258" lon="-2.35604">
        <ele>-8.1999998092651</ele>
        <time>2021-07-18T10:03:32.000Z</time>
      </trkpt>
      <trkpt lat="47.27276" lon="-2.35652">
        <ele>-8.1999998092651</ele>
        <time>2021-07-18T10:03:39.000Z</time>
      </trkpt>
      <trkpt lat="47.273" lon="-2.35703">
        <ele>-8.1999998092651</ele>
        <time>2021-07-18T10:03:47.000Z</time>
      </trkpt>
      <trkpt lat="47.27309" lon="-2.35722">
        <ele>-8.1999998092651</ele>
        <time>2021-07-18T10:03:50.000Z</time>
      </trkpt>
      <trkpt lat="47.27319" lon="-2.35744">
        <ele>-8.1999998092651</ele>
        <time>2021-07-18T10:03:54.000Z</time>
      </trkpt>
      <trkpt lat="47.27324" lon="-2.35759">
        <ele>-8.6000003814697</ele>
        <time>2021-07-18T10:03:57.000Z</time>
      </trkpt>
      <trkpt lat="47.27327" lon="-2.35763">
        <ele>-9</ele>
        <time>2021-07-18T10:03:58.000Z</time>
      </trkpt>
      <trkpt lat="47.2733" lon="-2.35769">
        <ele>-9.6000003814697</ele>
        <time>2021-07-18T10:03:59.000Z</time>
      </trkpt>
      <trkpt lat="47.27332" lon="-2.35775">
        <ele>-10</ele>
        <time>2021-07-18T10:04:00.000Z</time>
      </trkpt>
      <trkpt lat="47.27334" lon="-2.3578">
        <ele>-10.39999961853</ele>
        <time>2021-07-18T10:04:01.000Z</time>
      </trkpt>
      <trkpt lat="47.27342" lon="-2.35799">
        <ele>-10.39999961853</ele>
        <time>2021-07-18T10:04:04.000Z</time>
      </trkpt>
      <trkpt lat="47.27352" lon="-2.35824">
        <ele>-10.39999961853</ele>
        <time>2021-07-18T10:04:08.000Z</time>
      </trkpt>
      <trkpt lat="47.2736" lon="-2.35842">
        <ele>-10.39999961853</ele>
        <time>2021-07-18T10:04:11.000Z</time>
      </trkpt>
      <trkpt lat="47.27377" lon="-2.35886">
        <ele>-10.39999961853</ele>
        <time>2021-07-18T10:04:18.000Z</time>
      </trkpt>
      <trkpt lat="47.27398" lon="-2.35937">
        <ele>-10.39999961853</ele>
        <time>2021-07-18T10:04:27.000Z</time>
      </trkpt>
      <trkpt lat="47.27413" lon="-2.35975">
        <ele>-10.39999961853</ele>
        <time>2021-07-18T10:04:34.000Z</time>
      </trkpt>
      <trkpt lat="47.27427" lon="-2.3601">
        <ele>-10.39999961853</ele>
        <time>2021-07-18T10:04:41.000Z</time>
      </trkpt>
      <trkpt lat="47.27436" lon="-2.36029">
        <ele>-10.39999961853</ele>
        <time>2021-07-18T10:04:45.000Z</time>
      </trkpt>
      <trkpt lat="47.27441" lon="-2.3604">
        <ele>-10</ele>
        <time>2021-07-18T10:04:47.000Z</time>
      </trkpt>
      <trkpt lat="47.27443" lon="-2.36043">
        <ele>-9.3999996185303</ele>
        <time>2021-07-18T10:04:48.000Z</time>
      </trkpt>
      <trkpt lat="47.27444" lon="-2.36046">
        <ele>-9</ele>
        <time>2021-07-18T10:04:49.000Z</time>
      </trkpt>
      <trkpt lat="47.27446" lon="-2.36048">
        <ele>-8.1999998092651</ele>
        <time>2021-07-18T10:04:50.000Z</time>
      </trkpt>
      <trkpt lat="47.27455" lon="-2.36069">
        <ele>-8.1999998092651</ele>
        <time>2021-07-18T10:04:55.000Z</time>
      </trkpt>
      <trkpt lat="47.27461" lon="-2.36093">
        <ele>-8.1999998092651</ele>
        <time>2021-07-18T10:05:00.000Z</time>
      </trkpt>
      <trkpt lat="47.27456" lon="-2.36098">
        <ele>-8.1999998092651</ele>
        <time>2021-07-18T10:05:03.000Z</time>
      </trkpt>
      <trkpt lat="47.27448" lon="-2.36094">
        <ele>-8.1999998092651</ele>
        <time>2021-07-18T10:05:07.000Z</time>
      </trkpt>
      <trkpt lat="47.27442" lon="-2.36077">
        <ele>-8.1999998092651</ele>
        <time>2021-07-18T10:05:11.000Z</time>
      </trkpt>
      <trkpt lat="47.27442" lon="-2.36072">
        <ele>-8.1999998092651</ele>
        <time>2021-07-18T10:05:12.000Z</time>
      </trkpt>
      <trkpt lat="47.27431" lon="-2.36047">
        <ele>-8.1999998092651</ele>
        <time>2021-07-18T10:05:18.000Z</time>
      </trkpt>
      <trkpt lat="47.2742" lon="-2.36023">
        <ele>-8.1999998092651</ele>
        <time>2021-07-18T10:05:26.000Z</time>
      </trkpt>
      <trkpt lat="47.27415" lon="-2.36021">
        <ele>-8.1999998092651</ele>
        <time>2021-07-18T10:07:46.000Z</time>
      </trkpt>
      <trkpt lat="47.27413" lon="-2.36015">
        <ele>-8.1999998092651</ele>
        <time>2021-07-18T10:07:49.000Z</time>
      </trkpt>
      <trkpt lat="47.27406" lon="-2.35993">
        <ele>-8.1999998092651</ele>
        <time>2021-07-18T10:07:55.000Z</time>
      </trkpt>
      <trkpt lat="47.27396" lon="-2.35962">
        <ele>-8.1999998092651</ele>
        <time>2021-07-18T10:08:01.000Z</time>
      </trkpt>
      <trkpt lat="47.27377" lon="-2.35914">
        <ele>-8.1999998092651</ele>
        <time>2021-07-18T10:08:09.000Z</time>
      </trkpt>
      <trkpt lat="47.27358" lon="-2.35865">
        <ele>-8.1999998092651</ele>
        <time>2021-07-18T10:08:16.000Z</time>
      </trkpt>
      <trkpt lat="47.27332" lon="-2.358">
        <ele>-8.1999998092651</ele>
        <time>2021-07-18T10:08:25.000Z</time>
      </trkpt>
      <trkpt lat="47.27327" lon="-2.35785">
        <ele>-8.1999998092651</ele>
        <time>2021-07-18T10:08:27.000Z</time>
      </trkpt>
      <trkpt lat="47.27321" lon="-2.35764">
        <ele>-8.1999998092651</ele>
        <time>2021-07-18T10:08:30.000Z</time>
      </trkpt>
      <trkpt lat="47.27312" lon="-2.35747">
        <ele>-8.1999998092651</ele>
        <time>2021-07-18T10:08:34.000Z</time>
      </trkpt>
      <trkpt lat="47.27305" lon="-2.3573">
        <ele>-8.1999998092651</ele>
        <time>2021-07-18T10:08:38.000Z</time>
      </trkpt>
      <trkpt lat="47.27304" lon="-2.35724">
        <ele>-8.6000003814697</ele>
        <time>2021-07-18T10:08:39.000Z</time>
      </trkpt>
      <trkpt lat="47.27302" lon="-2.35718">
        <ele>-9</ele>
        <time>2021-07-18T10:08:40.000Z</time>
      </trkpt>
      <trkpt lat="47.273" lon="-2.35711">
        <ele>-9.3999996185303</ele>
        <time>2021-07-18T10:08:41.000Z</time>
      </trkpt>
      <trkpt lat="47.27297" lon="-2.35704">
        <ele>-9.8000001907349</ele>
        <time>2021-07-18T10:08:42.000Z</time>
      </trkpt>
      <trkpt lat="47.27294" lon="-2.35698">
        <ele>-10.199999809265</ele>
        <time>2021-07-18T10:08:43.000Z</time>
      </trkpt>
      <trkpt lat="47.2729" lon="-2.35692">
        <ele>-10.199999809265</ele>
        <time>2021-07-18T10:08:44.000Z</time>
      </trkpt>
      <trkpt lat="47.27286" lon="-2.35686">
        <ele>-10.199999809265</ele>
        <time>2021-07-18T10:08:45.000Z</time>
      </trkpt>
      <trkpt lat="47.27277" lon="-2.35666">
        <ele>-10.199999809265</ele>
        <time>2021-07-18T10:08:48.000Z</time>
      </trkpt>
      <trkpt lat="47.27268" lon="-2.35645">
        <ele>-9.8000001907349</ele>
        <time>2021-07-18T10:08:51.000Z</time>
      </trkpt>
      <trkpt lat="47.27265" lon="-2.35639">
        <ele>-9.3999996185303</ele>
        <time>2021-07-18T10:08:52.000Z</time>
      </trkpt>
      <trkpt lat="47.27262" lon="-2.35632">
        <ele>-9</ele>
        <time>2021-07-18T10:08:53.000Z</time>
      </trkpt>
      <trkpt lat="47.27258" lon="-2.35626">
        <ele>-8.3999996185303</ele>
        <time>2021-07-18T10:08:54.000Z</time>
      </trkpt>
      <trkpt lat="47.27255" lon="-2.35619">
        <ele>-8</ele>
        <time>2021-07-18T10:08:55.000Z</time>
      </trkpt>
      <trkpt lat="47.27234" lon="-2.35572">
        <ele>-8</ele>
        <time>2021-07-18T10:09:02.000Z</time>
      </trkpt>
      <trkpt lat="47.27215" lon="-2.3553">
        <ele>-8</ele>
        <time>2021-07-18T10:09:08.000Z</time>
      </trkpt>
      <trkpt lat="47.27185" lon="-2.35466">
        <ele>-8</ele>
        <time>2021-07-18T10:09:17.000Z</time>
      </trkpt>
      <trkpt lat="47.27162" lon="-2.35422">
        <ele>-8</ele>
        <time>2021-07-18T10:09:23.000Z</time>
      </trkpt>
      <trkpt lat="47.27127" lon="-2.3536">
        <ele>-8</ele>
        <time>2021-07-18T10:09:32.000Z</time>
      </trkpt>
      <trkpt lat="47.27123" lon="-2.35353">
        <ele>-8</ele>
        <time>2021-07-18T10:09:33.000Z</time>
      </trkpt>
      <trkpt lat="47.27084" lon="-2.3529">
        <ele>-8</ele>
        <time>2021-07-18T10:09:42.000Z</time>
      </trkpt>
      <trkpt lat="47.27056" lon="-2.35248">
        <ele>-8</ele>
        <time>2021-07-18T10:09:48.000Z</time>
      </trkpt>
      <trkpt lat="47.27032" lon="-2.35211">
        <ele>-8</ele>
        <time>2021-07-18T10:09:54.000Z</time>
      </trkpt>
      <trkpt lat="47.27024" lon="-2.35195">
        <ele>-8</ele>
        <time>2021-07-18T10:09:59.000Z</time>
      </trkpt>
      <trkpt lat="47.27017" lon="-2.35187">
        <ele>-8</ele>
        <time>2021-07-18T10:10:01.000Z</time>
      </trkpt>
      <trkpt lat="47.2701" lon="-2.35176">
        <ele>-8</ele>
        <time>2021-07-18T10:10:03.000Z</time>
      </trkpt>
      <trkpt lat="47.26981" lon="-2.3513">
        <ele>-8</ele>
        <time>2021-07-18T10:10:10.000Z</time>
      </trkpt>
      <trkpt lat="47.26946" lon="-2.35078">
        <ele>-8</ele>
        <time>2021-07-18T10:10:18.000Z</time>
      </trkpt>
      <trkpt lat="47.26907" lon="-2.35015">
        <ele>-8</ele>
        <time>2021-07-18T10:10:27.000Z</time>
      </trkpt>
      <trkpt lat="47.2689" lon="-2.34988">
        <ele>-8</ele>
        <time>2021-07-18T10:10:31.000Z</time>
      </trkpt>
      <trkpt lat="47.26875" lon="-2.3497">
        <ele>-8</ele>
        <time>2021-07-18T10:10:34.000Z</time>
      </trkpt>
      <trkpt lat="47.26844" lon="-2.34923">
        <ele>-8</ele>
        <time>2021-07-18T10:10:41.000Z</time>
      </trkpt>
      <trkpt lat="47.26805" lon="-2.34865">
        <ele>-8</ele>
        <time>2021-07-18T10:10:50.000Z</time>
      </trkpt>
      <trkpt lat="47.26788" lon="-2.3484">
        <ele>-8</ele>
        <time>2021-07-18T10:10:54.000Z</time>
      </trkpt>
      <trkpt lat="47.26763" lon="-2.34805">
        <ele>-8</ele>
        <time>2021-07-18T10:11:00.000Z</time>
      </trkpt>
      <trkpt lat="47.2676" lon="-2.34799">
        <ele>-8</ele>
        <time>2021-07-18T10:11:01.000Z</time>
      </trkpt>
      <trkpt lat="47.26756" lon="-2.34793">
        <ele>-8</ele>
        <time>2021-07-18T10:11:02.000Z</time>
      </trkpt>
      <trkpt lat="47.26738" lon="-2.34774">
        <ele>-8</ele>
        <time>2021-07-18T10:11:06.000Z</time>
      </trkpt>
      <trkpt lat="47.26695" lon="-2.34723">
        <ele>-8</ele>
        <time>2021-07-18T10:11:15.000Z</time>
      </trkpt>
      <trkpt lat="47.2669" lon="-2.34717">
        <ele>-8</ele>
        <time>2021-07-18T10:11:16.000Z</time>
      </trkpt>
      <trkpt lat="47.26647" lon="-2.34663">
        <ele>-8</ele>
        <time>2021-07-18T10:11:25.000Z</time>
      </trkpt>
      <trkpt lat="47.26603" lon="-2.34609">
        <ele>-8</ele>
        <time>2021-07-18T10:11:34.000Z</time>
      </trkpt>
      <trkpt lat="47.26599" lon="-2.34603">
        <ele>-8</ele>
        <time>2021-07-18T10:11:35.000Z</time>
      </trkpt>
      <trkpt lat="47.26553" lon="-2.34555">
        <ele>-8</ele>
        <time>2021-07-18T10:11:44.000Z</time>
      </trkpt>
      <trkpt lat="47.26518" lon="-2.34522">
        <ele>-8</ele>
        <time>2021-07-18T10:11:51.000Z</time>
      </trkpt>
      <trkpt lat="47.26477" lon="-2.34491">
        <ele>-8</ele>
        <time>2021-07-18T10:11:58.000Z</time>
      </trkpt>
      <trkpt lat="47.26435" lon="-2.34458">
        <ele>-8</ele>
        <time>2021-07-18T10:12:05.000Z</time>
      </trkpt>
      <trkpt lat="47.26398" lon="-2.34428">
        <ele>-8</ele>
        <time>2021-07-18T10:12:12.000Z</time>
      </trkpt>
      <trkpt lat="47.26393" lon="-2.34424">
        <ele>-8</ele>
        <time>2021-07-18T10:12:13.000Z</time>
      </trkpt>
      <trkpt lat="47.26372" lon="-2.3441">
        <ele>-8</ele>
        <time>2021-07-18T10:12:17.000Z</time>
      </trkpt>
      <trkpt lat="47.26345" lon="-2.34384">
        <ele>-8</ele>
        <time>2021-07-18T10:12:23.000Z</time>
      </trkpt>
      <trkpt lat="47.26337" lon="-2.34382">
        <ele>-8.3999996185303</ele>
        <time>2021-07-18T10:12:25.000Z</time>
      </trkpt>
      <trkpt lat="47.26334" lon="-2.34383">
        <ele>-8.8000001907349</ele>
        <time>2021-07-18T10:12:26.000Z</time>
      </trkpt>
      <trkpt lat="47.26329" lon="-2.34382">
        <ele>-9.1999998092651</ele>
        <time>2021-07-18T10:12:27.000Z</time>
      </trkpt>
      <trkpt lat="47.26325" lon="-2.34379">
        <ele>-9.6000003814697</ele>
        <time>2021-07-18T10:12:28.000Z</time>
      </trkpt>
      <trkpt lat="47.26321" lon="-2.34375">
        <ele>-10</ele>
        <time>2021-07-18T10:12:29.000Z</time>
      </trkpt>
      <trkpt lat="47.26318" lon="-2.34369">
        <ele>-10</ele>
        <time>2021-07-18T10:12:30.000Z</time>
      </trkpt>
      <trkpt lat="47.26305" lon="-2.34345">
        <ele>-10</ele>
        <time>2021-07-18T10:12:34.000Z</time>
      </trkpt>
      <trkpt lat="47.26294" lon="-2.34338">
        <ele>-10</ele>
        <time>2021-07-18T10:12:36.000Z</time>
      </trkpt>
      <trkpt lat="47.26289" lon="-2.34334">
        <ele>-10</ele>
        <time>2021-07-18T10:12:37.000Z</time>
      </trkpt>
      <trkpt lat="47.26278" lon="-2.34322">
        <ele>-10</ele>
        <time>2021-07-18T10:12:39.000Z</time>
      </trkpt>
      <trkpt lat="47.26243" lon="-2.34285">
        <ele>-10</ele>
        <time>2021-07-18T10:12:46.000Z</time>
      </trkpt>
      <trkpt lat="47.26199" lon="-2.34239">
        <ele>-10</ele>
        <time>2021-07-18T10:12:55.000Z</time>
      </trkpt>
      <trkpt lat="47.26157" lon="-2.34196">
        <ele>-10</ele>
        <time>2021-07-18T10:13:04.000Z</time>
      </trkpt>
      <trkpt lat="47.26147" lon="-2.34188">
        <ele>-10</ele>
        <time>2021-07-18T10:13:06.000Z</time>
      </trkpt>
      <trkpt lat="47.26135" lon="-2.34182">
        <ele>-10</ele>
        <time>2021-07-18T10:13:08.000Z</time>
      </trkpt>
      <trkpt lat="47.26114" lon="-2.34162">
        <ele>-10</ele>
        <time>2021-07-18T10:13:12.000Z</time>
      </trkpt>
      <trkpt lat="47.26101" lon="-2.34155">
        <ele>-10</ele>
        <time>2021-07-18T10:13:14.000Z</time>
      </trkpt>
      <trkpt lat="47.26069" lon="-2.34139">
        <ele>-10</ele>
        <time>2021-07-18T10:13:19.000Z</time>
      </trkpt>
      <trkpt lat="47.26016" lon="-2.34114">
        <ele>-10</ele>
        <time>2021-07-18T10:13:27.000Z</time>
      </trkpt>
      <trkpt lat="47.25967" lon="-2.3409">
        <ele>-10</ele>
        <time>2021-07-18T10:13:35.000Z</time>
      </trkpt>
      <trkpt lat="47.25927" lon="-2.34074">
        <ele>-10</ele>
        <time>2021-07-18T10:13:42.000Z</time>
      </trkpt>
      <trkpt lat="47.25921" lon="-2.34074">
        <ele>-10</ele>
        <time>2021-07-18T10:13:43.000Z</time>
      </trkpt>
      <trkpt lat="47.25905" lon="-2.34067">
        <ele>-10</ele>
        <time>2021-07-18T10:13:46.000Z</time>
      </trkpt>
      <trkpt lat="47.25898" lon="-2.34043">
        <ele>-10</ele>
        <time>2021-07-18T10:13:49.000Z</time>
      </trkpt>
      <trkpt lat="47.25904" lon="-2.3402">
        <ele>-10</ele>
        <time>2021-07-18T10:13:52.000Z</time>
      </trkpt>
      <trkpt lat="47.25906" lon="-2.34012">
        <ele>-10</ele>
        <time>2021-07-18T10:13:53.000Z</time>
      </trkpt>
      <trkpt lat="47.25915" lon="-2.3398">
        <ele>-10</ele>
        <time>2021-07-18T10:13:57.000Z</time>
      </trkpt>
      <trkpt lat="47.25935" lon="-2.33937">
        <ele>-10</ele>
        <time>2021-07-18T10:14:03.000Z</time>
      </trkpt>
      <trkpt lat="47.25946" lon="-2.33916">
        <ele>-10</ele>
        <time>2021-07-18T10:14:06.000Z</time>
      </trkpt>
      <trkpt lat="47.25949" lon="-2.339">
        <ele>-10</ele>
        <time>2021-07-18T10:14:08.000Z</time>
      </trkpt>
      <trkpt lat="47.25955" lon="-2.33885">
        <ele>-10</ele>
        <time>2021-07-18T10:14:10.000Z</time>
      </trkpt>
      <trkpt lat="47.25963" lon="-2.33861">
        <ele>-10</ele>
        <time>2021-07-18T10:14:13.000Z</time>
      </trkpt>
      <trkpt lat="47.25976" lon="-2.33822">
        <ele>-10.60000038147</ele>
        <time>2021-07-18T10:14:18.000Z</time>
      </trkpt>
      <trkpt lat="47.25978" lon="-2.33814">
        <ele>-11</ele>
        <time>2021-07-18T10:14:19.000Z</time>
      </trkpt>
      <trkpt lat="47.25981" lon="-2.33806">
        <ele>-11.39999961853</ele>
        <time>2021-07-18T10:14:20.000Z</time>
      </trkpt>
      <trkpt lat="47.25983" lon="-2.33799">
        <ele>-11.800000190735</ele>
        <time>2021-07-18T10:14:21.000Z</time>
      </trkpt>
      <trkpt lat="47.25986" lon="-2.33792">
        <ele>-12.199999809265</ele>
        <time>2021-07-18T10:14:22.000Z</time>
      </trkpt>
      <trkpt lat="47.25998" lon="-2.33747">
        <ele>-12.199999809265</ele>
        <time>2021-07-18T10:14:28.000Z</time>
      </trkpt>
      <trkpt lat="47.26001" lon="-2.3374">
        <ele>-12.199999809265</ele>
        <time>2021-07-18T10:14:29.000Z</time>
      </trkpt>
      <trkpt lat="47.26015" lon="-2.33704">
        <ele>-12.199999809265</ele>
        <time>2021-07-18T10:14:34.000Z</time>
      </trkpt>
      <trkpt lat="47.26024" lon="-2.33672">
        <ele>-12.199999809265</ele>
        <time>2021-07-18T10:14:39.000Z</time>
      </trkpt>
      <trkpt lat="47.26027" lon="-2.33669">
        <ele>-12.199999809265</ele>
        <time>2021-07-18T10:14:40.000Z</time>
      </trkpt>
      <trkpt lat="47.26031" lon="-2.33668">
        <ele>-12.199999809265</ele>
        <time>2021-07-18T10:14:41.000Z</time>
      </trkpt>
      <trkpt lat="47.26045" lon="-2.33667">
        <ele>-12.199999809265</ele>
        <time>2021-07-18T10:14:46.000Z</time>
      </trkpt>
      <trkpt lat="47.26047" lon="-2.33667">
        <ele>-12.199999809265</ele>
        <time>2021-07-18T10:14:47.000Z</time>
      </trkpt>
      <trkpt lat="47.26053" lon="-2.33666">
        <ele>-12.199999809265</ele>
        <time>2021-07-18T10:14:49.000Z</time>
      </trkpt>
      <trkpt lat="47.26059" lon="-2.33652">
        <ele>-12.199999809265</ele>
        <time>2021-07-18T10:14:52.000Z</time>
      </trkpt>
      <trkpt lat="47.2606" lon="-2.33646">
        <ele>-12.199999809265</ele>
        <time>2021-07-18T10:14:53.000Z</time>
      </trkpt>
      <trkpt lat="47.26063" lon="-2.33634">
        <ele>-12.199999809265</ele>
        <time>2021-07-18T10:14:55.000Z</time>
      </trkpt>
      <trkpt lat="47.26071" lon="-2.3361">
        <ele>-12.199999809265</ele>
        <time>2021-07-18T10:14:59.000Z</time>
      </trkpt>
      <trkpt lat="47.26073" lon="-2.33604">
        <ele>-12.199999809265</ele>
        <time>2021-07-18T10:15:00.000Z</time>
      </trkpt>
      <trkpt lat="47.26083" lon="-2.33573">
        <ele>-12.199999809265</ele>
        <time>2021-07-18T10:15:05.000Z</time>
      </trkpt>
      <trkpt lat="47.26097" lon="-2.33532">
        <ele>-12.199999809265</ele>
        <time>2021-07-18T10:15:12.000Z</time>
      </trkpt>
      <trkpt lat="47.26116" lon="-2.33482">
        <ele>-12.199999809265</ele>
        <time>2021-07-18T10:15:21.000Z</time>
      </trkpt>
      <trkpt lat="47.26126" lon="-2.33459">
        <ele>-12.199999809265</ele>
        <time>2021-07-18T10:15:27.000Z</time>
      </trkpt>
      <trkpt lat="47.26129" lon="-2.33444">
        <ele>-12.199999809265</ele>
        <time>2021-07-18T10:15:32.000Z</time>
      </trkpt>
      <trkpt lat="47.26127" lon="-2.33434">
        <ele>-12.199999809265</ele>
        <time>2021-07-18T10:15:34.000Z</time>
      </trkpt>
      <trkpt lat="47.26125" lon="-2.3343">
        <ele>-12.199999809265</ele>
        <time>2021-07-18T10:15:35.000Z</time>
      </trkpt>
      <trkpt lat="47.26109" lon="-2.33405">
        <ele>-12.199999809265</ele>
        <time>2021-07-18T10:15:41.000Z</time>
      </trkpt>
      <trkpt lat="47.26099" lon="-2.33391">
        <ele>-12.199999809265</ele>
        <time>2021-07-18T10:15:44.000Z</time>
      </trkpt>
      <trkpt lat="47.2609" lon="-2.33379">
        <ele>-12.199999809265</ele>
        <time>2021-07-18T10:15:47.000Z</time>
      </trkpt>
      <trkpt lat="47.26079" lon="-2.33369">
        <ele>-12.199999809265</ele>
        <time>2021-07-18T10:15:50.000Z</time>
      </trkpt>
      <trkpt lat="47.26075" lon="-2.33357">
        <ele>-12.199999809265</ele>
        <time>2021-07-18T10:15:52.000Z</time>
      </trkpt>
      <trkpt lat="47.26068" lon="-2.33337">
        <ele>-12.199999809265</ele>
        <time>2021-07-18T10:15:55.000Z</time>
      </trkpt>
      <trkpt lat="47.26052" lon="-2.33293">
        <ele>-12.199999809265</ele>
        <time>2021-07-18T10:16:02.000Z</time>
      </trkpt>
      <trkpt lat="47.26029" lon="-2.33227">
        <ele>-12.199999809265</ele>
        <time>2021-07-18T10:16:12.000Z</time>
      </trkpt>
      <trkpt lat="47.2602" lon="-2.33201">
        <ele>-12.199999809265</ele>
        <time>2021-07-18T10:16:16.000Z</time>
      </trkpt>
      <trkpt lat="47.26015" lon="-2.33189">
        <ele>-12.199999809265</ele>
        <time>2021-07-18T10:16:18.000Z</time>
      </trkpt>
      <trkpt lat="47.25994" lon="-2.33128">
        <ele>-12.199999809265</ele>
        <time>2021-07-18T10:16:27.000Z</time>
      </trkpt>
      <trkpt lat="47.25989" lon="-2.33107">
        <ele>-12.199999809265</ele>
        <time>2021-07-18T10:16:30.000Z</time>
      </trkpt>
      <trkpt lat="47.25986" lon="-2.33092">
        <ele>-12.199999809265</ele>
        <time>2021-07-18T10:16:32.000Z</time>
      </trkpt>
      <trkpt lat="47.25983" lon="-2.33086">
        <ele>-12.199999809265</ele>
        <time>2021-07-18T10:16:33.000Z</time>
      </trkpt>
      <trkpt lat="47.25966" lon="-2.33049">
        <ele>-12.199999809265</ele>
        <time>2021-07-18T10:16:39.000Z</time>
      </trkpt>
      <trkpt lat="47.25952" lon="-2.33002">
        <ele>-12.199999809265</ele>
        <time>2021-07-18T10:16:46.000Z</time>
      </trkpt>
      <trkpt lat="47.25934" lon="-2.32949">
        <ele>-12.199999809265</ele>
        <time>2021-07-18T10:16:54.000Z</time>
      </trkpt>
      <trkpt lat="47.25932" lon="-2.32942">
        <ele>-12.199999809265</ele>
        <time>2021-07-18T10:16:55.000Z</time>
      </trkpt>
      <trkpt lat="47.25921" lon="-2.32915">
        <ele>-12.199999809265</ele>
        <time>2021-07-18T10:16:59.000Z</time>
      </trkpt>
      <trkpt lat="47.25898" lon="-2.32855">
        <ele>-12.199999809265</ele>
        <time>2021-07-18T10:17:07.000Z</time>
      </trkpt>
      <trkpt lat="47.25877" lon="-2.32795">
        <ele>-12.199999809265</ele>
        <time>2021-07-18T10:17:15.000Z</time>
      </trkpt>
      <trkpt lat="47.25866" lon="-2.3275">
        <ele>-12.199999809265</ele>
        <time>2021-07-18T10:17:22.000Z</time>
      </trkpt>
      <trkpt lat="47.2586" lon="-2.32733">
        <ele>-12.199999809265</ele>
        <time>2021-07-18T10:17:26.000Z</time>
      </trkpt>
      <trkpt lat="47.25861" lon="-2.32716">
        <ele>-12.199999809265</ele>
        <time>2021-07-18T10:17:30.000Z</time>
      </trkpt>
      <trkpt lat="47.25853" lon="-2.32705">
        <ele>-12.199999809265</ele>
        <time>2021-07-18T10:17:33.000Z</time>
      </trkpt>
      <trkpt lat="47.25851" lon="-2.327">
        <ele>-12.199999809265</ele>
        <time>2021-07-18T10:17:34.000Z</time>
      </trkpt>
      <trkpt lat="47.25841" lon="-2.32672">
        <ele>-12.199999809265</ele>
        <time>2021-07-18T10:17:38.000Z</time>
      </trkpt>
      <trkpt lat="47.25839" lon="-2.32663">
        <ele>-12.199999809265</ele>
        <time>2021-07-18T10:17:39.000Z</time>
      </trkpt>
      <trkpt lat="47.25827" lon="-2.3261">
        <ele>-12.199999809265</ele>
        <time>2021-07-18T10:17:45.000Z</time>
      </trkpt>
      <trkpt lat="47.25824" lon="-2.32602">
        <ele>-12.199999809265</ele>
        <time>2021-07-18T10:17:46.000Z</time>
      </trkpt>
      <trkpt lat="47.25811" lon="-2.32545">
        <ele>-12.199999809265</ele>
        <time>2021-07-18T10:17:53.000Z</time>
      </trkpt>
      <trkpt lat="47.25798" lon="-2.32488">
        <ele>-12.199999809265</ele>
        <time>2021-07-18T10:18:00.000Z</time>
      </trkpt>
      <trkpt lat="47.25798" lon="-2.3248">
        <ele>-12.199999809265</ele>
        <time>2021-07-18T10:18:01.000Z</time>
      </trkpt>
      <trkpt lat="47.25803" lon="-2.32468">
        <ele>-12.199999809265</ele>
        <time>2021-07-18T10:18:03.000Z</time>
      </trkpt>
      <trkpt lat="47.25811" lon="-2.32457">
        <ele>-12.199999809265</ele>
        <time>2021-07-18T10:18:06.000Z</time>
      </trkpt>
      <trkpt lat="47.25826" lon="-2.32464">
        <ele>-12.199999809265</ele>
        <time>2021-07-18T10:18:09.000Z</time>
      </trkpt>
      <trkpt lat="47.25852" lon="-2.32473">
        <ele>-12.199999809265</ele>
        <time>2021-07-18T10:18:14.000Z</time>
      </trkpt>
      <trkpt lat="47.25857" lon="-2.32472">
        <ele>-12.199999809265</ele>
        <time>2021-07-18T10:18:15.000Z</time>
      </trkpt>
      <trkpt lat="47.25895" lon="-2.32464">
        <ele>-12.199999809265</ele>
        <time>2021-07-18T10:18:22.000Z</time>
      </trkpt>
      <trkpt lat="47.25914" lon="-2.32442">
        <ele>-12.199999809265</ele>
        <time>2021-07-18T10:18:26.000Z</time>
      </trkpt>
      <trkpt lat="47.2594" lon="-2.32407">
        <ele>-12.199999809265</ele>
        <time>2021-07-18T10:18:32.000Z</time>
      </trkpt>
      <trkpt lat="47.25965" lon="-2.32374">
        <ele>-12.199999809265</ele>
        <time>2021-07-18T10:18:38.000Z</time>
      </trkpt>
      <trkpt lat="47.25978" lon="-2.32357">
        <ele>-12.199999809265</ele>
        <time>2021-07-18T10:18:41.000Z</time>
      </trkpt>
      <trkpt lat="47.25987" lon="-2.32346">
        <ele>-12.199999809265</ele>
        <time>2021-07-18T10:18:43.000Z</time>
      </trkpt>
      <trkpt lat="47.26009" lon="-2.32317">
        <ele>-12.199999809265</ele>
        <time>2021-07-18T10:18:49.000Z</time>
      </trkpt>
      <trkpt lat="47.26022" lon="-2.32301">
        <ele>-12.199999809265</ele>
        <time>2021-07-18T10:18:54.000Z</time>
      </trkpt>
      <trkpt lat="47.26037" lon="-2.32285">
        <ele>-12.199999809265</ele>
        <time>2021-07-18T10:18:59.000Z</time>
      </trkpt>
      <trkpt lat="47.26041" lon="-2.32281">
        <ele>-12.199999809265</ele>
        <time>2021-07-18T10:19:00.000Z</time>
      </trkpt>
      <trkpt lat="47.26063" lon="-2.32253">
        <ele>-12.199999809265</ele>
        <time>2021-07-18T10:19:07.000Z</time>
      </trkpt>
      <trkpt lat="47.26087" lon="-2.32222">
        <ele>-12.199999809265</ele>
        <time>2021-07-18T10:19:15.000Z</time>
      </trkpt>
      <trkpt lat="47.26107" lon="-2.32182">
        <ele>-12.199999809265</ele>
        <time>2021-07-18T10:19:22.000Z</time>
      </trkpt>
      <trkpt lat="47.26113" lon="-2.3217">
        <ele>-12.199999809265</ele>
        <time>2021-07-18T10:19:24.000Z</time>
      </trkpt>
      <trkpt lat="47.26123" lon="-2.32145">
        <ele>-12.199999809265</ele>
        <time>2021-07-18T10:19:28.000Z</time>
      </trkpt>
      <trkpt lat="47.26125" lon="-2.32138">
        <ele>-12.199999809265</ele>
        <time>2021-07-18T10:19:29.000Z</time>
      </trkpt>
      <trkpt lat="47.26135" lon="-2.32107">
        <ele>-12.199999809265</ele>
        <time>2021-07-18T10:19:34.000Z</time>
      </trkpt>
      <trkpt lat="47.2615" lon="-2.32055">
        <ele>-12.199999809265</ele>
        <time>2021-07-18T10:19:42.000Z</time>
      </trkpt>
      <trkpt lat="47.26169" lon="-2.32024">
        <ele>-12.199999809265</ele>
        <time>2021-07-18T10:19:48.000Z</time>
      </trkpt>
      <trkpt lat="47.26188" lon="-2.32024">
        <ele>-12.199999809265</ele>
        <time>2021-07-18T10:19:54.000Z</time>
      </trkpt>
      <trkpt lat="47.26196" lon="-2.32021">
        <ele>-12.199999809265</ele>
        <time>2021-07-18T10:19:58.000Z</time>
      </trkpt>
      <trkpt lat="47.26197" lon="-2.32018">
        <ele>-12.199999809265</ele>
        <time>2021-07-18T10:19:59.000Z</time>
      </trkpt>
      <trkpt lat="47.26202" lon="-2.32003">
        <ele>-12.199999809265</ele>
        <time>2021-07-18T10:20:03.000Z</time>
      </trkpt>
      <trkpt lat="47.26218" lon="-2.31988">
        <ele>-12.199999809265</ele>
        <time>2021-07-18T10:20:09.000Z</time>
      </trkpt>
      <trkpt lat="47.26228" lon="-2.31977">
        <ele>-12.199999809265</ele>
        <time>2021-07-18T10:20:13.000Z</time>
      </trkpt>
      <trkpt lat="47.26232" lon="-2.31976">
        <ele>-12.199999809265</ele>
        <time>2021-07-18T10:20:14.000Z</time>
      </trkpt>
      <trkpt lat="47.26238" lon="-2.31966">
        <ele>-12.199999809265</ele>
        <time>2021-07-18T10:20:17.000Z</time>
      </trkpt>
      <trkpt lat="47.26245" lon="-2.31954">
        <ele>-12.199999809265</ele>
        <time>2021-07-18T10:20:20.000Z</time>
      </trkpt>
      <trkpt lat="47.26249" lon="-2.31948">
        <ele>-12.199999809265</ele>
        <time>2021-07-18T10:20:22.000Z</time>
      </trkpt>
      <trkpt lat="47.2626" lon="-2.31928">
        <ele>-12.199999809265</ele>
        <time>2021-07-18T10:20:28.000Z</time>
      </trkpt>
      <trkpt lat="47.26282" lon="-2.31903">
        <ele>-12.199999809265</ele>
        <time>2021-07-18T10:20:34.000Z</time>
      </trkpt>
      <trkpt lat="47.26298" lon="-2.31881">
        <ele>-12.199999809265</ele>
        <time>2021-07-18T10:20:40.000Z</time>
      </trkpt>
      <trkpt lat="47.26299" lon="-2.31875">
        <ele>-12.199999809265</ele>
        <time>2021-07-18T10:20:41.000Z</time>
      </trkpt>
      <trkpt lat="47.26299" lon="-2.31842">
        <ele>-12.199999809265</ele>
        <time>2021-07-18T10:20:47.000Z</time>
      </trkpt>
      <trkpt lat="47.26303" lon="-2.31808">
        <ele>-12.199999809265</ele>
        <time>2021-07-18T10:20:53.000Z</time>
      </trkpt>
      <trkpt lat="47.26303" lon="-2.31765">
        <ele>-12.199999809265</ele>
        <time>2021-07-18T10:21:00.000Z</time>
      </trkpt>
      <trkpt lat="47.263" lon="-2.31727">
        <ele>-12.199999809265</ele>
        <time>2021-07-18T10:21:06.000Z</time>
      </trkpt>
      <trkpt lat="47.26302" lon="-2.31722">
        <ele>-12.199999809265</ele>
        <time>2021-07-18T10:21:07.000Z</time>
      </trkpt>
      <trkpt lat="47.26308" lon="-2.31716">
        <ele>-12.199999809265</ele>
        <time>2021-07-18T10:21:09.000Z</time>
      </trkpt>
      <trkpt lat="47.26316" lon="-2.31713">
        <ele>-12.199999809265</ele>
        <time>2021-07-18T10:21:11.000Z</time>
      </trkpt>
      <trkpt lat="47.26332" lon="-2.317">
        <ele>-12.199999809265</ele>
        <time>2021-07-18T10:21:16.000Z</time>
      </trkpt>
      <trkpt lat="47.26339" lon="-2.31688">
        <ele>-12.199999809265</ele>
        <time>2021-07-18T10:21:20.000Z</time>
      </trkpt>
      <trkpt lat="47.26342" lon="-2.31686">
        <ele>-12.199999809265</ele>
        <time>2021-07-18T10:21:21.000Z</time>
      </trkpt>
      <trkpt lat="47.26358" lon="-2.31678">
        <ele>-11.800000190735</ele>
        <time>2021-07-18T10:21:26.000Z</time>
      </trkpt>
      <trkpt lat="47.26361" lon="-2.31677">
        <ele>-11.39999961853</ele>
        <time>2021-07-18T10:21:27.000Z</time>
      </trkpt>
      <trkpt lat="47.26364" lon="-2.31675">
        <ele>-10.800000190735</ele>
        <time>2021-07-18T10:21:28.000Z</time>
      </trkpt>
      <trkpt lat="47.26367" lon="-2.31673">
        <ele>-10.39999961853</ele>
        <time>2021-07-18T10:21:29.000Z</time>
      </trkpt>
      <trkpt lat="47.26371" lon="-2.31672">
        <ele>-10</ele>
        <time>2021-07-18T10:21:30.000Z</time>
      </trkpt>
      <trkpt lat="47.26374" lon="-2.31671">
        <ele>-10</ele>
        <time>2021-07-18T10:21:31.000Z</time>
      </trkpt>
      <trkpt lat="47.26393" lon="-2.3166">
        <ele>-10</ele>
        <time>2021-07-18T10:21:37.000Z</time>
      </trkpt>
      <trkpt lat="47.26407" lon="-2.31652">
        <ele>-10</ele>
        <time>2021-07-18T10:21:43.000Z</time>
      </trkpt>
      <trkpt lat="47.26409" lon="-2.31649">
        <ele>-10</ele>
        <time>2021-07-18T10:21:44.000Z</time>
      </trkpt>
      <trkpt lat="47.2641" lon="-2.31642">
        <ele>-10</ele>
        <time>2021-07-18T10:21:46.000Z</time>
      </trkpt>
      <trkpt lat="47.2641" lon="-2.31629">
        <ele>-10</ele>
        <time>2021-07-18T10:21:49.000Z</time>
      </trkpt>
      <trkpt lat="47.2641" lon="-2.31621">
        <ele>-10</ele>
        <time>2021-07-18T10:21:51.000Z</time>
      </trkpt>
      <trkpt lat="47.2641" lon="-2.316">
        <ele>-9.6000003814697</ele>
        <time>2021-07-18T10:21:56.000Z</time>
      </trkpt>
      <trkpt lat="47.2641" lon="-2.31596">
        <ele>-9.1999998092651</ele>
        <time>2021-07-18T10:21:57.000Z</time>
      </trkpt>
      <trkpt lat="47.2641" lon="-2.31591">
        <ele>-8.8000001907349</ele>
        <time>2021-07-18T10:21:58.000Z</time>
      </trkpt>
      <trkpt lat="47.2641" lon="-2.31588">
        <ele>-8.3999996185303</ele>
        <time>2021-07-18T10:21:59.000Z</time>
      </trkpt>
      <trkpt lat="47.2641" lon="-2.31583">
        <ele>-8</ele>
        <time>2021-07-18T10:22:00.000Z</time>
      </trkpt>
      <trkpt lat="47.2641" lon="-2.31564">
        <ele>-8</ele>
        <time>2021-07-18T10:22:05.000Z</time>
      </trkpt>
      <trkpt lat="47.26411" lon="-2.31556">
        <ele>-8</ele>
        <time>2021-07-18T10:22:07.000Z</time>
      </trkpt>
      <trkpt lat="47.26415" lon="-2.31554">
        <ele>-8</ele>
        <time>2021-07-18T10:22:09.000Z</time>
      </trkpt>
      <trkpt lat="47.26417" lon="-2.31554">
        <ele>-8</ele>
        <time>2021-07-18T10:22:12.000Z</time>
      </trkpt>
    </trkseg>
  </trk>
</gpx>